<?xml version="1.0" encoding="UTF-8" standalone="no" ?>
<gpx xmlns="http://www.topografix.com/GPX/1/1" xmlns:xsi="http://www.w3.org/2001/XMLSchema-instance" xsi:schemaLocation="http://www.topografix.com/GPX/1/1 http://www.topografix.com/GPX/1/1/gpx.xsd" version="1.1" creator="VisuGPX - https://www.visugpx.com">
  <metadata>
    <name>trail des coursières 30 kms</name>
    <desc><![CDATA[superbe ambiance, des bénévoles au top]]></desc>
  </metadata>
  <trk>
    <name><![CDATA[trail des coursieres]]></name>
    <trkseg>
      <trkpt lat="45.66004" lon="4.5596">
        <ele>739</ele>
        <time>2014-01-12T08:02:35Z</time>
      </trkpt>
      <trkpt lat="45.65994" lon="4.55999">
        <ele>735</ele>
        <time>2014-01-12T08:02:47Z</time>
      </trkpt>
      <trkpt lat="45.6599" lon="4.56012">
        <ele>735</ele>
        <time>2014-01-12T08:02:51Z</time>
      </trkpt>
      <trkpt lat="45.65989" lon="4.56025">
        <ele>735</ele>
        <time>2014-01-12T08:02:54Z</time>
      </trkpt>
      <trkpt lat="45.65985" lon="4.56037">
        <ele>735</ele>
        <time>2014-01-12T08:02:57Z</time>
      </trkpt>
      <trkpt lat="45.65982" lon="4.56048">
        <ele>735</ele>
        <time>2014-01-12T08:03:00Z</time>
      </trkpt>
      <trkpt lat="45.6598" lon="4.56059">
        <ele>735</ele>
        <time>2014-01-12T08:03:03Z</time>
      </trkpt>
      <trkpt lat="45.65977" lon="4.56072">
        <ele>735</ele>
        <time>2014-01-12T08:03:06Z</time>
      </trkpt>
      <trkpt lat="45.65974" lon="4.56083">
        <ele>735</ele>
        <time>2014-01-12T08:03:09Z</time>
      </trkpt>
      <trkpt lat="45.65974" lon="4.56101">
        <ele>735</ele>
        <time>2014-01-12T08:03:12Z</time>
      </trkpt>
      <trkpt lat="45.65969" lon="4.5611">
        <ele>734</ele>
        <time>2014-01-12T08:03:15Z</time>
      </trkpt>
      <trkpt lat="45.65966" lon="4.56123">
        <ele>734</ele>
        <time>2014-01-12T08:03:18Z</time>
      </trkpt>
      <trkpt lat="45.65963" lon="4.56134">
        <ele>734</ele>
        <time>2014-01-12T08:03:21Z</time>
      </trkpt>
      <trkpt lat="45.65961" lon="4.56146">
        <ele>733</ele>
        <time>2014-01-12T08:03:24Z</time>
      </trkpt>
      <trkpt lat="45.65958" lon="4.56156">
        <ele>731</ele>
        <time>2014-01-12T08:03:27Z</time>
      </trkpt>
      <trkpt lat="45.65955" lon="4.56167">
        <ele>729</ele>
        <time>2014-01-12T08:03:30Z</time>
      </trkpt>
      <trkpt lat="45.65955" lon="4.5618">
        <ele>728</ele>
        <time>2014-01-12T08:03:33Z</time>
      </trkpt>
      <trkpt lat="45.65952" lon="4.56192">
        <ele>727</ele>
        <time>2014-01-12T08:03:36Z</time>
      </trkpt>
      <trkpt lat="45.6595" lon="4.56204">
        <ele>726</ele>
        <time>2014-01-12T08:03:39Z</time>
      </trkpt>
      <trkpt lat="45.65945" lon="4.56215">
        <ele>725</ele>
        <time>2014-01-12T08:03:42Z</time>
      </trkpt>
      <trkpt lat="45.65942" lon="4.56226">
        <ele>725</ele>
        <time>2014-01-12T08:03:45Z</time>
      </trkpt>
      <trkpt lat="45.65938" lon="4.56237">
        <ele>725</ele>
        <time>2014-01-12T08:03:48Z</time>
      </trkpt>
      <trkpt lat="45.65934" lon="4.56249">
        <ele>725</ele>
        <time>2014-01-12T08:03:51Z</time>
      </trkpt>
      <trkpt lat="45.65931" lon="4.56259">
        <ele>725</ele>
        <time>2014-01-12T08:03:54Z</time>
      </trkpt>
      <trkpt lat="45.65928" lon="4.56269">
        <ele>725</ele>
        <time>2014-01-12T08:03:57Z</time>
      </trkpt>
      <trkpt lat="45.65926" lon="4.56279">
        <ele>725</ele>
        <time>2014-01-12T08:04:00Z</time>
      </trkpt>
      <trkpt lat="45.65923" lon="4.56287">
        <ele>725</ele>
        <time>2014-01-12T08:04:03Z</time>
      </trkpt>
      <trkpt lat="45.65919" lon="4.56296">
        <ele>725</ele>
        <time>2014-01-12T08:04:06Z</time>
      </trkpt>
      <trkpt lat="45.65913" lon="4.56307">
        <ele>725</ele>
        <time>2014-01-12T08:04:09Z</time>
      </trkpt>
      <trkpt lat="45.65911" lon="4.56317">
        <ele>725</ele>
        <time>2014-01-12T08:04:12Z</time>
      </trkpt>
      <trkpt lat="45.6591" lon="4.56331">
        <ele>725</ele>
        <time>2014-01-12T08:04:15Z</time>
      </trkpt>
      <trkpt lat="45.65908" lon="4.56342">
        <ele>725</ele>
        <time>2014-01-12T08:04:18Z</time>
      </trkpt>
      <trkpt lat="45.65904" lon="4.56353">
        <ele>725</ele>
        <time>2014-01-12T08:04:21Z</time>
      </trkpt>
      <trkpt lat="45.65899" lon="4.56365">
        <ele>723</ele>
        <time>2014-01-12T08:04:24Z</time>
      </trkpt>
      <trkpt lat="45.65894" lon="4.56378">
        <ele>723</ele>
        <time>2014-01-12T08:04:27Z</time>
      </trkpt>
      <trkpt lat="45.6589" lon="4.56388">
        <ele>723</ele>
        <time>2014-01-12T08:04:30Z</time>
      </trkpt>
      <trkpt lat="45.65885" lon="4.56394">
        <ele>723</ele>
        <time>2014-01-12T08:04:33Z</time>
      </trkpt>
      <trkpt lat="45.65874" lon="4.56396">
        <ele>723</ele>
        <time>2014-01-12T08:04:37Z</time>
      </trkpt>
      <trkpt lat="45.65865" lon="4.56395">
        <ele>723</ele>
        <time>2014-01-12T08:04:40Z</time>
      </trkpt>
      <trkpt lat="45.65856" lon="4.56394">
        <ele>723</ele>
        <time>2014-01-12T08:04:43Z</time>
      </trkpt>
      <trkpt lat="45.65847" lon="4.56392">
        <ele>723</ele>
        <time>2014-01-12T08:04:46Z</time>
      </trkpt>
      <trkpt lat="45.65839" lon="4.56389">
        <ele>723</ele>
        <time>2014-01-12T08:04:49Z</time>
      </trkpt>
      <trkpt lat="45.65831" lon="4.56386">
        <ele>723</ele>
        <time>2014-01-12T08:04:52Z</time>
      </trkpt>
      <trkpt lat="45.65823" lon="4.56382">
        <ele>723</ele>
        <time>2014-01-12T08:04:55Z</time>
      </trkpt>
      <trkpt lat="45.65814" lon="4.56378">
        <ele>723</ele>
        <time>2014-01-12T08:04:58Z</time>
      </trkpt>
      <trkpt lat="45.65807" lon="4.56373">
        <ele>723</ele>
        <time>2014-01-12T08:05:01Z</time>
      </trkpt>
      <trkpt lat="45.65799" lon="4.56369">
        <ele>723</ele>
        <time>2014-01-12T08:05:04Z</time>
      </trkpt>
      <trkpt lat="45.65791" lon="4.56365">
        <ele>723</ele>
        <time>2014-01-12T08:05:07Z</time>
      </trkpt>
      <trkpt lat="45.65783" lon="4.56361">
        <ele>723</ele>
        <time>2014-01-12T08:05:10Z</time>
      </trkpt>
      <trkpt lat="45.65776" lon="4.56357">
        <ele>723</ele>
        <time>2014-01-12T08:05:13Z</time>
      </trkpt>
      <trkpt lat="45.65767" lon="4.56354">
        <ele>723</ele>
        <time>2014-01-12T08:05:16Z</time>
      </trkpt>
      <trkpt lat="45.6576" lon="4.5635">
        <ele>723</ele>
        <time>2014-01-12T08:05:19Z</time>
      </trkpt>
      <trkpt lat="45.65753" lon="4.56344">
        <ele>723</ele>
        <time>2014-01-12T08:05:22Z</time>
      </trkpt>
      <trkpt lat="45.65747" lon="4.56336">
        <ele>723</ele>
        <time>2014-01-12T08:05:25Z</time>
      </trkpt>
      <trkpt lat="45.65742" lon="4.56326">
        <ele>723</ele>
        <time>2014-01-12T08:05:28Z</time>
      </trkpt>
      <trkpt lat="45.65736" lon="4.56315">
        <ele>723</ele>
        <time>2014-01-12T08:05:31Z</time>
      </trkpt>
      <trkpt lat="45.65731" lon="4.56304">
        <ele>723</ele>
        <time>2014-01-12T08:05:34Z</time>
      </trkpt>
      <trkpt lat="45.65725" lon="4.56294">
        <ele>723</ele>
        <time>2014-01-12T08:05:37Z</time>
      </trkpt>
      <trkpt lat="45.65718" lon="4.56285">
        <ele>723</ele>
        <time>2014-01-12T08:05:40Z</time>
      </trkpt>
      <trkpt lat="45.65712" lon="4.56276">
        <ele>723</ele>
        <time>2014-01-12T08:05:43Z</time>
      </trkpt>
      <trkpt lat="45.65705" lon="4.56266">
        <ele>723</ele>
        <time>2014-01-12T08:05:46Z</time>
      </trkpt>
      <trkpt lat="45.65699" lon="4.56257">
        <ele>723</ele>
        <time>2014-01-12T08:05:49Z</time>
      </trkpt>
      <trkpt lat="45.65693" lon="4.5625">
        <ele>723</ele>
        <time>2014-01-12T08:05:52Z</time>
      </trkpt>
      <trkpt lat="45.65687" lon="4.56241">
        <ele>723</ele>
        <time>2014-01-12T08:05:55Z</time>
      </trkpt>
      <trkpt lat="45.65681" lon="4.56233">
        <ele>723</ele>
        <time>2014-01-12T08:05:58Z</time>
      </trkpt>
      <trkpt lat="45.65674" lon="4.56224">
        <ele>723</ele>
        <time>2014-01-12T08:06:01Z</time>
      </trkpt>
      <trkpt lat="45.65667" lon="4.56215">
        <ele>723</ele>
        <time>2014-01-12T08:06:04Z</time>
      </trkpt>
      <trkpt lat="45.65661" lon="4.56206">
        <ele>723</ele>
        <time>2014-01-12T08:06:07Z</time>
      </trkpt>
      <trkpt lat="45.65653" lon="4.56198">
        <ele>723</ele>
        <time>2014-01-12T08:06:10Z</time>
      </trkpt>
      <trkpt lat="45.65645" lon="4.56192">
        <ele>723</ele>
        <time>2014-01-12T08:06:13Z</time>
      </trkpt>
      <trkpt lat="45.65638" lon="4.56185">
        <ele>722</ele>
        <time>2014-01-12T08:06:16Z</time>
      </trkpt>
      <trkpt lat="45.65631" lon="4.5618">
        <ele>722</ele>
        <time>2014-01-12T08:06:19Z</time>
      </trkpt>
      <trkpt lat="45.65623" lon="4.56174">
        <ele>722</ele>
        <time>2014-01-12T08:06:22Z</time>
      </trkpt>
      <trkpt lat="45.65616" lon="4.56168">
        <ele>722</ele>
        <time>2014-01-12T08:06:25Z</time>
      </trkpt>
      <trkpt lat="45.65607" lon="4.56162">
        <ele>722</ele>
        <time>2014-01-12T08:06:28Z</time>
      </trkpt>
      <trkpt lat="45.65599" lon="4.56156">
        <ele>722</ele>
        <time>2014-01-12T08:06:31Z</time>
      </trkpt>
      <trkpt lat="45.65591" lon="4.56151">
        <ele>722</ele>
        <time>2014-01-12T08:06:34Z</time>
      </trkpt>
      <trkpt lat="45.65585" lon="4.56144">
        <ele>722</ele>
        <time>2014-01-12T08:06:37Z</time>
      </trkpt>
      <trkpt lat="45.65577" lon="4.56133">
        <ele>722</ele>
        <time>2014-01-12T08:06:41Z</time>
      </trkpt>
      <trkpt lat="45.65571" lon="4.56123">
        <ele>722</ele>
        <time>2014-01-12T08:06:44Z</time>
      </trkpt>
      <trkpt lat="45.65567" lon="4.56112">
        <ele>722</ele>
        <time>2014-01-12T08:06:47Z</time>
      </trkpt>
      <trkpt lat="45.65564" lon="4.56101">
        <ele>722</ele>
        <time>2014-01-12T08:06:50Z</time>
      </trkpt>
      <trkpt lat="45.65561" lon="4.5609">
        <ele>722</ele>
        <time>2014-01-12T08:06:53Z</time>
      </trkpt>
      <trkpt lat="45.65559" lon="4.56079">
        <ele>722</ele>
        <time>2014-01-12T08:06:56Z</time>
      </trkpt>
      <trkpt lat="45.65558" lon="4.56069">
        <ele>722</ele>
        <time>2014-01-12T08:06:59Z</time>
      </trkpt>
      <trkpt lat="45.65556" lon="4.56061">
        <ele>722</ele>
        <time>2014-01-12T08:07:02Z</time>
      </trkpt>
      <trkpt lat="45.65555" lon="4.56052">
        <ele>722</ele>
        <time>2014-01-12T08:07:05Z</time>
      </trkpt>
      <trkpt lat="45.65554" lon="4.56042">
        <ele>722</ele>
        <time>2014-01-12T08:07:08Z</time>
      </trkpt>
      <trkpt lat="45.65554" lon="4.5603">
        <ele>722</ele>
        <time>2014-01-12T08:07:11Z</time>
      </trkpt>
      <trkpt lat="45.65556" lon="4.56019">
        <ele>722</ele>
        <time>2014-01-12T08:07:14Z</time>
      </trkpt>
      <trkpt lat="45.65556" lon="4.56008">
        <ele>722</ele>
        <time>2014-01-12T08:07:17Z</time>
      </trkpt>
      <trkpt lat="45.65557" lon="4.55997">
        <ele>722</ele>
        <time>2014-01-12T08:07:20Z</time>
      </trkpt>
      <trkpt lat="45.65557" lon="4.55986">
        <ele>722</ele>
        <time>2014-01-12T08:07:23Z</time>
      </trkpt>
      <trkpt lat="45.65556" lon="4.55974">
        <ele>722</ele>
        <time>2014-01-12T08:07:26Z</time>
      </trkpt>
      <trkpt lat="45.65554" lon="4.55962">
        <ele>722</ele>
        <time>2014-01-12T08:07:29Z</time>
      </trkpt>
      <trkpt lat="45.65552" lon="4.55952">
        <ele>722</ele>
        <time>2014-01-12T08:07:32Z</time>
      </trkpt>
      <trkpt lat="45.6555" lon="4.55942">
        <ele>722</ele>
        <time>2014-01-12T08:07:35Z</time>
      </trkpt>
      <trkpt lat="45.65548" lon="4.55933">
        <ele>723</ele>
        <time>2014-01-12T08:07:38Z</time>
      </trkpt>
      <trkpt lat="45.65545" lon="4.55923">
        <ele>724</ele>
        <time>2014-01-12T08:07:41Z</time>
      </trkpt>
      <trkpt lat="45.65541" lon="4.55914">
        <ele>726</ele>
        <time>2014-01-12T08:07:44Z</time>
      </trkpt>
      <trkpt lat="45.65539" lon="4.55904">
        <ele>727</ele>
        <time>2014-01-12T08:07:47Z</time>
      </trkpt>
      <trkpt lat="45.65536" lon="4.55895">
        <ele>727</ele>
        <time>2014-01-12T08:07:50Z</time>
      </trkpt>
      <trkpt lat="45.65533" lon="4.55886">
        <ele>728</ele>
        <time>2014-01-12T08:07:53Z</time>
      </trkpt>
      <trkpt lat="45.65528" lon="4.55877">
        <ele>729</ele>
        <time>2014-01-12T08:07:56Z</time>
      </trkpt>
      <trkpt lat="45.65523" lon="4.5587">
        <ele>730</ele>
        <time>2014-01-12T08:07:59Z</time>
      </trkpt>
      <trkpt lat="45.65517" lon="4.55862">
        <ele>731</ele>
        <time>2014-01-12T08:08:02Z</time>
      </trkpt>
      <trkpt lat="45.65511" lon="4.55855">
        <ele>732</ele>
        <time>2014-01-12T08:08:05Z</time>
      </trkpt>
      <trkpt lat="45.65504" lon="4.55849">
        <ele>733</ele>
        <time>2014-01-12T08:08:08Z</time>
      </trkpt>
      <trkpt lat="45.65499" lon="4.55843">
        <ele>733</ele>
        <time>2014-01-12T08:08:11Z</time>
      </trkpt>
      <trkpt lat="45.65493" lon="4.55838">
        <ele>734</ele>
        <time>2014-01-12T08:08:14Z</time>
      </trkpt>
      <trkpt lat="45.65487" lon="4.55833">
        <ele>735</ele>
        <time>2014-01-12T08:08:17Z</time>
      </trkpt>
      <trkpt lat="45.6548" lon="4.55827">
        <ele>735</ele>
        <time>2014-01-12T08:08:20Z</time>
      </trkpt>
      <trkpt lat="45.65474" lon="4.55821">
        <ele>736</ele>
        <time>2014-01-12T08:08:23Z</time>
      </trkpt>
      <trkpt lat="45.65469" lon="4.55815">
        <ele>736</ele>
        <time>2014-01-12T08:08:26Z</time>
      </trkpt>
      <trkpt lat="45.65462" lon="4.55809">
        <ele>736</ele>
        <time>2014-01-12T08:08:29Z</time>
      </trkpt>
      <trkpt lat="45.65455" lon="4.55802">
        <ele>737</ele>
        <time>2014-01-12T08:08:32Z</time>
      </trkpt>
      <trkpt lat="45.65448" lon="4.55796">
        <ele>737</ele>
        <time>2014-01-12T08:08:35Z</time>
      </trkpt>
      <trkpt lat="45.65441" lon="4.55789">
        <ele>737</ele>
        <time>2014-01-12T08:08:38Z</time>
      </trkpt>
      <trkpt lat="45.65435" lon="4.55782">
        <ele>737</ele>
        <time>2014-01-12T08:08:41Z</time>
      </trkpt>
      <trkpt lat="45.65429" lon="4.55775">
        <ele>737</ele>
        <time>2014-01-12T08:08:44Z</time>
      </trkpt>
      <trkpt lat="45.65422" lon="4.5577">
        <ele>737</ele>
        <time>2014-01-12T08:08:47Z</time>
      </trkpt>
      <trkpt lat="45.65417" lon="4.55763">
        <ele>737</ele>
        <time>2014-01-12T08:08:50Z</time>
      </trkpt>
      <trkpt lat="45.65411" lon="4.55758">
        <ele>737</ele>
        <time>2014-01-12T08:08:53Z</time>
      </trkpt>
      <trkpt lat="45.65405" lon="4.55753">
        <ele>737</ele>
        <time>2014-01-12T08:08:56Z</time>
      </trkpt>
      <trkpt lat="45.65399" lon="4.55747">
        <ele>738</ele>
        <time>2014-01-12T08:08:59Z</time>
      </trkpt>
      <trkpt lat="45.65392" lon="4.5574">
        <ele>738</ele>
        <time>2014-01-12T08:09:02Z</time>
      </trkpt>
      <trkpt lat="45.65388" lon="4.55733">
        <ele>738</ele>
        <time>2014-01-12T08:09:05Z</time>
      </trkpt>
      <trkpt lat="45.65385" lon="4.55726">
        <ele>738</ele>
        <time>2014-01-12T08:09:08Z</time>
      </trkpt>
      <trkpt lat="45.65381" lon="4.5572">
        <ele>738</ele>
        <time>2014-01-12T08:09:11Z</time>
      </trkpt>
      <trkpt lat="45.65376" lon="4.55713">
        <ele>738</ele>
        <time>2014-01-12T08:09:14Z</time>
      </trkpt>
      <trkpt lat="45.65371" lon="4.55706">
        <ele>738</ele>
        <time>2014-01-12T08:09:17Z</time>
      </trkpt>
      <trkpt lat="45.65366" lon="4.55698">
        <ele>738</ele>
        <time>2014-01-12T08:09:20Z</time>
      </trkpt>
      <trkpt lat="45.6536" lon="4.5569">
        <ele>738</ele>
        <time>2014-01-12T08:09:23Z</time>
      </trkpt>
      <trkpt lat="45.65356" lon="4.55684">
        <ele>738</ele>
        <time>2014-01-12T08:09:26Z</time>
      </trkpt>
      <trkpt lat="45.65351" lon="4.55677">
        <ele>738</ele>
        <time>2014-01-12T08:09:29Z</time>
      </trkpt>
      <trkpt lat="45.65346" lon="4.55669">
        <ele>738</ele>
        <time>2014-01-12T08:09:32Z</time>
      </trkpt>
      <trkpt lat="45.65342" lon="4.55662">
        <ele>738</ele>
        <time>2014-01-12T08:09:35Z</time>
      </trkpt>
      <trkpt lat="45.65337" lon="4.55654">
        <ele>738</ele>
        <time>2014-01-12T08:09:38Z</time>
      </trkpt>
      <trkpt lat="45.65333" lon="4.55645">
        <ele>738</ele>
        <time>2014-01-12T08:09:41Z</time>
      </trkpt>
      <trkpt lat="45.65329" lon="4.55635">
        <ele>738</ele>
        <time>2014-01-12T08:09:44Z</time>
      </trkpt>
      <trkpt lat="45.65326" lon="4.55629">
        <ele>738</ele>
        <time>2014-01-12T08:09:47Z</time>
      </trkpt>
      <trkpt lat="45.65322" lon="4.55621">
        <ele>738</ele>
        <time>2014-01-12T08:09:50Z</time>
      </trkpt>
      <trkpt lat="45.65319" lon="4.55612">
        <ele>738</ele>
        <time>2014-01-12T08:09:53Z</time>
      </trkpt>
      <trkpt lat="45.65314" lon="4.55603">
        <ele>738</ele>
        <time>2014-01-12T08:09:56Z</time>
      </trkpt>
      <trkpt lat="45.65308" lon="4.55594">
        <ele>737</ele>
        <time>2014-01-12T08:09:59Z</time>
      </trkpt>
      <trkpt lat="45.65303" lon="4.55586">
        <ele>737</ele>
        <time>2014-01-12T08:10:02Z</time>
      </trkpt>
      <trkpt lat="45.65297" lon="4.55579">
        <ele>737</ele>
        <time>2014-01-12T08:10:05Z</time>
      </trkpt>
      <trkpt lat="45.65291" lon="4.55572">
        <ele>737</ele>
        <time>2014-01-12T08:10:08Z</time>
      </trkpt>
      <trkpt lat="45.65286" lon="4.55564">
        <ele>736</ele>
        <time>2014-01-12T08:10:11Z</time>
      </trkpt>
      <trkpt lat="45.65279" lon="4.55556">
        <ele>736</ele>
        <time>2014-01-12T08:10:14Z</time>
      </trkpt>
      <trkpt lat="45.65273" lon="4.55548">
        <ele>735</ele>
        <time>2014-01-12T08:10:17Z</time>
      </trkpt>
      <trkpt lat="45.65268" lon="4.55541">
        <ele>735</ele>
        <time>2014-01-12T08:10:20Z</time>
      </trkpt>
      <trkpt lat="45.65263" lon="4.55533">
        <ele>735</ele>
        <time>2014-01-12T08:10:23Z</time>
      </trkpt>
      <trkpt lat="45.65257" lon="4.55525">
        <ele>734</ele>
        <time>2014-01-12T08:10:26Z</time>
      </trkpt>
      <trkpt lat="45.65252" lon="4.55518">
        <ele>734</ele>
        <time>2014-01-12T08:10:29Z</time>
      </trkpt>
      <trkpt lat="45.65246" lon="4.5551">
        <ele>734</ele>
        <time>2014-01-12T08:10:32Z</time>
      </trkpt>
      <trkpt lat="45.65241" lon="4.55503">
        <ele>734</ele>
        <time>2014-01-12T08:10:35Z</time>
      </trkpt>
      <trkpt lat="45.65234" lon="4.55495">
        <ele>734</ele>
        <time>2014-01-12T08:10:38Z</time>
      </trkpt>
      <trkpt lat="45.65227" lon="4.5549">
        <ele>734</ele>
        <time>2014-01-12T08:10:41Z</time>
      </trkpt>
      <trkpt lat="45.6522" lon="4.55486">
        <ele>734</ele>
        <time>2014-01-12T08:10:44Z</time>
      </trkpt>
      <trkpt lat="45.65214" lon="4.55484">
        <ele>734</ele>
        <time>2014-01-12T08:10:47Z</time>
      </trkpt>
      <trkpt lat="45.65206" lon="4.5548">
        <ele>734</ele>
        <time>2014-01-12T08:10:50Z</time>
      </trkpt>
      <trkpt lat="45.652" lon="4.55478">
        <ele>734</ele>
        <time>2014-01-12T08:10:53Z</time>
      </trkpt>
      <trkpt lat="45.65193" lon="4.55477">
        <ele>734</ele>
        <time>2014-01-12T08:10:56Z</time>
      </trkpt>
      <trkpt lat="45.65186" lon="4.55475">
        <ele>734</ele>
        <time>2014-01-12T08:10:59Z</time>
      </trkpt>
      <trkpt lat="45.65179" lon="4.55474">
        <ele>734</ele>
        <time>2014-01-12T08:11:02Z</time>
      </trkpt>
      <trkpt lat="45.65172" lon="4.55471">
        <ele>734</ele>
        <time>2014-01-12T08:11:05Z</time>
      </trkpt>
      <trkpt lat="45.65165" lon="4.55468">
        <ele>734</ele>
        <time>2014-01-12T08:11:08Z</time>
      </trkpt>
      <trkpt lat="45.65159" lon="4.55463">
        <ele>735</ele>
        <time>2014-01-12T08:11:11Z</time>
      </trkpt>
      <trkpt lat="45.65156" lon="4.55461">
        <ele>735</ele>
        <time>2014-01-12T08:11:14Z</time>
      </trkpt>
      <trkpt lat="45.65155" lon="4.5546">
        <ele>735</ele>
        <time>2014-01-12T08:11:17Z</time>
      </trkpt>
      <trkpt lat="45.65152" lon="4.55458">
        <ele>735</ele>
        <time>2014-01-12T08:11:21Z</time>
      </trkpt>
      <trkpt lat="45.65148" lon="4.55455">
        <ele>735</ele>
        <time>2014-01-12T08:11:25Z</time>
      </trkpt>
      <trkpt lat="45.65142" lon="4.5545">
        <ele>735</ele>
        <time>2014-01-12T08:11:28Z</time>
      </trkpt>
      <trkpt lat="45.65134" lon="4.55446">
        <ele>735</ele>
        <time>2014-01-12T08:11:31Z</time>
      </trkpt>
      <trkpt lat="45.65127" lon="4.55442">
        <ele>735</ele>
        <time>2014-01-12T08:11:34Z</time>
      </trkpt>
      <trkpt lat="45.6512" lon="4.55436">
        <ele>735</ele>
        <time>2014-01-12T08:11:37Z</time>
      </trkpt>
      <trkpt lat="45.65112" lon="4.5543">
        <ele>735</ele>
        <time>2014-01-12T08:11:40Z</time>
      </trkpt>
      <trkpt lat="45.65106" lon="4.55423">
        <ele>735</ele>
        <time>2014-01-12T08:11:43Z</time>
      </trkpt>
      <trkpt lat="45.65099" lon="4.55416">
        <ele>735</ele>
        <time>2014-01-12T08:11:46Z</time>
      </trkpt>
      <trkpt lat="45.65094" lon="4.55408">
        <ele>735</ele>
        <time>2014-01-12T08:11:49Z</time>
      </trkpt>
      <trkpt lat="45.65088" lon="4.554">
        <ele>735</ele>
        <time>2014-01-12T08:11:52Z</time>
      </trkpt>
      <trkpt lat="45.65083" lon="4.55391">
        <ele>735</ele>
        <time>2014-01-12T08:11:55Z</time>
      </trkpt>
      <trkpt lat="45.65078" lon="4.55381">
        <ele>735</ele>
        <time>2014-01-12T08:11:58Z</time>
      </trkpt>
      <trkpt lat="45.65074" lon="4.5537">
        <ele>735</ele>
        <time>2014-01-12T08:12:01Z</time>
      </trkpt>
      <trkpt lat="45.6507" lon="4.55359">
        <ele>735</ele>
        <time>2014-01-12T08:12:04Z</time>
      </trkpt>
      <trkpt lat="45.65067" lon="4.55349">
        <ele>735</ele>
        <time>2014-01-12T08:12:07Z</time>
      </trkpt>
      <trkpt lat="45.65064" lon="4.55338">
        <ele>735</ele>
        <time>2014-01-12T08:12:10Z</time>
      </trkpt>
      <trkpt lat="45.65061" lon="4.55327">
        <ele>735</ele>
        <time>2014-01-12T08:12:13Z</time>
      </trkpt>
      <trkpt lat="45.65058" lon="4.55315">
        <ele>735</ele>
        <time>2014-01-12T08:12:16Z</time>
      </trkpt>
      <trkpt lat="45.65055" lon="4.55305">
        <ele>735</ele>
        <time>2014-01-12T08:12:19Z</time>
      </trkpt>
      <trkpt lat="45.65049" lon="4.55292">
        <ele>735</ele>
        <time>2014-01-12T08:12:22Z</time>
      </trkpt>
      <trkpt lat="45.65044" lon="4.55281">
        <ele>735</ele>
        <time>2014-01-12T08:12:25Z</time>
      </trkpt>
      <trkpt lat="45.65037" lon="4.55271">
        <ele>735</ele>
        <time>2014-01-12T08:12:28Z</time>
      </trkpt>
      <trkpt lat="45.65031" lon="4.55263">
        <ele>735</ele>
        <time>2014-01-12T08:12:31Z</time>
      </trkpt>
      <trkpt lat="45.65026" lon="4.55256">
        <ele>735</ele>
        <time>2014-01-12T08:12:34Z</time>
      </trkpt>
      <trkpt lat="45.65019" lon="4.5525">
        <ele>735</ele>
        <time>2014-01-12T08:12:37Z</time>
      </trkpt>
      <trkpt lat="45.65013" lon="4.55244">
        <ele>735</ele>
        <time>2014-01-12T08:12:40Z</time>
      </trkpt>
      <trkpt lat="45.65004" lon="4.55236">
        <ele>735</ele>
        <time>2014-01-12T08:12:44Z</time>
      </trkpt>
      <trkpt lat="45.64997" lon="4.55231">
        <ele>735</ele>
        <time>2014-01-12T08:12:47Z</time>
      </trkpt>
      <trkpt lat="45.64992" lon="4.55224">
        <ele>735</ele>
        <time>2014-01-12T08:12:50Z</time>
      </trkpt>
      <trkpt lat="45.64988" lon="4.55214">
        <ele>735</ele>
        <time>2014-01-12T08:12:53Z</time>
      </trkpt>
      <trkpt lat="45.64985" lon="4.55204">
        <ele>735</ele>
        <time>2014-01-12T08:12:56Z</time>
      </trkpt>
      <trkpt lat="45.64982" lon="4.55195">
        <ele>735</ele>
        <time>2014-01-12T08:12:59Z</time>
      </trkpt>
      <trkpt lat="45.64979" lon="4.55185">
        <ele>735</ele>
        <time>2014-01-12T08:13:02Z</time>
      </trkpt>
      <trkpt lat="45.64977" lon="4.55176">
        <ele>735</ele>
        <time>2014-01-12T08:13:05Z</time>
      </trkpt>
      <trkpt lat="45.64976" lon="4.55165">
        <ele>735</ele>
        <time>2014-01-12T08:13:08Z</time>
      </trkpt>
      <trkpt lat="45.64974" lon="4.55154">
        <ele>735</ele>
        <time>2014-01-12T08:13:11Z</time>
      </trkpt>
      <trkpt lat="45.6497" lon="4.55143">
        <ele>735</ele>
        <time>2014-01-12T08:13:14Z</time>
      </trkpt>
      <trkpt lat="45.64967" lon="4.55131">
        <ele>735</ele>
        <time>2014-01-12T08:13:17Z</time>
      </trkpt>
      <trkpt lat="45.64962" lon="4.5512">
        <ele>734</ele>
        <time>2014-01-12T08:13:20Z</time>
      </trkpt>
      <trkpt lat="45.64958" lon="4.55108">
        <ele>733</ele>
        <time>2014-01-12T08:13:23Z</time>
      </trkpt>
      <trkpt lat="45.64954" lon="4.55097">
        <ele>732</ele>
        <time>2014-01-12T08:13:26Z</time>
      </trkpt>
      <trkpt lat="45.6495" lon="4.55087">
        <ele>730</ele>
        <time>2014-01-12T08:13:29Z</time>
      </trkpt>
      <trkpt lat="45.64946" lon="4.55077">
        <ele>728</ele>
        <time>2014-01-12T08:13:32Z</time>
      </trkpt>
      <trkpt lat="45.64939" lon="4.55068">
        <ele>726</ele>
        <time>2014-01-12T08:13:35Z</time>
      </trkpt>
      <trkpt lat="45.64931" lon="4.55062">
        <ele>724</ele>
        <time>2014-01-12T08:13:38Z</time>
      </trkpt>
      <trkpt lat="45.64924" lon="4.55054">
        <ele>723</ele>
        <time>2014-01-12T08:13:41Z</time>
      </trkpt>
      <trkpt lat="45.64919" lon="4.55041">
        <ele>721</ele>
        <time>2014-01-12T08:13:44Z</time>
      </trkpt>
      <trkpt lat="45.64917" lon="4.55025">
        <ele>720</ele>
        <time>2014-01-12T08:13:47Z</time>
      </trkpt>
      <trkpt lat="45.64917" lon="4.55011">
        <ele>719</ele>
        <time>2014-01-12T08:13:50Z</time>
      </trkpt>
      <trkpt lat="45.64918" lon="4.54996">
        <ele>717</ele>
        <time>2014-01-12T08:13:53Z</time>
      </trkpt>
      <trkpt lat="45.6492" lon="4.54982">
        <ele>716</ele>
        <time>2014-01-12T08:13:56Z</time>
      </trkpt>
      <trkpt lat="45.64921" lon="4.54965">
        <ele>715</ele>
        <time>2014-01-12T08:13:59Z</time>
      </trkpt>
      <trkpt lat="45.64922" lon="4.54949">
        <ele>714</ele>
        <time>2014-01-12T08:14:02Z</time>
      </trkpt>
      <trkpt lat="45.64926" lon="4.54935">
        <ele>712</ele>
        <time>2014-01-12T08:14:05Z</time>
      </trkpt>
      <trkpt lat="45.64929" lon="4.54922">
        <ele>711</ele>
        <time>2014-01-12T08:14:08Z</time>
      </trkpt>
      <trkpt lat="45.6493" lon="4.54909">
        <ele>709</ele>
        <time>2014-01-12T08:14:11Z</time>
      </trkpt>
      <trkpt lat="45.64932" lon="4.54898">
        <ele>707</ele>
        <time>2014-01-12T08:14:14Z</time>
      </trkpt>
      <trkpt lat="45.6493" lon="4.54885">
        <ele>704</ele>
        <time>2014-01-12T08:14:17Z</time>
      </trkpt>
      <trkpt lat="45.64928" lon="4.54873">
        <ele>702</ele>
        <time>2014-01-12T08:14:20Z</time>
      </trkpt>
      <trkpt lat="45.64925" lon="4.54859">
        <ele>701</ele>
        <time>2014-01-12T08:14:23Z</time>
      </trkpt>
      <trkpt lat="45.64923" lon="4.54846">
        <ele>700</ele>
        <time>2014-01-12T08:14:26Z</time>
      </trkpt>
      <trkpt lat="45.64924" lon="4.54836">
        <ele>699</ele>
        <time>2014-01-12T08:14:29Z</time>
      </trkpt>
      <trkpt lat="45.64918" lon="4.54822">
        <ele>699</ele>
        <time>2014-01-12T08:14:32Z</time>
      </trkpt>
      <trkpt lat="45.64912" lon="4.54809">
        <ele>699</ele>
        <time>2014-01-12T08:14:35Z</time>
      </trkpt>
      <trkpt lat="45.64905" lon="4.54799">
        <ele>699</ele>
        <time>2014-01-12T08:14:38Z</time>
      </trkpt>
      <trkpt lat="45.64899" lon="4.54788">
        <ele>699</ele>
        <time>2014-01-12T08:14:41Z</time>
      </trkpt>
      <trkpt lat="45.64893" lon="4.54778">
        <ele>699</ele>
        <time>2014-01-12T08:14:44Z</time>
      </trkpt>
      <trkpt lat="45.64887" lon="4.54767">
        <ele>698</ele>
        <time>2014-01-12T08:14:47Z</time>
      </trkpt>
      <trkpt lat="45.64884" lon="4.54755">
        <ele>697</ele>
        <time>2014-01-12T08:14:50Z</time>
      </trkpt>
      <trkpt lat="45.64882" lon="4.54744">
        <ele>696</ele>
        <time>2014-01-12T08:14:53Z</time>
      </trkpt>
      <trkpt lat="45.6488" lon="4.54731">
        <ele>695</ele>
        <time>2014-01-12T08:14:56Z</time>
      </trkpt>
      <trkpt lat="45.64879" lon="4.54718">
        <ele>693</ele>
        <time>2014-01-12T08:14:59Z</time>
      </trkpt>
      <trkpt lat="45.64877" lon="4.54707">
        <ele>692</ele>
        <time>2014-01-12T08:15:02Z</time>
      </trkpt>
      <trkpt lat="45.64878" lon="4.54696">
        <ele>691</ele>
        <time>2014-01-12T08:15:05Z</time>
      </trkpt>
      <trkpt lat="45.64881" lon="4.54685">
        <ele>689</ele>
        <time>2014-01-12T08:15:08Z</time>
      </trkpt>
      <trkpt lat="45.64885" lon="4.54678">
        <ele>688</ele>
        <time>2014-01-12T08:15:11Z</time>
      </trkpt>
      <trkpt lat="45.64885" lon="4.54667">
        <ele>687</ele>
        <time>2014-01-12T08:15:14Z</time>
      </trkpt>
      <trkpt lat="45.64882" lon="4.54652">
        <ele>687</ele>
        <time>2014-01-12T08:15:18Z</time>
      </trkpt>
      <trkpt lat="45.64879" lon="4.5464">
        <ele>687</ele>
        <time>2014-01-12T08:15:21Z</time>
      </trkpt>
      <trkpt lat="45.64875" lon="4.54625">
        <ele>687</ele>
        <time>2014-01-12T08:15:25Z</time>
      </trkpt>
      <trkpt lat="45.64874" lon="4.54614">
        <ele>686</ele>
        <time>2014-01-12T08:15:28Z</time>
      </trkpt>
      <trkpt lat="45.64872" lon="4.54602">
        <ele>686</ele>
        <time>2014-01-12T08:15:31Z</time>
      </trkpt>
      <trkpt lat="45.64869" lon="4.54589">
        <ele>685</ele>
        <time>2014-01-12T08:15:34Z</time>
      </trkpt>
      <trkpt lat="45.64864" lon="4.54577">
        <ele>684</ele>
        <time>2014-01-12T08:15:37Z</time>
      </trkpt>
      <trkpt lat="45.6486" lon="4.54564">
        <ele>684</ele>
        <time>2014-01-12T08:15:40Z</time>
      </trkpt>
      <trkpt lat="45.64856" lon="4.5455">
        <ele>683</ele>
        <time>2014-01-12T08:15:43Z</time>
      </trkpt>
      <trkpt lat="45.64852" lon="4.54536">
        <ele>683</ele>
        <time>2014-01-12T08:15:46Z</time>
      </trkpt>
      <trkpt lat="45.6485" lon="4.54525">
        <ele>683</ele>
        <time>2014-01-12T08:15:49Z</time>
      </trkpt>
      <trkpt lat="45.64846" lon="4.54513">
        <ele>683</ele>
        <time>2014-01-12T08:15:52Z</time>
      </trkpt>
      <trkpt lat="45.64841" lon="4.545">
        <ele>683</ele>
        <time>2014-01-12T08:15:55Z</time>
      </trkpt>
      <trkpt lat="45.64837" lon="4.5449">
        <ele>683</ele>
        <time>2014-01-12T08:15:58Z</time>
      </trkpt>
      <trkpt lat="45.64833" lon="4.5448">
        <ele>682</ele>
        <time>2014-01-12T08:16:01Z</time>
      </trkpt>
      <trkpt lat="45.64831" lon="4.54469">
        <ele>681</ele>
        <time>2014-01-12T08:16:04Z</time>
      </trkpt>
      <trkpt lat="45.64828" lon="4.54458">
        <ele>680</ele>
        <time>2014-01-12T08:16:07Z</time>
      </trkpt>
      <trkpt lat="45.64823" lon="4.54446">
        <ele>679</ele>
        <time>2014-01-12T08:16:10Z</time>
      </trkpt>
      <trkpt lat="45.64819" lon="4.54435">
        <ele>678</ele>
        <time>2014-01-12T08:16:13Z</time>
      </trkpt>
      <trkpt lat="45.64816" lon="4.54425">
        <ele>677</ele>
        <time>2014-01-12T08:16:16Z</time>
      </trkpt>
      <trkpt lat="45.64812" lon="4.54414">
        <ele>676</ele>
        <time>2014-01-12T08:16:19Z</time>
      </trkpt>
      <trkpt lat="45.64809" lon="4.54404">
        <ele>675</ele>
        <time>2014-01-12T08:16:22Z</time>
      </trkpt>
      <trkpt lat="45.64805" lon="4.54393">
        <ele>674</ele>
        <time>2014-01-12T08:16:25Z</time>
      </trkpt>
      <trkpt lat="45.64801" lon="4.54382">
        <ele>674</ele>
        <time>2014-01-12T08:16:28Z</time>
      </trkpt>
      <trkpt lat="45.64797" lon="4.5437">
        <ele>674</ele>
        <time>2014-01-12T08:16:31Z</time>
      </trkpt>
      <trkpt lat="45.64791" lon="4.54358">
        <ele>674</ele>
        <time>2014-01-12T08:16:34Z</time>
      </trkpt>
      <trkpt lat="45.64787" lon="4.54349">
        <ele>674</ele>
        <time>2014-01-12T08:16:37Z</time>
      </trkpt>
      <trkpt lat="45.64786" lon="4.5434">
        <ele>674</ele>
        <time>2014-01-12T08:16:40Z</time>
      </trkpt>
      <trkpt lat="45.64783" lon="4.5433">
        <ele>674</ele>
        <time>2014-01-12T08:16:43Z</time>
      </trkpt>
      <trkpt lat="45.64779" lon="4.54316">
        <ele>674</ele>
        <time>2014-01-12T08:16:47Z</time>
      </trkpt>
      <trkpt lat="45.64775" lon="4.54305">
        <ele>674</ele>
        <time>2014-01-12T08:16:50Z</time>
      </trkpt>
      <trkpt lat="45.64771" lon="4.54293">
        <ele>674</ele>
        <time>2014-01-12T08:16:53Z</time>
      </trkpt>
      <trkpt lat="45.64763" lon="4.54284">
        <ele>674</ele>
        <time>2014-01-12T08:16:56Z</time>
      </trkpt>
      <trkpt lat="45.64754" lon="4.54279">
        <ele>674</ele>
        <time>2014-01-12T08:16:59Z</time>
      </trkpt>
      <trkpt lat="45.64747" lon="4.54271">
        <ele>674</ele>
        <time>2014-01-12T08:17:02Z</time>
      </trkpt>
      <trkpt lat="45.64743" lon="4.54263">
        <ele>674</ele>
        <time>2014-01-12T08:17:05Z</time>
      </trkpt>
      <trkpt lat="45.64739" lon="4.54254">
        <ele>674</ele>
        <time>2014-01-12T08:17:08Z</time>
      </trkpt>
      <trkpt lat="45.64734" lon="4.54245">
        <ele>674</ele>
        <time>2014-01-12T08:17:11Z</time>
      </trkpt>
      <trkpt lat="45.64729" lon="4.54238">
        <ele>674</ele>
        <time>2014-01-12T08:17:14Z</time>
      </trkpt>
      <trkpt lat="45.64722" lon="4.54228">
        <ele>673</ele>
        <time>2014-01-12T08:17:17Z</time>
      </trkpt>
      <trkpt lat="45.64717" lon="4.54218">
        <ele>671</ele>
        <time>2014-01-12T08:17:20Z</time>
      </trkpt>
      <trkpt lat="45.64715" lon="4.54207">
        <ele>669</ele>
        <time>2014-01-12T08:17:23Z</time>
      </trkpt>
      <trkpt lat="45.64713" lon="4.54194">
        <ele>667</ele>
        <time>2014-01-12T08:17:26Z</time>
      </trkpt>
      <trkpt lat="45.64712" lon="4.54182">
        <ele>665</ele>
        <time>2014-01-12T08:17:29Z</time>
      </trkpt>
      <trkpt lat="45.64711" lon="4.5417">
        <ele>662</ele>
        <time>2014-01-12T08:17:32Z</time>
      </trkpt>
      <trkpt lat="45.64707" lon="4.54158">
        <ele>660</ele>
        <time>2014-01-12T08:17:35Z</time>
      </trkpt>
      <trkpt lat="45.64704" lon="4.54145">
        <ele>660</ele>
        <time>2014-01-12T08:17:38Z</time>
      </trkpt>
      <trkpt lat="45.64701" lon="4.54135">
        <ele>659</ele>
        <time>2014-01-12T08:17:41Z</time>
      </trkpt>
      <trkpt lat="45.647" lon="4.54121">
        <ele>658</ele>
        <time>2014-01-12T08:17:44Z</time>
      </trkpt>
      <trkpt lat="45.647" lon="4.54109">
        <ele>656</ele>
        <time>2014-01-12T08:17:47Z</time>
      </trkpt>
      <trkpt lat="45.64696" lon="4.54096">
        <ele>656</ele>
        <time>2014-01-12T08:17:50Z</time>
      </trkpt>
      <trkpt lat="45.64689" lon="4.54083">
        <ele>656</ele>
        <time>2014-01-12T08:17:53Z</time>
      </trkpt>
      <trkpt lat="45.64685" lon="4.54073">
        <ele>656</ele>
        <time>2014-01-12T08:17:56Z</time>
      </trkpt>
      <trkpt lat="45.64682" lon="4.54061">
        <ele>655</ele>
        <time>2014-01-12T08:17:59Z</time>
      </trkpt>
      <trkpt lat="45.6468" lon="4.54048">
        <ele>655</ele>
        <time>2014-01-12T08:18:02Z</time>
      </trkpt>
      <trkpt lat="45.64678" lon="4.54036">
        <ele>655</ele>
        <time>2014-01-12T08:18:05Z</time>
      </trkpt>
      <trkpt lat="45.64674" lon="4.54022">
        <ele>655</ele>
        <time>2014-01-12T08:18:08Z</time>
      </trkpt>
      <trkpt lat="45.64672" lon="4.54007">
        <ele>654</ele>
        <time>2014-01-12T08:18:11Z</time>
      </trkpt>
      <trkpt lat="45.6467" lon="4.53993">
        <ele>654</ele>
        <time>2014-01-12T08:18:14Z</time>
      </trkpt>
      <trkpt lat="45.64668" lon="4.5398">
        <ele>654</ele>
        <time>2014-01-12T08:18:17Z</time>
      </trkpt>
      <trkpt lat="45.64666" lon="4.53968">
        <ele>653</ele>
        <time>2014-01-12T08:18:20Z</time>
      </trkpt>
      <trkpt lat="45.64664" lon="4.53954">
        <ele>653</ele>
        <time>2014-01-12T08:18:23Z</time>
      </trkpt>
      <trkpt lat="45.64662" lon="4.53941">
        <ele>652</ele>
        <time>2014-01-12T08:18:26Z</time>
      </trkpt>
      <trkpt lat="45.64658" lon="4.53927">
        <ele>652</ele>
        <time>2014-01-12T08:18:29Z</time>
      </trkpt>
      <trkpt lat="45.64655" lon="4.53915">
        <ele>651</ele>
        <time>2014-01-12T08:18:32Z</time>
      </trkpt>
      <trkpt lat="45.64653" lon="4.53904">
        <ele>650</ele>
        <time>2014-01-12T08:18:35Z</time>
      </trkpt>
      <trkpt lat="45.6465" lon="4.53893">
        <ele>649</ele>
        <time>2014-01-12T08:18:38Z</time>
      </trkpt>
      <trkpt lat="45.64648" lon="4.53882">
        <ele>649</ele>
        <time>2014-01-12T08:18:41Z</time>
      </trkpt>
      <trkpt lat="45.64647" lon="4.5387">
        <ele>647</ele>
        <time>2014-01-12T08:18:44Z</time>
      </trkpt>
      <trkpt lat="45.64643" lon="4.5386">
        <ele>647</ele>
        <time>2014-01-12T08:18:47Z</time>
      </trkpt>
      <trkpt lat="45.6464" lon="4.53849">
        <ele>647</ele>
        <time>2014-01-12T08:18:50Z</time>
      </trkpt>
      <trkpt lat="45.64637" lon="4.53837">
        <ele>647</ele>
        <time>2014-01-12T08:18:53Z</time>
      </trkpt>
      <trkpt lat="45.64632" lon="4.53827">
        <ele>647</ele>
        <time>2014-01-12T08:18:56Z</time>
      </trkpt>
      <trkpt lat="45.64626" lon="4.53816">
        <ele>647</ele>
        <time>2014-01-12T08:18:59Z</time>
      </trkpt>
      <trkpt lat="45.64619" lon="4.53805">
        <ele>647</ele>
        <time>2014-01-12T08:19:02Z</time>
      </trkpt>
      <trkpt lat="45.64613" lon="4.53796">
        <ele>647</ele>
        <time>2014-01-12T08:19:05Z</time>
      </trkpt>
      <trkpt lat="45.64606" lon="4.53785">
        <ele>647</ele>
        <time>2014-01-12T08:19:08Z</time>
      </trkpt>
      <trkpt lat="45.646" lon="4.53775">
        <ele>646</ele>
        <time>2014-01-12T08:19:11Z</time>
      </trkpt>
      <trkpt lat="45.64594" lon="4.53765">
        <ele>645</ele>
        <time>2014-01-12T08:19:14Z</time>
      </trkpt>
      <trkpt lat="45.64587" lon="4.53756">
        <ele>644</ele>
        <time>2014-01-12T08:19:17Z</time>
      </trkpt>
      <trkpt lat="45.64582" lon="4.53744">
        <ele>643</ele>
        <time>2014-01-12T08:19:20Z</time>
      </trkpt>
      <trkpt lat="45.64577" lon="4.53733">
        <ele>642</ele>
        <time>2014-01-12T08:19:23Z</time>
      </trkpt>
      <trkpt lat="45.64569" lon="4.53725">
        <ele>641</ele>
        <time>2014-01-12T08:19:26Z</time>
      </trkpt>
      <trkpt lat="45.64562" lon="4.53718">
        <ele>641</ele>
        <time>2014-01-12T08:19:29Z</time>
      </trkpt>
      <trkpt lat="45.64554" lon="4.53713">
        <ele>641</ele>
        <time>2014-01-12T08:19:32Z</time>
      </trkpt>
      <trkpt lat="45.64546" lon="4.53707">
        <ele>641</ele>
        <time>2014-01-12T08:19:35Z</time>
      </trkpt>
      <trkpt lat="45.64538" lon="4.53702">
        <ele>641</ele>
        <time>2014-01-12T08:19:38Z</time>
      </trkpt>
      <trkpt lat="45.64529" lon="4.53697">
        <ele>641</ele>
        <time>2014-01-12T08:19:41Z</time>
      </trkpt>
      <trkpt lat="45.64521" lon="4.53693">
        <ele>641</ele>
        <time>2014-01-12T08:19:44Z</time>
      </trkpt>
      <trkpt lat="45.64512" lon="4.5369">
        <ele>641</ele>
        <time>2014-01-12T08:19:47Z</time>
      </trkpt>
      <trkpt lat="45.64503" lon="4.53687">
        <ele>641</ele>
        <time>2014-01-12T08:19:50Z</time>
      </trkpt>
      <trkpt lat="45.64494" lon="4.53683">
        <ele>641</ele>
        <time>2014-01-12T08:19:53Z</time>
      </trkpt>
      <trkpt lat="45.64486" lon="4.5368">
        <ele>641</ele>
        <time>2014-01-12T08:19:56Z</time>
      </trkpt>
      <trkpt lat="45.64477" lon="4.53676">
        <ele>641</ele>
        <time>2014-01-12T08:19:59Z</time>
      </trkpt>
      <trkpt lat="45.64468" lon="4.53672">
        <ele>641</ele>
        <time>2014-01-12T08:20:02Z</time>
      </trkpt>
      <trkpt lat="45.6446" lon="4.53666">
        <ele>641</ele>
        <time>2014-01-12T08:20:05Z</time>
      </trkpt>
      <trkpt lat="45.64453" lon="4.53663">
        <ele>641</ele>
        <time>2014-01-12T08:20:08Z</time>
      </trkpt>
      <trkpt lat="45.64444" lon="4.5366">
        <ele>641</ele>
        <time>2014-01-12T08:20:11Z</time>
      </trkpt>
      <trkpt lat="45.64436" lon="4.53655">
        <ele>641</ele>
        <time>2014-01-12T08:20:14Z</time>
      </trkpt>
      <trkpt lat="45.64429" lon="4.53652">
        <ele>641</ele>
        <time>2014-01-12T08:20:17Z</time>
      </trkpt>
      <trkpt lat="45.64421" lon="4.53651">
        <ele>641</ele>
        <time>2014-01-12T08:20:20Z</time>
      </trkpt>
      <trkpt lat="45.64412" lon="4.53652">
        <ele>641</ele>
        <time>2014-01-12T08:20:23Z</time>
      </trkpt>
      <trkpt lat="45.64404" lon="4.53653">
        <ele>641</ele>
        <time>2014-01-12T08:20:26Z</time>
      </trkpt>
      <trkpt lat="45.64397" lon="4.53655">
        <ele>639</ele>
        <time>2014-01-12T08:20:29Z</time>
      </trkpt>
      <trkpt lat="45.64393" lon="4.53662">
        <ele>638</ele>
        <time>2014-01-12T08:20:32Z</time>
      </trkpt>
      <trkpt lat="45.64391" lon="4.53668">
        <ele>638</ele>
        <time>2014-01-12T08:20:35Z</time>
      </trkpt>
      <trkpt lat="45.64389" lon="4.53675">
        <ele>638</ele>
        <time>2014-01-12T08:20:39Z</time>
      </trkpt>
      <trkpt lat="45.64388" lon="4.5368">
        <ele>638</ele>
        <time>2014-01-12T08:20:42Z</time>
      </trkpt>
      <trkpt lat="45.64387" lon="4.53686">
        <ele>638</ele>
        <time>2014-01-12T08:20:46Z</time>
      </trkpt>
      <trkpt lat="45.64389" lon="4.53692">
        <ele>638</ele>
        <time>2014-01-12T08:20:49Z</time>
      </trkpt>
      <trkpt lat="45.64389" lon="4.53698">
        <ele>638</ele>
        <time>2014-01-12T08:20:53Z</time>
      </trkpt>
      <trkpt lat="45.64389" lon="4.53702">
        <ele>637</ele>
        <time>2014-01-12T08:20:56Z</time>
      </trkpt>
      <trkpt lat="45.64389" lon="4.53706">
        <ele>637</ele>
        <time>2014-01-12T08:20:59Z</time>
      </trkpt>
      <trkpt lat="45.6439" lon="4.5371">
        <ele>637</ele>
        <time>2014-01-12T08:21:03Z</time>
      </trkpt>
      <trkpt lat="45.64392" lon="4.53715">
        <ele>637</ele>
        <time>2014-01-12T08:21:07Z</time>
      </trkpt>
      <trkpt lat="45.64393" lon="4.53716">
        <ele>637</ele>
        <time>2014-01-12T08:21:10Z</time>
      </trkpt>
      <trkpt lat="45.64396" lon="4.53718">
        <ele>638</ele>
        <time>2014-01-12T08:21:14Z</time>
      </trkpt>
      <trkpt lat="45.64398" lon="4.53722">
        <ele>641</ele>
        <time>2014-01-12T08:21:18Z</time>
      </trkpt>
      <trkpt lat="45.644" lon="4.53724">
        <ele>644</ele>
        <time>2014-01-12T08:21:22Z</time>
      </trkpt>
      <trkpt lat="45.64403" lon="4.53727">
        <ele>646</ele>
        <time>2014-01-12T08:21:26Z</time>
      </trkpt>
      <trkpt lat="45.64405" lon="4.53732">
        <ele>647</ele>
        <time>2014-01-12T08:21:30Z</time>
      </trkpt>
      <trkpt lat="45.64405" lon="4.53737">
        <ele>647</ele>
        <time>2014-01-12T08:21:34Z</time>
      </trkpt>
      <trkpt lat="45.64406" lon="4.53742">
        <ele>647</ele>
        <time>2014-01-12T08:21:37Z</time>
      </trkpt>
      <trkpt lat="45.64407" lon="4.53748">
        <ele>647</ele>
        <time>2014-01-12T08:21:41Z</time>
      </trkpt>
      <trkpt lat="45.64408" lon="4.53754">
        <ele>647</ele>
        <time>2014-01-12T08:21:45Z</time>
      </trkpt>
      <trkpt lat="45.64409" lon="4.53759">
        <ele>648</ele>
        <time>2014-01-12T08:21:49Z</time>
      </trkpt>
      <trkpt lat="45.6441" lon="4.53764">
        <ele>648</ele>
        <time>2014-01-12T08:21:53Z</time>
      </trkpt>
      <trkpt lat="45.64412" lon="4.53768">
        <ele>648</ele>
        <time>2014-01-12T08:21:56Z</time>
      </trkpt>
      <trkpt lat="45.64413" lon="4.53774">
        <ele>648</ele>
        <time>2014-01-12T08:22:00Z</time>
      </trkpt>
      <trkpt lat="45.64413" lon="4.53778">
        <ele>648</ele>
        <time>2014-01-12T08:22:03Z</time>
      </trkpt>
      <trkpt lat="45.64414" lon="4.53783">
        <ele>650</ele>
        <time>2014-01-12T08:22:06Z</time>
      </trkpt>
      <trkpt lat="45.64418" lon="4.53789">
        <ele>652</ele>
        <time>2014-01-12T08:22:10Z</time>
      </trkpt>
      <trkpt lat="45.6442" lon="4.53791">
        <ele>655</ele>
        <time>2014-01-12T08:22:13Z</time>
      </trkpt>
      <trkpt lat="45.64425" lon="4.53793">
        <ele>656</ele>
        <time>2014-01-12T08:22:17Z</time>
      </trkpt>
      <trkpt lat="45.6443" lon="4.53798">
        <ele>656</ele>
        <time>2014-01-12T08:22:20Z</time>
      </trkpt>
      <trkpt lat="45.64434" lon="4.53802">
        <ele>656</ele>
        <time>2014-01-12T08:22:23Z</time>
      </trkpt>
      <trkpt lat="45.64439" lon="4.53807">
        <ele>657</ele>
        <time>2014-01-12T08:22:27Z</time>
      </trkpt>
      <trkpt lat="45.64442" lon="4.53809">
        <ele>659</ele>
        <time>2014-01-12T08:22:30Z</time>
      </trkpt>
      <trkpt lat="45.64446" lon="4.53813">
        <ele>660</ele>
        <time>2014-01-12T08:22:33Z</time>
      </trkpt>
      <trkpt lat="45.6445" lon="4.53818">
        <ele>660</ele>
        <time>2014-01-12T08:22:36Z</time>
      </trkpt>
      <trkpt lat="45.64452" lon="4.53823">
        <ele>660</ele>
        <time>2014-01-12T08:22:40Z</time>
      </trkpt>
      <trkpt lat="45.64454" lon="4.53827">
        <ele>660</ele>
        <time>2014-01-12T08:22:43Z</time>
      </trkpt>
      <trkpt lat="45.64457" lon="4.53831">
        <ele>660</ele>
        <time>2014-01-12T08:22:47Z</time>
      </trkpt>
      <trkpt lat="45.6446" lon="4.53835">
        <ele>661</ele>
        <time>2014-01-12T08:22:50Z</time>
      </trkpt>
      <trkpt lat="45.6446" lon="4.53839">
        <ele>663</ele>
        <time>2014-01-12T08:22:53Z</time>
      </trkpt>
      <trkpt lat="45.6446" lon="4.53844">
        <ele>664</ele>
        <time>2014-01-12T08:22:56Z</time>
      </trkpt>
      <trkpt lat="45.64462" lon="4.53848">
        <ele>665</ele>
        <time>2014-01-12T08:22:59Z</time>
      </trkpt>
      <trkpt lat="45.64462" lon="4.53852">
        <ele>666</ele>
        <time>2014-01-12T08:23:02Z</time>
      </trkpt>
      <trkpt lat="45.64463" lon="4.53857">
        <ele>667</ele>
        <time>2014-01-12T08:23:05Z</time>
      </trkpt>
      <trkpt lat="45.64465" lon="4.53864">
        <ele>668</ele>
        <time>2014-01-12T08:23:08Z</time>
      </trkpt>
      <trkpt lat="45.64466" lon="4.53869">
        <ele>668</ele>
        <time>2014-01-12T08:23:11Z</time>
      </trkpt>
      <trkpt lat="45.64467" lon="4.53875">
        <ele>668</ele>
        <time>2014-01-12T08:23:14Z</time>
      </trkpt>
      <trkpt lat="45.64468" lon="4.53879">
        <ele>668</ele>
        <time>2014-01-12T08:23:17Z</time>
      </trkpt>
      <trkpt lat="45.64468" lon="4.53882">
        <ele>668</ele>
        <time>2014-01-12T08:23:20Z</time>
      </trkpt>
      <trkpt lat="45.6447" lon="4.53883">
        <ele>668</ele>
        <time>2014-01-12T08:23:25Z</time>
      </trkpt>
      <trkpt lat="45.64473" lon="4.53884">
        <ele>669</ele>
        <time>2014-01-12T08:23:30Z</time>
      </trkpt>
      <trkpt lat="45.64474" lon="4.53883">
        <ele>669</ele>
        <time>2014-01-12T08:23:33Z</time>
      </trkpt>
      <trkpt lat="45.64476" lon="4.53882">
        <ele>673</ele>
        <time>2014-01-12T08:23:39Z</time>
      </trkpt>
      <trkpt lat="45.64478" lon="4.53883">
        <ele>677</ele>
        <time>2014-01-12T08:23:47Z</time>
      </trkpt>
      <trkpt lat="45.64479" lon="4.53882">
        <ele>679</ele>
        <time>2014-01-12T08:23:51Z</time>
      </trkpt>
      <trkpt lat="45.6448" lon="4.53882">
        <ele>680</ele>
        <time>2014-01-12T08:23:54Z</time>
      </trkpt>
      <trkpt lat="45.64481" lon="4.53882">
        <ele>681</ele>
        <time>2014-01-12T08:23:57Z</time>
      </trkpt>
      <trkpt lat="45.64483" lon="4.53884">
        <ele>681</ele>
        <time>2014-01-12T08:24:00Z</time>
      </trkpt>
      <trkpt lat="45.64485" lon="4.53886">
        <ele>681</ele>
        <time>2014-01-12T08:24:03Z</time>
      </trkpt>
      <trkpt lat="45.64487" lon="4.53887">
        <ele>681</ele>
        <time>2014-01-12T08:24:07Z</time>
      </trkpt>
      <trkpt lat="45.64489" lon="4.53888">
        <ele>681</ele>
        <time>2014-01-12T08:24:10Z</time>
      </trkpt>
      <trkpt lat="45.6449" lon="4.53888">
        <ele>682</ele>
        <time>2014-01-12T08:24:13Z</time>
      </trkpt>
      <trkpt lat="45.64491" lon="4.53888">
        <ele>683</ele>
        <time>2014-01-12T08:24:17Z</time>
      </trkpt>
      <trkpt lat="45.6449" lon="4.5389">
        <ele>686</ele>
        <time>2014-01-12T08:24:28Z</time>
      </trkpt>
      <trkpt lat="45.6449" lon="4.53892">
        <ele>686</ele>
        <time>2014-01-12T08:24:32Z</time>
      </trkpt>
      <trkpt lat="45.64491" lon="4.53893">
        <ele>686</ele>
        <time>2014-01-12T08:24:36Z</time>
      </trkpt>
      <trkpt lat="45.64491" lon="4.53895">
        <ele>686</ele>
        <time>2014-01-12T08:24:42Z</time>
      </trkpt>
      <trkpt lat="45.6449" lon="4.53893">
        <ele>686</ele>
        <time>2014-01-12T08:24:47Z</time>
      </trkpt>
      <trkpt lat="45.64487" lon="4.53889">
        <ele>686</ele>
        <time>2014-01-12T08:24:51Z</time>
      </trkpt>
      <trkpt lat="45.64487" lon="4.53887">
        <ele>686</ele>
        <time>2014-01-12T08:24:58Z</time>
      </trkpt>
      <trkpt lat="45.64487" lon="4.53883">
        <ele>687</ele>
        <time>2014-01-12T08:25:02Z</time>
      </trkpt>
      <trkpt lat="45.64487" lon="4.53879">
        <ele>689</ele>
        <time>2014-01-12T08:25:06Z</time>
      </trkpt>
      <trkpt lat="45.64487" lon="4.53875">
        <ele>693</ele>
        <time>2014-01-12T08:25:11Z</time>
      </trkpt>
      <trkpt lat="45.64487" lon="4.53873">
        <ele>694</ele>
        <time>2014-01-12T08:25:14Z</time>
      </trkpt>
      <trkpt lat="45.64487" lon="4.53872">
        <ele>695</ele>
        <time>2014-01-12T08:25:17Z</time>
      </trkpt>
      <trkpt lat="45.64486" lon="4.5387">
        <ele>696</ele>
        <time>2014-01-12T08:25:21Z</time>
      </trkpt>
      <trkpt lat="45.64488" lon="4.53871">
        <ele>696</ele>
        <time>2014-01-12T08:25:30Z</time>
      </trkpt>
      <trkpt lat="45.64489" lon="4.53872">
        <ele>698</ele>
        <time>2014-01-12T08:25:33Z</time>
      </trkpt>
      <trkpt lat="45.6449" lon="4.53876">
        <ele>698</ele>
        <time>2014-01-12T08:25:37Z</time>
      </trkpt>
      <trkpt lat="45.64485" lon="4.53879">
        <ele>697</ele>
        <time>2014-01-12T08:25:41Z</time>
      </trkpt>
      <trkpt lat="45.6448" lon="4.53881">
        <ele>693</ele>
        <time>2014-01-12T08:25:45Z</time>
      </trkpt>
      <trkpt lat="45.64477" lon="4.53887">
        <ele>690</ele>
        <time>2014-01-12T08:25:48Z</time>
      </trkpt>
      <trkpt lat="45.64476" lon="4.53891">
        <ele>688</ele>
        <time>2014-01-12T08:25:51Z</time>
      </trkpt>
      <trkpt lat="45.64477" lon="4.53897">
        <ele>688</ele>
        <time>2014-01-12T08:25:54Z</time>
      </trkpt>
      <trkpt lat="45.64479" lon="4.53903">
        <ele>688</ele>
        <time>2014-01-12T08:25:57Z</time>
      </trkpt>
      <trkpt lat="45.6448" lon="4.53911">
        <ele>685</ele>
        <time>2014-01-12T08:26:00Z</time>
      </trkpt>
      <trkpt lat="45.64481" lon="4.53919">
        <ele>683</ele>
        <time>2014-01-12T08:26:03Z</time>
      </trkpt>
      <trkpt lat="45.64482" lon="4.53926">
        <ele>681</ele>
        <time>2014-01-12T08:26:06Z</time>
      </trkpt>
      <trkpt lat="45.64484" lon="4.53933">
        <ele>680</ele>
        <time>2014-01-12T08:26:09Z</time>
      </trkpt>
      <trkpt lat="45.64486" lon="4.53941">
        <ele>679</ele>
        <time>2014-01-12T08:26:12Z</time>
      </trkpt>
      <trkpt lat="45.64487" lon="4.53946">
        <ele>678</ele>
        <time>2014-01-12T08:26:15Z</time>
      </trkpt>
      <trkpt lat="45.64492" lon="4.53956">
        <ele>678</ele>
        <time>2014-01-12T08:26:19Z</time>
      </trkpt>
      <trkpt lat="45.64498" lon="4.53966">
        <ele>677</ele>
        <time>2014-01-12T08:26:23Z</time>
      </trkpt>
      <trkpt lat="45.64502" lon="4.53972">
        <ele>677</ele>
        <time>2014-01-12T08:26:26Z</time>
      </trkpt>
      <trkpt lat="45.64503" lon="4.5398">
        <ele>676</ele>
        <time>2014-01-12T08:26:29Z</time>
      </trkpt>
      <trkpt lat="45.64506" lon="4.53989">
        <ele>676</ele>
        <time>2014-01-12T08:26:32Z</time>
      </trkpt>
      <trkpt lat="45.64508" lon="4.53997">
        <ele>676</ele>
        <time>2014-01-12T08:26:35Z</time>
      </trkpt>
      <trkpt lat="45.64511" lon="4.54004">
        <ele>676</ele>
        <time>2014-01-12T08:26:38Z</time>
      </trkpt>
      <trkpt lat="45.64515" lon="4.54017">
        <ele>676</ele>
        <time>2014-01-12T08:26:42Z</time>
      </trkpt>
      <trkpt lat="45.64517" lon="4.54025">
        <ele>676</ele>
        <time>2014-01-12T08:26:45Z</time>
      </trkpt>
      <trkpt lat="45.64515" lon="4.54032">
        <ele>676</ele>
        <time>2014-01-12T08:26:48Z</time>
      </trkpt>
      <trkpt lat="45.64513" lon="4.54039">
        <ele>676</ele>
        <time>2014-01-12T08:26:51Z</time>
      </trkpt>
      <trkpt lat="45.64511" lon="4.54049">
        <ele>677</ele>
        <time>2014-01-12T08:26:55Z</time>
      </trkpt>
      <trkpt lat="45.64508" lon="4.54061">
        <ele>677</ele>
        <time>2014-01-12T08:26:59Z</time>
      </trkpt>
      <trkpt lat="45.64507" lon="4.54072">
        <ele>677</ele>
        <time>2014-01-12T08:27:02Z</time>
      </trkpt>
      <trkpt lat="45.64506" lon="4.54083">
        <ele>677</ele>
        <time>2014-01-12T08:27:05Z</time>
      </trkpt>
      <trkpt lat="45.64505" lon="4.54093">
        <ele>676</ele>
        <time>2014-01-12T08:27:08Z</time>
      </trkpt>
      <trkpt lat="45.64504" lon="4.54106">
        <ele>676</ele>
        <time>2014-01-12T08:27:11Z</time>
      </trkpt>
      <trkpt lat="45.64504" lon="4.54119">
        <ele>676</ele>
        <time>2014-01-12T08:27:14Z</time>
      </trkpt>
      <trkpt lat="45.64503" lon="4.54129">
        <ele>676</ele>
        <time>2014-01-12T08:27:17Z</time>
      </trkpt>
      <trkpt lat="45.64505" lon="4.54136">
        <ele>677</ele>
        <time>2014-01-12T08:27:20Z</time>
      </trkpt>
      <trkpt lat="45.64508" lon="4.54139">
        <ele>678</ele>
        <time>2014-01-12T08:27:23Z</time>
      </trkpt>
      <trkpt lat="45.64511" lon="4.54143">
        <ele>681</ele>
        <time>2014-01-12T08:27:27Z</time>
      </trkpt>
      <trkpt lat="45.64514" lon="4.54146">
        <ele>684</ele>
        <time>2014-01-12T08:27:31Z</time>
      </trkpt>
      <trkpt lat="45.64517" lon="4.54149">
        <ele>685</ele>
        <time>2014-01-12T08:27:35Z</time>
      </trkpt>
      <trkpt lat="45.64519" lon="4.54152">
        <ele>687</ele>
        <time>2014-01-12T08:27:39Z</time>
      </trkpt>
      <trkpt lat="45.64522" lon="4.54159">
        <ele>689</ele>
        <time>2014-01-12T08:27:43Z</time>
      </trkpt>
      <trkpt lat="45.64526" lon="4.54169">
        <ele>690</ele>
        <time>2014-01-12T08:27:48Z</time>
      </trkpt>
      <trkpt lat="45.64528" lon="4.54173">
        <ele>690</ele>
        <time>2014-01-12T08:27:51Z</time>
      </trkpt>
      <trkpt lat="45.64531" lon="4.5418">
        <ele>693</ele>
        <time>2014-01-12T08:27:56Z</time>
      </trkpt>
      <trkpt lat="45.64533" lon="4.54186">
        <ele>694</ele>
        <time>2014-01-12T08:27:59Z</time>
      </trkpt>
      <trkpt lat="45.64534" lon="4.54191">
        <ele>694</ele>
        <time>2014-01-12T08:28:02Z</time>
      </trkpt>
      <trkpt lat="45.64536" lon="4.54198">
        <ele>694</ele>
        <time>2014-01-12T08:28:05Z</time>
      </trkpt>
      <trkpt lat="45.64537" lon="4.54203">
        <ele>694</ele>
        <time>2014-01-12T08:28:09Z</time>
      </trkpt>
      <trkpt lat="45.6454" lon="4.54205">
        <ele>696</ele>
        <time>2014-01-12T08:28:14Z</time>
      </trkpt>
      <trkpt lat="45.64545" lon="4.54204">
        <ele>697</ele>
        <time>2014-01-12T08:28:17Z</time>
      </trkpt>
      <trkpt lat="45.6455" lon="4.54206">
        <ele>697</ele>
        <time>2014-01-12T08:28:20Z</time>
      </trkpt>
      <trkpt lat="45.64554" lon="4.54213">
        <ele>697</ele>
        <time>2014-01-12T08:28:24Z</time>
      </trkpt>
      <trkpt lat="45.64561" lon="4.54226">
        <ele>697</ele>
        <time>2014-01-12T08:28:27Z</time>
      </trkpt>
      <trkpt lat="45.64563" lon="4.54233">
        <ele>697</ele>
        <time>2014-01-12T08:28:31Z</time>
      </trkpt>
      <trkpt lat="45.64566" lon="4.54239">
        <ele>697</ele>
        <time>2014-01-12T08:28:34Z</time>
      </trkpt>
      <trkpt lat="45.64569" lon="4.5425">
        <ele>697</ele>
        <time>2014-01-12T08:28:37Z</time>
      </trkpt>
      <trkpt lat="45.64573" lon="4.54257">
        <ele>697</ele>
        <time>2014-01-12T08:28:40Z</time>
      </trkpt>
      <trkpt lat="45.64576" lon="4.54265">
        <ele>697</ele>
        <time>2014-01-12T08:28:44Z</time>
      </trkpt>
      <trkpt lat="45.64579" lon="4.54273">
        <ele>698</ele>
        <time>2014-01-12T08:28:47Z</time>
      </trkpt>
      <trkpt lat="45.6458" lon="4.54281">
        <ele>698</ele>
        <time>2014-01-12T08:28:50Z</time>
      </trkpt>
      <trkpt lat="45.64578" lon="4.54287">
        <ele>698</ele>
        <time>2014-01-12T08:28:53Z</time>
      </trkpt>
      <trkpt lat="45.64579" lon="4.54295">
        <ele>698</ele>
        <time>2014-01-12T08:28:56Z</time>
      </trkpt>
      <trkpt lat="45.64581" lon="4.54305">
        <ele>700</ele>
        <time>2014-01-12T08:28:59Z</time>
      </trkpt>
      <trkpt lat="45.64581" lon="4.54315">
        <ele>702</ele>
        <time>2014-01-12T08:29:02Z</time>
      </trkpt>
      <trkpt lat="45.6458" lon="4.54321">
        <ele>703</ele>
        <time>2014-01-12T08:29:06Z</time>
      </trkpt>
      <trkpt lat="45.64578" lon="4.5433">
        <ele>704</ele>
        <time>2014-01-12T08:29:11Z</time>
      </trkpt>
      <trkpt lat="45.64574" lon="4.54335">
        <ele>704</ele>
        <time>2014-01-12T08:29:16Z</time>
      </trkpt>
      <trkpt lat="45.64571" lon="4.54341">
        <ele>705</ele>
        <time>2014-01-12T08:29:19Z</time>
      </trkpt>
      <trkpt lat="45.6457" lon="4.54346">
        <ele>707</ele>
        <time>2014-01-12T08:29:22Z</time>
      </trkpt>
      <trkpt lat="45.64568" lon="4.5435">
        <ele>708</ele>
        <time>2014-01-12T08:29:25Z</time>
      </trkpt>
      <trkpt lat="45.64565" lon="4.54354">
        <ele>709</ele>
        <time>2014-01-12T08:29:28Z</time>
      </trkpt>
      <trkpt lat="45.64563" lon="4.54359">
        <ele>709</ele>
        <time>2014-01-12T08:29:31Z</time>
      </trkpt>
      <trkpt lat="45.64559" lon="4.54365">
        <ele>710</ele>
        <time>2014-01-12T08:29:35Z</time>
      </trkpt>
      <trkpt lat="45.64558" lon="4.54371">
        <ele>710</ele>
        <time>2014-01-12T08:29:38Z</time>
      </trkpt>
      <trkpt lat="45.64558" lon="4.54381">
        <ele>710</ele>
        <time>2014-01-12T08:29:41Z</time>
      </trkpt>
      <trkpt lat="45.64556" lon="4.54389">
        <ele>710</ele>
        <time>2014-01-12T08:29:44Z</time>
      </trkpt>
      <trkpt lat="45.64555" lon="4.54398">
        <ele>710</ele>
        <time>2014-01-12T08:29:48Z</time>
      </trkpt>
      <trkpt lat="45.64553" lon="4.54408">
        <ele>710</ele>
        <time>2014-01-12T08:29:51Z</time>
      </trkpt>
      <trkpt lat="45.64553" lon="4.54416">
        <ele>710</ele>
        <time>2014-01-12T08:29:55Z</time>
      </trkpt>
      <trkpt lat="45.64551" lon="4.54423">
        <ele>710</ele>
        <time>2014-01-12T08:29:58Z</time>
      </trkpt>
      <trkpt lat="45.64549" lon="4.54434">
        <ele>711</ele>
        <time>2014-01-12T08:30:01Z</time>
      </trkpt>
      <trkpt lat="45.64548" lon="4.54443">
        <ele>712</ele>
        <time>2014-01-12T08:30:04Z</time>
      </trkpt>
      <trkpt lat="45.64546" lon="4.54454">
        <ele>714</ele>
        <time>2014-01-12T08:30:08Z</time>
      </trkpt>
      <trkpt lat="45.64542" lon="4.54466">
        <ele>715</ele>
        <time>2014-01-12T08:30:11Z</time>
      </trkpt>
      <trkpt lat="45.64539" lon="4.54475">
        <ele>715</ele>
        <time>2014-01-12T08:30:14Z</time>
      </trkpt>
      <trkpt lat="45.64536" lon="4.54486">
        <ele>715</ele>
        <time>2014-01-12T08:30:17Z</time>
      </trkpt>
      <trkpt lat="45.64533" lon="4.54494">
        <ele>715</ele>
        <time>2014-01-12T08:30:20Z</time>
      </trkpt>
      <trkpt lat="45.64529" lon="4.54501">
        <ele>715</ele>
        <time>2014-01-12T08:30:24Z</time>
      </trkpt>
      <trkpt lat="45.64524" lon="4.5451">
        <ele>715</ele>
        <time>2014-01-12T08:30:27Z</time>
      </trkpt>
      <trkpt lat="45.64521" lon="4.54521">
        <ele>715</ele>
        <time>2014-01-12T08:30:30Z</time>
      </trkpt>
      <trkpt lat="45.64518" lon="4.54529">
        <ele>715</ele>
        <time>2014-01-12T08:30:33Z</time>
      </trkpt>
      <trkpt lat="45.64514" lon="4.54539">
        <ele>715</ele>
        <time>2014-01-12T08:30:36Z</time>
      </trkpt>
      <trkpt lat="45.6451" lon="4.54552">
        <ele>715</ele>
        <time>2014-01-12T08:30:39Z</time>
      </trkpt>
      <trkpt lat="45.64507" lon="4.54559">
        <ele>715</ele>
        <time>2014-01-12T08:30:42Z</time>
      </trkpt>
      <trkpt lat="45.64505" lon="4.54566">
        <ele>715</ele>
        <time>2014-01-12T08:30:45Z</time>
      </trkpt>
      <trkpt lat="45.64505" lon="4.54575">
        <ele>716</ele>
        <time>2014-01-12T08:30:49Z</time>
      </trkpt>
      <trkpt lat="45.64506" lon="4.54587">
        <ele>718</ele>
        <time>2014-01-12T08:30:52Z</time>
      </trkpt>
      <trkpt lat="45.64508" lon="4.54595">
        <ele>718</ele>
        <time>2014-01-12T08:30:55Z</time>
      </trkpt>
      <trkpt lat="45.64507" lon="4.54602">
        <ele>719</ele>
        <time>2014-01-12T08:30:59Z</time>
      </trkpt>
      <trkpt lat="45.64509" lon="4.5461">
        <ele>719</ele>
        <time>2014-01-12T08:31:02Z</time>
      </trkpt>
      <trkpt lat="45.64508" lon="4.54619">
        <ele>719</ele>
        <time>2014-01-12T08:31:05Z</time>
      </trkpt>
      <trkpt lat="45.64506" lon="4.54628">
        <ele>719</ele>
        <time>2014-01-12T08:31:09Z</time>
      </trkpt>
      <trkpt lat="45.64502" lon="4.54633">
        <ele>722</ele>
        <time>2014-01-12T08:31:12Z</time>
      </trkpt>
      <trkpt lat="45.64494" lon="4.54636">
        <ele>723</ele>
        <time>2014-01-12T08:31:15Z</time>
      </trkpt>
      <trkpt lat="45.64487" lon="4.54641">
        <ele>723</ele>
        <time>2014-01-12T08:31:19Z</time>
      </trkpt>
      <trkpt lat="45.64481" lon="4.54654">
        <ele>723</ele>
        <time>2014-01-12T08:31:22Z</time>
      </trkpt>
      <trkpt lat="45.64478" lon="4.54665">
        <ele>723</ele>
        <time>2014-01-12T08:31:26Z</time>
      </trkpt>
      <trkpt lat="45.64475" lon="4.54675">
        <ele>723</ele>
        <time>2014-01-12T08:31:29Z</time>
      </trkpt>
      <trkpt lat="45.64472" lon="4.54686">
        <ele>723</ele>
        <time>2014-01-12T08:31:32Z</time>
      </trkpt>
      <trkpt lat="45.64465" lon="4.54698">
        <ele>723</ele>
        <time>2014-01-12T08:31:35Z</time>
      </trkpt>
      <trkpt lat="45.64459" lon="4.54702">
        <ele>722</ele>
        <time>2014-01-12T08:31:38Z</time>
      </trkpt>
      <trkpt lat="45.64455" lon="4.54694">
        <ele>721</ele>
        <time>2014-01-12T08:31:41Z</time>
      </trkpt>
      <trkpt lat="45.64452" lon="4.54685">
        <ele>721</ele>
        <time>2014-01-12T08:31:44Z</time>
      </trkpt>
      <trkpt lat="45.64447" lon="4.54678">
        <ele>720</ele>
        <time>2014-01-12T08:31:47Z</time>
      </trkpt>
      <trkpt lat="45.64442" lon="4.54671">
        <ele>719</ele>
        <time>2014-01-12T08:31:50Z</time>
      </trkpt>
      <trkpt lat="45.64437" lon="4.54662">
        <ele>717</ele>
        <time>2014-01-12T08:31:53Z</time>
      </trkpt>
      <trkpt lat="45.64434" lon="4.54653">
        <ele>715</ele>
        <time>2014-01-12T08:31:56Z</time>
      </trkpt>
      <trkpt lat="45.64429" lon="4.54645">
        <ele>714</ele>
        <time>2014-01-12T08:31:59Z</time>
      </trkpt>
      <trkpt lat="45.64423" lon="4.5464">
        <ele>712</ele>
        <time>2014-01-12T08:32:02Z</time>
      </trkpt>
      <trkpt lat="45.64418" lon="4.54636">
        <ele>712</ele>
        <time>2014-01-12T08:32:05Z</time>
      </trkpt>
      <trkpt lat="45.6441" lon="4.54637">
        <ele>711</ele>
        <time>2014-01-12T08:32:08Z</time>
      </trkpt>
      <trkpt lat="45.64404" lon="4.54639">
        <ele>710</ele>
        <time>2014-01-12T08:32:11Z</time>
      </trkpt>
      <trkpt lat="45.64397" lon="4.54633">
        <ele>708</ele>
        <time>2014-01-12T08:32:14Z</time>
      </trkpt>
      <trkpt lat="45.64388" lon="4.54625">
        <ele>706</ele>
        <time>2014-01-12T08:32:17Z</time>
      </trkpt>
      <trkpt lat="45.64378" lon="4.54621">
        <ele>704</ele>
        <time>2014-01-12T08:32:21Z</time>
      </trkpt>
      <trkpt lat="45.64368" lon="4.54618">
        <ele>701</ele>
        <time>2014-01-12T08:32:24Z</time>
      </trkpt>
      <trkpt lat="45.64359" lon="4.54616">
        <ele>699</ele>
        <time>2014-01-12T08:32:27Z</time>
      </trkpt>
      <trkpt lat="45.64349" lon="4.54613">
        <ele>698</ele>
        <time>2014-01-12T08:32:30Z</time>
      </trkpt>
      <trkpt lat="45.64334" lon="4.54612">
        <ele>696</ele>
        <time>2014-01-12T08:32:33Z</time>
      </trkpt>
      <trkpt lat="45.64323" lon="4.5461">
        <ele>694</ele>
        <time>2014-01-12T08:32:36Z</time>
      </trkpt>
      <trkpt lat="45.64314" lon="4.54607">
        <ele>691</ele>
        <time>2014-01-12T08:32:39Z</time>
      </trkpt>
      <trkpt lat="45.64304" lon="4.5461">
        <ele>689</ele>
        <time>2014-01-12T08:32:42Z</time>
      </trkpt>
      <trkpt lat="45.64301" lon="4.54623">
        <ele>686</ele>
        <time>2014-01-12T08:32:45Z</time>
      </trkpt>
      <trkpt lat="45.64299" lon="4.54637">
        <ele>683</ele>
        <time>2014-01-12T08:32:48Z</time>
      </trkpt>
      <trkpt lat="45.64298" lon="4.54651">
        <ele>680</ele>
        <time>2014-01-12T08:32:51Z</time>
      </trkpt>
      <trkpt lat="45.64297" lon="4.54664">
        <ele>679</ele>
        <time>2014-01-12T08:32:54Z</time>
      </trkpt>
      <trkpt lat="45.64293" lon="4.54675">
        <ele>679</ele>
        <time>2014-01-12T08:32:57Z</time>
      </trkpt>
      <trkpt lat="45.64288" lon="4.54683">
        <ele>679</ele>
        <time>2014-01-12T08:33:00Z</time>
      </trkpt>
      <trkpt lat="45.6428" lon="4.54685">
        <ele>678</ele>
        <time>2014-01-12T08:33:03Z</time>
      </trkpt>
      <trkpt lat="45.64271" lon="4.54687">
        <ele>678</ele>
        <time>2014-01-12T08:33:06Z</time>
      </trkpt>
      <trkpt lat="45.64264" lon="4.54686">
        <ele>676</ele>
        <time>2014-01-12T08:33:09Z</time>
      </trkpt>
      <trkpt lat="45.64257" lon="4.54683">
        <ele>675</ele>
        <time>2014-01-12T08:33:12Z</time>
      </trkpt>
      <trkpt lat="45.6425" lon="4.54681">
        <ele>673</ele>
        <time>2014-01-12T08:33:15Z</time>
      </trkpt>
      <trkpt lat="45.64244" lon="4.54681">
        <ele>673</ele>
        <time>2014-01-12T08:33:18Z</time>
      </trkpt>
      <trkpt lat="45.64238" lon="4.54682">
        <ele>672</ele>
        <time>2014-01-12T08:33:21Z</time>
      </trkpt>
      <trkpt lat="45.64231" lon="4.54682">
        <ele>672</ele>
        <time>2014-01-12T08:33:24Z</time>
      </trkpt>
      <trkpt lat="45.64225" lon="4.5468">
        <ele>672</ele>
        <time>2014-01-12T08:33:27Z</time>
      </trkpt>
      <trkpt lat="45.64219" lon="4.54678">
        <ele>672</ele>
        <time>2014-01-12T08:33:31Z</time>
      </trkpt>
      <trkpt lat="45.64217" lon="4.54679">
        <ele>672</ele>
        <time>2014-01-12T08:33:35Z</time>
      </trkpt>
      <trkpt lat="45.64215" lon="4.5468">
        <ele>672</ele>
        <time>2014-01-12T08:33:38Z</time>
      </trkpt>
      <trkpt lat="45.64214" lon="4.5468">
        <ele>672</ele>
        <time>2014-01-12T08:33:43Z</time>
      </trkpt>
      <trkpt lat="45.64213" lon="4.5468">
        <ele>672</ele>
        <time>2014-01-12T08:33:46Z</time>
      </trkpt>
      <trkpt lat="45.64212" lon="4.54679">
        <ele>672</ele>
        <time>2014-01-12T08:33:49Z</time>
      </trkpt>
      <trkpt lat="45.6421" lon="4.54679">
        <ele>672</ele>
        <time>2014-01-12T08:33:52Z</time>
      </trkpt>
      <trkpt lat="45.64209" lon="4.54678">
        <ele>672</ele>
        <time>2014-01-12T08:33:55Z</time>
      </trkpt>
      <trkpt lat="45.64207" lon="4.54678">
        <ele>672</ele>
        <time>2014-01-12T08:33:58Z</time>
      </trkpt>
      <trkpt lat="45.64206" lon="4.54677">
        <ele>672</ele>
        <time>2014-01-12T08:34:01Z</time>
      </trkpt>
      <trkpt lat="45.64204" lon="4.54676">
        <ele>672</ele>
        <time>2014-01-12T08:34:04Z</time>
      </trkpt>
      <trkpt lat="45.64202" lon="4.54675">
        <ele>672</ele>
        <time>2014-01-12T08:34:07Z</time>
      </trkpt>
      <trkpt lat="45.64199" lon="4.54671">
        <ele>672</ele>
        <time>2014-01-12T08:34:11Z</time>
      </trkpt>
      <trkpt lat="45.64198" lon="4.54666">
        <ele>672</ele>
        <time>2014-01-12T08:34:16Z</time>
      </trkpt>
      <trkpt lat="45.64197" lon="4.54655">
        <ele>672</ele>
        <time>2014-01-12T08:34:19Z</time>
      </trkpt>
      <trkpt lat="45.64198" lon="4.54646">
        <ele>672</ele>
        <time>2014-01-12T08:34:22Z</time>
      </trkpt>
      <trkpt lat="45.64198" lon="4.54638">
        <ele>673</ele>
        <time>2014-01-12T08:34:25Z</time>
      </trkpt>
      <trkpt lat="45.64192" lon="4.54629">
        <ele>674</ele>
        <time>2014-01-12T08:34:28Z</time>
      </trkpt>
      <trkpt lat="45.6419" lon="4.54618">
        <ele>674</ele>
        <time>2014-01-12T08:34:31Z</time>
      </trkpt>
      <trkpt lat="45.64193" lon="4.5461">
        <ele>675</ele>
        <time>2014-01-12T08:34:34Z</time>
      </trkpt>
      <trkpt lat="45.64196" lon="4.54603">
        <ele>675</ele>
        <time>2014-01-12T08:34:37Z</time>
      </trkpt>
      <trkpt lat="45.64196" lon="4.54593">
        <ele>676</ele>
        <time>2014-01-12T08:34:40Z</time>
      </trkpt>
      <trkpt lat="45.64196" lon="4.54583">
        <ele>676</ele>
        <time>2014-01-12T08:34:43Z</time>
      </trkpt>
      <trkpt lat="45.64196" lon="4.54572">
        <ele>676</ele>
        <time>2014-01-12T08:34:46Z</time>
      </trkpt>
      <trkpt lat="45.64196" lon="4.54561">
        <ele>676</ele>
        <time>2014-01-12T08:34:49Z</time>
      </trkpt>
      <trkpt lat="45.64195" lon="4.5455">
        <ele>676</ele>
        <time>2014-01-12T08:34:52Z</time>
      </trkpt>
      <trkpt lat="45.64197" lon="4.5454">
        <ele>673</ele>
        <time>2014-01-12T08:34:55Z</time>
      </trkpt>
      <trkpt lat="45.64199" lon="4.54532">
        <ele>670</ele>
        <time>2014-01-12T08:34:59Z</time>
      </trkpt>
      <trkpt lat="45.64201" lon="4.54524">
        <ele>667</ele>
        <time>2014-01-12T08:35:02Z</time>
      </trkpt>
      <trkpt lat="45.64207" lon="4.54513">
        <ele>664</ele>
        <time>2014-01-12T08:35:05Z</time>
      </trkpt>
      <trkpt lat="45.64211" lon="4.54501">
        <ele>662</ele>
        <time>2014-01-12T08:35:08Z</time>
      </trkpt>
      <trkpt lat="45.64212" lon="4.54485">
        <ele>662</ele>
        <time>2014-01-12T08:35:11Z</time>
      </trkpt>
      <trkpt lat="45.64212" lon="4.5447">
        <ele>662</ele>
        <time>2014-01-12T08:35:14Z</time>
      </trkpt>
      <trkpt lat="45.64212" lon="4.54457">
        <ele>662</ele>
        <time>2014-01-12T08:35:17Z</time>
      </trkpt>
      <trkpt lat="45.64212" lon="4.54444">
        <ele>662</ele>
        <time>2014-01-12T08:35:20Z</time>
      </trkpt>
      <trkpt lat="45.64209" lon="4.54433">
        <ele>662</ele>
        <time>2014-01-12T08:35:23Z</time>
      </trkpt>
      <trkpt lat="45.64207" lon="4.54425">
        <ele>662</ele>
        <time>2014-01-12T08:35:26Z</time>
      </trkpt>
      <trkpt lat="45.64206" lon="4.54415">
        <ele>662</ele>
        <time>2014-01-12T08:35:29Z</time>
      </trkpt>
      <trkpt lat="45.64206" lon="4.54408">
        <ele>660</ele>
        <time>2014-01-12T08:35:32Z</time>
      </trkpt>
      <trkpt lat="45.64205" lon="4.54398">
        <ele>659</ele>
        <time>2014-01-12T08:35:35Z</time>
      </trkpt>
      <trkpt lat="45.64207" lon="4.54389">
        <ele>659</ele>
        <time>2014-01-12T08:35:38Z</time>
      </trkpt>
      <trkpt lat="45.64208" lon="4.54384">
        <ele>659</ele>
        <time>2014-01-12T08:35:41Z</time>
      </trkpt>
      <trkpt lat="45.64206" lon="4.54378">
        <ele>658</ele>
        <time>2014-01-12T08:35:44Z</time>
      </trkpt>
      <trkpt lat="45.64203" lon="4.54373">
        <ele>658</ele>
        <time>2014-01-12T08:35:47Z</time>
      </trkpt>
      <trkpt lat="45.64199" lon="4.54368">
        <ele>658</ele>
        <time>2014-01-12T08:35:50Z</time>
      </trkpt>
      <trkpt lat="45.64194" lon="4.5437">
        <ele>658</ele>
        <time>2014-01-12T08:35:53Z</time>
      </trkpt>
      <trkpt lat="45.64189" lon="4.54374">
        <ele>659</ele>
        <time>2014-01-12T08:35:57Z</time>
      </trkpt>
      <trkpt lat="45.64185" lon="4.54375">
        <ele>662</ele>
        <time>2014-01-12T08:36:01Z</time>
      </trkpt>
      <trkpt lat="45.64179" lon="4.54374">
        <ele>664</ele>
        <time>2014-01-12T08:36:04Z</time>
      </trkpt>
      <trkpt lat="45.64173" lon="4.54373">
        <ele>666</ele>
        <time>2014-01-12T08:36:07Z</time>
      </trkpt>
      <trkpt lat="45.64167" lon="4.54371">
        <ele>668</ele>
        <time>2014-01-12T08:36:10Z</time>
      </trkpt>
      <trkpt lat="45.6416" lon="4.54369">
        <ele>672</ele>
        <time>2014-01-12T08:36:14Z</time>
      </trkpt>
      <trkpt lat="45.64155" lon="4.54366">
        <ele>673</ele>
        <time>2014-01-12T08:36:18Z</time>
      </trkpt>
      <trkpt lat="45.64149" lon="4.54362">
        <ele>673</ele>
        <time>2014-01-12T08:36:22Z</time>
      </trkpt>
      <trkpt lat="45.64144" lon="4.54359">
        <ele>673</ele>
        <time>2014-01-12T08:36:25Z</time>
      </trkpt>
      <trkpt lat="45.64139" lon="4.54355">
        <ele>674</ele>
        <time>2014-01-12T08:36:28Z</time>
      </trkpt>
      <trkpt lat="45.64135" lon="4.54353">
        <ele>675</ele>
        <time>2014-01-12T08:36:32Z</time>
      </trkpt>
      <trkpt lat="45.64131" lon="4.54352">
        <ele>676</ele>
        <time>2014-01-12T08:36:35Z</time>
      </trkpt>
      <trkpt lat="45.64127" lon="4.54351">
        <ele>678</ele>
        <time>2014-01-12T08:36:39Z</time>
      </trkpt>
      <trkpt lat="45.64123" lon="4.54353">
        <ele>680</ele>
        <time>2014-01-12T08:36:43Z</time>
      </trkpt>
      <trkpt lat="45.64119" lon="4.54353">
        <ele>682</ele>
        <time>2014-01-12T08:36:46Z</time>
      </trkpt>
      <trkpt lat="45.64114" lon="4.5435">
        <ele>684</ele>
        <time>2014-01-12T08:36:49Z</time>
      </trkpt>
      <trkpt lat="45.6411" lon="4.54349">
        <ele>685</ele>
        <time>2014-01-12T08:36:52Z</time>
      </trkpt>
      <trkpt lat="45.64106" lon="4.54346">
        <ele>686</ele>
        <time>2014-01-12T08:36:55Z</time>
      </trkpt>
      <trkpt lat="45.64102" lon="4.54345">
        <ele>686</ele>
        <time>2014-01-12T08:36:58Z</time>
      </trkpt>
      <trkpt lat="45.64097" lon="4.54342">
        <ele>686</ele>
        <time>2014-01-12T08:37:01Z</time>
      </trkpt>
      <trkpt lat="45.64092" lon="4.54341">
        <ele>686</ele>
        <time>2014-01-12T08:37:05Z</time>
      </trkpt>
      <trkpt lat="45.64088" lon="4.54339">
        <ele>686</ele>
        <time>2014-01-12T08:37:09Z</time>
      </trkpt>
      <trkpt lat="45.64084" lon="4.5434">
        <ele>686</ele>
        <time>2014-01-12T08:37:12Z</time>
      </trkpt>
      <trkpt lat="45.6408" lon="4.54338">
        <ele>686</ele>
        <time>2014-01-12T08:37:15Z</time>
      </trkpt>
      <trkpt lat="45.64075" lon="4.54338">
        <ele>686</ele>
        <time>2014-01-12T08:37:18Z</time>
      </trkpt>
      <trkpt lat="45.64071" lon="4.54337">
        <ele>686</ele>
        <time>2014-01-12T08:37:21Z</time>
      </trkpt>
      <trkpt lat="45.64067" lon="4.54335">
        <ele>684</ele>
        <time>2014-01-12T08:37:25Z</time>
      </trkpt>
      <trkpt lat="45.64062" lon="4.54332">
        <ele>684</ele>
        <time>2014-01-12T08:37:28Z</time>
      </trkpt>
      <trkpt lat="45.64058" lon="4.54332">
        <ele>684</ele>
        <time>2014-01-12T08:37:32Z</time>
      </trkpt>
      <trkpt lat="45.64054" lon="4.54332">
        <ele>684</ele>
        <time>2014-01-12T08:37:36Z</time>
      </trkpt>
      <trkpt lat="45.64049" lon="4.54331">
        <ele>684</ele>
        <time>2014-01-12T08:37:39Z</time>
      </trkpt>
      <trkpt lat="45.64044" lon="4.5433">
        <ele>684</ele>
        <time>2014-01-12T08:37:42Z</time>
      </trkpt>
      <trkpt lat="45.6404" lon="4.54329">
        <ele>684</ele>
        <time>2014-01-12T08:37:45Z</time>
      </trkpt>
      <trkpt lat="45.64037" lon="4.5433">
        <ele>684</ele>
        <time>2014-01-12T08:37:48Z</time>
      </trkpt>
      <trkpt lat="45.64032" lon="4.5433">
        <ele>684</ele>
        <time>2014-01-12T08:37:51Z</time>
      </trkpt>
      <trkpt lat="45.64028" lon="4.5433">
        <ele>684</ele>
        <time>2014-01-12T08:37:54Z</time>
      </trkpt>
      <trkpt lat="45.64022" lon="4.54329">
        <ele>684</ele>
        <time>2014-01-12T08:37:58Z</time>
      </trkpt>
      <trkpt lat="45.64017" lon="4.54326">
        <ele>684</ele>
        <time>2014-01-12T08:38:01Z</time>
      </trkpt>
      <trkpt lat="45.64012" lon="4.54326">
        <ele>684</ele>
        <time>2014-01-12T08:38:05Z</time>
      </trkpt>
      <trkpt lat="45.64007" lon="4.54326">
        <ele>684</ele>
        <time>2014-01-12T08:38:08Z</time>
      </trkpt>
      <trkpt lat="45.64003" lon="4.54327">
        <ele>684</ele>
        <time>2014-01-12T08:38:11Z</time>
      </trkpt>
      <trkpt lat="45.63999" lon="4.54324">
        <ele>684</ele>
        <time>2014-01-12T08:38:14Z</time>
      </trkpt>
      <trkpt lat="45.63993" lon="4.54319">
        <ele>684</ele>
        <time>2014-01-12T08:38:17Z</time>
      </trkpt>
      <trkpt lat="45.63988" lon="4.54309">
        <ele>684</ele>
        <time>2014-01-12T08:38:20Z</time>
      </trkpt>
      <trkpt lat="45.63984" lon="4.54298">
        <ele>684</ele>
        <time>2014-01-12T08:38:23Z</time>
      </trkpt>
      <trkpt lat="45.63982" lon="4.54289">
        <ele>685</ele>
        <time>2014-01-12T08:38:26Z</time>
      </trkpt>
      <trkpt lat="45.63981" lon="4.54282">
        <ele>686</ele>
        <time>2014-01-12T08:38:29Z</time>
      </trkpt>
      <trkpt lat="45.63978" lon="4.54273">
        <ele>688</ele>
        <time>2014-01-12T08:38:32Z</time>
      </trkpt>
      <trkpt lat="45.63975" lon="4.54263">
        <ele>689</ele>
        <time>2014-01-12T08:38:35Z</time>
      </trkpt>
      <trkpt lat="45.63971" lon="4.54252">
        <ele>690</ele>
        <time>2014-01-12T08:38:38Z</time>
      </trkpt>
      <trkpt lat="45.63964" lon="4.54247">
        <ele>691</ele>
        <time>2014-01-12T08:38:41Z</time>
      </trkpt>
      <trkpt lat="45.63957" lon="4.54247">
        <ele>692</ele>
        <time>2014-01-12T08:38:44Z</time>
      </trkpt>
      <trkpt lat="45.6395" lon="4.54249">
        <ele>692</ele>
        <time>2014-01-12T08:38:47Z</time>
      </trkpt>
      <trkpt lat="45.63943" lon="4.54249">
        <ele>693</ele>
        <time>2014-01-12T08:38:50Z</time>
      </trkpt>
      <trkpt lat="45.63937" lon="4.5425">
        <ele>694</ele>
        <time>2014-01-12T08:38:54Z</time>
      </trkpt>
      <trkpt lat="45.6393" lon="4.5425">
        <ele>695</ele>
        <time>2014-01-12T08:38:57Z</time>
      </trkpt>
      <trkpt lat="45.63921" lon="4.54249">
        <ele>696</ele>
        <time>2014-01-12T08:39:00Z</time>
      </trkpt>
      <trkpt lat="45.63914" lon="4.54248">
        <ele>696</ele>
        <time>2014-01-12T08:39:03Z</time>
      </trkpt>
      <trkpt lat="45.63907" lon="4.54247">
        <ele>697</ele>
        <time>2014-01-12T08:39:06Z</time>
      </trkpt>
      <trkpt lat="45.639" lon="4.54247">
        <ele>697</ele>
        <time>2014-01-12T08:39:09Z</time>
      </trkpt>
      <trkpt lat="45.63892" lon="4.54246">
        <ele>698</ele>
        <time>2014-01-12T08:39:12Z</time>
      </trkpt>
      <trkpt lat="45.63885" lon="4.54244">
        <ele>699</ele>
        <time>2014-01-12T08:39:15Z</time>
      </trkpt>
      <trkpt lat="45.63878" lon="4.5424">
        <ele>699</ele>
        <time>2014-01-12T08:39:18Z</time>
      </trkpt>
      <trkpt lat="45.63871" lon="4.54237">
        <ele>699</ele>
        <time>2014-01-12T08:39:21Z</time>
      </trkpt>
      <trkpt lat="45.63864" lon="4.54234">
        <ele>699</ele>
        <time>2014-01-12T08:39:24Z</time>
      </trkpt>
      <trkpt lat="45.63856" lon="4.54232">
        <ele>699</ele>
        <time>2014-01-12T08:39:27Z</time>
      </trkpt>
      <trkpt lat="45.63848" lon="4.5423">
        <ele>699</ele>
        <time>2014-01-12T08:39:30Z</time>
      </trkpt>
      <trkpt lat="45.6384" lon="4.54229">
        <ele>699</ele>
        <time>2014-01-12T08:39:33Z</time>
      </trkpt>
      <trkpt lat="45.63833" lon="4.54228">
        <ele>699</ele>
        <time>2014-01-12T08:39:36Z</time>
      </trkpt>
      <trkpt lat="45.63824" lon="4.54228">
        <ele>699</ele>
        <time>2014-01-12T08:39:39Z</time>
      </trkpt>
      <trkpt lat="45.63816" lon="4.54227">
        <ele>699</ele>
        <time>2014-01-12T08:39:42Z</time>
      </trkpt>
      <trkpt lat="45.63807" lon="4.54228">
        <ele>699</ele>
        <time>2014-01-12T08:39:45Z</time>
      </trkpt>
      <trkpt lat="45.63797" lon="4.54231">
        <ele>699</ele>
        <time>2014-01-12T08:39:48Z</time>
      </trkpt>
      <trkpt lat="45.63787" lon="4.54232">
        <ele>698</ele>
        <time>2014-01-12T08:39:51Z</time>
      </trkpt>
      <trkpt lat="45.6378" lon="4.54231">
        <ele>698</ele>
        <time>2014-01-12T08:39:54Z</time>
      </trkpt>
      <trkpt lat="45.63773" lon="4.5423">
        <ele>697</ele>
        <time>2014-01-12T08:39:57Z</time>
      </trkpt>
      <trkpt lat="45.63766" lon="4.54232">
        <ele>697</ele>
        <time>2014-01-12T08:40:00Z</time>
      </trkpt>
      <trkpt lat="45.63757" lon="4.54232">
        <ele>696</ele>
        <time>2014-01-12T08:40:03Z</time>
      </trkpt>
      <trkpt lat="45.63749" lon="4.54232">
        <ele>695</ele>
        <time>2014-01-12T08:40:06Z</time>
      </trkpt>
      <trkpt lat="45.63743" lon="4.54234">
        <ele>694</ele>
        <time>2014-01-12T08:40:09Z</time>
      </trkpt>
      <trkpt lat="45.63739" lon="4.5424">
        <ele>693</ele>
        <time>2014-01-12T08:40:12Z</time>
      </trkpt>
      <trkpt lat="45.63737" lon="4.54249">
        <ele>693</ele>
        <time>2014-01-12T08:40:16Z</time>
      </trkpt>
      <trkpt lat="45.63734" lon="4.54262">
        <ele>692</ele>
        <time>2014-01-12T08:40:19Z</time>
      </trkpt>
      <trkpt lat="45.6373" lon="4.54271">
        <ele>692</ele>
        <time>2014-01-12T08:40:22Z</time>
      </trkpt>
      <trkpt lat="45.63729" lon="4.5428">
        <ele>692</ele>
        <time>2014-01-12T08:40:25Z</time>
      </trkpt>
      <trkpt lat="45.63729" lon="4.54289">
        <ele>692</ele>
        <time>2014-01-12T08:40:28Z</time>
      </trkpt>
      <trkpt lat="45.63728" lon="4.54298">
        <ele>692</ele>
        <time>2014-01-12T08:40:31Z</time>
      </trkpt>
      <trkpt lat="45.63726" lon="4.54308">
        <ele>692</ele>
        <time>2014-01-12T08:40:34Z</time>
      </trkpt>
      <trkpt lat="45.63724" lon="4.54317">
        <ele>692</ele>
        <time>2014-01-12T08:40:37Z</time>
      </trkpt>
      <trkpt lat="45.6372" lon="4.54326">
        <ele>692</ele>
        <time>2014-01-12T08:40:40Z</time>
      </trkpt>
      <trkpt lat="45.63718" lon="4.54337">
        <ele>692</ele>
        <time>2014-01-12T08:40:43Z</time>
      </trkpt>
      <trkpt lat="45.63715" lon="4.54346">
        <ele>693</ele>
        <time>2014-01-12T08:40:46Z</time>
      </trkpt>
      <trkpt lat="45.63713" lon="4.54355">
        <ele>694</ele>
        <time>2014-01-12T08:40:49Z</time>
      </trkpt>
      <trkpt lat="45.6371" lon="4.54366">
        <ele>695</ele>
        <time>2014-01-12T08:40:52Z</time>
      </trkpt>
      <trkpt lat="45.63707" lon="4.54376">
        <ele>695</ele>
        <time>2014-01-12T08:40:55Z</time>
      </trkpt>
      <trkpt lat="45.63705" lon="4.54385">
        <ele>695</ele>
        <time>2014-01-12T08:40:58Z</time>
      </trkpt>
      <trkpt lat="45.63703" lon="4.54393">
        <ele>696</ele>
        <time>2014-01-12T08:41:01Z</time>
      </trkpt>
      <trkpt lat="45.63701" lon="4.544">
        <ele>697</ele>
        <time>2014-01-12T08:41:04Z</time>
      </trkpt>
      <trkpt lat="45.63699" lon="4.54408">
        <ele>697</ele>
        <time>2014-01-12T08:41:07Z</time>
      </trkpt>
      <trkpt lat="45.63694" lon="4.54415">
        <ele>698</ele>
        <time>2014-01-12T08:41:10Z</time>
      </trkpt>
      <trkpt lat="45.6369" lon="4.54426">
        <ele>698</ele>
        <time>2014-01-12T08:41:13Z</time>
      </trkpt>
      <trkpt lat="45.63686" lon="4.54435">
        <ele>699</ele>
        <time>2014-01-12T08:41:16Z</time>
      </trkpt>
      <trkpt lat="45.63681" lon="4.54447">
        <ele>699</ele>
        <time>2014-01-12T08:41:19Z</time>
      </trkpt>
      <trkpt lat="45.63677" lon="4.54456">
        <ele>699</ele>
        <time>2014-01-12T08:41:22Z</time>
      </trkpt>
      <trkpt lat="45.63673" lon="4.54464">
        <ele>699</ele>
        <time>2014-01-12T08:41:25Z</time>
      </trkpt>
      <trkpt lat="45.63669" lon="4.54472">
        <ele>699</ele>
        <time>2014-01-12T08:41:28Z</time>
      </trkpt>
      <trkpt lat="45.63665" lon="4.5448">
        <ele>699</ele>
        <time>2014-01-12T08:41:31Z</time>
      </trkpt>
      <trkpt lat="45.63661" lon="4.5449">
        <ele>699</ele>
        <time>2014-01-12T08:41:34Z</time>
      </trkpt>
      <trkpt lat="45.63655" lon="4.54499">
        <ele>699</ele>
        <time>2014-01-12T08:41:38Z</time>
      </trkpt>
      <trkpt lat="45.63649" lon="4.54509">
        <ele>699</ele>
        <time>2014-01-12T08:41:41Z</time>
      </trkpt>
      <trkpt lat="45.63645" lon="4.54519">
        <ele>699</ele>
        <time>2014-01-12T08:41:44Z</time>
      </trkpt>
      <trkpt lat="45.63641" lon="4.54529">
        <ele>700</ele>
        <time>2014-01-12T08:41:47Z</time>
      </trkpt>
      <trkpt lat="45.63636" lon="4.54539">
        <ele>700</ele>
        <time>2014-01-12T08:41:50Z</time>
      </trkpt>
      <trkpt lat="45.63632" lon="4.54544">
        <ele>700</ele>
        <time>2014-01-12T08:41:53Z</time>
      </trkpt>
      <trkpt lat="45.63628" lon="4.54552">
        <ele>700</ele>
        <time>2014-01-12T08:41:56Z</time>
      </trkpt>
      <trkpt lat="45.63624" lon="4.54561">
        <ele>700</ele>
        <time>2014-01-12T08:41:59Z</time>
      </trkpt>
      <trkpt lat="45.6362" lon="4.54569">
        <ele>700</ele>
        <time>2014-01-12T08:42:02Z</time>
      </trkpt>
      <trkpt lat="45.63616" lon="4.54577">
        <ele>700</ele>
        <time>2014-01-12T08:42:05Z</time>
      </trkpt>
      <trkpt lat="45.63611" lon="4.54589">
        <ele>700</ele>
        <time>2014-01-12T08:42:08Z</time>
      </trkpt>
      <trkpt lat="45.63608" lon="4.54596">
        <ele>700</ele>
        <time>2014-01-12T08:42:11Z</time>
      </trkpt>
      <trkpt lat="45.63605" lon="4.54603">
        <ele>700</ele>
        <time>2014-01-12T08:42:14Z</time>
      </trkpt>
      <trkpt lat="45.63602" lon="4.54612">
        <ele>700</ele>
        <time>2014-01-12T08:42:17Z</time>
      </trkpt>
      <trkpt lat="45.63598" lon="4.54622">
        <ele>700</ele>
        <time>2014-01-12T08:42:20Z</time>
      </trkpt>
      <trkpt lat="45.63594" lon="4.5463">
        <ele>701</ele>
        <time>2014-01-12T08:42:23Z</time>
      </trkpt>
      <trkpt lat="45.63589" lon="4.54636">
        <ele>702</ele>
        <time>2014-01-12T08:42:26Z</time>
      </trkpt>
      <trkpt lat="45.63584" lon="4.54646">
        <ele>702</ele>
        <time>2014-01-12T08:42:29Z</time>
      </trkpt>
      <trkpt lat="45.63578" lon="4.54654">
        <ele>703</ele>
        <time>2014-01-12T08:42:32Z</time>
      </trkpt>
      <trkpt lat="45.63572" lon="4.54663">
        <ele>704</ele>
        <time>2014-01-12T08:42:35Z</time>
      </trkpt>
      <trkpt lat="45.63567" lon="4.54672">
        <ele>704</ele>
        <time>2014-01-12T08:42:38Z</time>
      </trkpt>
      <trkpt lat="45.63562" lon="4.54679">
        <ele>704</ele>
        <time>2014-01-12T08:42:41Z</time>
      </trkpt>
      <trkpt lat="45.63559" lon="4.54686">
        <ele>704</ele>
        <time>2014-01-12T08:42:44Z</time>
      </trkpt>
      <trkpt lat="45.63554" lon="4.54694">
        <ele>704</ele>
        <time>2014-01-12T08:42:47Z</time>
      </trkpt>
      <trkpt lat="45.6355" lon="4.54703">
        <ele>704</ele>
        <time>2014-01-12T08:42:50Z</time>
      </trkpt>
      <trkpt lat="45.63546" lon="4.54713">
        <ele>705</ele>
        <time>2014-01-12T08:42:53Z</time>
      </trkpt>
      <trkpt lat="45.63542" lon="4.54721">
        <ele>706</ele>
        <time>2014-01-12T08:42:57Z</time>
      </trkpt>
      <trkpt lat="45.63538" lon="4.54736">
        <ele>707</ele>
        <time>2014-01-12T08:43:00Z</time>
      </trkpt>
      <trkpt lat="45.63535" lon="4.54747">
        <ele>708</ele>
        <time>2014-01-12T08:43:03Z</time>
      </trkpt>
      <trkpt lat="45.63534" lon="4.54757">
        <ele>708</ele>
        <time>2014-01-12T08:43:06Z</time>
      </trkpt>
      <trkpt lat="45.63533" lon="4.54767">
        <ele>708</ele>
        <time>2014-01-12T08:43:09Z</time>
      </trkpt>
      <trkpt lat="45.63533" lon="4.54777">
        <ele>709</ele>
        <time>2014-01-12T08:43:12Z</time>
      </trkpt>
      <trkpt lat="45.63533" lon="4.54787">
        <ele>709</ele>
        <time>2014-01-12T08:43:15Z</time>
      </trkpt>
      <trkpt lat="45.63534" lon="4.54798">
        <ele>710</ele>
        <time>2014-01-12T08:43:18Z</time>
      </trkpt>
      <trkpt lat="45.63534" lon="4.54808">
        <ele>710</ele>
        <time>2014-01-12T08:43:21Z</time>
      </trkpt>
      <trkpt lat="45.63535" lon="4.54818">
        <ele>710</ele>
        <time>2014-01-12T08:43:24Z</time>
      </trkpt>
      <trkpt lat="45.63535" lon="4.54829">
        <ele>710</ele>
        <time>2014-01-12T08:43:27Z</time>
      </trkpt>
      <trkpt lat="45.63536" lon="4.5484">
        <ele>711</ele>
        <time>2014-01-12T08:43:30Z</time>
      </trkpt>
      <trkpt lat="45.63538" lon="4.5485">
        <ele>711</ele>
        <time>2014-01-12T08:43:33Z</time>
      </trkpt>
      <trkpt lat="45.63539" lon="4.5486">
        <ele>712</ele>
        <time>2014-01-12T08:43:36Z</time>
      </trkpt>
      <trkpt lat="45.63541" lon="4.54873">
        <ele>712</ele>
        <time>2014-01-12T08:43:39Z</time>
      </trkpt>
      <trkpt lat="45.63542" lon="4.54885">
        <ele>712</ele>
        <time>2014-01-12T08:43:42Z</time>
      </trkpt>
      <trkpt lat="45.63541" lon="4.54896">
        <ele>713</ele>
        <time>2014-01-12T08:43:45Z</time>
      </trkpt>
      <trkpt lat="45.63533" lon="4.54902">
        <ele>713</ele>
        <time>2014-01-12T08:43:48Z</time>
      </trkpt>
      <trkpt lat="45.63523" lon="4.54902">
        <ele>713</ele>
        <time>2014-01-12T08:43:51Z</time>
      </trkpt>
      <trkpt lat="45.63512" lon="4.54901">
        <ele>713</ele>
        <time>2014-01-12T08:43:54Z</time>
      </trkpt>
      <trkpt lat="45.63502" lon="4.54901">
        <ele>713</ele>
        <time>2014-01-12T08:43:57Z</time>
      </trkpt>
      <trkpt lat="45.63492" lon="4.549">
        <ele>713</ele>
        <time>2014-01-12T08:44:00Z</time>
      </trkpt>
      <trkpt lat="45.63483" lon="4.54901">
        <ele>713</ele>
        <time>2014-01-12T08:44:03Z</time>
      </trkpt>
      <trkpt lat="45.63475" lon="4.54904">
        <ele>713</ele>
        <time>2014-01-12T08:44:06Z</time>
      </trkpt>
      <trkpt lat="45.63467" lon="4.54909">
        <ele>713</ele>
        <time>2014-01-12T08:44:09Z</time>
      </trkpt>
      <trkpt lat="45.63459" lon="4.54912">
        <ele>713</ele>
        <time>2014-01-12T08:44:12Z</time>
      </trkpt>
      <trkpt lat="45.63452" lon="4.54916">
        <ele>713</ele>
        <time>2014-01-12T08:44:15Z</time>
      </trkpt>
      <trkpt lat="45.63445" lon="4.54918">
        <ele>713</ele>
        <time>2014-01-12T08:44:18Z</time>
      </trkpt>
      <trkpt lat="45.63437" lon="4.54916">
        <ele>714</ele>
        <time>2014-01-12T08:44:21Z</time>
      </trkpt>
      <trkpt lat="45.63429" lon="4.54913">
        <ele>715</ele>
        <time>2014-01-12T08:44:24Z</time>
      </trkpt>
      <trkpt lat="45.6342" lon="4.54912">
        <ele>716</ele>
        <time>2014-01-12T08:44:27Z</time>
      </trkpt>
      <trkpt lat="45.63412" lon="4.54914">
        <ele>716</ele>
        <time>2014-01-12T08:44:30Z</time>
      </trkpt>
      <trkpt lat="45.63404" lon="4.54921">
        <ele>716</ele>
        <time>2014-01-12T08:44:33Z</time>
      </trkpt>
      <trkpt lat="45.63398" lon="4.5493">
        <ele>716</ele>
        <time>2014-01-12T08:44:36Z</time>
      </trkpt>
      <trkpt lat="45.63394" lon="4.54941">
        <ele>716</ele>
        <time>2014-01-12T08:44:39Z</time>
      </trkpt>
      <trkpt lat="45.6339" lon="4.5495">
        <ele>716</ele>
        <time>2014-01-12T08:44:42Z</time>
      </trkpt>
      <trkpt lat="45.63384" lon="4.54959">
        <ele>714</ele>
        <time>2014-01-12T08:44:45Z</time>
      </trkpt>
      <trkpt lat="45.63379" lon="4.54969">
        <ele>712</ele>
        <time>2014-01-12T08:44:48Z</time>
      </trkpt>
      <trkpt lat="45.63375" lon="4.54979">
        <ele>712</ele>
        <time>2014-01-12T08:44:51Z</time>
      </trkpt>
      <trkpt lat="45.63375" lon="4.54988">
        <ele>711</ele>
        <time>2014-01-12T08:44:54Z</time>
      </trkpt>
      <trkpt lat="45.63377" lon="4.55">
        <ele>710</ele>
        <time>2014-01-12T08:44:57Z</time>
      </trkpt>
      <trkpt lat="45.63379" lon="4.55011">
        <ele>709</ele>
        <time>2014-01-12T08:45:00Z</time>
      </trkpt>
      <trkpt lat="45.63378" lon="4.55023">
        <ele>708</ele>
        <time>2014-01-12T08:45:03Z</time>
      </trkpt>
      <trkpt lat="45.63379" lon="4.55034">
        <ele>707</ele>
        <time>2014-01-12T08:45:06Z</time>
      </trkpt>
      <trkpt lat="45.6338" lon="4.55046">
        <ele>707</ele>
        <time>2014-01-12T08:45:09Z</time>
      </trkpt>
      <trkpt lat="45.63379" lon="4.55058">
        <ele>706</ele>
        <time>2014-01-12T08:45:12Z</time>
      </trkpt>
      <trkpt lat="45.63377" lon="4.55067">
        <ele>705</ele>
        <time>2014-01-12T08:45:15Z</time>
      </trkpt>
      <trkpt lat="45.63373" lon="4.55077">
        <ele>704</ele>
        <time>2014-01-12T08:45:18Z</time>
      </trkpt>
      <trkpt lat="45.6337" lon="4.55088">
        <ele>703</ele>
        <time>2014-01-12T08:45:21Z</time>
      </trkpt>
      <trkpt lat="45.63367" lon="4.55102">
        <ele>701</ele>
        <time>2014-01-12T08:45:24Z</time>
      </trkpt>
      <trkpt lat="45.63364" lon="4.55115">
        <ele>700</ele>
        <time>2014-01-12T08:45:27Z</time>
      </trkpt>
      <trkpt lat="45.63361" lon="4.55129">
        <ele>699</ele>
        <time>2014-01-12T08:45:30Z</time>
      </trkpt>
      <trkpt lat="45.6336" lon="4.55141">
        <ele>699</ele>
        <time>2014-01-12T08:45:33Z</time>
      </trkpt>
      <trkpt lat="45.63357" lon="4.55154">
        <ele>698</ele>
        <time>2014-01-12T08:45:36Z</time>
      </trkpt>
      <trkpt lat="45.63356" lon="4.55164">
        <ele>698</ele>
        <time>2014-01-12T08:45:39Z</time>
      </trkpt>
      <trkpt lat="45.63356" lon="4.55175">
        <ele>697</ele>
        <time>2014-01-12T08:45:42Z</time>
      </trkpt>
      <trkpt lat="45.63358" lon="4.55187">
        <ele>696</ele>
        <time>2014-01-12T08:45:45Z</time>
      </trkpt>
      <trkpt lat="45.6336" lon="4.55198">
        <ele>694</ele>
        <time>2014-01-12T08:45:48Z</time>
      </trkpt>
      <trkpt lat="45.63363" lon="4.55212">
        <ele>692</ele>
        <time>2014-01-12T08:45:51Z</time>
      </trkpt>
      <trkpt lat="45.63364" lon="4.55227">
        <ele>689</ele>
        <time>2014-01-12T08:45:54Z</time>
      </trkpt>
      <trkpt lat="45.63366" lon="4.5524">
        <ele>688</ele>
        <time>2014-01-12T08:45:57Z</time>
      </trkpt>
      <trkpt lat="45.63365" lon="4.55251">
        <ele>687</ele>
        <time>2014-01-12T08:46:00Z</time>
      </trkpt>
      <trkpt lat="45.63366" lon="4.55255">
        <ele>685</ele>
        <time>2014-01-12T08:46:03Z</time>
      </trkpt>
      <trkpt lat="45.63366" lon="4.55259">
        <ele>684</ele>
        <time>2014-01-12T08:46:09Z</time>
      </trkpt>
      <trkpt lat="45.63365" lon="4.55263">
        <ele>684</ele>
        <time>2014-01-12T08:46:13Z</time>
      </trkpt>
      <trkpt lat="45.63365" lon="4.55268">
        <ele>684</ele>
        <time>2014-01-12T08:46:16Z</time>
      </trkpt>
      <trkpt lat="45.63364" lon="4.55276">
        <ele>684</ele>
        <time>2014-01-12T08:46:19Z</time>
      </trkpt>
      <trkpt lat="45.63362" lon="4.55286">
        <ele>684</ele>
        <time>2014-01-12T08:46:22Z</time>
      </trkpt>
      <trkpt lat="45.63361" lon="4.55295">
        <ele>683</ele>
        <time>2014-01-12T08:46:25Z</time>
      </trkpt>
      <trkpt lat="45.63359" lon="4.55298">
        <ele>682</ele>
        <time>2014-01-12T08:46:29Z</time>
      </trkpt>
      <trkpt lat="45.63359" lon="4.55303">
        <ele>682</ele>
        <time>2014-01-12T08:46:33Z</time>
      </trkpt>
      <trkpt lat="45.63359" lon="4.55311">
        <ele>682</ele>
        <time>2014-01-12T08:46:36Z</time>
      </trkpt>
      <trkpt lat="45.63358" lon="4.55322">
        <ele>682</ele>
        <time>2014-01-12T08:46:39Z</time>
      </trkpt>
      <trkpt lat="45.63355" lon="4.55334">
        <ele>682</ele>
        <time>2014-01-12T08:46:42Z</time>
      </trkpt>
      <trkpt lat="45.63352" lon="4.55345">
        <ele>681</ele>
        <time>2014-01-12T08:46:45Z</time>
      </trkpt>
      <trkpt lat="45.6335" lon="4.55356">
        <ele>681</ele>
        <time>2014-01-12T08:46:48Z</time>
      </trkpt>
      <trkpt lat="45.63345" lon="4.55368">
        <ele>680</ele>
        <time>2014-01-12T08:46:51Z</time>
      </trkpt>
      <trkpt lat="45.6334" lon="4.55379">
        <ele>679</ele>
        <time>2014-01-12T08:46:54Z</time>
      </trkpt>
      <trkpt lat="45.63336" lon="4.55391">
        <ele>678</ele>
        <time>2014-01-12T08:46:57Z</time>
      </trkpt>
      <trkpt lat="45.63331" lon="4.55401">
        <ele>677</ele>
        <time>2014-01-12T08:47:00Z</time>
      </trkpt>
      <trkpt lat="45.63326" lon="4.5541">
        <ele>677</ele>
        <time>2014-01-12T08:47:03Z</time>
      </trkpt>
      <trkpt lat="45.63321" lon="4.5542">
        <ele>677</ele>
        <time>2014-01-12T08:47:06Z</time>
      </trkpt>
      <trkpt lat="45.63316" lon="4.5543">
        <ele>677</ele>
        <time>2014-01-12T08:47:09Z</time>
      </trkpt>
      <trkpt lat="45.6331" lon="4.55439">
        <ele>677</ele>
        <time>2014-01-12T08:47:12Z</time>
      </trkpt>
      <trkpt lat="45.63304" lon="4.55449">
        <ele>676</ele>
        <time>2014-01-12T08:47:15Z</time>
      </trkpt>
      <trkpt lat="45.63299" lon="4.55459">
        <ele>676</ele>
        <time>2014-01-12T08:47:18Z</time>
      </trkpt>
      <trkpt lat="45.63292" lon="4.55471">
        <ele>675</ele>
        <time>2014-01-12T08:47:21Z</time>
      </trkpt>
      <trkpt lat="45.63286" lon="4.55481">
        <ele>674</ele>
        <time>2014-01-12T08:47:24Z</time>
      </trkpt>
      <trkpt lat="45.63281" lon="4.5549">
        <ele>674</ele>
        <time>2014-01-12T08:47:27Z</time>
      </trkpt>
      <trkpt lat="45.63276" lon="4.55498">
        <ele>672</ele>
        <time>2014-01-12T08:47:30Z</time>
      </trkpt>
      <trkpt lat="45.63271" lon="4.55506">
        <ele>672</ele>
        <time>2014-01-12T08:47:33Z</time>
      </trkpt>
      <trkpt lat="45.63267" lon="4.55513">
        <ele>671</ele>
        <time>2014-01-12T08:47:36Z</time>
      </trkpt>
      <trkpt lat="45.63261" lon="4.55521">
        <ele>671</ele>
        <time>2014-01-12T08:47:39Z</time>
      </trkpt>
      <trkpt lat="45.63256" lon="4.55529">
        <ele>671</ele>
        <time>2014-01-12T08:47:42Z</time>
      </trkpt>
      <trkpt lat="45.6325" lon="4.55538">
        <ele>671</ele>
        <time>2014-01-12T08:47:45Z</time>
      </trkpt>
      <trkpt lat="45.63245" lon="4.55546">
        <ele>671</ele>
        <time>2014-01-12T08:47:48Z</time>
      </trkpt>
      <trkpt lat="45.6324" lon="4.55554">
        <ele>670</ele>
        <time>2014-01-12T08:47:51Z</time>
      </trkpt>
      <trkpt lat="45.63234" lon="4.55562">
        <ele>670</ele>
        <time>2014-01-12T08:47:54Z</time>
      </trkpt>
      <trkpt lat="45.63229" lon="4.55571">
        <ele>669</ele>
        <time>2014-01-12T08:47:57Z</time>
      </trkpt>
      <trkpt lat="45.63223" lon="4.5558">
        <ele>669</ele>
        <time>2014-01-12T08:48:00Z</time>
      </trkpt>
      <trkpt lat="45.63217" lon="4.55588">
        <ele>669</ele>
        <time>2014-01-12T08:48:03Z</time>
      </trkpt>
      <trkpt lat="45.63211" lon="4.55598">
        <ele>668</ele>
        <time>2014-01-12T08:48:06Z</time>
      </trkpt>
      <trkpt lat="45.63205" lon="4.55609">
        <ele>668</ele>
        <time>2014-01-12T08:48:09Z</time>
      </trkpt>
      <trkpt lat="45.63199" lon="4.55616">
        <ele>668</ele>
        <time>2014-01-12T08:48:12Z</time>
      </trkpt>
      <trkpt lat="45.63192" lon="4.55622">
        <ele>667</ele>
        <time>2014-01-12T08:48:15Z</time>
      </trkpt>
      <trkpt lat="45.63186" lon="4.55627">
        <ele>667</ele>
        <time>2014-01-12T08:48:18Z</time>
      </trkpt>
      <trkpt lat="45.63182" lon="4.55634">
        <ele>666</ele>
        <time>2014-01-12T08:48:21Z</time>
      </trkpt>
      <trkpt lat="45.63189" lon="4.55642">
        <ele>665</ele>
        <time>2014-01-12T08:48:24Z</time>
      </trkpt>
      <trkpt lat="45.63197" lon="4.55652">
        <ele>664</ele>
        <time>2014-01-12T08:48:27Z</time>
      </trkpt>
      <trkpt lat="45.63204" lon="4.55662">
        <ele>662</ele>
        <time>2014-01-12T08:48:30Z</time>
      </trkpt>
      <trkpt lat="45.63209" lon="4.55675">
        <ele>661</ele>
        <time>2014-01-12T08:48:33Z</time>
      </trkpt>
      <trkpt lat="45.63214" lon="4.55685">
        <ele>660</ele>
        <time>2014-01-12T08:48:36Z</time>
      </trkpt>
      <trkpt lat="45.6322" lon="4.55694">
        <ele>659</ele>
        <time>2014-01-12T08:48:39Z</time>
      </trkpt>
      <trkpt lat="45.63226" lon="4.55702">
        <ele>659</ele>
        <time>2014-01-12T08:48:42Z</time>
      </trkpt>
      <trkpt lat="45.63231" lon="4.55709">
        <ele>658</ele>
        <time>2014-01-12T08:48:45Z</time>
      </trkpt>
      <trkpt lat="45.63238" lon="4.55716">
        <ele>658</ele>
        <time>2014-01-12T08:48:48Z</time>
      </trkpt>
      <trkpt lat="45.63246" lon="4.55723">
        <ele>658</ele>
        <time>2014-01-12T08:48:51Z</time>
      </trkpt>
      <trkpt lat="45.63255" lon="4.5573">
        <ele>658</ele>
        <time>2014-01-12T08:48:54Z</time>
      </trkpt>
      <trkpt lat="45.63263" lon="4.55738">
        <ele>658</ele>
        <time>2014-01-12T08:48:57Z</time>
      </trkpt>
      <trkpt lat="45.63269" lon="4.55747">
        <ele>658</ele>
        <time>2014-01-12T08:49:00Z</time>
      </trkpt>
      <trkpt lat="45.63273" lon="4.55754">
        <ele>658</ele>
        <time>2014-01-12T08:49:03Z</time>
      </trkpt>
      <trkpt lat="45.63278" lon="4.5576">
        <ele>658</ele>
        <time>2014-01-12T08:49:06Z</time>
      </trkpt>
      <trkpt lat="45.63283" lon="4.55766">
        <ele>658</ele>
        <time>2014-01-12T08:49:09Z</time>
      </trkpt>
      <trkpt lat="45.63287" lon="4.55773">
        <ele>659</ele>
        <time>2014-01-12T08:49:12Z</time>
      </trkpt>
      <trkpt lat="45.63292" lon="4.5578">
        <ele>660</ele>
        <time>2014-01-12T08:49:15Z</time>
      </trkpt>
      <trkpt lat="45.63297" lon="4.55787">
        <ele>662</ele>
        <time>2014-01-12T08:49:18Z</time>
      </trkpt>
      <trkpt lat="45.63303" lon="4.55792">
        <ele>664</ele>
        <time>2014-01-12T08:49:21Z</time>
      </trkpt>
      <trkpt lat="45.63308" lon="4.55799">
        <ele>665</ele>
        <time>2014-01-12T08:49:24Z</time>
      </trkpt>
      <trkpt lat="45.63312" lon="4.55806">
        <ele>666</ele>
        <time>2014-01-12T08:49:27Z</time>
      </trkpt>
      <trkpt lat="45.63314" lon="4.55816">
        <ele>667</ele>
        <time>2014-01-12T08:49:30Z</time>
      </trkpt>
      <trkpt lat="45.63316" lon="4.55826">
        <ele>668</ele>
        <time>2014-01-12T08:49:33Z</time>
      </trkpt>
      <trkpt lat="45.63319" lon="4.55835">
        <ele>668</ele>
        <time>2014-01-12T08:49:36Z</time>
      </trkpt>
      <trkpt lat="45.63322" lon="4.55846">
        <ele>668</ele>
        <time>2014-01-12T08:49:39Z</time>
      </trkpt>
      <trkpt lat="45.63323" lon="4.55857">
        <ele>668</ele>
        <time>2014-01-12T08:49:42Z</time>
      </trkpt>
      <trkpt lat="45.63324" lon="4.55868">
        <ele>668</ele>
        <time>2014-01-12T08:49:45Z</time>
      </trkpt>
      <trkpt lat="45.63325" lon="4.5588">
        <ele>669</ele>
        <time>2014-01-12T08:49:48Z</time>
      </trkpt>
      <trkpt lat="45.63327" lon="4.55891">
        <ele>670</ele>
        <time>2014-01-12T08:49:51Z</time>
      </trkpt>
      <trkpt lat="45.63329" lon="4.55902">
        <ele>672</ele>
        <time>2014-01-12T08:49:54Z</time>
      </trkpt>
      <trkpt lat="45.6333" lon="4.55912">
        <ele>672</ele>
        <time>2014-01-12T08:49:57Z</time>
      </trkpt>
      <trkpt lat="45.63332" lon="4.55924">
        <ele>673</ele>
        <time>2014-01-12T08:50:00Z</time>
      </trkpt>
      <trkpt lat="45.63333" lon="4.55935">
        <ele>673</ele>
        <time>2014-01-12T08:50:03Z</time>
      </trkpt>
      <trkpt lat="45.63334" lon="4.55946">
        <ele>673</ele>
        <time>2014-01-12T08:50:06Z</time>
      </trkpt>
      <trkpt lat="45.63335" lon="4.55958">
        <ele>673</ele>
        <time>2014-01-12T08:50:09Z</time>
      </trkpt>
      <trkpt lat="45.63336" lon="4.55969">
        <ele>674</ele>
        <time>2014-01-12T08:50:12Z</time>
      </trkpt>
      <trkpt lat="45.63337" lon="4.55981">
        <ele>674</ele>
        <time>2014-01-12T08:50:15Z</time>
      </trkpt>
      <trkpt lat="45.63339" lon="4.55993">
        <ele>674</ele>
        <time>2014-01-12T08:50:18Z</time>
      </trkpt>
      <trkpt lat="45.63341" lon="4.56004">
        <ele>674</ele>
        <time>2014-01-12T08:50:21Z</time>
      </trkpt>
      <trkpt lat="45.63342" lon="4.56016">
        <ele>674</ele>
        <time>2014-01-12T08:50:24Z</time>
      </trkpt>
      <trkpt lat="45.63345" lon="4.56029">
        <ele>674</ele>
        <time>2014-01-12T08:50:27Z</time>
      </trkpt>
      <trkpt lat="45.63347" lon="4.5604">
        <ele>674</ele>
        <time>2014-01-12T08:50:30Z</time>
      </trkpt>
      <trkpt lat="45.6335" lon="4.56051">
        <ele>674</ele>
        <time>2014-01-12T08:50:33Z</time>
      </trkpt>
      <trkpt lat="45.63352" lon="4.56062">
        <ele>674</ele>
        <time>2014-01-12T08:50:36Z</time>
      </trkpt>
      <trkpt lat="45.6335" lon="4.56074">
        <ele>674</ele>
        <time>2014-01-12T08:50:39Z</time>
      </trkpt>
      <trkpt lat="45.63345" lon="4.56083">
        <ele>674</ele>
        <time>2014-01-12T08:50:42Z</time>
      </trkpt>
      <trkpt lat="45.63339" lon="4.56089">
        <ele>674</ele>
        <time>2014-01-12T08:50:45Z</time>
      </trkpt>
      <trkpt lat="45.63332" lon="4.56093">
        <ele>674</ele>
        <time>2014-01-12T08:50:48Z</time>
      </trkpt>
      <trkpt lat="45.63324" lon="4.56095">
        <ele>673</ele>
        <time>2014-01-12T08:50:51Z</time>
      </trkpt>
      <trkpt lat="45.63317" lon="4.56098">
        <ele>672</ele>
        <time>2014-01-12T08:50:54Z</time>
      </trkpt>
      <trkpt lat="45.63311" lon="4.561">
        <ele>671</ele>
        <time>2014-01-12T08:50:57Z</time>
      </trkpt>
      <trkpt lat="45.63303" lon="4.561">
        <ele>670</ele>
        <time>2014-01-12T08:51:00Z</time>
      </trkpt>
      <trkpt lat="45.63295" lon="4.56099">
        <ele>670</ele>
        <time>2014-01-12T08:51:03Z</time>
      </trkpt>
      <trkpt lat="45.63287" lon="4.56096">
        <ele>670</ele>
        <time>2014-01-12T08:51:06Z</time>
      </trkpt>
      <trkpt lat="45.6328" lon="4.56092">
        <ele>670</ele>
        <time>2014-01-12T08:51:09Z</time>
      </trkpt>
      <trkpt lat="45.63273" lon="4.56088">
        <ele>670</ele>
        <time>2014-01-12T08:51:12Z</time>
      </trkpt>
      <trkpt lat="45.63266" lon="4.56082">
        <ele>670</ele>
        <time>2014-01-12T08:51:15Z</time>
      </trkpt>
      <trkpt lat="45.63261" lon="4.56077">
        <ele>670</ele>
        <time>2014-01-12T08:51:18Z</time>
      </trkpt>
      <trkpt lat="45.63256" lon="4.56072">
        <ele>670</ele>
        <time>2014-01-12T08:51:21Z</time>
      </trkpt>
      <trkpt lat="45.63251" lon="4.56066">
        <ele>670</ele>
        <time>2014-01-12T08:51:24Z</time>
      </trkpt>
      <trkpt lat="45.63247" lon="4.5606">
        <ele>670</ele>
        <time>2014-01-12T08:51:27Z</time>
      </trkpt>
      <trkpt lat="45.63242" lon="4.56054">
        <ele>670</ele>
        <time>2014-01-12T08:51:30Z</time>
      </trkpt>
      <trkpt lat="45.63239" lon="4.5605">
        <ele>670</ele>
        <time>2014-01-12T08:51:33Z</time>
      </trkpt>
      <trkpt lat="45.63234" lon="4.56046">
        <ele>670</ele>
        <time>2014-01-12T08:51:36Z</time>
      </trkpt>
      <trkpt lat="45.63229" lon="4.5604">
        <ele>670</ele>
        <time>2014-01-12T08:51:39Z</time>
      </trkpt>
      <trkpt lat="45.63226" lon="4.56035">
        <ele>670</ele>
        <time>2014-01-12T08:51:42Z</time>
      </trkpt>
      <trkpt lat="45.63221" lon="4.5603">
        <ele>670</ele>
        <time>2014-01-12T08:51:45Z</time>
      </trkpt>
      <trkpt lat="45.63216" lon="4.56025">
        <ele>670</ele>
        <time>2014-01-12T08:51:48Z</time>
      </trkpt>
      <trkpt lat="45.63211" lon="4.56019">
        <ele>670</ele>
        <time>2014-01-12T08:51:51Z</time>
      </trkpt>
      <trkpt lat="45.63207" lon="4.56014">
        <ele>670</ele>
        <time>2014-01-12T08:51:54Z</time>
      </trkpt>
      <trkpt lat="45.63202" lon="4.56009">
        <ele>670</ele>
        <time>2014-01-12T08:51:57Z</time>
      </trkpt>
      <trkpt lat="45.63197" lon="4.56003">
        <ele>670</ele>
        <time>2014-01-12T08:52:00Z</time>
      </trkpt>
      <trkpt lat="45.63191" lon="4.55997">
        <ele>671</ele>
        <time>2014-01-12T08:52:03Z</time>
      </trkpt>
      <trkpt lat="45.63187" lon="4.55992">
        <ele>673</ele>
        <time>2014-01-12T08:52:06Z</time>
      </trkpt>
      <trkpt lat="45.63182" lon="4.55989">
        <ele>674</ele>
        <time>2014-01-12T08:52:09Z</time>
      </trkpt>
      <trkpt lat="45.63178" lon="4.55986">
        <ele>675</ele>
        <time>2014-01-12T08:52:12Z</time>
      </trkpt>
      <trkpt lat="45.63174" lon="4.55985">
        <ele>675</ele>
        <time>2014-01-12T08:52:15Z</time>
      </trkpt>
      <trkpt lat="45.63171" lon="4.55986">
        <ele>676</ele>
        <time>2014-01-12T08:52:20Z</time>
      </trkpt>
      <trkpt lat="45.63166" lon="4.55991">
        <ele>677</ele>
        <time>2014-01-12T08:52:24Z</time>
      </trkpt>
      <trkpt lat="45.63163" lon="4.55995">
        <ele>679</ele>
        <time>2014-01-12T08:52:28Z</time>
      </trkpt>
      <trkpt lat="45.6316" lon="4.56">
        <ele>680</ele>
        <time>2014-01-12T08:52:32Z</time>
      </trkpt>
      <trkpt lat="45.63158" lon="4.56005">
        <ele>680</ele>
        <time>2014-01-12T08:52:35Z</time>
      </trkpt>
      <trkpt lat="45.63158" lon="4.5601">
        <ele>681</ele>
        <time>2014-01-12T08:52:38Z</time>
      </trkpt>
      <trkpt lat="45.63158" lon="4.56016">
        <ele>685</ele>
        <time>2014-01-12T08:52:42Z</time>
      </trkpt>
      <trkpt lat="45.63157" lon="4.56021">
        <ele>687</ele>
        <time>2014-01-12T08:52:45Z</time>
      </trkpt>
      <trkpt lat="45.63157" lon="4.56026">
        <ele>688</ele>
        <time>2014-01-12T08:52:48Z</time>
      </trkpt>
      <trkpt lat="45.63158" lon="4.56032">
        <ele>688</ele>
        <time>2014-01-12T08:52:52Z</time>
      </trkpt>
      <trkpt lat="45.63158" lon="4.56036">
        <ele>688</ele>
        <time>2014-01-12T08:52:55Z</time>
      </trkpt>
      <trkpt lat="45.63157" lon="4.56041">
        <ele>688</ele>
        <time>2014-01-12T08:52:58Z</time>
      </trkpt>
      <trkpt lat="45.63156" lon="4.56046">
        <ele>688</ele>
        <time>2014-01-12T08:53:02Z</time>
      </trkpt>
      <trkpt lat="45.63156" lon="4.56051">
        <ele>689</ele>
        <time>2014-01-12T08:53:06Z</time>
      </trkpt>
      <trkpt lat="45.63156" lon="4.56055">
        <ele>690</ele>
        <time>2014-01-12T08:53:09Z</time>
      </trkpt>
      <trkpt lat="45.63154" lon="4.56061">
        <ele>690</ele>
        <time>2014-01-12T08:53:13Z</time>
      </trkpt>
      <trkpt lat="45.63154" lon="4.56067">
        <ele>691</ele>
        <time>2014-01-12T08:53:17Z</time>
      </trkpt>
      <trkpt lat="45.63153" lon="4.56071">
        <ele>692</ele>
        <time>2014-01-12T08:53:21Z</time>
      </trkpt>
      <trkpt lat="45.63152" lon="4.56074">
        <ele>693</ele>
        <time>2014-01-12T08:53:24Z</time>
      </trkpt>
      <trkpt lat="45.63152" lon="4.56079">
        <ele>694</ele>
        <time>2014-01-12T08:53:27Z</time>
      </trkpt>
      <trkpt lat="45.63152" lon="4.56085">
        <ele>696</ele>
        <time>2014-01-12T08:53:31Z</time>
      </trkpt>
      <trkpt lat="45.63151" lon="4.56089">
        <ele>697</ele>
        <time>2014-01-12T08:53:34Z</time>
      </trkpt>
      <trkpt lat="45.63148" lon="4.56094">
        <ele>698</ele>
        <time>2014-01-12T08:53:37Z</time>
      </trkpt>
      <trkpt lat="45.63145" lon="4.56099">
        <ele>699</ele>
        <time>2014-01-12T08:53:40Z</time>
      </trkpt>
      <trkpt lat="45.63143" lon="4.56105">
        <ele>699</ele>
        <time>2014-01-12T08:53:43Z</time>
      </trkpt>
      <trkpt lat="45.63138" lon="4.56111">
        <ele>700</ele>
        <time>2014-01-12T08:53:46Z</time>
      </trkpt>
      <trkpt lat="45.63135" lon="4.56116">
        <ele>701</ele>
        <time>2014-01-12T08:53:49Z</time>
      </trkpt>
      <trkpt lat="45.63132" lon="4.5612">
        <ele>702</ele>
        <time>2014-01-12T08:53:52Z</time>
      </trkpt>
      <trkpt lat="45.63128" lon="4.56123">
        <ele>703</ele>
        <time>2014-01-12T08:53:55Z</time>
      </trkpt>
      <trkpt lat="45.63123" lon="4.56127">
        <ele>703</ele>
        <time>2014-01-12T08:53:59Z</time>
      </trkpt>
      <trkpt lat="45.6312" lon="4.5613">
        <ele>703</ele>
        <time>2014-01-12T08:54:02Z</time>
      </trkpt>
      <trkpt lat="45.63118" lon="4.56139">
        <ele>704</ele>
        <time>2014-01-12T08:54:05Z</time>
      </trkpt>
      <trkpt lat="45.63119" lon="4.56148">
        <ele>704</ele>
        <time>2014-01-12T08:54:08Z</time>
      </trkpt>
      <trkpt lat="45.63123" lon="4.56157">
        <ele>704</ele>
        <time>2014-01-12T08:54:11Z</time>
      </trkpt>
      <trkpt lat="45.63126" lon="4.56167">
        <ele>704</ele>
        <time>2014-01-12T08:54:14Z</time>
      </trkpt>
      <trkpt lat="45.63131" lon="4.56175">
        <ele>701</ele>
        <time>2014-01-12T08:54:17Z</time>
      </trkpt>
      <trkpt lat="45.63133" lon="4.56186">
        <ele>698</ele>
        <time>2014-01-12T08:54:20Z</time>
      </trkpt>
      <trkpt lat="45.63131" lon="4.56194">
        <ele>695</ele>
        <time>2014-01-12T08:54:23Z</time>
      </trkpt>
      <trkpt lat="45.63124" lon="4.56195">
        <ele>692</ele>
        <time>2014-01-12T08:54:26Z</time>
      </trkpt>
      <trkpt lat="45.63117" lon="4.56191">
        <ele>692</ele>
        <time>2014-01-12T08:54:29Z</time>
      </trkpt>
      <trkpt lat="45.6311" lon="4.5619">
        <ele>692</ele>
        <time>2014-01-12T08:54:32Z</time>
      </trkpt>
      <trkpt lat="45.63104" lon="4.56187">
        <ele>692</ele>
        <time>2014-01-12T08:54:35Z</time>
      </trkpt>
      <trkpt lat="45.63097" lon="4.56186">
        <ele>693</ele>
        <time>2014-01-12T08:54:38Z</time>
      </trkpt>
      <trkpt lat="45.63091" lon="4.56186">
        <ele>694</ele>
        <time>2014-01-12T08:54:41Z</time>
      </trkpt>
      <trkpt lat="45.63082" lon="4.56186">
        <ele>694</ele>
        <time>2014-01-12T08:54:44Z</time>
      </trkpt>
      <trkpt lat="45.63074" lon="4.56189">
        <ele>695</ele>
        <time>2014-01-12T08:54:47Z</time>
      </trkpt>
      <trkpt lat="45.63066" lon="4.56195">
        <ele>695</ele>
        <time>2014-01-12T08:54:50Z</time>
      </trkpt>
      <trkpt lat="45.6306" lon="4.56199">
        <ele>695</ele>
        <time>2014-01-12T08:54:53Z</time>
      </trkpt>
      <trkpt lat="45.63055" lon="4.56205">
        <ele>695</ele>
        <time>2014-01-12T08:54:56Z</time>
      </trkpt>
      <trkpt lat="45.6305" lon="4.56214">
        <ele>695</ele>
        <time>2014-01-12T08:54:59Z</time>
      </trkpt>
      <trkpt lat="45.63044" lon="4.56228">
        <ele>695</ele>
        <time>2014-01-12T08:55:02Z</time>
      </trkpt>
      <trkpt lat="45.63039" lon="4.56237">
        <ele>695</ele>
        <time>2014-01-12T08:55:05Z</time>
      </trkpt>
      <trkpt lat="45.63034" lon="4.56246">
        <ele>695</ele>
        <time>2014-01-12T08:55:08Z</time>
      </trkpt>
      <trkpt lat="45.63029" lon="4.56254">
        <ele>696</ele>
        <time>2014-01-12T08:55:11Z</time>
      </trkpt>
      <trkpt lat="45.63025" lon="4.56259">
        <ele>698</ele>
        <time>2014-01-12T08:55:14Z</time>
      </trkpt>
      <trkpt lat="45.63018" lon="4.56261">
        <ele>699</ele>
        <time>2014-01-12T08:55:17Z</time>
      </trkpt>
      <trkpt lat="45.63014" lon="4.56267">
        <ele>701</ele>
        <time>2014-01-12T08:55:20Z</time>
      </trkpt>
      <trkpt lat="45.63014" lon="4.56278">
        <ele>701</ele>
        <time>2014-01-12T08:55:23Z</time>
      </trkpt>
      <trkpt lat="45.63012" lon="4.56289">
        <ele>701</ele>
        <time>2014-01-12T08:55:26Z</time>
      </trkpt>
      <trkpt lat="45.63013" lon="4.563">
        <ele>701</ele>
        <time>2014-01-12T08:55:29Z</time>
      </trkpt>
      <trkpt lat="45.63013" lon="4.56311">
        <ele>701</ele>
        <time>2014-01-12T08:55:32Z</time>
      </trkpt>
      <trkpt lat="45.63015" lon="4.56323">
        <ele>701</ele>
        <time>2014-01-12T08:55:35Z</time>
      </trkpt>
      <trkpt lat="45.63014" lon="4.56336">
        <ele>701</ele>
        <time>2014-01-12T08:55:38Z</time>
      </trkpt>
      <trkpt lat="45.63013" lon="4.56347">
        <ele>700</ele>
        <time>2014-01-12T08:55:41Z</time>
      </trkpt>
      <trkpt lat="45.63014" lon="4.56359">
        <ele>699</ele>
        <time>2014-01-12T08:55:44Z</time>
      </trkpt>
      <trkpt lat="45.63015" lon="4.56368">
        <ele>698</ele>
        <time>2014-01-12T08:55:47Z</time>
      </trkpt>
      <trkpt lat="45.63014" lon="4.5638">
        <ele>697</ele>
        <time>2014-01-12T08:55:50Z</time>
      </trkpt>
      <trkpt lat="45.63009" lon="4.56395">
        <ele>697</ele>
        <time>2014-01-12T08:55:53Z</time>
      </trkpt>
      <trkpt lat="45.63007" lon="4.56407">
        <ele>697</ele>
        <time>2014-01-12T08:55:56Z</time>
      </trkpt>
      <trkpt lat="45.63005" lon="4.56419">
        <ele>697</ele>
        <time>2014-01-12T08:55:59Z</time>
      </trkpt>
      <trkpt lat="45.63007" lon="4.5643">
        <ele>697</ele>
        <time>2014-01-12T08:56:02Z</time>
      </trkpt>
      <trkpt lat="45.63015" lon="4.56434">
        <ele>697</ele>
        <time>2014-01-12T08:56:05Z</time>
      </trkpt>
      <trkpt lat="45.63025" lon="4.56432">
        <ele>697</ele>
        <time>2014-01-12T08:56:08Z</time>
      </trkpt>
      <trkpt lat="45.63034" lon="4.56429">
        <ele>697</ele>
        <time>2014-01-12T08:56:11Z</time>
      </trkpt>
      <trkpt lat="45.63041" lon="4.56427">
        <ele>697</ele>
        <time>2014-01-12T08:56:14Z</time>
      </trkpt>
      <trkpt lat="45.63046" lon="4.56431">
        <ele>697</ele>
        <time>2014-01-12T08:56:17Z</time>
      </trkpt>
      <trkpt lat="45.6305" lon="4.56439">
        <ele>698</ele>
        <time>2014-01-12T08:56:20Z</time>
      </trkpt>
      <trkpt lat="45.6305" lon="4.56449">
        <ele>698</ele>
        <time>2014-01-12T08:56:23Z</time>
      </trkpt>
      <trkpt lat="45.63049" lon="4.56457">
        <ele>698</ele>
        <time>2014-01-12T08:56:26Z</time>
      </trkpt>
      <trkpt lat="45.63047" lon="4.56464">
        <ele>699</ele>
        <time>2014-01-12T08:56:29Z</time>
      </trkpt>
      <trkpt lat="45.63046" lon="4.56469">
        <ele>700</ele>
        <time>2014-01-12T08:56:32Z</time>
      </trkpt>
      <trkpt lat="45.63044" lon="4.56474">
        <ele>700</ele>
        <time>2014-01-12T08:56:35Z</time>
      </trkpt>
      <trkpt lat="45.63042" lon="4.56479">
        <ele>700</ele>
        <time>2014-01-12T08:56:38Z</time>
      </trkpt>
      <trkpt lat="45.63041" lon="4.56484">
        <ele>701</ele>
        <time>2014-01-12T08:56:41Z</time>
      </trkpt>
      <trkpt lat="45.63039" lon="4.5649">
        <ele>701</ele>
        <time>2014-01-12T08:56:45Z</time>
      </trkpt>
      <trkpt lat="45.63037" lon="4.56494">
        <ele>701</ele>
        <time>2014-01-12T08:56:48Z</time>
      </trkpt>
      <trkpt lat="45.63035" lon="4.56498">
        <ele>701</ele>
        <time>2014-01-12T08:56:51Z</time>
      </trkpt>
      <trkpt lat="45.63032" lon="4.56503">
        <ele>701</ele>
        <time>2014-01-12T08:56:55Z</time>
      </trkpt>
      <trkpt lat="45.63028" lon="4.56508">
        <ele>701</ele>
        <time>2014-01-12T08:56:58Z</time>
      </trkpt>
      <trkpt lat="45.63025" lon="4.56516">
        <ele>701</ele>
        <time>2014-01-12T08:57:01Z</time>
      </trkpt>
      <trkpt lat="45.63021" lon="4.56523">
        <ele>701</ele>
        <time>2014-01-12T08:57:04Z</time>
      </trkpt>
      <trkpt lat="45.63019" lon="4.56533">
        <ele>701</ele>
        <time>2014-01-12T08:57:07Z</time>
      </trkpt>
      <trkpt lat="45.63016" lon="4.56542">
        <ele>702</ele>
        <time>2014-01-12T08:57:10Z</time>
      </trkpt>
      <trkpt lat="45.63014" lon="4.56549">
        <ele>703</ele>
        <time>2014-01-12T08:57:13Z</time>
      </trkpt>
      <trkpt lat="45.63013" lon="4.56555">
        <ele>704</ele>
        <time>2014-01-12T08:57:16Z</time>
      </trkpt>
      <trkpt lat="45.63012" lon="4.5656">
        <ele>704</ele>
        <time>2014-01-12T08:57:19Z</time>
      </trkpt>
      <trkpt lat="45.6301" lon="4.56566">
        <ele>705</ele>
        <time>2014-01-12T08:57:22Z</time>
      </trkpt>
      <trkpt lat="45.63009" lon="4.56571">
        <ele>705</ele>
        <time>2014-01-12T08:57:25Z</time>
      </trkpt>
      <trkpt lat="45.63007" lon="4.56577">
        <ele>706</ele>
        <time>2014-01-12T08:57:28Z</time>
      </trkpt>
      <trkpt lat="45.63005" lon="4.56582">
        <ele>707</ele>
        <time>2014-01-12T08:57:31Z</time>
      </trkpt>
      <trkpt lat="45.63004" lon="4.56589">
        <ele>708</ele>
        <time>2014-01-12T08:57:34Z</time>
      </trkpt>
      <trkpt lat="45.63002" lon="4.56594">
        <ele>709</ele>
        <time>2014-01-12T08:57:37Z</time>
      </trkpt>
      <trkpt lat="45.63" lon="4.56599">
        <ele>710</ele>
        <time>2014-01-12T08:57:40Z</time>
      </trkpt>
      <trkpt lat="45.62998" lon="4.56604">
        <ele>710</ele>
        <time>2014-01-12T08:57:43Z</time>
      </trkpt>
      <trkpt lat="45.62996" lon="4.56609">
        <ele>710</ele>
        <time>2014-01-12T08:57:46Z</time>
      </trkpt>
      <trkpt lat="45.62995" lon="4.56615">
        <ele>710</ele>
        <time>2014-01-12T08:57:49Z</time>
      </trkpt>
      <trkpt lat="45.62993" lon="4.5662">
        <ele>710</ele>
        <time>2014-01-12T08:57:52Z</time>
      </trkpt>
      <trkpt lat="45.62991" lon="4.56628">
        <ele>710</ele>
        <time>2014-01-12T08:57:55Z</time>
      </trkpt>
      <trkpt lat="45.62987" lon="4.56637">
        <ele>710</ele>
        <time>2014-01-12T08:57:58Z</time>
      </trkpt>
      <trkpt lat="45.62985" lon="4.5665">
        <ele>712</ele>
        <time>2014-01-12T08:58:01Z</time>
      </trkpt>
      <trkpt lat="45.62983" lon="4.56661">
        <ele>715</ele>
        <time>2014-01-12T08:58:04Z</time>
      </trkpt>
      <trkpt lat="45.62981" lon="4.56672">
        <ele>718</ele>
        <time>2014-01-12T08:58:07Z</time>
      </trkpt>
      <trkpt lat="45.62978" lon="4.56682">
        <ele>720</ele>
        <time>2014-01-12T08:58:10Z</time>
      </trkpt>
      <trkpt lat="45.62975" lon="4.56693">
        <ele>721</ele>
        <time>2014-01-12T08:58:13Z</time>
      </trkpt>
      <trkpt lat="45.62972" lon="4.56703">
        <ele>722</ele>
        <time>2014-01-12T08:58:16Z</time>
      </trkpt>
      <trkpt lat="45.62969" lon="4.56713">
        <ele>723</ele>
        <time>2014-01-12T08:58:19Z</time>
      </trkpt>
      <trkpt lat="45.62966" lon="4.56723">
        <ele>724</ele>
        <time>2014-01-12T08:58:22Z</time>
      </trkpt>
      <trkpt lat="45.62963" lon="4.56734">
        <ele>724</ele>
        <time>2014-01-12T08:58:25Z</time>
      </trkpt>
      <trkpt lat="45.62961" lon="4.56743">
        <ele>724</ele>
        <time>2014-01-12T08:58:28Z</time>
      </trkpt>
      <trkpt lat="45.6296" lon="4.56752">
        <ele>724</ele>
        <time>2014-01-12T08:58:31Z</time>
      </trkpt>
      <trkpt lat="45.6296" lon="4.56758">
        <ele>725</ele>
        <time>2014-01-12T08:58:34Z</time>
      </trkpt>
      <trkpt lat="45.62959" lon="4.56764">
        <ele>725</ele>
        <time>2014-01-12T08:58:37Z</time>
      </trkpt>
      <trkpt lat="45.6296" lon="4.5677">
        <ele>726</ele>
        <time>2014-01-12T08:58:40Z</time>
      </trkpt>
      <trkpt lat="45.62962" lon="4.56775">
        <ele>726</ele>
        <time>2014-01-12T08:58:43Z</time>
      </trkpt>
      <trkpt lat="45.62963" lon="4.5678">
        <ele>727</ele>
        <time>2014-01-12T08:58:46Z</time>
      </trkpt>
      <trkpt lat="45.62965" lon="4.56785">
        <ele>727</ele>
        <time>2014-01-12T08:58:49Z</time>
      </trkpt>
      <trkpt lat="45.62966" lon="4.5679">
        <ele>727</ele>
        <time>2014-01-12T08:58:53Z</time>
      </trkpt>
      <trkpt lat="45.62968" lon="4.56797">
        <ele>728</ele>
        <time>2014-01-12T08:58:56Z</time>
      </trkpt>
      <trkpt lat="45.62969" lon="4.56801">
        <ele>728</ele>
        <time>2014-01-12T08:58:59Z</time>
      </trkpt>
      <trkpt lat="45.6297" lon="4.56806">
        <ele>728</ele>
        <time>2014-01-12T08:59:02Z</time>
      </trkpt>
      <trkpt lat="45.62971" lon="4.56811">
        <ele>728</ele>
        <time>2014-01-12T08:59:05Z</time>
      </trkpt>
      <trkpt lat="45.62972" lon="4.56816">
        <ele>728</ele>
        <time>2014-01-12T08:59:08Z</time>
      </trkpt>
      <trkpt lat="45.62973" lon="4.56821">
        <ele>729</ele>
        <time>2014-01-12T08:59:11Z</time>
      </trkpt>
      <trkpt lat="45.62973" lon="4.56826">
        <ele>729</ele>
        <time>2014-01-12T08:59:14Z</time>
      </trkpt>
      <trkpt lat="45.62974" lon="4.56832">
        <ele>730</ele>
        <time>2014-01-12T08:59:17Z</time>
      </trkpt>
      <trkpt lat="45.62975" lon="4.56837">
        <ele>731</ele>
        <time>2014-01-12T08:59:20Z</time>
      </trkpt>
      <trkpt lat="45.62976" lon="4.56843">
        <ele>731</ele>
        <time>2014-01-12T08:59:23Z</time>
      </trkpt>
      <trkpt lat="45.62976" lon="4.56848">
        <ele>731</ele>
        <time>2014-01-12T08:59:26Z</time>
      </trkpt>
      <trkpt lat="45.62977" lon="4.56854">
        <ele>732</ele>
        <time>2014-01-12T08:59:29Z</time>
      </trkpt>
      <trkpt lat="45.62977" lon="4.56861">
        <ele>733</ele>
        <time>2014-01-12T08:59:32Z</time>
      </trkpt>
      <trkpt lat="45.62977" lon="4.56868">
        <ele>735</ele>
        <time>2014-01-12T08:59:35Z</time>
      </trkpt>
      <trkpt lat="45.62977" lon="4.56875">
        <ele>736</ele>
        <time>2014-01-12T08:59:38Z</time>
      </trkpt>
      <trkpt lat="45.62978" lon="4.56881">
        <ele>737</ele>
        <time>2014-01-12T08:59:41Z</time>
      </trkpt>
      <trkpt lat="45.62978" lon="4.56887">
        <ele>737</ele>
        <time>2014-01-12T08:59:44Z</time>
      </trkpt>
      <trkpt lat="45.6298" lon="4.56892">
        <ele>738</ele>
        <time>2014-01-12T08:59:47Z</time>
      </trkpt>
      <trkpt lat="45.62981" lon="4.56897">
        <ele>738</ele>
        <time>2014-01-12T08:59:50Z</time>
      </trkpt>
      <trkpt lat="45.62982" lon="4.56904">
        <ele>739</ele>
        <time>2014-01-12T08:59:53Z</time>
      </trkpt>
      <trkpt lat="45.62984" lon="4.5691">
        <ele>739</ele>
        <time>2014-01-12T08:59:56Z</time>
      </trkpt>
      <trkpt lat="45.62985" lon="4.56914">
        <ele>739</ele>
        <time>2014-01-12T08:59:59Z</time>
      </trkpt>
      <trkpt lat="45.62987" lon="4.5692">
        <ele>741</ele>
        <time>2014-01-12T09:00:02Z</time>
      </trkpt>
      <trkpt lat="45.62989" lon="4.56925">
        <ele>742</ele>
        <time>2014-01-12T09:00:05Z</time>
      </trkpt>
      <trkpt lat="45.6299" lon="4.5693">
        <ele>742</ele>
        <time>2014-01-12T09:00:08Z</time>
      </trkpt>
      <trkpt lat="45.62992" lon="4.56936">
        <ele>742</ele>
        <time>2014-01-12T09:00:11Z</time>
      </trkpt>
      <trkpt lat="45.62994" lon="4.56942">
        <ele>743</ele>
        <time>2014-01-12T09:00:14Z</time>
      </trkpt>
      <trkpt lat="45.62995" lon="4.56948">
        <ele>744</ele>
        <time>2014-01-12T09:00:17Z</time>
      </trkpt>
      <trkpt lat="45.62997" lon="4.56953">
        <ele>744</ele>
        <time>2014-01-12T09:00:20Z</time>
      </trkpt>
      <trkpt lat="45.62998" lon="4.56959">
        <ele>745</ele>
        <time>2014-01-12T09:00:23Z</time>
      </trkpt>
      <trkpt lat="45.62999" lon="4.56965">
        <ele>745</ele>
        <time>2014-01-12T09:00:26Z</time>
      </trkpt>
      <trkpt lat="45.63001" lon="4.56971">
        <ele>745</ele>
        <time>2014-01-12T09:00:29Z</time>
      </trkpt>
      <trkpt lat="45.63002" lon="4.56977">
        <ele>746</ele>
        <time>2014-01-12T09:00:32Z</time>
      </trkpt>
      <trkpt lat="45.63004" lon="4.56983">
        <ele>747</ele>
        <time>2014-01-12T09:00:35Z</time>
      </trkpt>
      <trkpt lat="45.63007" lon="4.56992">
        <ele>748</ele>
        <time>2014-01-12T09:00:38Z</time>
      </trkpt>
      <trkpt lat="45.6301" lon="4.57001">
        <ele>749</ele>
        <time>2014-01-12T09:00:41Z</time>
      </trkpt>
      <trkpt lat="45.63014" lon="4.5701">
        <ele>750</ele>
        <time>2014-01-12T09:00:44Z</time>
      </trkpt>
      <trkpt lat="45.63018" lon="4.57017">
        <ele>751</ele>
        <time>2014-01-12T09:00:47Z</time>
      </trkpt>
      <trkpt lat="45.63023" lon="4.57022">
        <ele>751</ele>
        <time>2014-01-12T09:00:50Z</time>
      </trkpt>
      <trkpt lat="45.63027" lon="4.57027">
        <ele>752</ele>
        <time>2014-01-12T09:00:53Z</time>
      </trkpt>
      <trkpt lat="45.6303" lon="4.57034">
        <ele>752</ele>
        <time>2014-01-12T09:00:56Z</time>
      </trkpt>
      <trkpt lat="45.63031" lon="4.57043">
        <ele>753</ele>
        <time>2014-01-12T09:00:59Z</time>
      </trkpt>
      <trkpt lat="45.63034" lon="4.57054">
        <ele>754</ele>
        <time>2014-01-12T09:01:02Z</time>
      </trkpt>
      <trkpt lat="45.63039" lon="4.57063">
        <ele>754</ele>
        <time>2014-01-12T09:01:05Z</time>
      </trkpt>
      <trkpt lat="45.63044" lon="4.57069">
        <ele>754</ele>
        <time>2014-01-12T09:01:08Z</time>
      </trkpt>
      <trkpt lat="45.6305" lon="4.57075">
        <ele>754</ele>
        <time>2014-01-12T09:01:11Z</time>
      </trkpt>
      <trkpt lat="45.63056" lon="4.57084">
        <ele>755</ele>
        <time>2014-01-12T09:01:14Z</time>
      </trkpt>
      <trkpt lat="45.6306" lon="4.57093">
        <ele>756</ele>
        <time>2014-01-12T09:01:17Z</time>
      </trkpt>
      <trkpt lat="45.63065" lon="4.57102">
        <ele>756</ele>
        <time>2014-01-12T09:01:20Z</time>
      </trkpt>
      <trkpt lat="45.63068" lon="4.57112">
        <ele>756</ele>
        <time>2014-01-12T09:01:23Z</time>
      </trkpt>
      <trkpt lat="45.63071" lon="4.57122">
        <ele>756</ele>
        <time>2014-01-12T09:01:26Z</time>
      </trkpt>
      <trkpt lat="45.63075" lon="4.57131">
        <ele>756</ele>
        <time>2014-01-12T09:01:29Z</time>
      </trkpt>
      <trkpt lat="45.63079" lon="4.57141">
        <ele>757</ele>
        <time>2014-01-12T09:01:32Z</time>
      </trkpt>
      <trkpt lat="45.63083" lon="4.57149">
        <ele>758</ele>
        <time>2014-01-12T09:01:35Z</time>
      </trkpt>
      <trkpt lat="45.63087" lon="4.57157">
        <ele>759</ele>
        <time>2014-01-12T09:01:38Z</time>
      </trkpt>
      <trkpt lat="45.63092" lon="4.57166">
        <ele>759</ele>
        <time>2014-01-12T09:01:41Z</time>
      </trkpt>
      <trkpt lat="45.63095" lon="4.57176">
        <ele>759</ele>
        <time>2014-01-12T09:01:44Z</time>
      </trkpt>
      <trkpt lat="45.63097" lon="4.57187">
        <ele>759</ele>
        <time>2014-01-12T09:01:47Z</time>
      </trkpt>
      <trkpt lat="45.63097" lon="4.57197">
        <ele>760</ele>
        <time>2014-01-12T09:01:50Z</time>
      </trkpt>
      <trkpt lat="45.63098" lon="4.57207">
        <ele>761</ele>
        <time>2014-01-12T09:01:53Z</time>
      </trkpt>
      <trkpt lat="45.63099" lon="4.57217">
        <ele>762</ele>
        <time>2014-01-12T09:01:56Z</time>
      </trkpt>
      <trkpt lat="45.63099" lon="4.57227">
        <ele>762</ele>
        <time>2014-01-12T09:01:59Z</time>
      </trkpt>
      <trkpt lat="45.63099" lon="4.57236">
        <ele>763</ele>
        <time>2014-01-12T09:02:02Z</time>
      </trkpt>
      <trkpt lat="45.631" lon="4.57246">
        <ele>763</ele>
        <time>2014-01-12T09:02:05Z</time>
      </trkpt>
      <trkpt lat="45.63101" lon="4.57258">
        <ele>763</ele>
        <time>2014-01-12T09:02:08Z</time>
      </trkpt>
      <trkpt lat="45.63103" lon="4.57273">
        <ele>763</ele>
        <time>2014-01-12T09:02:11Z</time>
      </trkpt>
      <trkpt lat="45.63105" lon="4.57288">
        <ele>763</ele>
        <time>2014-01-12T09:02:14Z</time>
      </trkpt>
      <trkpt lat="45.63109" lon="4.57301">
        <ele>763</ele>
        <time>2014-01-12T09:02:17Z</time>
      </trkpt>
      <trkpt lat="45.63109" lon="4.57314">
        <ele>763</ele>
        <time>2014-01-12T09:02:20Z</time>
      </trkpt>
      <trkpt lat="45.63111" lon="4.57325">
        <ele>762</ele>
        <time>2014-01-12T09:02:23Z</time>
      </trkpt>
      <trkpt lat="45.63111" lon="4.57336">
        <ele>761</ele>
        <time>2014-01-12T09:02:26Z</time>
      </trkpt>
      <trkpt lat="45.63112" lon="4.57346">
        <ele>760</ele>
        <time>2014-01-12T09:02:29Z</time>
      </trkpt>
      <trkpt lat="45.63113" lon="4.57355">
        <ele>760</ele>
        <time>2014-01-12T09:02:32Z</time>
      </trkpt>
      <trkpt lat="45.63113" lon="4.57361">
        <ele>760</ele>
        <time>2014-01-12T09:02:36Z</time>
      </trkpt>
      <trkpt lat="45.63112" lon="4.57364">
        <ele>760</ele>
        <time>2014-01-12T09:02:40Z</time>
      </trkpt>
      <trkpt lat="45.63113" lon="4.57366">
        <ele>760</ele>
        <time>2014-01-12T09:03:02Z</time>
      </trkpt>
      <trkpt lat="45.63112" lon="4.57366">
        <ele>760</ele>
        <time>2014-01-12T09:03:12Z</time>
      </trkpt>
      <trkpt lat="45.63113" lon="4.57365">
        <ele>760</ele>
        <time>2014-01-12T09:03:21Z</time>
      </trkpt>
      <trkpt lat="45.63113" lon="4.57366">
        <ele>760</ele>
        <time>2014-01-12T09:03:25Z</time>
      </trkpt>
      <trkpt lat="45.63113" lon="4.57368">
        <ele>760</ele>
        <time>2014-01-12T09:03:35Z</time>
      </trkpt>
      <trkpt lat="45.63113" lon="4.5737">
        <ele>760</ele>
        <time>2014-01-12T09:03:39Z</time>
      </trkpt>
      <trkpt lat="45.63113" lon="4.57371">
        <ele>760</ele>
        <time>2014-01-12T09:03:54Z</time>
      </trkpt>
      <trkpt lat="45.63113" lon="4.57373">
        <ele>760</ele>
        <time>2014-01-12T09:03:58Z</time>
      </trkpt>
      <trkpt lat="45.63113" lon="4.57374">
        <ele>760</ele>
        <time>2014-01-12T09:04:03Z</time>
      </trkpt>
      <trkpt lat="45.63113" lon="4.57376">
        <ele>760</ele>
        <time>2014-01-12T09:04:06Z</time>
      </trkpt>
      <trkpt lat="45.63113" lon="4.57378">
        <ele>760</ele>
        <time>2014-01-12T09:04:10Z</time>
      </trkpt>
      <trkpt lat="45.63114" lon="4.57379">
        <ele>760</ele>
        <time>2014-01-12T09:04:39Z</time>
      </trkpt>
      <trkpt lat="45.63114" lon="4.57381">
        <ele>760</ele>
        <time>2014-01-12T09:04:42Z</time>
      </trkpt>
      <trkpt lat="45.63115" lon="4.57385">
        <ele>760</ele>
        <time>2014-01-12T09:04:45Z</time>
      </trkpt>
      <trkpt lat="45.63115" lon="4.57391">
        <ele>759</ele>
        <time>2014-01-12T09:04:49Z</time>
      </trkpt>
      <trkpt lat="45.63117" lon="4.57401">
        <ele>759</ele>
        <time>2014-01-12T09:04:52Z</time>
      </trkpt>
      <trkpt lat="45.63117" lon="4.5741">
        <ele>759</ele>
        <time>2014-01-12T09:04:55Z</time>
      </trkpt>
      <trkpt lat="45.63116" lon="4.5742">
        <ele>758</ele>
        <time>2014-01-12T09:04:58Z</time>
      </trkpt>
      <trkpt lat="45.63115" lon="4.57431">
        <ele>758</ele>
        <time>2014-01-12T09:05:01Z</time>
      </trkpt>
      <trkpt lat="45.63113" lon="4.57442">
        <ele>758</ele>
        <time>2014-01-12T09:05:04Z</time>
      </trkpt>
      <trkpt lat="45.63111" lon="4.57452">
        <ele>758</ele>
        <time>2014-01-12T09:05:07Z</time>
      </trkpt>
      <trkpt lat="45.63108" lon="4.57463">
        <ele>758</ele>
        <time>2014-01-12T09:05:10Z</time>
      </trkpt>
      <trkpt lat="45.63105" lon="4.57472">
        <ele>758</ele>
        <time>2014-01-12T09:05:13Z</time>
      </trkpt>
      <trkpt lat="45.63103" lon="4.57482">
        <ele>758</ele>
        <time>2014-01-12T09:05:16Z</time>
      </trkpt>
      <trkpt lat="45.63102" lon="4.57492">
        <ele>758</ele>
        <time>2014-01-12T09:05:19Z</time>
      </trkpt>
      <trkpt lat="45.63101" lon="4.57504">
        <ele>758</ele>
        <time>2014-01-12T09:05:22Z</time>
      </trkpt>
      <trkpt lat="45.631" lon="4.57515">
        <ele>758</ele>
        <time>2014-01-12T09:05:25Z</time>
      </trkpt>
      <trkpt lat="45.631" lon="4.57526">
        <ele>758</ele>
        <time>2014-01-12T09:05:28Z</time>
      </trkpt>
      <trkpt lat="45.631" lon="4.57537">
        <ele>758</ele>
        <time>2014-01-12T09:05:31Z</time>
      </trkpt>
      <trkpt lat="45.631" lon="4.57549">
        <ele>758</ele>
        <time>2014-01-12T09:05:34Z</time>
      </trkpt>
      <trkpt lat="45.63098" lon="4.57559">
        <ele>759</ele>
        <time>2014-01-12T09:05:37Z</time>
      </trkpt>
      <trkpt lat="45.63092" lon="4.57567">
        <ele>759</ele>
        <time>2014-01-12T09:05:40Z</time>
      </trkpt>
      <trkpt lat="45.63085" lon="4.57574">
        <ele>759</ele>
        <time>2014-01-12T09:05:43Z</time>
      </trkpt>
      <trkpt lat="45.63078" lon="4.57581">
        <ele>759</ele>
        <time>2014-01-12T09:05:46Z</time>
      </trkpt>
      <trkpt lat="45.63071" lon="4.57588">
        <ele>759</ele>
        <time>2014-01-12T09:05:49Z</time>
      </trkpt>
      <trkpt lat="45.63065" lon="4.57597">
        <ele>759</ele>
        <time>2014-01-12T09:05:52Z</time>
      </trkpt>
      <trkpt lat="45.63058" lon="4.57605">
        <ele>759</ele>
        <time>2014-01-12T09:05:55Z</time>
      </trkpt>
      <trkpt lat="45.63052" lon="4.57613">
        <ele>759</ele>
        <time>2014-01-12T09:05:58Z</time>
      </trkpt>
      <trkpt lat="45.63047" lon="4.57621">
        <ele>759</ele>
        <time>2014-01-12T09:06:01Z</time>
      </trkpt>
      <trkpt lat="45.63042" lon="4.57629">
        <ele>759</ele>
        <time>2014-01-12T09:06:04Z</time>
      </trkpt>
      <trkpt lat="45.63035" lon="4.57637">
        <ele>759</ele>
        <time>2014-01-12T09:06:07Z</time>
      </trkpt>
      <trkpt lat="45.63029" lon="4.57645">
        <ele>759</ele>
        <time>2014-01-12T09:06:10Z</time>
      </trkpt>
      <trkpt lat="45.63023" lon="4.57652">
        <ele>759</ele>
        <time>2014-01-12T09:06:13Z</time>
      </trkpt>
      <trkpt lat="45.63016" lon="4.5766">
        <ele>759</ele>
        <time>2014-01-12T09:06:16Z</time>
      </trkpt>
      <trkpt lat="45.6301" lon="4.57668">
        <ele>759</ele>
        <time>2014-01-12T09:06:19Z</time>
      </trkpt>
      <trkpt lat="45.63004" lon="4.57677">
        <ele>759</ele>
        <time>2014-01-12T09:06:22Z</time>
      </trkpt>
      <trkpt lat="45.62996" lon="4.57686">
        <ele>759</ele>
        <time>2014-01-12T09:06:25Z</time>
      </trkpt>
      <trkpt lat="45.62989" lon="4.57691">
        <ele>759</ele>
        <time>2014-01-12T09:06:28Z</time>
      </trkpt>
      <trkpt lat="45.62982" lon="4.57697">
        <ele>759</ele>
        <time>2014-01-12T09:06:31Z</time>
      </trkpt>
      <trkpt lat="45.62976" lon="4.57705">
        <ele>759</ele>
        <time>2014-01-12T09:06:34Z</time>
      </trkpt>
      <trkpt lat="45.6297" lon="4.57712">
        <ele>759</ele>
        <time>2014-01-12T09:06:37Z</time>
      </trkpt>
      <trkpt lat="45.62963" lon="4.5772">
        <ele>759</ele>
        <time>2014-01-12T09:06:40Z</time>
      </trkpt>
      <trkpt lat="45.62957" lon="4.57727">
        <ele>759</ele>
        <time>2014-01-12T09:06:43Z</time>
      </trkpt>
      <trkpt lat="45.62951" lon="4.57735">
        <ele>759</ele>
        <time>2014-01-12T09:06:46Z</time>
      </trkpt>
      <trkpt lat="45.62945" lon="4.57744">
        <ele>759</ele>
        <time>2014-01-12T09:06:49Z</time>
      </trkpt>
      <trkpt lat="45.62939" lon="4.57752">
        <ele>759</ele>
        <time>2014-01-12T09:06:52Z</time>
      </trkpt>
      <trkpt lat="45.62932" lon="4.57761">
        <ele>759</ele>
        <time>2014-01-12T09:06:55Z</time>
      </trkpt>
      <trkpt lat="45.62927" lon="4.57772">
        <ele>759</ele>
        <time>2014-01-12T09:06:58Z</time>
      </trkpt>
      <trkpt lat="45.62922" lon="4.57784">
        <ele>759</ele>
        <time>2014-01-12T09:07:01Z</time>
      </trkpt>
      <trkpt lat="45.62919" lon="4.57795">
        <ele>759</ele>
        <time>2014-01-12T09:07:04Z</time>
      </trkpt>
      <trkpt lat="45.62916" lon="4.57806">
        <ele>759</ele>
        <time>2014-01-12T09:07:07Z</time>
      </trkpt>
      <trkpt lat="45.62913" lon="4.57819">
        <ele>759</ele>
        <time>2014-01-12T09:07:10Z</time>
      </trkpt>
      <trkpt lat="45.62912" lon="4.57831">
        <ele>759</ele>
        <time>2014-01-12T09:07:13Z</time>
      </trkpt>
      <trkpt lat="45.6291" lon="4.57843">
        <ele>759</ele>
        <time>2014-01-12T09:07:16Z</time>
      </trkpt>
      <trkpt lat="45.62908" lon="4.57855">
        <ele>758</ele>
        <time>2014-01-12T09:07:19Z</time>
      </trkpt>
      <trkpt lat="45.62906" lon="4.57866">
        <ele>758</ele>
        <time>2014-01-12T09:07:22Z</time>
      </trkpt>
      <trkpt lat="45.62905" lon="4.57881">
        <ele>757</ele>
        <time>2014-01-12T09:07:25Z</time>
      </trkpt>
      <trkpt lat="45.62903" lon="4.57895">
        <ele>756</ele>
        <time>2014-01-12T09:07:28Z</time>
      </trkpt>
      <trkpt lat="45.62902" lon="4.57908">
        <ele>756</ele>
        <time>2014-01-12T09:07:31Z</time>
      </trkpt>
      <trkpt lat="45.62901" lon="4.57921">
        <ele>756</ele>
        <time>2014-01-12T09:07:34Z</time>
      </trkpt>
      <trkpt lat="45.629" lon="4.57935">
        <ele>756</ele>
        <time>2014-01-12T09:07:37Z</time>
      </trkpt>
      <trkpt lat="45.62899" lon="4.5795">
        <ele>756</ele>
        <time>2014-01-12T09:07:40Z</time>
      </trkpt>
      <trkpt lat="45.62901" lon="4.57961">
        <ele>755</ele>
        <time>2014-01-12T09:07:43Z</time>
      </trkpt>
      <trkpt lat="45.62899" lon="4.57976">
        <ele>754</ele>
        <time>2014-01-12T09:07:46Z</time>
      </trkpt>
      <trkpt lat="45.629" lon="4.5799">
        <ele>753</ele>
        <time>2014-01-12T09:07:49Z</time>
      </trkpt>
      <trkpt lat="45.629" lon="4.58005">
        <ele>753</ele>
        <time>2014-01-12T09:07:52Z</time>
      </trkpt>
      <trkpt lat="45.62901" lon="4.58018">
        <ele>753</ele>
        <time>2014-01-12T09:07:55Z</time>
      </trkpt>
      <trkpt lat="45.629" lon="4.58032">
        <ele>753</ele>
        <time>2014-01-12T09:07:58Z</time>
      </trkpt>
      <trkpt lat="45.62901" lon="4.58045">
        <ele>753</ele>
        <time>2014-01-12T09:08:01Z</time>
      </trkpt>
      <trkpt lat="45.62902" lon="4.58057">
        <ele>753</ele>
        <time>2014-01-12T09:08:04Z</time>
      </trkpt>
      <trkpt lat="45.62903" lon="4.5807">
        <ele>753</ele>
        <time>2014-01-12T09:08:07Z</time>
      </trkpt>
      <trkpt lat="45.62902" lon="4.58083">
        <ele>753</ele>
        <time>2014-01-12T09:08:10Z</time>
      </trkpt>
      <trkpt lat="45.62904" lon="4.58096">
        <ele>753</ele>
        <time>2014-01-12T09:08:13Z</time>
      </trkpt>
      <trkpt lat="45.62906" lon="4.58108">
        <ele>753</ele>
        <time>2014-01-12T09:08:16Z</time>
      </trkpt>
      <trkpt lat="45.62907" lon="4.5812">
        <ele>753</ele>
        <time>2014-01-12T09:08:19Z</time>
      </trkpt>
      <trkpt lat="45.62909" lon="4.58131">
        <ele>753</ele>
        <time>2014-01-12T09:08:22Z</time>
      </trkpt>
      <trkpt lat="45.6291" lon="4.58143">
        <ele>753</ele>
        <time>2014-01-12T09:08:25Z</time>
      </trkpt>
      <trkpt lat="45.62913" lon="4.58156">
        <ele>753</ele>
        <time>2014-01-12T09:08:28Z</time>
      </trkpt>
      <trkpt lat="45.62916" lon="4.5817">
        <ele>752</ele>
        <time>2014-01-12T09:08:31Z</time>
      </trkpt>
      <trkpt lat="45.62918" lon="4.58182">
        <ele>751</ele>
        <time>2014-01-12T09:08:34Z</time>
      </trkpt>
      <trkpt lat="45.62919" lon="4.58194">
        <ele>751</ele>
        <time>2014-01-12T09:08:37Z</time>
      </trkpt>
      <trkpt lat="45.6292" lon="4.58207">
        <ele>749</ele>
        <time>2014-01-12T09:08:40Z</time>
      </trkpt>
      <trkpt lat="45.6292" lon="4.58219">
        <ele>748</ele>
        <time>2014-01-12T09:08:43Z</time>
      </trkpt>
      <trkpt lat="45.62917" lon="4.58232">
        <ele>748</ele>
        <time>2014-01-12T09:08:46Z</time>
      </trkpt>
      <trkpt lat="45.62912" lon="4.58243">
        <ele>748</ele>
        <time>2014-01-12T09:08:49Z</time>
      </trkpt>
      <trkpt lat="45.62908" lon="4.58253">
        <ele>747</ele>
        <time>2014-01-12T09:08:52Z</time>
      </trkpt>
      <trkpt lat="45.62904" lon="4.58263">
        <ele>747</ele>
        <time>2014-01-12T09:08:55Z</time>
      </trkpt>
      <trkpt lat="45.62899" lon="4.58272">
        <ele>747</ele>
        <time>2014-01-12T09:08:58Z</time>
      </trkpt>
      <trkpt lat="45.62892" lon="4.58278">
        <ele>746</ele>
        <time>2014-01-12T09:09:01Z</time>
      </trkpt>
      <trkpt lat="45.62883" lon="4.58285">
        <ele>745</ele>
        <time>2014-01-12T09:09:04Z</time>
      </trkpt>
      <trkpt lat="45.62874" lon="4.58288">
        <ele>743</ele>
        <time>2014-01-12T09:09:07Z</time>
      </trkpt>
      <trkpt lat="45.62867" lon="4.58291">
        <ele>742</ele>
        <time>2014-01-12T09:09:10Z</time>
      </trkpt>
      <trkpt lat="45.62858" lon="4.58288">
        <ele>742</ele>
        <time>2014-01-12T09:09:13Z</time>
      </trkpt>
      <trkpt lat="45.62849" lon="4.58281">
        <ele>742</ele>
        <time>2014-01-12T09:09:16Z</time>
      </trkpt>
      <trkpt lat="45.6284" lon="4.58276">
        <ele>742</ele>
        <time>2014-01-12T09:09:19Z</time>
      </trkpt>
      <trkpt lat="45.62833" lon="4.58272">
        <ele>741</ele>
        <time>2014-01-12T09:09:22Z</time>
      </trkpt>
      <trkpt lat="45.62828" lon="4.58269">
        <ele>741</ele>
        <time>2014-01-12T09:09:25Z</time>
      </trkpt>
      <trkpt lat="45.62821" lon="4.58265">
        <ele>741</ele>
        <time>2014-01-12T09:09:28Z</time>
      </trkpt>
      <trkpt lat="45.62815" lon="4.58264">
        <ele>741</ele>
        <time>2014-01-12T09:09:31Z</time>
      </trkpt>
      <trkpt lat="45.62808" lon="4.58266">
        <ele>742</ele>
        <time>2014-01-12T09:09:34Z</time>
      </trkpt>
      <trkpt lat="45.62801" lon="4.58266">
        <ele>745</ele>
        <time>2014-01-12T09:09:37Z</time>
      </trkpt>
      <trkpt lat="45.62795" lon="4.58265">
        <ele>748</ele>
        <time>2014-01-12T09:09:40Z</time>
      </trkpt>
      <trkpt lat="45.62788" lon="4.58265">
        <ele>751</ele>
        <time>2014-01-12T09:09:43Z</time>
      </trkpt>
      <trkpt lat="45.6278" lon="4.58265">
        <ele>754</ele>
        <time>2014-01-12T09:09:46Z</time>
      </trkpt>
      <trkpt lat="45.62772" lon="4.58266">
        <ele>757</ele>
        <time>2014-01-12T09:09:49Z</time>
      </trkpt>
      <trkpt lat="45.62764" lon="4.58266">
        <ele>759</ele>
        <time>2014-01-12T09:09:52Z</time>
      </trkpt>
      <trkpt lat="45.62758" lon="4.58264">
        <ele>761</ele>
        <time>2014-01-12T09:09:55Z</time>
      </trkpt>
      <trkpt lat="45.62752" lon="4.58265">
        <ele>763</ele>
        <time>2014-01-12T09:09:58Z</time>
      </trkpt>
      <trkpt lat="45.6275" lon="4.58272">
        <ele>763</ele>
        <time>2014-01-12T09:10:01Z</time>
      </trkpt>
      <trkpt lat="45.62746" lon="4.58278">
        <ele>763</ele>
        <time>2014-01-12T09:10:05Z</time>
      </trkpt>
      <trkpt lat="45.62742" lon="4.58283">
        <ele>763</ele>
        <time>2014-01-12T09:10:09Z</time>
      </trkpt>
      <trkpt lat="45.62738" lon="4.58289">
        <ele>763</ele>
        <time>2014-01-12T09:10:12Z</time>
      </trkpt>
      <trkpt lat="45.62734" lon="4.58294">
        <ele>763</ele>
        <time>2014-01-12T09:10:16Z</time>
      </trkpt>
      <trkpt lat="45.62732" lon="4.58296">
        <ele>763</ele>
        <time>2014-01-12T09:10:20Z</time>
      </trkpt>
      <trkpt lat="45.62729" lon="4.583">
        <ele>763</ele>
        <time>2014-01-12T09:10:24Z</time>
      </trkpt>
      <trkpt lat="45.62725" lon="4.58302">
        <ele>762</ele>
        <time>2014-01-12T09:10:28Z</time>
      </trkpt>
      <trkpt lat="45.62723" lon="4.58304">
        <ele>762</ele>
        <time>2014-01-12T09:10:31Z</time>
      </trkpt>
      <trkpt lat="45.6272" lon="4.58307">
        <ele>762</ele>
        <time>2014-01-12T09:10:34Z</time>
      </trkpt>
      <trkpt lat="45.62717" lon="4.58309">
        <ele>761</ele>
        <time>2014-01-12T09:10:38Z</time>
      </trkpt>
      <trkpt lat="45.62714" lon="4.58314">
        <ele>761</ele>
        <time>2014-01-12T09:10:42Z</time>
      </trkpt>
      <trkpt lat="45.62709" lon="4.58318">
        <ele>761</ele>
        <time>2014-01-12T09:10:46Z</time>
      </trkpt>
      <trkpt lat="45.62706" lon="4.58322">
        <ele>761</ele>
        <time>2014-01-12T09:10:49Z</time>
      </trkpt>
      <trkpt lat="45.62701" lon="4.58325">
        <ele>761</ele>
        <time>2014-01-12T09:10:52Z</time>
      </trkpt>
      <trkpt lat="45.62698" lon="4.58327">
        <ele>763</ele>
        <time>2014-01-12T09:10:55Z</time>
      </trkpt>
      <trkpt lat="45.62693" lon="4.58331">
        <ele>764</ele>
        <time>2014-01-12T09:10:58Z</time>
      </trkpt>
      <trkpt lat="45.62687" lon="4.58333">
        <ele>766</ele>
        <time>2014-01-12T09:11:02Z</time>
      </trkpt>
      <trkpt lat="45.62682" lon="4.58336">
        <ele>766</ele>
        <time>2014-01-12T09:11:07Z</time>
      </trkpt>
      <trkpt lat="45.62679" lon="4.58338">
        <ele>767</ele>
        <time>2014-01-12T09:11:10Z</time>
      </trkpt>
      <trkpt lat="45.62675" lon="4.58344">
        <ele>769</ele>
        <time>2014-01-12T09:11:14Z</time>
      </trkpt>
      <trkpt lat="45.62672" lon="4.58349">
        <ele>769</ele>
        <time>2014-01-12T09:11:17Z</time>
      </trkpt>
      <trkpt lat="45.62668" lon="4.58355">
        <ele>770</ele>
        <time>2014-01-12T09:11:20Z</time>
      </trkpt>
      <trkpt lat="45.62664" lon="4.58358">
        <ele>770</ele>
        <time>2014-01-12T09:11:23Z</time>
      </trkpt>
      <trkpt lat="45.6266" lon="4.58361">
        <ele>770</ele>
        <time>2014-01-12T09:11:26Z</time>
      </trkpt>
      <trkpt lat="45.62657" lon="4.58364">
        <ele>770</ele>
        <time>2014-01-12T09:11:29Z</time>
      </trkpt>
      <trkpt lat="45.62654" lon="4.58368">
        <ele>770</ele>
        <time>2014-01-12T09:11:33Z</time>
      </trkpt>
      <trkpt lat="45.62652" lon="4.58374">
        <ele>770</ele>
        <time>2014-01-12T09:11:36Z</time>
      </trkpt>
      <trkpt lat="45.62649" lon="4.5838">
        <ele>772</ele>
        <time>2014-01-12T09:11:41Z</time>
      </trkpt>
      <trkpt lat="45.62645" lon="4.58386">
        <ele>772</ele>
        <time>2014-01-12T09:11:46Z</time>
      </trkpt>
      <trkpt lat="45.6264" lon="4.58396">
        <ele>772</ele>
        <time>2014-01-12T09:11:50Z</time>
      </trkpt>
      <trkpt lat="45.62635" lon="4.58404">
        <ele>772</ele>
        <time>2014-01-12T09:11:53Z</time>
      </trkpt>
      <trkpt lat="45.62632" lon="4.58413">
        <ele>772</ele>
        <time>2014-01-12T09:11:56Z</time>
      </trkpt>
      <trkpt lat="45.62628" lon="4.58421">
        <ele>772</ele>
        <time>2014-01-12T09:11:59Z</time>
      </trkpt>
      <trkpt lat="45.62626" lon="4.58428">
        <ele>772</ele>
        <time>2014-01-12T09:12:02Z</time>
      </trkpt>
      <trkpt lat="45.62621" lon="4.58437">
        <ele>774</ele>
        <time>2014-01-12T09:12:06Z</time>
      </trkpt>
      <trkpt lat="45.62619" lon="4.58443">
        <ele>778</ele>
        <time>2014-01-12T09:12:10Z</time>
      </trkpt>
      <trkpt lat="45.62615" lon="4.58443">
        <ele>781</ele>
        <time>2014-01-12T09:12:13Z</time>
      </trkpt>
      <trkpt lat="45.62611" lon="4.58446">
        <ele>781</ele>
        <time>2014-01-12T09:12:17Z</time>
      </trkpt>
      <trkpt lat="45.62606" lon="4.58449">
        <ele>782</ele>
        <time>2014-01-12T09:12:20Z</time>
      </trkpt>
      <trkpt lat="45.62603" lon="4.58452">
        <ele>782</ele>
        <time>2014-01-12T09:12:23Z</time>
      </trkpt>
      <trkpt lat="45.62599" lon="4.58456">
        <ele>782</ele>
        <time>2014-01-12T09:12:26Z</time>
      </trkpt>
      <trkpt lat="45.62595" lon="4.5846">
        <ele>782</ele>
        <time>2014-01-12T09:12:29Z</time>
      </trkpt>
      <trkpt lat="45.62589" lon="4.58467">
        <ele>787</ele>
        <time>2014-01-12T09:12:34Z</time>
      </trkpt>
      <trkpt lat="45.62583" lon="4.58471">
        <ele>789</ele>
        <time>2014-01-12T09:12:39Z</time>
      </trkpt>
      <trkpt lat="45.62579" lon="4.58473">
        <ele>789</ele>
        <time>2014-01-12T09:12:43Z</time>
      </trkpt>
      <trkpt lat="45.62576" lon="4.58477">
        <ele>790</ele>
        <time>2014-01-12T09:12:46Z</time>
      </trkpt>
      <trkpt lat="45.62572" lon="4.58478">
        <ele>791</ele>
        <time>2014-01-12T09:12:49Z</time>
      </trkpt>
      <trkpt lat="45.62569" lon="4.58483">
        <ele>794</ele>
        <time>2014-01-12T09:12:53Z</time>
      </trkpt>
      <trkpt lat="45.62566" lon="4.58488">
        <ele>796</ele>
        <time>2014-01-12T09:12:56Z</time>
      </trkpt>
      <trkpt lat="45.62564" lon="4.58494">
        <ele>796</ele>
        <time>2014-01-12T09:12:59Z</time>
      </trkpt>
      <trkpt lat="45.62563" lon="4.585">
        <ele>796</ele>
        <time>2014-01-12T09:13:02Z</time>
      </trkpt>
      <trkpt lat="45.62557" lon="4.58508">
        <ele>796</ele>
        <time>2014-01-12T09:13:06Z</time>
      </trkpt>
      <trkpt lat="45.62553" lon="4.58518">
        <ele>796</ele>
        <time>2014-01-12T09:13:10Z</time>
      </trkpt>
      <trkpt lat="45.6255" lon="4.58525">
        <ele>796</ele>
        <time>2014-01-12T09:13:13Z</time>
      </trkpt>
      <trkpt lat="45.62547" lon="4.58533">
        <ele>796</ele>
        <time>2014-01-12T09:13:16Z</time>
      </trkpt>
      <trkpt lat="45.62542" lon="4.58542">
        <ele>794</ele>
        <time>2014-01-12T09:13:20Z</time>
      </trkpt>
      <trkpt lat="45.62539" lon="4.5855">
        <ele>792</ele>
        <time>2014-01-12T09:13:23Z</time>
      </trkpt>
      <trkpt lat="45.62536" lon="4.58558">
        <ele>791</ele>
        <time>2014-01-12T09:13:26Z</time>
      </trkpt>
      <trkpt lat="45.62532" lon="4.58572">
        <ele>790</ele>
        <time>2014-01-12T09:13:30Z</time>
      </trkpt>
      <trkpt lat="45.6253" lon="4.58584">
        <ele>790</ele>
        <time>2014-01-12T09:13:33Z</time>
      </trkpt>
      <trkpt lat="45.62524" lon="4.58599">
        <ele>790</ele>
        <time>2014-01-12T09:13:37Z</time>
      </trkpt>
      <trkpt lat="45.6252" lon="4.58613">
        <ele>790</ele>
        <time>2014-01-12T09:13:41Z</time>
      </trkpt>
      <trkpt lat="45.62517" lon="4.58624">
        <ele>790</ele>
        <time>2014-01-12T09:13:44Z</time>
      </trkpt>
      <trkpt lat="45.62513" lon="4.58636">
        <ele>790</ele>
        <time>2014-01-12T09:13:47Z</time>
      </trkpt>
      <trkpt lat="45.62508" lon="4.58645">
        <ele>792</ele>
        <time>2014-01-12T09:13:51Z</time>
      </trkpt>
      <trkpt lat="45.62503" lon="4.58654">
        <ele>792</ele>
        <time>2014-01-12T09:13:54Z</time>
      </trkpt>
      <trkpt lat="45.62498" lon="4.58664">
        <ele>793</ele>
        <time>2014-01-12T09:13:58Z</time>
      </trkpt>
      <trkpt lat="45.62495" lon="4.58673">
        <ele>796</ele>
        <time>2014-01-12T09:14:01Z</time>
      </trkpt>
      <trkpt lat="45.62491" lon="4.58679">
        <ele>799</ele>
        <time>2014-01-12T09:14:04Z</time>
      </trkpt>
      <trkpt lat="45.62486" lon="4.58687">
        <ele>803</ele>
        <time>2014-01-12T09:14:08Z</time>
      </trkpt>
      <trkpt lat="45.62482" lon="4.5869">
        <ele>804</ele>
        <time>2014-01-12T09:14:11Z</time>
      </trkpt>
      <trkpt lat="45.62478" lon="4.58693">
        <ele>804</ele>
        <time>2014-01-12T09:14:15Z</time>
      </trkpt>
      <trkpt lat="45.62474" lon="4.58697">
        <ele>804</ele>
        <time>2014-01-12T09:14:19Z</time>
      </trkpt>
      <trkpt lat="45.62469" lon="4.587">
        <ele>804</ele>
        <time>2014-01-12T09:14:23Z</time>
      </trkpt>
      <trkpt lat="45.62466" lon="4.58702">
        <ele>804</ele>
        <time>2014-01-12T09:14:26Z</time>
      </trkpt>
      <trkpt lat="45.62463" lon="4.58703">
        <ele>804</ele>
        <time>2014-01-12T09:14:29Z</time>
      </trkpt>
      <trkpt lat="45.62459" lon="4.58708">
        <ele>804</ele>
        <time>2014-01-12T09:14:34Z</time>
      </trkpt>
      <trkpt lat="45.62456" lon="4.58715">
        <ele>804</ele>
        <time>2014-01-12T09:14:38Z</time>
      </trkpt>
      <trkpt lat="45.62453" lon="4.58718">
        <ele>804</ele>
        <time>2014-01-12T09:14:42Z</time>
      </trkpt>
      <trkpt lat="45.62449" lon="4.58721">
        <ele>804</ele>
        <time>2014-01-12T09:14:45Z</time>
      </trkpt>
      <trkpt lat="45.62446" lon="4.58725">
        <ele>804</ele>
        <time>2014-01-12T09:14:48Z</time>
      </trkpt>
      <trkpt lat="45.62443" lon="4.58729">
        <ele>804</ele>
        <time>2014-01-12T09:14:51Z</time>
      </trkpt>
      <trkpt lat="45.62441" lon="4.58734">
        <ele>804</ele>
        <time>2014-01-12T09:14:54Z</time>
      </trkpt>
      <trkpt lat="45.62437" lon="4.58738">
        <ele>804</ele>
        <time>2014-01-12T09:14:58Z</time>
      </trkpt>
      <trkpt lat="45.62433" lon="4.58743">
        <ele>804</ele>
        <time>2014-01-12T09:15:02Z</time>
      </trkpt>
      <trkpt lat="45.6243" lon="4.58746">
        <ele>804</ele>
        <time>2014-01-12T09:15:05Z</time>
      </trkpt>
      <trkpt lat="45.62427" lon="4.58751">
        <ele>804</ele>
        <time>2014-01-12T09:15:08Z</time>
      </trkpt>
      <trkpt lat="45.62424" lon="4.58758">
        <ele>805</ele>
        <time>2014-01-12T09:15:11Z</time>
      </trkpt>
      <trkpt lat="45.62419" lon="4.58763">
        <ele>809</ele>
        <time>2014-01-12T09:15:15Z</time>
      </trkpt>
      <trkpt lat="45.62416" lon="4.58766">
        <ele>809</ele>
        <time>2014-01-12T09:15:18Z</time>
      </trkpt>
      <trkpt lat="45.62412" lon="4.58771">
        <ele>809</ele>
        <time>2014-01-12T09:15:22Z</time>
      </trkpt>
      <trkpt lat="45.62409" lon="4.58775">
        <ele>810</ele>
        <time>2014-01-12T09:15:26Z</time>
      </trkpt>
      <trkpt lat="45.62405" lon="4.58777">
        <ele>810</ele>
        <time>2014-01-12T09:15:30Z</time>
      </trkpt>
      <trkpt lat="45.62401" lon="4.58781">
        <ele>811</ele>
        <time>2014-01-12T09:15:34Z</time>
      </trkpt>
      <trkpt lat="45.62396" lon="4.58785">
        <ele>812</ele>
        <time>2014-01-12T09:15:39Z</time>
      </trkpt>
      <trkpt lat="45.62391" lon="4.58789">
        <ele>814</ele>
        <time>2014-01-12T09:15:43Z</time>
      </trkpt>
      <trkpt lat="45.62386" lon="4.58793">
        <ele>814</ele>
        <time>2014-01-12T09:15:47Z</time>
      </trkpt>
      <trkpt lat="45.62382" lon="4.58797">
        <ele>815</ele>
        <time>2014-01-12T09:15:50Z</time>
      </trkpt>
      <trkpt lat="45.62378" lon="4.58801">
        <ele>816</ele>
        <time>2014-01-12T09:15:53Z</time>
      </trkpt>
      <trkpt lat="45.62374" lon="4.58803">
        <ele>816</ele>
        <time>2014-01-12T09:15:56Z</time>
      </trkpt>
      <trkpt lat="45.6237" lon="4.58806">
        <ele>817</ele>
        <time>2014-01-12T09:15:59Z</time>
      </trkpt>
      <trkpt lat="45.62365" lon="4.5881">
        <ele>818</ele>
        <time>2014-01-12T09:16:03Z</time>
      </trkpt>
      <trkpt lat="45.6236" lon="4.58813">
        <ele>818</ele>
        <time>2014-01-12T09:16:07Z</time>
      </trkpt>
      <trkpt lat="45.62356" lon="4.58815">
        <ele>818</ele>
        <time>2014-01-12T09:16:11Z</time>
      </trkpt>
      <trkpt lat="45.62353" lon="4.58817">
        <ele>818</ele>
        <time>2014-01-12T09:16:14Z</time>
      </trkpt>
      <trkpt lat="45.62349" lon="4.5882">
        <ele>818</ele>
        <time>2014-01-12T09:16:17Z</time>
      </trkpt>
      <trkpt lat="45.62345" lon="4.58822">
        <ele>818</ele>
        <time>2014-01-12T09:16:20Z</time>
      </trkpt>
      <trkpt lat="45.62342" lon="4.58823">
        <ele>818</ele>
        <time>2014-01-12T09:16:23Z</time>
      </trkpt>
      <trkpt lat="45.62337" lon="4.58824">
        <ele>818</ele>
        <time>2014-01-12T09:16:26Z</time>
      </trkpt>
      <trkpt lat="45.62334" lon="4.58825">
        <ele>818</ele>
        <time>2014-01-12T09:16:29Z</time>
      </trkpt>
      <trkpt lat="45.62329" lon="4.58826">
        <ele>818</ele>
        <time>2014-01-12T09:16:33Z</time>
      </trkpt>
      <trkpt lat="45.62326" lon="4.58827">
        <ele>818</ele>
        <time>2014-01-12T09:16:36Z</time>
      </trkpt>
      <trkpt lat="45.62322" lon="4.58829">
        <ele>818</ele>
        <time>2014-01-12T09:16:40Z</time>
      </trkpt>
      <trkpt lat="45.62318" lon="4.5883">
        <ele>818</ele>
        <time>2014-01-12T09:16:43Z</time>
      </trkpt>
      <trkpt lat="45.62315" lon="4.58831">
        <ele>820</ele>
        <time>2014-01-12T09:16:46Z</time>
      </trkpt>
      <trkpt lat="45.62311" lon="4.58831">
        <ele>820</ele>
        <time>2014-01-12T09:16:49Z</time>
      </trkpt>
      <trkpt lat="45.62307" lon="4.58829">
        <ele>821</ele>
        <time>2014-01-12T09:16:52Z</time>
      </trkpt>
      <trkpt lat="45.62302" lon="4.58828">
        <ele>822</ele>
        <time>2014-01-12T09:16:55Z</time>
      </trkpt>
      <trkpt lat="45.62298" lon="4.58827">
        <ele>824</ele>
        <time>2014-01-12T09:16:58Z</time>
      </trkpt>
      <trkpt lat="45.62294" lon="4.58825">
        <ele>825</ele>
        <time>2014-01-12T09:17:01Z</time>
      </trkpt>
      <trkpt lat="45.62291" lon="4.58824">
        <ele>826</ele>
        <time>2014-01-12T09:17:04Z</time>
      </trkpt>
      <trkpt lat="45.62288" lon="4.58822">
        <ele>827</ele>
        <time>2014-01-12T09:17:07Z</time>
      </trkpt>
      <trkpt lat="45.62284" lon="4.5882">
        <ele>828</ele>
        <time>2014-01-12T09:17:10Z</time>
      </trkpt>
      <trkpt lat="45.62281" lon="4.58817">
        <ele>829</ele>
        <time>2014-01-12T09:17:14Z</time>
      </trkpt>
      <trkpt lat="45.62278" lon="4.58814">
        <ele>829</ele>
        <time>2014-01-12T09:17:17Z</time>
      </trkpt>
      <trkpt lat="45.62275" lon="4.58812">
        <ele>830</ele>
        <time>2014-01-12T09:17:20Z</time>
      </trkpt>
      <trkpt lat="45.62271" lon="4.58811">
        <ele>830</ele>
        <time>2014-01-12T09:17:23Z</time>
      </trkpt>
      <trkpt lat="45.62268" lon="4.58809">
        <ele>831</ele>
        <time>2014-01-12T09:17:26Z</time>
      </trkpt>
      <trkpt lat="45.62262" lon="4.58809">
        <ele>831</ele>
        <time>2014-01-12T09:17:29Z</time>
      </trkpt>
      <trkpt lat="45.62254" lon="4.58805">
        <ele>833</ele>
        <time>2014-01-12T09:17:32Z</time>
      </trkpt>
      <trkpt lat="45.62247" lon="4.58801">
        <ele>835</ele>
        <time>2014-01-12T09:17:35Z</time>
      </trkpt>
      <trkpt lat="45.62239" lon="4.58799">
        <ele>837</ele>
        <time>2014-01-12T09:17:38Z</time>
      </trkpt>
      <trkpt lat="45.62231" lon="4.58798">
        <ele>839</ele>
        <time>2014-01-12T09:17:41Z</time>
      </trkpt>
      <trkpt lat="45.62223" lon="4.58796">
        <ele>841</ele>
        <time>2014-01-12T09:17:44Z</time>
      </trkpt>
      <trkpt lat="45.62215" lon="4.58798">
        <ele>842</ele>
        <time>2014-01-12T09:17:47Z</time>
      </trkpt>
      <trkpt lat="45.62207" lon="4.58801">
        <ele>844</ele>
        <time>2014-01-12T09:17:50Z</time>
      </trkpt>
      <trkpt lat="45.62202" lon="4.5881">
        <ele>845</ele>
        <time>2014-01-12T09:17:53Z</time>
      </trkpt>
      <trkpt lat="45.62196" lon="4.58821">
        <ele>845</ele>
        <time>2014-01-12T09:17:57Z</time>
      </trkpt>
      <trkpt lat="45.62192" lon="4.58831">
        <ele>845</ele>
        <time>2014-01-12T09:18:00Z</time>
      </trkpt>
      <trkpt lat="45.62188" lon="4.58839">
        <ele>845</ele>
        <time>2014-01-12T09:18:03Z</time>
      </trkpt>
      <trkpt lat="45.62181" lon="4.58848">
        <ele>845</ele>
        <time>2014-01-12T09:18:06Z</time>
      </trkpt>
      <trkpt lat="45.62174" lon="4.5886">
        <ele>845</ele>
        <time>2014-01-12T09:18:09Z</time>
      </trkpt>
      <trkpt lat="45.62168" lon="4.58867">
        <ele>845</ele>
        <time>2014-01-12T09:18:12Z</time>
      </trkpt>
      <trkpt lat="45.62162" lon="4.58874">
        <ele>845</ele>
        <time>2014-01-12T09:18:15Z</time>
      </trkpt>
      <trkpt lat="45.62156" lon="4.58882">
        <ele>845</ele>
        <time>2014-01-12T09:18:18Z</time>
      </trkpt>
      <trkpt lat="45.62151" lon="4.58888">
        <ele>845</ele>
        <time>2014-01-12T09:18:21Z</time>
      </trkpt>
      <trkpt lat="45.62146" lon="4.58894">
        <ele>845</ele>
        <time>2014-01-12T09:18:24Z</time>
      </trkpt>
      <trkpt lat="45.62142" lon="4.58899">
        <ele>845</ele>
        <time>2014-01-12T09:18:27Z</time>
      </trkpt>
      <trkpt lat="45.62138" lon="4.58905">
        <ele>845</ele>
        <time>2014-01-12T09:18:30Z</time>
      </trkpt>
      <trkpt lat="45.62135" lon="4.5891">
        <ele>845</ele>
        <time>2014-01-12T09:18:34Z</time>
      </trkpt>
      <trkpt lat="45.62131" lon="4.58914">
        <ele>845</ele>
        <time>2014-01-12T09:18:38Z</time>
      </trkpt>
      <trkpt lat="45.62128" lon="4.58918">
        <ele>845</ele>
        <time>2014-01-12T09:18:42Z</time>
      </trkpt>
      <trkpt lat="45.62125" lon="4.58924">
        <ele>845</ele>
        <time>2014-01-12T09:18:46Z</time>
      </trkpt>
      <trkpt lat="45.62122" lon="4.58928">
        <ele>845</ele>
        <time>2014-01-12T09:18:50Z</time>
      </trkpt>
      <trkpt lat="45.62119" lon="4.58931">
        <ele>845</ele>
        <time>2014-01-12T09:18:53Z</time>
      </trkpt>
      <trkpt lat="45.62115" lon="4.58934">
        <ele>845</ele>
        <time>2014-01-12T09:18:56Z</time>
      </trkpt>
      <trkpt lat="45.62112" lon="4.58939">
        <ele>845</ele>
        <time>2014-01-12T09:19:00Z</time>
      </trkpt>
      <trkpt lat="45.62109" lon="4.58943">
        <ele>845</ele>
        <time>2014-01-12T09:19:03Z</time>
      </trkpt>
      <trkpt lat="45.62107" lon="4.58947">
        <ele>845</ele>
        <time>2014-01-12T09:19:06Z</time>
      </trkpt>
      <trkpt lat="45.62103" lon="4.58954">
        <ele>845</ele>
        <time>2014-01-12T09:19:10Z</time>
      </trkpt>
      <trkpt lat="45.62099" lon="4.5896">
        <ele>845</ele>
        <time>2014-01-12T09:19:13Z</time>
      </trkpt>
      <trkpt lat="45.62094" lon="4.58968">
        <ele>845</ele>
        <time>2014-01-12T09:19:16Z</time>
      </trkpt>
      <trkpt lat="45.62089" lon="4.58975">
        <ele>845</ele>
        <time>2014-01-12T09:19:19Z</time>
      </trkpt>
      <trkpt lat="45.62084" lon="4.58983">
        <ele>846</ele>
        <time>2014-01-12T09:19:22Z</time>
      </trkpt>
      <trkpt lat="45.62079" lon="4.58992">
        <ele>846</ele>
        <time>2014-01-12T09:19:25Z</time>
      </trkpt>
      <trkpt lat="45.62074" lon="4.59001">
        <ele>847</ele>
        <time>2014-01-12T09:19:28Z</time>
      </trkpt>
      <trkpt lat="45.62069" lon="4.59009">
        <ele>848</ele>
        <time>2014-01-12T09:19:31Z</time>
      </trkpt>
      <trkpt lat="45.62065" lon="4.59019">
        <ele>848</ele>
        <time>2014-01-12T09:19:34Z</time>
      </trkpt>
      <trkpt lat="45.62059" lon="4.5903">
        <ele>849</ele>
        <time>2014-01-12T09:19:37Z</time>
      </trkpt>
      <trkpt lat="45.62056" lon="4.59041">
        <ele>850</ele>
        <time>2014-01-12T09:19:40Z</time>
      </trkpt>
      <trkpt lat="45.62054" lon="4.59051">
        <ele>851</ele>
        <time>2014-01-12T09:19:43Z</time>
      </trkpt>
      <trkpt lat="45.6205" lon="4.59062">
        <ele>852</ele>
        <time>2014-01-12T09:19:46Z</time>
      </trkpt>
      <trkpt lat="45.62049" lon="4.59072">
        <ele>855</ele>
        <time>2014-01-12T09:19:49Z</time>
      </trkpt>
      <trkpt lat="45.62045" lon="4.59084">
        <ele>857</ele>
        <time>2014-01-12T09:19:52Z</time>
      </trkpt>
      <trkpt lat="45.62042" lon="4.59094">
        <ele>859</ele>
        <time>2014-01-12T09:19:55Z</time>
      </trkpt>
      <trkpt lat="45.62039" lon="4.59104">
        <ele>860</ele>
        <time>2014-01-12T09:19:58Z</time>
      </trkpt>
      <trkpt lat="45.62037" lon="4.59115">
        <ele>861</ele>
        <time>2014-01-12T09:20:01Z</time>
      </trkpt>
      <trkpt lat="45.62035" lon="4.59125">
        <ele>862</ele>
        <time>2014-01-12T09:20:04Z</time>
      </trkpt>
      <trkpt lat="45.62032" lon="4.59133">
        <ele>862</ele>
        <time>2014-01-12T09:20:07Z</time>
      </trkpt>
      <trkpt lat="45.62028" lon="4.59142">
        <ele>862</ele>
        <time>2014-01-12T09:20:10Z</time>
      </trkpt>
      <trkpt lat="45.62024" lon="4.59151">
        <ele>862</ele>
        <time>2014-01-12T09:20:13Z</time>
      </trkpt>
      <trkpt lat="45.62021" lon="4.59161">
        <ele>862</ele>
        <time>2014-01-12T09:20:16Z</time>
      </trkpt>
      <trkpt lat="45.62018" lon="4.59171">
        <ele>862</ele>
        <time>2014-01-12T09:20:19Z</time>
      </trkpt>
      <trkpt lat="45.62014" lon="4.59181">
        <ele>862</ele>
        <time>2014-01-12T09:20:22Z</time>
      </trkpt>
      <trkpt lat="45.62011" lon="4.59191">
        <ele>862</ele>
        <time>2014-01-12T09:20:25Z</time>
      </trkpt>
      <trkpt lat="45.62007" lon="4.59201">
        <ele>862</ele>
        <time>2014-01-12T09:20:28Z</time>
      </trkpt>
      <trkpt lat="45.62004" lon="4.5921">
        <ele>862</ele>
        <time>2014-01-12T09:20:31Z</time>
      </trkpt>
      <trkpt lat="45.61999" lon="4.59219">
        <ele>862</ele>
        <time>2014-01-12T09:20:34Z</time>
      </trkpt>
      <trkpt lat="45.61995" lon="4.59227">
        <ele>862</ele>
        <time>2014-01-12T09:20:37Z</time>
      </trkpt>
      <trkpt lat="45.61989" lon="4.59235">
        <ele>862</ele>
        <time>2014-01-12T09:20:40Z</time>
      </trkpt>
      <trkpt lat="45.61983" lon="4.59244">
        <ele>862</ele>
        <time>2014-01-12T09:20:43Z</time>
      </trkpt>
      <trkpt lat="45.61976" lon="4.59251">
        <ele>862</ele>
        <time>2014-01-12T09:20:46Z</time>
      </trkpt>
      <trkpt lat="45.6197" lon="4.59257">
        <ele>862</ele>
        <time>2014-01-12T09:20:49Z</time>
      </trkpt>
      <trkpt lat="45.61963" lon="4.59263">
        <ele>862</ele>
        <time>2014-01-12T09:20:52Z</time>
      </trkpt>
      <trkpt lat="45.61957" lon="4.59269">
        <ele>862</ele>
        <time>2014-01-12T09:20:55Z</time>
      </trkpt>
      <trkpt lat="45.61951" lon="4.59275">
        <ele>862</ele>
        <time>2014-01-12T09:20:58Z</time>
      </trkpt>
      <trkpt lat="45.61945" lon="4.59283">
        <ele>862</ele>
        <time>2014-01-12T09:21:01Z</time>
      </trkpt>
      <trkpt lat="45.61938" lon="4.5929">
        <ele>862</ele>
        <time>2014-01-12T09:21:04Z</time>
      </trkpt>
      <trkpt lat="45.61932" lon="4.59299">
        <ele>862</ele>
        <time>2014-01-12T09:21:07Z</time>
      </trkpt>
      <trkpt lat="45.61926" lon="4.59307">
        <ele>862</ele>
        <time>2014-01-12T09:21:10Z</time>
      </trkpt>
      <trkpt lat="45.6192" lon="4.59314">
        <ele>861</ele>
        <time>2014-01-12T09:21:13Z</time>
      </trkpt>
      <trkpt lat="45.61914" lon="4.59322">
        <ele>860</ele>
        <time>2014-01-12T09:21:16Z</time>
      </trkpt>
      <trkpt lat="45.61908" lon="4.59331">
        <ele>859</ele>
        <time>2014-01-12T09:21:19Z</time>
      </trkpt>
      <trkpt lat="45.61902" lon="4.5934">
        <ele>858</ele>
        <time>2014-01-12T09:21:22Z</time>
      </trkpt>
      <trkpt lat="45.61895" lon="4.59348">
        <ele>858</ele>
        <time>2014-01-12T09:21:25Z</time>
      </trkpt>
      <trkpt lat="45.61888" lon="4.59355">
        <ele>857</ele>
        <time>2014-01-12T09:21:28Z</time>
      </trkpt>
      <trkpt lat="45.61879" lon="4.59358">
        <ele>856</ele>
        <time>2014-01-12T09:21:31Z</time>
      </trkpt>
      <trkpt lat="45.61868" lon="4.5936">
        <ele>854</ele>
        <time>2014-01-12T09:21:35Z</time>
      </trkpt>
      <trkpt lat="45.61858" lon="4.59361">
        <ele>854</ele>
        <time>2014-01-12T09:21:38Z</time>
      </trkpt>
      <trkpt lat="45.6185" lon="4.5936">
        <ele>853</ele>
        <time>2014-01-12T09:21:41Z</time>
      </trkpt>
      <trkpt lat="45.6184" lon="4.59361">
        <ele>852</ele>
        <time>2014-01-12T09:21:44Z</time>
      </trkpt>
      <trkpt lat="45.61832" lon="4.59361">
        <ele>851</ele>
        <time>2014-01-12T09:21:47Z</time>
      </trkpt>
      <trkpt lat="45.61822" lon="4.59362">
        <ele>850</ele>
        <time>2014-01-12T09:21:50Z</time>
      </trkpt>
      <trkpt lat="45.61813" lon="4.59363">
        <ele>850</ele>
        <time>2014-01-12T09:21:53Z</time>
      </trkpt>
      <trkpt lat="45.61805" lon="4.59361">
        <ele>850</ele>
        <time>2014-01-12T09:21:56Z</time>
      </trkpt>
      <trkpt lat="45.61797" lon="4.59361">
        <ele>850</ele>
        <time>2014-01-12T09:21:59Z</time>
      </trkpt>
      <trkpt lat="45.61788" lon="4.59361">
        <ele>850</ele>
        <time>2014-01-12T09:22:02Z</time>
      </trkpt>
      <trkpt lat="45.6178" lon="4.5936">
        <ele>850</ele>
        <time>2014-01-12T09:22:05Z</time>
      </trkpt>
      <trkpt lat="45.61772" lon="4.59359">
        <ele>850</ele>
        <time>2014-01-12T09:22:08Z</time>
      </trkpt>
      <trkpt lat="45.61764" lon="4.59357">
        <ele>850</ele>
        <time>2014-01-12T09:22:11Z</time>
      </trkpt>
      <trkpt lat="45.61756" lon="4.59356">
        <ele>850</ele>
        <time>2014-01-12T09:22:14Z</time>
      </trkpt>
      <trkpt lat="45.61748" lon="4.59354">
        <ele>850</ele>
        <time>2014-01-12T09:22:17Z</time>
      </trkpt>
      <trkpt lat="45.6174" lon="4.59354">
        <ele>850</ele>
        <time>2014-01-12T09:22:20Z</time>
      </trkpt>
      <trkpt lat="45.61731" lon="4.59353">
        <ele>850</ele>
        <time>2014-01-12T09:22:23Z</time>
      </trkpt>
      <trkpt lat="45.61723" lon="4.59351">
        <ele>850</ele>
        <time>2014-01-12T09:22:26Z</time>
      </trkpt>
      <trkpt lat="45.61715" lon="4.59349">
        <ele>850</ele>
        <time>2014-01-12T09:22:29Z</time>
      </trkpt>
      <trkpt lat="45.61707" lon="4.59349">
        <ele>850</ele>
        <time>2014-01-12T09:22:32Z</time>
      </trkpt>
      <trkpt lat="45.61699" lon="4.59347">
        <ele>850</ele>
        <time>2014-01-12T09:22:35Z</time>
      </trkpt>
      <trkpt lat="45.61691" lon="4.59345">
        <ele>850</ele>
        <time>2014-01-12T09:22:38Z</time>
      </trkpt>
      <trkpt lat="45.61684" lon="4.59344">
        <ele>850</ele>
        <time>2014-01-12T09:22:41Z</time>
      </trkpt>
      <trkpt lat="45.61676" lon="4.59342">
        <ele>850</ele>
        <time>2014-01-12T09:22:44Z</time>
      </trkpt>
      <trkpt lat="45.61668" lon="4.59342">
        <ele>850</ele>
        <time>2014-01-12T09:22:47Z</time>
      </trkpt>
      <trkpt lat="45.6166" lon="4.59341">
        <ele>850</ele>
        <time>2014-01-12T09:22:50Z</time>
      </trkpt>
      <trkpt lat="45.61648" lon="4.5934">
        <ele>850</ele>
        <time>2014-01-12T09:22:54Z</time>
      </trkpt>
      <trkpt lat="45.6164" lon="4.5934">
        <ele>850</ele>
        <time>2014-01-12T09:22:57Z</time>
      </trkpt>
      <trkpt lat="45.61631" lon="4.59339">
        <ele>850</ele>
        <time>2014-01-12T09:23:00Z</time>
      </trkpt>
      <trkpt lat="45.61623" lon="4.59336">
        <ele>850</ele>
        <time>2014-01-12T09:23:03Z</time>
      </trkpt>
      <trkpt lat="45.61613" lon="4.59334">
        <ele>850</ele>
        <time>2014-01-12T09:23:06Z</time>
      </trkpt>
      <trkpt lat="45.61605" lon="4.59332">
        <ele>850</ele>
        <time>2014-01-12T09:23:09Z</time>
      </trkpt>
      <trkpt lat="45.61596" lon="4.5933">
        <ele>850</ele>
        <time>2014-01-12T09:23:12Z</time>
      </trkpt>
      <trkpt lat="45.61588" lon="4.59329">
        <ele>850</ele>
        <time>2014-01-12T09:23:15Z</time>
      </trkpt>
      <trkpt lat="45.6158" lon="4.59328">
        <ele>850</ele>
        <time>2014-01-12T09:23:18Z</time>
      </trkpt>
      <trkpt lat="45.61572" lon="4.59326">
        <ele>850</ele>
        <time>2014-01-12T09:23:21Z</time>
      </trkpt>
      <trkpt lat="45.61564" lon="4.59325">
        <ele>850</ele>
        <time>2014-01-12T09:23:24Z</time>
      </trkpt>
      <trkpt lat="45.61555" lon="4.59325">
        <ele>850</ele>
        <time>2014-01-12T09:23:27Z</time>
      </trkpt>
      <trkpt lat="45.61546" lon="4.59324">
        <ele>850</ele>
        <time>2014-01-12T09:23:30Z</time>
      </trkpt>
      <trkpt lat="45.61536" lon="4.59323">
        <ele>850</ele>
        <time>2014-01-12T09:23:33Z</time>
      </trkpt>
      <trkpt lat="45.61527" lon="4.59323">
        <ele>850</ele>
        <time>2014-01-12T09:23:36Z</time>
      </trkpt>
      <trkpt lat="45.61518" lon="4.5932">
        <ele>851</ele>
        <time>2014-01-12T09:23:39Z</time>
      </trkpt>
      <trkpt lat="45.61509" lon="4.59319">
        <ele>851</ele>
        <time>2014-01-12T09:23:42Z</time>
      </trkpt>
      <trkpt lat="45.61501" lon="4.59317">
        <ele>851</ele>
        <time>2014-01-12T09:23:45Z</time>
      </trkpt>
      <trkpt lat="45.6149" lon="4.59316">
        <ele>851</ele>
        <time>2014-01-12T09:23:48Z</time>
      </trkpt>
      <trkpt lat="45.61482" lon="4.59317">
        <ele>851</ele>
        <time>2014-01-12T09:23:51Z</time>
      </trkpt>
      <trkpt lat="45.61473" lon="4.59318">
        <ele>851</ele>
        <time>2014-01-12T09:23:54Z</time>
      </trkpt>
      <trkpt lat="45.61461" lon="4.59317">
        <ele>850</ele>
        <time>2014-01-12T09:23:57Z</time>
      </trkpt>
      <trkpt lat="45.61454" lon="4.59319">
        <ele>850</ele>
        <time>2014-01-12T09:24:00Z</time>
      </trkpt>
      <trkpt lat="45.61443" lon="4.5932">
        <ele>849</ele>
        <time>2014-01-12T09:24:03Z</time>
      </trkpt>
      <trkpt lat="45.61433" lon="4.59319">
        <ele>848</ele>
        <time>2014-01-12T09:24:06Z</time>
      </trkpt>
      <trkpt lat="45.61424" lon="4.59316">
        <ele>848</ele>
        <time>2014-01-12T09:24:09Z</time>
      </trkpt>
      <trkpt lat="45.61414" lon="4.59313">
        <ele>847</ele>
        <time>2014-01-12T09:24:12Z</time>
      </trkpt>
      <trkpt lat="45.61402" lon="4.59306">
        <ele>846</ele>
        <time>2014-01-12T09:24:16Z</time>
      </trkpt>
      <trkpt lat="45.61392" lon="4.59303">
        <ele>845</ele>
        <time>2014-01-12T09:24:19Z</time>
      </trkpt>
      <trkpt lat="45.61383" lon="4.59301">
        <ele>844</ele>
        <time>2014-01-12T09:24:22Z</time>
      </trkpt>
      <trkpt lat="45.61374" lon="4.59298">
        <ele>843</ele>
        <time>2014-01-12T09:24:25Z</time>
      </trkpt>
      <trkpt lat="45.61366" lon="4.59292">
        <ele>842</ele>
        <time>2014-01-12T09:24:28Z</time>
      </trkpt>
      <trkpt lat="45.61358" lon="4.59286">
        <ele>841</ele>
        <time>2014-01-12T09:24:31Z</time>
      </trkpt>
      <trkpt lat="45.6135" lon="4.59282">
        <ele>840</ele>
        <time>2014-01-12T09:24:34Z</time>
      </trkpt>
      <trkpt lat="45.6134" lon="4.5928">
        <ele>839</ele>
        <time>2014-01-12T09:24:37Z</time>
      </trkpt>
      <trkpt lat="45.61332" lon="4.59276">
        <ele>838</ele>
        <time>2014-01-12T09:24:40Z</time>
      </trkpt>
      <trkpt lat="45.61322" lon="4.59272">
        <ele>837</ele>
        <time>2014-01-12T09:24:43Z</time>
      </trkpt>
      <trkpt lat="45.61314" lon="4.5927">
        <ele>835</ele>
        <time>2014-01-12T09:24:46Z</time>
      </trkpt>
      <trkpt lat="45.61306" lon="4.59266">
        <ele>834</ele>
        <time>2014-01-12T09:24:49Z</time>
      </trkpt>
      <trkpt lat="45.61297" lon="4.59263">
        <ele>833</ele>
        <time>2014-01-12T09:24:52Z</time>
      </trkpt>
      <trkpt lat="45.61289" lon="4.5926">
        <ele>832</ele>
        <time>2014-01-12T09:24:55Z</time>
      </trkpt>
      <trkpt lat="45.6128" lon="4.59257">
        <ele>831</ele>
        <time>2014-01-12T09:24:58Z</time>
      </trkpt>
      <trkpt lat="45.61271" lon="4.59254">
        <ele>830</ele>
        <time>2014-01-12T09:25:01Z</time>
      </trkpt>
      <trkpt lat="45.61262" lon="4.59255">
        <ele>830</ele>
        <time>2014-01-12T09:25:04Z</time>
      </trkpt>
      <trkpt lat="45.61253" lon="4.59254">
        <ele>829</ele>
        <time>2014-01-12T09:25:07Z</time>
      </trkpt>
      <trkpt lat="45.61245" lon="4.59253">
        <ele>828</ele>
        <time>2014-01-12T09:25:10Z</time>
      </trkpt>
      <trkpt lat="45.61234" lon="4.59249">
        <ele>826</ele>
        <time>2014-01-12T09:25:13Z</time>
      </trkpt>
      <trkpt lat="45.61227" lon="4.59243">
        <ele>824</ele>
        <time>2014-01-12T09:25:16Z</time>
      </trkpt>
      <trkpt lat="45.61221" lon="4.59234">
        <ele>821</ele>
        <time>2014-01-12T09:25:19Z</time>
      </trkpt>
      <trkpt lat="45.61214" lon="4.59228">
        <ele>818</ele>
        <time>2014-01-12T09:25:22Z</time>
      </trkpt>
      <trkpt lat="45.61208" lon="4.59222">
        <ele>816</ele>
        <time>2014-01-12T09:25:25Z</time>
      </trkpt>
      <trkpt lat="45.61201" lon="4.59214">
        <ele>814</ele>
        <time>2014-01-12T09:25:28Z</time>
      </trkpt>
      <trkpt lat="45.61194" lon="4.59203">
        <ele>812</ele>
        <time>2014-01-12T09:25:31Z</time>
      </trkpt>
      <trkpt lat="45.61188" lon="4.59195">
        <ele>811</ele>
        <time>2014-01-12T09:25:34Z</time>
      </trkpt>
      <trkpt lat="45.61181" lon="4.59186">
        <ele>810</ele>
        <time>2014-01-12T09:25:37Z</time>
      </trkpt>
      <trkpt lat="45.61175" lon="4.59179">
        <ele>809</ele>
        <time>2014-01-12T09:25:40Z</time>
      </trkpt>
      <trkpt lat="45.61167" lon="4.5917">
        <ele>808</ele>
        <time>2014-01-12T09:25:43Z</time>
      </trkpt>
      <trkpt lat="45.61159" lon="4.59161">
        <ele>807</ele>
        <time>2014-01-12T09:25:46Z</time>
      </trkpt>
      <trkpt lat="45.61149" lon="4.59149">
        <ele>806</ele>
        <time>2014-01-12T09:25:50Z</time>
      </trkpt>
      <trkpt lat="45.6114" lon="4.5914">
        <ele>804</ele>
        <time>2014-01-12T09:25:53Z</time>
      </trkpt>
      <trkpt lat="45.61129" lon="4.59129">
        <ele>802</ele>
        <time>2014-01-12T09:25:57Z</time>
      </trkpt>
      <trkpt lat="45.61121" lon="4.59126">
        <ele>801</ele>
        <time>2014-01-12T09:26:00Z</time>
      </trkpt>
      <trkpt lat="45.61108" lon="4.59124">
        <ele>800</ele>
        <time>2014-01-12T09:26:04Z</time>
      </trkpt>
      <trkpt lat="45.61098" lon="4.59119">
        <ele>799</ele>
        <time>2014-01-12T09:26:07Z</time>
      </trkpt>
      <trkpt lat="45.61089" lon="4.59114">
        <ele>798</ele>
        <time>2014-01-12T09:26:10Z</time>
      </trkpt>
      <trkpt lat="45.61079" lon="4.59105">
        <ele>797</ele>
        <time>2014-01-12T09:26:14Z</time>
      </trkpt>
      <trkpt lat="45.61072" lon="4.59096">
        <ele>795</ele>
        <time>2014-01-12T09:26:17Z</time>
      </trkpt>
      <trkpt lat="45.61066" lon="4.59086">
        <ele>793</ele>
        <time>2014-01-12T09:26:20Z</time>
      </trkpt>
      <trkpt lat="45.61056" lon="4.59076">
        <ele>790</ele>
        <time>2014-01-12T09:26:24Z</time>
      </trkpt>
      <trkpt lat="45.61048" lon="4.59071">
        <ele>789</ele>
        <time>2014-01-12T09:26:27Z</time>
      </trkpt>
      <trkpt lat="45.61037" lon="4.59066">
        <ele>789</ele>
        <time>2014-01-12T09:26:31Z</time>
      </trkpt>
      <trkpt lat="45.61027" lon="4.59062">
        <ele>788</ele>
        <time>2014-01-12T09:26:34Z</time>
      </trkpt>
      <trkpt lat="45.61017" lon="4.5906">
        <ele>787</ele>
        <time>2014-01-12T09:26:37Z</time>
      </trkpt>
      <trkpt lat="45.61008" lon="4.59057">
        <ele>785</ele>
        <time>2014-01-12T09:26:40Z</time>
      </trkpt>
      <trkpt lat="45.60999" lon="4.59054">
        <ele>783</ele>
        <time>2014-01-12T09:26:43Z</time>
      </trkpt>
      <trkpt lat="45.60987" lon="4.59053">
        <ele>780</ele>
        <time>2014-01-12T09:26:47Z</time>
      </trkpt>
      <trkpt lat="45.60978" lon="4.59052">
        <ele>777</ele>
        <time>2014-01-12T09:26:50Z</time>
      </trkpt>
      <trkpt lat="45.60965" lon="4.59048">
        <ele>775</ele>
        <time>2014-01-12T09:26:54Z</time>
      </trkpt>
      <trkpt lat="45.60957" lon="4.59048">
        <ele>774</ele>
        <time>2014-01-12T09:26:57Z</time>
      </trkpt>
      <trkpt lat="45.60948" lon="4.59045">
        <ele>773</ele>
        <time>2014-01-12T09:27:00Z</time>
      </trkpt>
      <trkpt lat="45.60938" lon="4.59042">
        <ele>772</ele>
        <time>2014-01-12T09:27:03Z</time>
      </trkpt>
      <trkpt lat="45.60928" lon="4.59039">
        <ele>771</ele>
        <time>2014-01-12T09:27:06Z</time>
      </trkpt>
      <trkpt lat="45.60919" lon="4.59035">
        <ele>771</ele>
        <time>2014-01-12T09:27:09Z</time>
      </trkpt>
      <trkpt lat="45.60909" lon="4.59034">
        <ele>770</ele>
        <time>2014-01-12T09:27:12Z</time>
      </trkpt>
      <trkpt lat="45.60899" lon="4.59034">
        <ele>769</ele>
        <time>2014-01-12T09:27:15Z</time>
      </trkpt>
      <trkpt lat="45.6089" lon="4.59037">
        <ele>768</ele>
        <time>2014-01-12T09:27:18Z</time>
      </trkpt>
      <trkpt lat="45.60877" lon="4.59038">
        <ele>766</ele>
        <time>2014-01-12T09:27:22Z</time>
      </trkpt>
      <trkpt lat="45.60868" lon="4.59039">
        <ele>765</ele>
        <time>2014-01-12T09:27:25Z</time>
      </trkpt>
      <trkpt lat="45.60858" lon="4.5904">
        <ele>764</ele>
        <time>2014-01-12T09:27:28Z</time>
      </trkpt>
      <trkpt lat="45.60847" lon="4.59031">
        <ele>764</ele>
        <time>2014-01-12T09:27:32Z</time>
      </trkpt>
      <trkpt lat="45.60841" lon="4.59018">
        <ele>764</ele>
        <time>2014-01-12T09:27:35Z</time>
      </trkpt>
      <trkpt lat="45.60831" lon="4.59007">
        <ele>764</ele>
        <time>2014-01-12T09:27:39Z</time>
      </trkpt>
      <trkpt lat="45.60823" lon="4.59001">
        <ele>763</ele>
        <time>2014-01-12T09:27:42Z</time>
      </trkpt>
      <trkpt lat="45.60814" lon="4.58997">
        <ele>763</ele>
        <time>2014-01-12T09:27:45Z</time>
      </trkpt>
      <trkpt lat="45.60805" lon="4.58993">
        <ele>762</ele>
        <time>2014-01-12T09:27:48Z</time>
      </trkpt>
      <trkpt lat="45.60796" lon="4.58993">
        <ele>762</ele>
        <time>2014-01-12T09:27:51Z</time>
      </trkpt>
      <trkpt lat="45.60787" lon="4.58993">
        <ele>762</ele>
        <time>2014-01-12T09:27:54Z</time>
      </trkpt>
      <trkpt lat="45.60776" lon="4.58996">
        <ele>761</ele>
        <time>2014-01-12T09:27:58Z</time>
      </trkpt>
      <trkpt lat="45.60767" lon="4.58997">
        <ele>760</ele>
        <time>2014-01-12T09:28:01Z</time>
      </trkpt>
      <trkpt lat="45.60758" lon="4.58997">
        <ele>759</ele>
        <time>2014-01-12T09:28:04Z</time>
      </trkpt>
      <trkpt lat="45.60749" lon="4.58998">
        <ele>758</ele>
        <time>2014-01-12T09:28:07Z</time>
      </trkpt>
      <trkpt lat="45.60741" lon="4.58997">
        <ele>757</ele>
        <time>2014-01-12T09:28:10Z</time>
      </trkpt>
      <trkpt lat="45.60731" lon="4.58996">
        <ele>757</ele>
        <time>2014-01-12T09:28:14Z</time>
      </trkpt>
      <trkpt lat="45.6072" lon="4.58992">
        <ele>757</ele>
        <time>2014-01-12T09:28:18Z</time>
      </trkpt>
      <trkpt lat="45.60712" lon="4.5899">
        <ele>757</ele>
        <time>2014-01-12T09:28:21Z</time>
      </trkpt>
      <trkpt lat="45.60704" lon="4.58989">
        <ele>757</ele>
        <time>2014-01-12T09:28:24Z</time>
      </trkpt>
      <trkpt lat="45.60696" lon="4.58987">
        <ele>757</ele>
        <time>2014-01-12T09:28:27Z</time>
      </trkpt>
      <trkpt lat="45.60688" lon="4.58985">
        <ele>757</ele>
        <time>2014-01-12T09:28:30Z</time>
      </trkpt>
      <trkpt lat="45.60679" lon="4.58984">
        <ele>757</ele>
        <time>2014-01-12T09:28:33Z</time>
      </trkpt>
      <trkpt lat="45.60671" lon="4.58982">
        <ele>757</ele>
        <time>2014-01-12T09:28:36Z</time>
      </trkpt>
      <trkpt lat="45.60662" lon="4.58981">
        <ele>757</ele>
        <time>2014-01-12T09:28:39Z</time>
      </trkpt>
      <trkpt lat="45.60654" lon="4.58977">
        <ele>757</ele>
        <time>2014-01-12T09:28:42Z</time>
      </trkpt>
      <trkpt lat="45.60646" lon="4.58977">
        <ele>757</ele>
        <time>2014-01-12T09:28:45Z</time>
      </trkpt>
      <trkpt lat="45.60637" lon="4.58976">
        <ele>757</ele>
        <time>2014-01-12T09:28:48Z</time>
      </trkpt>
      <trkpt lat="45.60629" lon="4.58976">
        <ele>757</ele>
        <time>2014-01-12T09:28:51Z</time>
      </trkpt>
      <trkpt lat="45.6062" lon="4.58973">
        <ele>757</ele>
        <time>2014-01-12T09:28:54Z</time>
      </trkpt>
      <trkpt lat="45.60613" lon="4.5897">
        <ele>757</ele>
        <time>2014-01-12T09:28:57Z</time>
      </trkpt>
      <trkpt lat="45.60604" lon="4.58967">
        <ele>757</ele>
        <time>2014-01-12T09:29:00Z</time>
      </trkpt>
      <trkpt lat="45.60596" lon="4.58964">
        <ele>757</ele>
        <time>2014-01-12T09:29:03Z</time>
      </trkpt>
      <trkpt lat="45.60588" lon="4.5896">
        <ele>758</ele>
        <time>2014-01-12T09:29:06Z</time>
      </trkpt>
      <trkpt lat="45.6058" lon="4.58956">
        <ele>758</ele>
        <time>2014-01-12T09:29:09Z</time>
      </trkpt>
      <trkpt lat="45.60572" lon="4.58952">
        <ele>758</ele>
        <time>2014-01-12T09:29:12Z</time>
      </trkpt>
      <trkpt lat="45.60565" lon="4.58947">
        <ele>758</ele>
        <time>2014-01-12T09:29:15Z</time>
      </trkpt>
      <trkpt lat="45.60555" lon="4.58943">
        <ele>758</ele>
        <time>2014-01-12T09:29:19Z</time>
      </trkpt>
      <trkpt lat="45.60546" lon="4.58939">
        <ele>758</ele>
        <time>2014-01-12T09:29:22Z</time>
      </trkpt>
      <trkpt lat="45.60535" lon="4.5894">
        <ele>757</ele>
        <time>2014-01-12T09:29:26Z</time>
      </trkpt>
      <trkpt lat="45.60523" lon="4.58935">
        <ele>754</ele>
        <time>2014-01-12T09:29:30Z</time>
      </trkpt>
      <trkpt lat="45.60515" lon="4.58931">
        <ele>752</ele>
        <time>2014-01-12T09:29:33Z</time>
      </trkpt>
      <trkpt lat="45.60506" lon="4.58926">
        <ele>751</ele>
        <time>2014-01-12T09:29:36Z</time>
      </trkpt>
      <trkpt lat="45.60497" lon="4.58929">
        <ele>749</ele>
        <time>2014-01-12T09:29:39Z</time>
      </trkpt>
      <trkpt lat="45.60487" lon="4.5893">
        <ele>747</ele>
        <time>2014-01-12T09:29:42Z</time>
      </trkpt>
      <trkpt lat="45.60478" lon="4.58932">
        <ele>747</ele>
        <time>2014-01-12T09:29:45Z</time>
      </trkpt>
      <trkpt lat="45.60468" lon="4.58938">
        <ele>747</ele>
        <time>2014-01-12T09:29:48Z</time>
      </trkpt>
      <trkpt lat="45.60459" lon="4.58942">
        <ele>747</ele>
        <time>2014-01-12T09:29:51Z</time>
      </trkpt>
      <trkpt lat="45.60449" lon="4.58945">
        <ele>746</ele>
        <time>2014-01-12T09:29:54Z</time>
      </trkpt>
      <trkpt lat="45.60436" lon="4.58948">
        <ele>745</ele>
        <time>2014-01-12T09:29:58Z</time>
      </trkpt>
      <trkpt lat="45.60427" lon="4.58953">
        <ele>744</ele>
        <time>2014-01-12T09:30:01Z</time>
      </trkpt>
      <trkpt lat="45.60419" lon="4.58953">
        <ele>742</ele>
        <time>2014-01-12T09:30:04Z</time>
      </trkpt>
      <trkpt lat="45.60411" lon="4.5895">
        <ele>740</ele>
        <time>2014-01-12T09:30:07Z</time>
      </trkpt>
      <trkpt lat="45.60402" lon="4.58954">
        <ele>738</ele>
        <time>2014-01-12T09:30:10Z</time>
      </trkpt>
      <trkpt lat="45.60394" lon="4.58962">
        <ele>735</ele>
        <time>2014-01-12T09:30:14Z</time>
      </trkpt>
      <trkpt lat="45.60385" lon="4.58964">
        <ele>733</ele>
        <time>2014-01-12T09:30:17Z</time>
      </trkpt>
      <trkpt lat="45.60377" lon="4.58966">
        <ele>730</ele>
        <time>2014-01-12T09:30:20Z</time>
      </trkpt>
      <trkpt lat="45.6037" lon="4.58966">
        <ele>728</ele>
        <time>2014-01-12T09:30:23Z</time>
      </trkpt>
      <trkpt lat="45.60359" lon="4.58966">
        <ele>726</ele>
        <time>2014-01-12T09:30:26Z</time>
      </trkpt>
      <trkpt lat="45.60347" lon="4.58965">
        <ele>726</ele>
        <time>2014-01-12T09:30:29Z</time>
      </trkpt>
      <trkpt lat="45.60333" lon="4.58963">
        <ele>726</ele>
        <time>2014-01-12T09:30:33Z</time>
      </trkpt>
      <trkpt lat="45.60324" lon="4.58961">
        <ele>726</ele>
        <time>2014-01-12T09:30:36Z</time>
      </trkpt>
      <trkpt lat="45.60315" lon="4.58961">
        <ele>726</ele>
        <time>2014-01-12T09:30:39Z</time>
      </trkpt>
      <trkpt lat="45.60302" lon="4.58958">
        <ele>726</ele>
        <time>2014-01-12T09:30:43Z</time>
      </trkpt>
      <trkpt lat="45.60291" lon="4.58951">
        <ele>726</ele>
        <time>2014-01-12T09:30:47Z</time>
      </trkpt>
      <trkpt lat="45.6028" lon="4.58949">
        <ele>726</ele>
        <time>2014-01-12T09:30:50Z</time>
      </trkpt>
      <trkpt lat="45.6027" lon="4.58945">
        <ele>726</ele>
        <time>2014-01-12T09:30:53Z</time>
      </trkpt>
      <trkpt lat="45.60259" lon="4.5894">
        <ele>726</ele>
        <time>2014-01-12T09:30:56Z</time>
      </trkpt>
      <trkpt lat="45.60249" lon="4.58939">
        <ele>724</ele>
        <time>2014-01-12T09:30:59Z</time>
      </trkpt>
      <trkpt lat="45.60239" lon="4.58936">
        <ele>722</ele>
        <time>2014-01-12T09:31:02Z</time>
      </trkpt>
      <trkpt lat="45.60232" lon="4.58931">
        <ele>720</ele>
        <time>2014-01-12T09:31:05Z</time>
      </trkpt>
      <trkpt lat="45.60223" lon="4.58927">
        <ele>718</ele>
        <time>2014-01-12T09:31:08Z</time>
      </trkpt>
      <trkpt lat="45.60214" lon="4.5892">
        <ele>716</ele>
        <time>2014-01-12T09:31:11Z</time>
      </trkpt>
      <trkpt lat="45.60204" lon="4.58916">
        <ele>715</ele>
        <time>2014-01-12T09:31:14Z</time>
      </trkpt>
      <trkpt lat="45.60195" lon="4.58914">
        <ele>714</ele>
        <time>2014-01-12T09:31:17Z</time>
      </trkpt>
      <trkpt lat="45.60187" lon="4.58914">
        <ele>713</ele>
        <time>2014-01-12T09:31:20Z</time>
      </trkpt>
      <trkpt lat="45.60179" lon="4.58914">
        <ele>711</ele>
        <time>2014-01-12T09:31:23Z</time>
      </trkpt>
      <trkpt lat="45.6017" lon="4.58916">
        <ele>709</ele>
        <time>2014-01-12T09:31:26Z</time>
      </trkpt>
      <trkpt lat="45.60159" lon="4.58915">
        <ele>709</ele>
        <time>2014-01-12T09:31:29Z</time>
      </trkpt>
      <trkpt lat="45.60148" lon="4.58914">
        <ele>709</ele>
        <time>2014-01-12T09:31:32Z</time>
      </trkpt>
      <trkpt lat="45.60139" lon="4.58919">
        <ele>709</ele>
        <time>2014-01-12T09:31:35Z</time>
      </trkpt>
      <trkpt lat="45.60133" lon="4.58925">
        <ele>709</ele>
        <time>2014-01-12T09:31:38Z</time>
      </trkpt>
      <trkpt lat="45.6013" lon="4.58935">
        <ele>709</ele>
        <time>2014-01-12T09:31:41Z</time>
      </trkpt>
      <trkpt lat="45.60129" lon="4.58947">
        <ele>707</ele>
        <time>2014-01-12T09:31:44Z</time>
      </trkpt>
      <trkpt lat="45.60125" lon="4.58963">
        <ele>705</ele>
        <time>2014-01-12T09:31:48Z</time>
      </trkpt>
      <trkpt lat="45.6012" lon="4.58972">
        <ele>704</ele>
        <time>2014-01-12T09:31:51Z</time>
      </trkpt>
      <trkpt lat="45.60117" lon="4.5898">
        <ele>703</ele>
        <time>2014-01-12T09:31:54Z</time>
      </trkpt>
      <trkpt lat="45.60117" lon="4.58989">
        <ele>702</ele>
        <time>2014-01-12T09:31:57Z</time>
      </trkpt>
      <trkpt lat="45.60119" lon="4.59">
        <ele>701</ele>
        <time>2014-01-12T09:32:00Z</time>
      </trkpt>
      <trkpt lat="45.60123" lon="4.59015">
        <ele>699</ele>
        <time>2014-01-12T09:32:04Z</time>
      </trkpt>
      <trkpt lat="45.60124" lon="4.59024">
        <ele>698</ele>
        <time>2014-01-12T09:32:07Z</time>
      </trkpt>
      <trkpt lat="45.60121" lon="4.59033">
        <ele>697</ele>
        <time>2014-01-12T09:32:10Z</time>
      </trkpt>
      <trkpt lat="45.6012" lon="4.59049">
        <ele>697</ele>
        <time>2014-01-12T09:32:13Z</time>
      </trkpt>
      <trkpt lat="45.6012" lon="4.5906">
        <ele>697</ele>
        <time>2014-01-12T09:32:16Z</time>
      </trkpt>
      <trkpt lat="45.6012" lon="4.59069">
        <ele>695</ele>
        <time>2014-01-12T09:32:19Z</time>
      </trkpt>
      <trkpt lat="45.6012" lon="4.5908">
        <ele>692</ele>
        <time>2014-01-12T09:32:22Z</time>
      </trkpt>
      <trkpt lat="45.60119" lon="4.59091">
        <ele>689</ele>
        <time>2014-01-12T09:32:25Z</time>
      </trkpt>
      <trkpt lat="45.60118" lon="4.59103">
        <ele>686</ele>
        <time>2014-01-12T09:32:28Z</time>
      </trkpt>
      <trkpt lat="45.60116" lon="4.59118">
        <ele>683</ele>
        <time>2014-01-12T09:32:32Z</time>
      </trkpt>
      <trkpt lat="45.60115" lon="4.59131">
        <ele>680</ele>
        <time>2014-01-12T09:32:35Z</time>
      </trkpt>
      <trkpt lat="45.60115" lon="4.59144">
        <ele>678</ele>
        <time>2014-01-12T09:32:38Z</time>
      </trkpt>
      <trkpt lat="45.60112" lon="4.59158">
        <ele>676</ele>
        <time>2014-01-12T09:32:41Z</time>
      </trkpt>
      <trkpt lat="45.6011" lon="4.59171">
        <ele>676</ele>
        <time>2014-01-12T09:32:44Z</time>
      </trkpt>
      <trkpt lat="45.60107" lon="4.5919">
        <ele>676</ele>
        <time>2014-01-12T09:32:48Z</time>
      </trkpt>
      <trkpt lat="45.60104" lon="4.59205">
        <ele>674</ele>
        <time>2014-01-12T09:32:51Z</time>
      </trkpt>
      <trkpt lat="45.60102" lon="4.59217">
        <ele>671</ele>
        <time>2014-01-12T09:32:54Z</time>
      </trkpt>
      <trkpt lat="45.60101" lon="4.59228">
        <ele>669</ele>
        <time>2014-01-12T09:32:57Z</time>
      </trkpt>
      <trkpt lat="45.60099" lon="4.5924">
        <ele>666</ele>
        <time>2014-01-12T09:33:00Z</time>
      </trkpt>
      <trkpt lat="45.60097" lon="4.59252">
        <ele>663</ele>
        <time>2014-01-12T09:33:03Z</time>
      </trkpt>
      <trkpt lat="45.60095" lon="4.59266">
        <ele>661</ele>
        <time>2014-01-12T09:33:06Z</time>
      </trkpt>
      <trkpt lat="45.60093" lon="4.59283">
        <ele>659</ele>
        <time>2014-01-12T09:33:10Z</time>
      </trkpt>
      <trkpt lat="45.60091" lon="4.59298">
        <ele>656</ele>
        <time>2014-01-12T09:33:13Z</time>
      </trkpt>
      <trkpt lat="45.60089" lon="4.59312">
        <ele>655</ele>
        <time>2014-01-12T09:33:16Z</time>
      </trkpt>
      <trkpt lat="45.60088" lon="4.5933">
        <ele>653</ele>
        <time>2014-01-12T09:33:19Z</time>
      </trkpt>
      <trkpt lat="45.6009" lon="4.59343">
        <ele>651</ele>
        <time>2014-01-12T09:33:22Z</time>
      </trkpt>
      <trkpt lat="45.6009" lon="4.5936">
        <ele>648</ele>
        <time>2014-01-12T09:33:26Z</time>
      </trkpt>
      <trkpt lat="45.60089" lon="4.59372">
        <ele>645</ele>
        <time>2014-01-12T09:33:29Z</time>
      </trkpt>
      <trkpt lat="45.60088" lon="4.59386">
        <ele>643</ele>
        <time>2014-01-12T09:33:32Z</time>
      </trkpt>
      <trkpt lat="45.60088" lon="4.59403">
        <ele>640</ele>
        <time>2014-01-12T09:33:36Z</time>
      </trkpt>
      <trkpt lat="45.60087" lon="4.59416">
        <ele>638</ele>
        <time>2014-01-12T09:33:39Z</time>
      </trkpt>
      <trkpt lat="45.60085" lon="4.59431">
        <ele>637</ele>
        <time>2014-01-12T09:33:42Z</time>
      </trkpt>
      <trkpt lat="45.60085" lon="4.59441">
        <ele>635</ele>
        <time>2014-01-12T09:33:45Z</time>
      </trkpt>
      <trkpt lat="45.60083" lon="4.5945">
        <ele>634</ele>
        <time>2014-01-12T09:33:48Z</time>
      </trkpt>
      <trkpt lat="45.6008" lon="4.59465">
        <ele>631</ele>
        <time>2014-01-12T09:33:52Z</time>
      </trkpt>
      <trkpt lat="45.6008" lon="4.59479">
        <ele>629</ele>
        <time>2014-01-12T09:33:55Z</time>
      </trkpt>
      <trkpt lat="45.60081" lon="4.59491">
        <ele>628</ele>
        <time>2014-01-12T09:33:58Z</time>
      </trkpt>
      <trkpt lat="45.60081" lon="4.59504">
        <ele>627</ele>
        <time>2014-01-12T09:34:01Z</time>
      </trkpt>
      <trkpt lat="45.60081" lon="4.59516">
        <ele>625</ele>
        <time>2014-01-12T09:34:04Z</time>
      </trkpt>
      <trkpt lat="45.60078" lon="4.59534">
        <ele>624</ele>
        <time>2014-01-12T09:34:08Z</time>
      </trkpt>
      <trkpt lat="45.60075" lon="4.59546">
        <ele>622</ele>
        <time>2014-01-12T09:34:11Z</time>
      </trkpt>
      <trkpt lat="45.60072" lon="4.59558">
        <ele>620</ele>
        <time>2014-01-12T09:34:14Z</time>
      </trkpt>
      <trkpt lat="45.6007" lon="4.59571">
        <ele>619</ele>
        <time>2014-01-12T09:34:17Z</time>
      </trkpt>
      <trkpt lat="45.6007" lon="4.59584">
        <ele>618</ele>
        <time>2014-01-12T09:34:20Z</time>
      </trkpt>
      <trkpt lat="45.60069" lon="4.59598">
        <ele>617</ele>
        <time>2014-01-12T09:34:23Z</time>
      </trkpt>
      <trkpt lat="45.6007" lon="4.59611">
        <ele>616</ele>
        <time>2014-01-12T09:34:26Z</time>
      </trkpt>
      <trkpt lat="45.6007" lon="4.59625">
        <ele>615</ele>
        <time>2014-01-12T09:34:29Z</time>
      </trkpt>
      <trkpt lat="45.60066" lon="4.59641">
        <ele>614</ele>
        <time>2014-01-12T09:34:33Z</time>
      </trkpt>
      <trkpt lat="45.60061" lon="4.59651">
        <ele>612</ele>
        <time>2014-01-12T09:34:36Z</time>
      </trkpt>
      <trkpt lat="45.6006" lon="4.59663">
        <ele>610</ele>
        <time>2014-01-12T09:34:39Z</time>
      </trkpt>
      <trkpt lat="45.6006" lon="4.59676">
        <ele>607</ele>
        <time>2014-01-12T09:34:42Z</time>
      </trkpt>
      <trkpt lat="45.60061" lon="4.59687">
        <ele>605</ele>
        <time>2014-01-12T09:34:45Z</time>
      </trkpt>
      <trkpt lat="45.60061" lon="4.597">
        <ele>603</ele>
        <time>2014-01-12T09:34:48Z</time>
      </trkpt>
      <trkpt lat="45.60064" lon="4.59715">
        <ele>600</ele>
        <time>2014-01-12T09:34:52Z</time>
      </trkpt>
      <trkpt lat="45.60068" lon="4.59726">
        <ele>598</ele>
        <time>2014-01-12T09:34:55Z</time>
      </trkpt>
      <trkpt lat="45.60072" lon="4.59738">
        <ele>596</ele>
        <time>2014-01-12T09:34:58Z</time>
      </trkpt>
      <trkpt lat="45.6008" lon="4.59752">
        <ele>593</ele>
        <time>2014-01-12T09:35:02Z</time>
      </trkpt>
      <trkpt lat="45.60087" lon="4.59768">
        <ele>592</ele>
        <time>2014-01-12T09:35:06Z</time>
      </trkpt>
      <trkpt lat="45.6009" lon="4.59785">
        <ele>589</ele>
        <time>2014-01-12T09:35:10Z</time>
      </trkpt>
      <trkpt lat="45.60094" lon="4.59801">
        <ele>588</ele>
        <time>2014-01-12T09:35:14Z</time>
      </trkpt>
      <trkpt lat="45.60097" lon="4.59814">
        <ele>586</ele>
        <time>2014-01-12T09:35:17Z</time>
      </trkpt>
      <trkpt lat="45.60101" lon="4.59826">
        <ele>585</ele>
        <time>2014-01-12T09:35:20Z</time>
      </trkpt>
      <trkpt lat="45.60101" lon="4.59837">
        <ele>585</ele>
        <time>2014-01-12T09:35:23Z</time>
      </trkpt>
      <trkpt lat="45.60092" lon="4.59835">
        <ele>584</ele>
        <time>2014-01-12T09:35:26Z</time>
      </trkpt>
      <trkpt lat="45.60084" lon="4.59829">
        <ele>582</ele>
        <time>2014-01-12T09:35:29Z</time>
      </trkpt>
      <trkpt lat="45.60075" lon="4.59824">
        <ele>582</ele>
        <time>2014-01-12T09:35:32Z</time>
      </trkpt>
      <trkpt lat="45.60066" lon="4.59817">
        <ele>582</ele>
        <time>2014-01-12T09:35:36Z</time>
      </trkpt>
      <trkpt lat="45.60057" lon="4.59808">
        <ele>582</ele>
        <time>2014-01-12T09:35:40Z</time>
      </trkpt>
      <trkpt lat="45.60051" lon="4.598">
        <ele>582</ele>
        <time>2014-01-12T09:35:43Z</time>
      </trkpt>
      <trkpt lat="45.60044" lon="4.59791">
        <ele>582</ele>
        <time>2014-01-12T09:35:46Z</time>
      </trkpt>
      <trkpt lat="45.60038" lon="4.59783">
        <ele>582</ele>
        <time>2014-01-12T09:35:49Z</time>
      </trkpt>
      <trkpt lat="45.60033" lon="4.59772">
        <ele>582</ele>
        <time>2014-01-12T09:35:53Z</time>
      </trkpt>
      <trkpt lat="45.60027" lon="4.59764">
        <ele>582</ele>
        <time>2014-01-12T09:35:56Z</time>
      </trkpt>
      <trkpt lat="45.6002" lon="4.59757">
        <ele>582</ele>
        <time>2014-01-12T09:35:59Z</time>
      </trkpt>
      <trkpt lat="45.60014" lon="4.5975">
        <ele>582</ele>
        <time>2014-01-12T09:36:02Z</time>
      </trkpt>
      <trkpt lat="45.60006" lon="4.59739">
        <ele>582</ele>
        <time>2014-01-12T09:36:06Z</time>
      </trkpt>
      <trkpt lat="45.59999" lon="4.59727">
        <ele>582</ele>
        <time>2014-01-12T09:36:10Z</time>
      </trkpt>
      <trkpt lat="45.59993" lon="4.59715">
        <ele>582</ele>
        <time>2014-01-12T09:36:14Z</time>
      </trkpt>
      <trkpt lat="45.5999" lon="4.59705">
        <ele>582</ele>
        <time>2014-01-12T09:36:17Z</time>
      </trkpt>
      <trkpt lat="45.59986" lon="4.59696">
        <ele>582</ele>
        <time>2014-01-12T09:36:20Z</time>
      </trkpt>
      <trkpt lat="45.59982" lon="4.59687">
        <ele>583</ele>
        <time>2014-01-12T09:36:23Z</time>
      </trkpt>
      <trkpt lat="45.59979" lon="4.59679">
        <ele>583</ele>
        <time>2014-01-12T09:36:26Z</time>
      </trkpt>
      <trkpt lat="45.59975" lon="4.5967">
        <ele>585</ele>
        <time>2014-01-12T09:36:29Z</time>
      </trkpt>
      <trkpt lat="45.59972" lon="4.59662">
        <ele>586</ele>
        <time>2014-01-12T09:36:32Z</time>
      </trkpt>
      <trkpt lat="45.59967" lon="4.59652">
        <ele>588</ele>
        <time>2014-01-12T09:36:36Z</time>
      </trkpt>
      <trkpt lat="45.59962" lon="4.59644">
        <ele>589</ele>
        <time>2014-01-12T09:36:39Z</time>
      </trkpt>
      <trkpt lat="45.59956" lon="4.59639">
        <ele>589</ele>
        <time>2014-01-12T09:36:43Z</time>
      </trkpt>
      <trkpt lat="45.5995" lon="4.59632">
        <ele>589</ele>
        <time>2014-01-12T09:36:46Z</time>
      </trkpt>
      <trkpt lat="45.59941" lon="4.59624">
        <ele>589</ele>
        <time>2014-01-12T09:36:50Z</time>
      </trkpt>
      <trkpt lat="45.59936" lon="4.59619">
        <ele>589</ele>
        <time>2014-01-12T09:36:53Z</time>
      </trkpt>
      <trkpt lat="45.59931" lon="4.59612">
        <ele>589</ele>
        <time>2014-01-12T09:36:56Z</time>
      </trkpt>
      <trkpt lat="45.59925" lon="4.59607">
        <ele>589</ele>
        <time>2014-01-12T09:36:59Z</time>
      </trkpt>
      <trkpt lat="45.59918" lon="4.59599">
        <ele>588</ele>
        <time>2014-01-12T09:37:03Z</time>
      </trkpt>
      <trkpt lat="45.59911" lon="4.59591">
        <ele>587</ele>
        <time>2014-01-12T09:37:06Z</time>
      </trkpt>
      <trkpt lat="45.59904" lon="4.59581">
        <ele>586</ele>
        <time>2014-01-12T09:37:09Z</time>
      </trkpt>
      <trkpt lat="45.59898" lon="4.59574">
        <ele>585</ele>
        <time>2014-01-12T09:37:12Z</time>
      </trkpt>
      <trkpt lat="45.59891" lon="4.59569">
        <ele>584</ele>
        <time>2014-01-12T09:37:15Z</time>
      </trkpt>
      <trkpt lat="45.59883" lon="4.59565">
        <ele>584</ele>
        <time>2014-01-12T09:37:19Z</time>
      </trkpt>
      <trkpt lat="45.59876" lon="4.59564">
        <ele>584</ele>
        <time>2014-01-12T09:37:22Z</time>
      </trkpt>
      <trkpt lat="45.59869" lon="4.5956">
        <ele>584</ele>
        <time>2014-01-12T09:37:25Z</time>
      </trkpt>
      <trkpt lat="45.59863" lon="4.59558">
        <ele>584</ele>
        <time>2014-01-12T09:37:28Z</time>
      </trkpt>
      <trkpt lat="45.59858" lon="4.59555">
        <ele>584</ele>
        <time>2014-01-12T09:37:31Z</time>
      </trkpt>
      <trkpt lat="45.59853" lon="4.59552">
        <ele>584</ele>
        <time>2014-01-12T09:37:35Z</time>
      </trkpt>
      <trkpt lat="45.59849" lon="4.59549">
        <ele>584</ele>
        <time>2014-01-12T09:37:39Z</time>
      </trkpt>
      <trkpt lat="45.59846" lon="4.59547">
        <ele>584</ele>
        <time>2014-01-12T09:37:42Z</time>
      </trkpt>
      <trkpt lat="45.59842" lon="4.59545">
        <ele>584</ele>
        <time>2014-01-12T09:37:45Z</time>
      </trkpt>
      <trkpt lat="45.59837" lon="4.59544">
        <ele>584</ele>
        <time>2014-01-12T09:37:49Z</time>
      </trkpt>
      <trkpt lat="45.59833" lon="4.59548">
        <ele>585</ele>
        <time>2014-01-12T09:37:53Z</time>
      </trkpt>
      <trkpt lat="45.59831" lon="4.59553">
        <ele>586</ele>
        <time>2014-01-12T09:37:57Z</time>
      </trkpt>
      <trkpt lat="45.59829" lon="4.59557">
        <ele>586</ele>
        <time>2014-01-12T09:38:00Z</time>
      </trkpt>
      <trkpt lat="45.59827" lon="4.59563">
        <ele>587</ele>
        <time>2014-01-12T09:38:03Z</time>
      </trkpt>
      <trkpt lat="45.59825" lon="4.5957">
        <ele>588</ele>
        <time>2014-01-12T09:38:06Z</time>
      </trkpt>
      <trkpt lat="45.59822" lon="4.59577">
        <ele>589</ele>
        <time>2014-01-12T09:38:09Z</time>
      </trkpt>
      <trkpt lat="45.59818" lon="4.59584">
        <ele>590</ele>
        <time>2014-01-12T09:38:12Z</time>
      </trkpt>
      <trkpt lat="45.5981" lon="4.59592">
        <ele>591</ele>
        <time>2014-01-12T09:38:16Z</time>
      </trkpt>
      <trkpt lat="45.59804" lon="4.59597">
        <ele>592</ele>
        <time>2014-01-12T09:38:21Z</time>
      </trkpt>
      <trkpt lat="45.598" lon="4.596">
        <ele>593</ele>
        <time>2014-01-12T09:38:24Z</time>
      </trkpt>
      <trkpt lat="45.59797" lon="4.59603">
        <ele>593</ele>
        <time>2014-01-12T09:38:27Z</time>
      </trkpt>
      <trkpt lat="45.59792" lon="4.59607">
        <ele>594</ele>
        <time>2014-01-12T09:38:30Z</time>
      </trkpt>
      <trkpt lat="45.59785" lon="4.59612">
        <ele>594</ele>
        <time>2014-01-12T09:38:33Z</time>
      </trkpt>
      <trkpt lat="45.59779" lon="4.59616">
        <ele>595</ele>
        <time>2014-01-12T09:38:36Z</time>
      </trkpt>
      <trkpt lat="45.59772" lon="4.59623">
        <ele>596</ele>
        <time>2014-01-12T09:38:39Z</time>
      </trkpt>
      <trkpt lat="45.59766" lon="4.59629">
        <ele>598</ele>
        <time>2014-01-12T09:38:42Z</time>
      </trkpt>
      <trkpt lat="45.59759" lon="4.59636">
        <ele>599</ele>
        <time>2014-01-12T09:38:45Z</time>
      </trkpt>
      <trkpt lat="45.59753" lon="4.59643">
        <ele>600</ele>
        <time>2014-01-12T09:38:48Z</time>
      </trkpt>
      <trkpt lat="45.59747" lon="4.59649">
        <ele>602</ele>
        <time>2014-01-12T09:38:51Z</time>
      </trkpt>
      <trkpt lat="45.59738" lon="4.59655">
        <ele>603</ele>
        <time>2014-01-12T09:38:55Z</time>
      </trkpt>
      <trkpt lat="45.59734" lon="4.59653">
        <ele>604</ele>
        <time>2014-01-12T09:38:58Z</time>
      </trkpt>
      <trkpt lat="45.5973" lon="4.5965">
        <ele>604</ele>
        <time>2014-01-12T09:39:02Z</time>
      </trkpt>
      <trkpt lat="45.59726" lon="4.59648">
        <ele>604</ele>
        <time>2014-01-12T09:39:06Z</time>
      </trkpt>
      <trkpt lat="45.59723" lon="4.59646">
        <ele>604</ele>
        <time>2014-01-12T09:39:09Z</time>
      </trkpt>
      <trkpt lat="45.59718" lon="4.59645">
        <ele>604</ele>
        <time>2014-01-12T09:39:13Z</time>
      </trkpt>
      <trkpt lat="45.59715" lon="4.59643">
        <ele>604</ele>
        <time>2014-01-12T09:39:16Z</time>
      </trkpt>
      <trkpt lat="45.59711" lon="4.59641">
        <ele>604</ele>
        <time>2014-01-12T09:39:19Z</time>
      </trkpt>
      <trkpt lat="45.59707" lon="4.59639">
        <ele>604</ele>
        <time>2014-01-12T09:39:23Z</time>
      </trkpt>
      <trkpt lat="45.59702" lon="4.59636">
        <ele>604</ele>
        <time>2014-01-12T09:39:27Z</time>
      </trkpt>
      <trkpt lat="45.59698" lon="4.59633">
        <ele>604</ele>
        <time>2014-01-12T09:39:30Z</time>
      </trkpt>
      <trkpt lat="45.59695" lon="4.59632">
        <ele>604</ele>
        <time>2014-01-12T09:39:33Z</time>
      </trkpt>
      <trkpt lat="45.59689" lon="4.59628">
        <ele>604</ele>
        <time>2014-01-12T09:39:36Z</time>
      </trkpt>
      <trkpt lat="45.59682" lon="4.59624">
        <ele>605</ele>
        <time>2014-01-12T09:39:39Z</time>
      </trkpt>
      <trkpt lat="45.59675" lon="4.59618">
        <ele>605</ele>
        <time>2014-01-12T09:39:42Z</time>
      </trkpt>
      <trkpt lat="45.59668" lon="4.59612">
        <ele>606</ele>
        <time>2014-01-12T09:39:45Z</time>
      </trkpt>
      <trkpt lat="45.59662" lon="4.59606">
        <ele>607</ele>
        <time>2014-01-12T09:39:48Z</time>
      </trkpt>
      <trkpt lat="45.59654" lon="4.596">
        <ele>608</ele>
        <time>2014-01-12T09:39:51Z</time>
      </trkpt>
      <trkpt lat="45.59648" lon="4.59592">
        <ele>609</ele>
        <time>2014-01-12T09:39:54Z</time>
      </trkpt>
      <trkpt lat="45.59643" lon="4.59583">
        <ele>610</ele>
        <time>2014-01-12T09:39:57Z</time>
      </trkpt>
      <trkpt lat="45.59637" lon="4.59574">
        <ele>610</ele>
        <time>2014-01-12T09:40:00Z</time>
      </trkpt>
      <trkpt lat="45.5963" lon="4.59565">
        <ele>610</ele>
        <time>2014-01-12T09:40:03Z</time>
      </trkpt>
      <trkpt lat="45.59624" lon="4.59556">
        <ele>610</ele>
        <time>2014-01-12T09:40:06Z</time>
      </trkpt>
      <trkpt lat="45.59618" lon="4.59549">
        <ele>610</ele>
        <time>2014-01-12T09:40:09Z</time>
      </trkpt>
      <trkpt lat="45.59612" lon="4.59542">
        <ele>610</ele>
        <time>2014-01-12T09:40:12Z</time>
      </trkpt>
      <trkpt lat="45.59603" lon="4.59533">
        <ele>610</ele>
        <time>2014-01-12T09:40:16Z</time>
      </trkpt>
      <trkpt lat="45.59596" lon="4.5953">
        <ele>610</ele>
        <time>2014-01-12T09:40:19Z</time>
      </trkpt>
      <trkpt lat="45.5959" lon="4.59521">
        <ele>610</ele>
        <time>2014-01-12T09:40:22Z</time>
      </trkpt>
      <trkpt lat="45.59585" lon="4.59508">
        <ele>610</ele>
        <time>2014-01-12T09:40:26Z</time>
      </trkpt>
      <trkpt lat="45.59581" lon="4.59497">
        <ele>610</ele>
        <time>2014-01-12T09:40:29Z</time>
      </trkpt>
      <trkpt lat="45.59576" lon="4.59487">
        <ele>610</ele>
        <time>2014-01-12T09:40:32Z</time>
      </trkpt>
      <trkpt lat="45.5957" lon="4.59474">
        <ele>610</ele>
        <time>2014-01-12T09:40:36Z</time>
      </trkpt>
      <trkpt lat="45.59567" lon="4.59464">
        <ele>609</ele>
        <time>2014-01-12T09:40:39Z</time>
      </trkpt>
      <trkpt lat="45.59563" lon="4.59453">
        <ele>609</ele>
        <time>2014-01-12T09:40:42Z</time>
      </trkpt>
      <trkpt lat="45.59558" lon="4.59442">
        <ele>608</ele>
        <time>2014-01-12T09:40:45Z</time>
      </trkpt>
      <trkpt lat="45.59554" lon="4.5943">
        <ele>608</ele>
        <time>2014-01-12T09:40:48Z</time>
      </trkpt>
      <trkpt lat="45.59549" lon="4.59418">
        <ele>608</ele>
        <time>2014-01-12T09:40:51Z</time>
      </trkpt>
      <trkpt lat="45.59544" lon="4.59403">
        <ele>607</ele>
        <time>2014-01-12T09:40:55Z</time>
      </trkpt>
      <trkpt lat="45.5954" lon="4.59391">
        <ele>607</ele>
        <time>2014-01-12T09:40:58Z</time>
      </trkpt>
      <trkpt lat="45.59536" lon="4.59381">
        <ele>607</ele>
        <time>2014-01-12T09:41:01Z</time>
      </trkpt>
      <trkpt lat="45.59533" lon="4.5937">
        <ele>607</ele>
        <time>2014-01-12T09:41:04Z</time>
      </trkpt>
      <trkpt lat="45.59529" lon="4.59357">
        <ele>607</ele>
        <time>2014-01-12T09:41:07Z</time>
      </trkpt>
      <trkpt lat="45.59523" lon="4.59341">
        <ele>607</ele>
        <time>2014-01-12T09:41:11Z</time>
      </trkpt>
      <trkpt lat="45.59519" lon="4.5933">
        <ele>607</ele>
        <time>2014-01-12T09:41:14Z</time>
      </trkpt>
      <trkpt lat="45.59514" lon="4.59322">
        <ele>607</ele>
        <time>2014-01-12T09:41:17Z</time>
      </trkpt>
      <trkpt lat="45.59509" lon="4.59316">
        <ele>607</ele>
        <time>2014-01-12T09:41:20Z</time>
      </trkpt>
      <trkpt lat="45.59502" lon="4.59308">
        <ele>607</ele>
        <time>2014-01-12T09:41:23Z</time>
      </trkpt>
      <trkpt lat="45.59496" lon="4.59301">
        <ele>607</ele>
        <time>2014-01-12T09:41:26Z</time>
      </trkpt>
      <trkpt lat="45.59489" lon="4.59292">
        <ele>607</ele>
        <time>2014-01-12T09:41:29Z</time>
      </trkpt>
      <trkpt lat="45.59484" lon="4.59285">
        <ele>607</ele>
        <time>2014-01-12T09:41:32Z</time>
      </trkpt>
      <trkpt lat="45.59478" lon="4.59275">
        <ele>607</ele>
        <time>2014-01-12T09:41:35Z</time>
      </trkpt>
      <trkpt lat="45.59472" lon="4.59266">
        <ele>607</ele>
        <time>2014-01-12T09:41:38Z</time>
      </trkpt>
      <trkpt lat="45.59466" lon="4.59258">
        <ele>607</ele>
        <time>2014-01-12T09:41:41Z</time>
      </trkpt>
      <trkpt lat="45.5946" lon="4.59249">
        <ele>607</ele>
        <time>2014-01-12T09:41:44Z</time>
      </trkpt>
      <trkpt lat="45.59454" lon="4.59241">
        <ele>607</ele>
        <time>2014-01-12T09:41:47Z</time>
      </trkpt>
      <trkpt lat="45.5945" lon="4.59231">
        <ele>607</ele>
        <time>2014-01-12T09:41:50Z</time>
      </trkpt>
      <trkpt lat="45.59448" lon="4.59223">
        <ele>607</ele>
        <time>2014-01-12T09:41:54Z</time>
      </trkpt>
      <trkpt lat="45.59448" lon="4.59218">
        <ele>607</ele>
        <time>2014-01-12T09:41:57Z</time>
      </trkpt>
      <trkpt lat="45.59449" lon="4.59213">
        <ele>607</ele>
        <time>2014-01-12T09:42:00Z</time>
      </trkpt>
      <trkpt lat="45.59449" lon="4.59207">
        <ele>607</ele>
        <time>2014-01-12T09:42:04Z</time>
      </trkpt>
      <trkpt lat="45.5945" lon="4.59202">
        <ele>607</ele>
        <time>2014-01-12T09:42:07Z</time>
      </trkpt>
      <trkpt lat="45.59452" lon="4.59195">
        <ele>607</ele>
        <time>2014-01-12T09:42:11Z</time>
      </trkpt>
      <trkpt lat="45.59454" lon="4.59188">
        <ele>607</ele>
        <time>2014-01-12T09:42:15Z</time>
      </trkpt>
      <trkpt lat="45.59455" lon="4.5918">
        <ele>607</ele>
        <time>2014-01-12T09:42:18Z</time>
      </trkpt>
      <trkpt lat="45.59457" lon="4.5917">
        <ele>607</ele>
        <time>2014-01-12T09:42:21Z</time>
      </trkpt>
      <trkpt lat="45.59457" lon="4.59159">
        <ele>607</ele>
        <time>2014-01-12T09:42:24Z</time>
      </trkpt>
      <trkpt lat="45.59458" lon="4.59147">
        <ele>607</ele>
        <time>2014-01-12T09:42:27Z</time>
      </trkpt>
      <trkpt lat="45.59459" lon="4.59133">
        <ele>607</ele>
        <time>2014-01-12T09:42:31Z</time>
      </trkpt>
      <trkpt lat="45.59458" lon="4.59122">
        <ele>607</ele>
        <time>2014-01-12T09:42:34Z</time>
      </trkpt>
      <trkpt lat="45.59455" lon="4.59107">
        <ele>607</ele>
        <time>2014-01-12T09:42:38Z</time>
      </trkpt>
      <trkpt lat="45.59452" lon="4.59096">
        <ele>607</ele>
        <time>2014-01-12T09:42:41Z</time>
      </trkpt>
      <trkpt lat="45.5945" lon="4.59082">
        <ele>607</ele>
        <time>2014-01-12T09:42:45Z</time>
      </trkpt>
      <trkpt lat="45.59448" lon="4.59071">
        <ele>607</ele>
        <time>2014-01-12T09:42:48Z</time>
      </trkpt>
      <trkpt lat="45.59445" lon="4.59057">
        <ele>607</ele>
        <time>2014-01-12T09:42:52Z</time>
      </trkpt>
      <trkpt lat="45.59441" lon="4.59047">
        <ele>608</ele>
        <time>2014-01-12T09:42:55Z</time>
      </trkpt>
      <trkpt lat="45.59438" lon="4.59037">
        <ele>609</ele>
        <time>2014-01-12T09:42:58Z</time>
      </trkpt>
      <trkpt lat="45.59434" lon="4.59027">
        <ele>611</ele>
        <time>2014-01-12T09:43:02Z</time>
      </trkpt>
      <trkpt lat="45.59432" lon="4.59023">
        <ele>611</ele>
        <time>2014-01-12T09:43:05Z</time>
      </trkpt>
      <trkpt lat="45.59431" lon="4.59019">
        <ele>612</ele>
        <time>2014-01-12T09:43:08Z</time>
      </trkpt>
      <trkpt lat="45.59429" lon="4.59015">
        <ele>613</ele>
        <time>2014-01-12T09:43:11Z</time>
      </trkpt>
      <trkpt lat="45.59427" lon="4.5901">
        <ele>613</ele>
        <time>2014-01-12T09:43:14Z</time>
      </trkpt>
      <trkpt lat="45.59425" lon="4.59004">
        <ele>614</ele>
        <time>2014-01-12T09:43:18Z</time>
      </trkpt>
      <trkpt lat="45.59423" lon="4.58999">
        <ele>614</ele>
        <time>2014-01-12T09:43:22Z</time>
      </trkpt>
      <trkpt lat="45.59422" lon="4.58994">
        <ele>614</ele>
        <time>2014-01-12T09:43:25Z</time>
      </trkpt>
      <trkpt lat="45.5942" lon="4.58989">
        <ele>615</ele>
        <time>2014-01-12T09:43:29Z</time>
      </trkpt>
      <trkpt lat="45.59419" lon="4.58982">
        <ele>615</ele>
        <time>2014-01-12T09:43:32Z</time>
      </trkpt>
      <trkpt lat="45.59417" lon="4.5897">
        <ele>615</ele>
        <time>2014-01-12T09:43:35Z</time>
      </trkpt>
      <trkpt lat="45.59416" lon="4.5896">
        <ele>615</ele>
        <time>2014-01-12T09:43:38Z</time>
      </trkpt>
      <trkpt lat="45.59414" lon="4.58946">
        <ele>615</ele>
        <time>2014-01-12T09:43:42Z</time>
      </trkpt>
      <trkpt lat="45.59414" lon="4.58934">
        <ele>616</ele>
        <time>2014-01-12T09:43:45Z</time>
      </trkpt>
      <trkpt lat="45.59415" lon="4.58922">
        <ele>616</ele>
        <time>2014-01-12T09:43:48Z</time>
      </trkpt>
      <trkpt lat="45.59415" lon="4.5891">
        <ele>616</ele>
        <time>2014-01-12T09:43:51Z</time>
      </trkpt>
      <trkpt lat="45.59411" lon="4.58897">
        <ele>616</ele>
        <time>2014-01-12T09:43:55Z</time>
      </trkpt>
      <trkpt lat="45.59404" lon="4.58895">
        <ele>616</ele>
        <time>2014-01-12T09:43:58Z</time>
      </trkpt>
      <trkpt lat="45.59396" lon="4.58892">
        <ele>616</ele>
        <time>2014-01-12T09:44:01Z</time>
      </trkpt>
      <trkpt lat="45.59388" lon="4.58888">
        <ele>616</ele>
        <time>2014-01-12T09:44:04Z</time>
      </trkpt>
      <trkpt lat="45.5938" lon="4.58885">
        <ele>615</ele>
        <time>2014-01-12T09:44:07Z</time>
      </trkpt>
      <trkpt lat="45.59373" lon="4.58881">
        <ele>614</ele>
        <time>2014-01-12T09:44:10Z</time>
      </trkpt>
      <trkpt lat="45.59367" lon="4.58875">
        <ele>613</ele>
        <time>2014-01-12T09:44:13Z</time>
      </trkpt>
      <trkpt lat="45.59363" lon="4.58864">
        <ele>612</ele>
        <time>2014-01-12T09:44:16Z</time>
      </trkpt>
      <trkpt lat="45.5936" lon="4.58852">
        <ele>611</ele>
        <time>2014-01-12T09:44:19Z</time>
      </trkpt>
      <trkpt lat="45.59357" lon="4.58837">
        <ele>610</ele>
        <time>2014-01-12T09:44:23Z</time>
      </trkpt>
      <trkpt lat="45.59356" lon="4.58819">
        <ele>608</ele>
        <time>2014-01-12T09:44:27Z</time>
      </trkpt>
      <trkpt lat="45.59357" lon="4.58806">
        <ele>607</ele>
        <time>2014-01-12T09:44:30Z</time>
      </trkpt>
      <trkpt lat="45.5936" lon="4.58795">
        <ele>605</ele>
        <time>2014-01-12T09:44:33Z</time>
      </trkpt>
      <trkpt lat="45.59364" lon="4.58781">
        <ele>602</ele>
        <time>2014-01-12T09:44:37Z</time>
      </trkpt>
      <trkpt lat="45.59369" lon="4.58771">
        <ele>600</ele>
        <time>2014-01-12T09:44:40Z</time>
      </trkpt>
      <trkpt lat="45.59373" lon="4.58762">
        <ele>599</ele>
        <time>2014-01-12T09:44:43Z</time>
      </trkpt>
      <trkpt lat="45.59379" lon="4.58752">
        <ele>597</ele>
        <time>2014-01-12T09:44:46Z</time>
      </trkpt>
      <trkpt lat="45.59385" lon="4.58744">
        <ele>595</ele>
        <time>2014-01-12T09:44:49Z</time>
      </trkpt>
      <trkpt lat="45.59392" lon="4.58735">
        <ele>594</ele>
        <time>2014-01-12T09:44:52Z</time>
      </trkpt>
      <trkpt lat="45.594" lon="4.58728">
        <ele>593</ele>
        <time>2014-01-12T09:44:55Z</time>
      </trkpt>
      <trkpt lat="45.59407" lon="4.58723">
        <ele>593</ele>
        <time>2014-01-12T09:44:58Z</time>
      </trkpt>
      <trkpt lat="45.59416" lon="4.58718">
        <ele>592</ele>
        <time>2014-01-12T09:45:02Z</time>
      </trkpt>
      <trkpt lat="45.59424" lon="4.58716">
        <ele>592</ele>
        <time>2014-01-12T09:45:05Z</time>
      </trkpt>
      <trkpt lat="45.59433" lon="4.58716">
        <ele>591</ele>
        <time>2014-01-12T09:45:08Z</time>
      </trkpt>
      <trkpt lat="45.5944" lon="4.58717">
        <ele>589</ele>
        <time>2014-01-12T09:45:11Z</time>
      </trkpt>
      <trkpt lat="45.59447" lon="4.58717">
        <ele>588</ele>
        <time>2014-01-12T09:45:14Z</time>
      </trkpt>
      <trkpt lat="45.59457" lon="4.58712">
        <ele>586</ele>
        <time>2014-01-12T09:45:17Z</time>
      </trkpt>
      <trkpt lat="45.59464" lon="4.58704">
        <ele>585</ele>
        <time>2014-01-12T09:45:20Z</time>
      </trkpt>
      <trkpt lat="45.59472" lon="4.58694">
        <ele>584</ele>
        <time>2014-01-12T09:45:23Z</time>
      </trkpt>
      <trkpt lat="45.59478" lon="4.58685">
        <ele>583</ele>
        <time>2014-01-12T09:45:26Z</time>
      </trkpt>
      <trkpt lat="45.59485" lon="4.58675">
        <ele>582</ele>
        <time>2014-01-12T09:45:29Z</time>
      </trkpt>
      <trkpt lat="45.59493" lon="4.58666">
        <ele>580</ele>
        <time>2014-01-12T09:45:32Z</time>
      </trkpt>
      <trkpt lat="45.59499" lon="4.58656">
        <ele>578</ele>
        <time>2014-01-12T09:45:35Z</time>
      </trkpt>
      <trkpt lat="45.59506" lon="4.58647">
        <ele>577</ele>
        <time>2014-01-12T09:45:38Z</time>
      </trkpt>
      <trkpt lat="45.59512" lon="4.58639">
        <ele>575</ele>
        <time>2014-01-12T09:45:41Z</time>
      </trkpt>
      <trkpt lat="45.59517" lon="4.5863">
        <ele>573</ele>
        <time>2014-01-12T09:45:44Z</time>
      </trkpt>
      <trkpt lat="45.5952" lon="4.58623">
        <ele>571</ele>
        <time>2014-01-12T09:45:47Z</time>
      </trkpt>
      <trkpt lat="45.59525" lon="4.58616">
        <ele>570</ele>
        <time>2014-01-12T09:45:50Z</time>
      </trkpt>
      <trkpt lat="45.59529" lon="4.58609">
        <ele>569</ele>
        <time>2014-01-12T09:45:53Z</time>
      </trkpt>
      <trkpt lat="45.59533" lon="4.58601">
        <ele>567</ele>
        <time>2014-01-12T09:45:56Z</time>
      </trkpt>
      <trkpt lat="45.59538" lon="4.58595">
        <ele>566</ele>
        <time>2014-01-12T09:45:59Z</time>
      </trkpt>
      <trkpt lat="45.59543" lon="4.58587">
        <ele>564</ele>
        <time>2014-01-12T09:46:02Z</time>
      </trkpt>
      <trkpt lat="45.59543" lon="4.58577">
        <ele>563</ele>
        <time>2014-01-12T09:46:05Z</time>
      </trkpt>
      <trkpt lat="45.5954" lon="4.58566">
        <ele>561</ele>
        <time>2014-01-12T09:46:08Z</time>
      </trkpt>
      <trkpt lat="45.59538" lon="4.58551">
        <ele>559</ele>
        <time>2014-01-12T09:46:12Z</time>
      </trkpt>
      <trkpt lat="45.5954" lon="4.58539">
        <ele>558</ele>
        <time>2014-01-12T09:46:15Z</time>
      </trkpt>
      <trkpt lat="45.59542" lon="4.58522">
        <ele>558</ele>
        <time>2014-01-12T09:46:19Z</time>
      </trkpt>
      <trkpt lat="45.59544" lon="4.5851">
        <ele>557</ele>
        <time>2014-01-12T09:46:22Z</time>
      </trkpt>
      <trkpt lat="45.59548" lon="4.58498">
        <ele>557</ele>
        <time>2014-01-12T09:46:25Z</time>
      </trkpt>
      <trkpt lat="45.59551" lon="4.58487">
        <ele>556</ele>
        <time>2014-01-12T09:46:28Z</time>
      </trkpt>
      <trkpt lat="45.59555" lon="4.58475">
        <ele>556</ele>
        <time>2014-01-12T09:46:31Z</time>
      </trkpt>
      <trkpt lat="45.59558" lon="4.58463">
        <ele>556</ele>
        <time>2014-01-12T09:46:34Z</time>
      </trkpt>
      <trkpt lat="45.59563" lon="4.58449">
        <ele>556</ele>
        <time>2014-01-12T09:46:38Z</time>
      </trkpt>
      <trkpt lat="45.59566" lon="4.58439">
        <ele>556</ele>
        <time>2014-01-12T09:46:41Z</time>
      </trkpt>
      <trkpt lat="45.59568" lon="4.58436">
        <ele>556</ele>
        <time>2014-01-12T09:47:07Z</time>
      </trkpt>
      <trkpt lat="45.59569" lon="4.58437">
        <ele>556</ele>
        <time>2014-01-12T09:47:21Z</time>
      </trkpt>
      <trkpt lat="45.59568" lon="4.58435">
        <ele>556</ele>
        <time>2014-01-12T09:47:40Z</time>
      </trkpt>
      <trkpt lat="45.59571" lon="4.58427">
        <ele>556</ele>
        <time>2014-01-12T09:47:43Z</time>
      </trkpt>
      <trkpt lat="45.59576" lon="4.58418">
        <ele>556</ele>
        <time>2014-01-12T09:47:46Z</time>
      </trkpt>
      <trkpt lat="45.59581" lon="4.58408">
        <ele>556</ele>
        <time>2014-01-12T09:47:49Z</time>
      </trkpt>
      <trkpt lat="45.59586" lon="4.58399">
        <ele>556</ele>
        <time>2014-01-12T09:47:52Z</time>
      </trkpt>
      <trkpt lat="45.59592" lon="4.58386">
        <ele>556</ele>
        <time>2014-01-12T09:47:56Z</time>
      </trkpt>
      <trkpt lat="45.59596" lon="4.58375">
        <ele>556</ele>
        <time>2014-01-12T09:47:59Z</time>
      </trkpt>
      <trkpt lat="45.59601" lon="4.58366">
        <ele>556</ele>
        <time>2014-01-12T09:48:02Z</time>
      </trkpt>
      <trkpt lat="45.59605" lon="4.58365">
        <ele>556</ele>
        <time>2014-01-12T09:48:08Z</time>
      </trkpt>
      <trkpt lat="45.59604" lon="4.58364">
        <ele>556</ele>
        <time>2014-01-12T09:48:20Z</time>
      </trkpt>
      <trkpt lat="45.59604" lon="4.58361">
        <ele>556</ele>
        <time>2014-01-12T09:48:23Z</time>
      </trkpt>
      <trkpt lat="45.59607" lon="4.58351">
        <ele>556</ele>
        <time>2014-01-12T09:48:26Z</time>
      </trkpt>
      <trkpt lat="45.59613" lon="4.58337">
        <ele>556</ele>
        <time>2014-01-12T09:48:30Z</time>
      </trkpt>
      <trkpt lat="45.59616" lon="4.58327">
        <ele>556</ele>
        <time>2014-01-12T09:48:33Z</time>
      </trkpt>
      <trkpt lat="45.59623" lon="4.58314">
        <ele>556</ele>
        <time>2014-01-12T09:48:37Z</time>
      </trkpt>
      <trkpt lat="45.59629" lon="4.58301">
        <ele>556</ele>
        <time>2014-01-12T09:48:41Z</time>
      </trkpt>
      <trkpt lat="45.59632" lon="4.5829">
        <ele>556</ele>
        <time>2014-01-12T09:48:44Z</time>
      </trkpt>
      <trkpt lat="45.59635" lon="4.58279">
        <ele>556</ele>
        <time>2014-01-12T09:48:47Z</time>
      </trkpt>
      <trkpt lat="45.59639" lon="4.5827">
        <ele>556</ele>
        <time>2014-01-12T09:48:50Z</time>
      </trkpt>
      <trkpt lat="45.59644" lon="4.58256">
        <ele>557</ele>
        <time>2014-01-12T09:48:54Z</time>
      </trkpt>
      <trkpt lat="45.59647" lon="4.58247">
        <ele>558</ele>
        <time>2014-01-12T09:48:57Z</time>
      </trkpt>
      <trkpt lat="45.59649" lon="4.58237">
        <ele>559</ele>
        <time>2014-01-12T09:49:00Z</time>
      </trkpt>
      <trkpt lat="45.5965" lon="4.58225">
        <ele>559</ele>
        <time>2014-01-12T09:49:03Z</time>
      </trkpt>
      <trkpt lat="45.59652" lon="4.58208">
        <ele>559</ele>
        <time>2014-01-12T09:49:07Z</time>
      </trkpt>
      <trkpt lat="45.59653" lon="4.58191">
        <ele>559</ele>
        <time>2014-01-12T09:49:11Z</time>
      </trkpt>
      <trkpt lat="45.59654" lon="4.58179">
        <ele>559</ele>
        <time>2014-01-12T09:49:14Z</time>
      </trkpt>
      <trkpt lat="45.59655" lon="4.58167">
        <ele>559</ele>
        <time>2014-01-12T09:49:17Z</time>
      </trkpt>
      <trkpt lat="45.59656" lon="4.58151">
        <ele>559</ele>
        <time>2014-01-12T09:49:21Z</time>
      </trkpt>
      <trkpt lat="45.59659" lon="4.5814">
        <ele>559</ele>
        <time>2014-01-12T09:49:24Z</time>
      </trkpt>
      <trkpt lat="45.59662" lon="4.58128">
        <ele>559</ele>
        <time>2014-01-12T09:49:27Z</time>
      </trkpt>
      <trkpt lat="45.59666" lon="4.58118">
        <ele>559</ele>
        <time>2014-01-12T09:49:30Z</time>
      </trkpt>
      <trkpt lat="45.59669" lon="4.58107">
        <ele>559</ele>
        <time>2014-01-12T09:49:33Z</time>
      </trkpt>
      <trkpt lat="45.59672" lon="4.58096">
        <ele>557</ele>
        <time>2014-01-12T09:49:36Z</time>
      </trkpt>
      <trkpt lat="45.59675" lon="4.58086">
        <ele>556</ele>
        <time>2014-01-12T09:49:39Z</time>
      </trkpt>
      <trkpt lat="45.59679" lon="4.58076">
        <ele>554</ele>
        <time>2014-01-12T09:49:42Z</time>
      </trkpt>
      <trkpt lat="45.59683" lon="4.58066">
        <ele>553</ele>
        <time>2014-01-12T09:49:45Z</time>
      </trkpt>
      <trkpt lat="45.59689" lon="4.58053">
        <ele>551</ele>
        <time>2014-01-12T09:49:49Z</time>
      </trkpt>
      <trkpt lat="45.59694" lon="4.58044">
        <ele>550</ele>
        <time>2014-01-12T09:49:52Z</time>
      </trkpt>
      <trkpt lat="45.59699" lon="4.58035">
        <ele>550</ele>
        <time>2014-01-12T09:49:55Z</time>
      </trkpt>
      <trkpt lat="45.59705" lon="4.58026">
        <ele>550</ele>
        <time>2014-01-12T09:49:58Z</time>
      </trkpt>
      <trkpt lat="45.59712" lon="4.58019">
        <ele>550</ele>
        <time>2014-01-12T09:50:01Z</time>
      </trkpt>
      <trkpt lat="45.59721" lon="4.5801">
        <ele>550</ele>
        <time>2014-01-12T09:50:05Z</time>
      </trkpt>
      <trkpt lat="45.59727" lon="4.58006">
        <ele>550</ele>
        <time>2014-01-12T09:50:08Z</time>
      </trkpt>
      <trkpt lat="45.59733" lon="4.58005">
        <ele>550</ele>
        <time>2014-01-12T09:50:11Z</time>
      </trkpt>
      <trkpt lat="45.59737" lon="4.57998">
        <ele>550</ele>
        <time>2014-01-12T09:50:14Z</time>
      </trkpt>
      <trkpt lat="45.5974" lon="4.57991">
        <ele>550</ele>
        <time>2014-01-12T09:50:17Z</time>
      </trkpt>
      <trkpt lat="45.5974" lon="4.57981">
        <ele>551</ele>
        <time>2014-01-12T09:50:20Z</time>
      </trkpt>
      <trkpt lat="45.59739" lon="4.57973">
        <ele>552</ele>
        <time>2014-01-12T09:50:23Z</time>
      </trkpt>
      <trkpt lat="45.59739" lon="4.57965">
        <ele>552</ele>
        <time>2014-01-12T09:50:26Z</time>
      </trkpt>
      <trkpt lat="45.59737" lon="4.57955">
        <ele>553</ele>
        <time>2014-01-12T09:50:30Z</time>
      </trkpt>
      <trkpt lat="45.59738" lon="4.57947">
        <ele>554</ele>
        <time>2014-01-12T09:50:33Z</time>
      </trkpt>
      <trkpt lat="45.59738" lon="4.57938">
        <ele>555</ele>
        <time>2014-01-12T09:50:36Z</time>
      </trkpt>
      <trkpt lat="45.5974" lon="4.57931">
        <ele>556</ele>
        <time>2014-01-12T09:50:39Z</time>
      </trkpt>
      <trkpt lat="45.59741" lon="4.57923">
        <ele>556</ele>
        <time>2014-01-12T09:50:42Z</time>
      </trkpt>
      <trkpt lat="45.59742" lon="4.57914">
        <ele>557</ele>
        <time>2014-01-12T09:50:45Z</time>
      </trkpt>
      <trkpt lat="45.59742" lon="4.57906">
        <ele>557</ele>
        <time>2014-01-12T09:50:48Z</time>
      </trkpt>
      <trkpt lat="45.59743" lon="4.57897">
        <ele>557</ele>
        <time>2014-01-12T09:50:51Z</time>
      </trkpt>
      <trkpt lat="45.59745" lon="4.57888">
        <ele>557</ele>
        <time>2014-01-12T09:50:54Z</time>
      </trkpt>
      <trkpt lat="45.59746" lon="4.57879">
        <ele>557</ele>
        <time>2014-01-12T09:50:57Z</time>
      </trkpt>
      <trkpt lat="45.59744" lon="4.57868">
        <ele>557</ele>
        <time>2014-01-12T09:51:01Z</time>
      </trkpt>
      <trkpt lat="45.59741" lon="4.57859">
        <ele>557</ele>
        <time>2014-01-12T09:51:04Z</time>
      </trkpt>
      <trkpt lat="45.59735" lon="4.5785">
        <ele>557</ele>
        <time>2014-01-12T09:51:07Z</time>
      </trkpt>
      <trkpt lat="45.5973" lon="4.57838">
        <ele>557</ele>
        <time>2014-01-12T09:51:11Z</time>
      </trkpt>
      <trkpt lat="45.59728" lon="4.57829">
        <ele>557</ele>
        <time>2014-01-12T09:51:14Z</time>
      </trkpt>
      <trkpt lat="45.59726" lon="4.57819">
        <ele>557</ele>
        <time>2014-01-12T09:51:17Z</time>
      </trkpt>
      <trkpt lat="45.59722" lon="4.57812">
        <ele>557</ele>
        <time>2014-01-12T09:51:20Z</time>
      </trkpt>
      <trkpt lat="45.59719" lon="4.57812">
        <ele>557</ele>
        <time>2014-01-12T09:51:23Z</time>
      </trkpt>
      <trkpt lat="45.59715" lon="4.57813">
        <ele>557</ele>
        <time>2014-01-12T09:51:26Z</time>
      </trkpt>
      <trkpt lat="45.59711" lon="4.57817">
        <ele>557</ele>
        <time>2014-01-12T09:51:30Z</time>
      </trkpt>
      <trkpt lat="45.59707" lon="4.57818">
        <ele>557</ele>
        <time>2014-01-12T09:51:34Z</time>
      </trkpt>
      <trkpt lat="45.59703" lon="4.57824">
        <ele>557</ele>
        <time>2014-01-12T09:51:38Z</time>
      </trkpt>
      <trkpt lat="45.59698" lon="4.57827">
        <ele>557</ele>
        <time>2014-01-12T09:51:42Z</time>
      </trkpt>
      <trkpt lat="45.59694" lon="4.57828">
        <ele>557</ele>
        <time>2014-01-12T09:51:46Z</time>
      </trkpt>
      <trkpt lat="45.5969" lon="4.57831">
        <ele>558</ele>
        <time>2014-01-12T09:51:49Z</time>
      </trkpt>
      <trkpt lat="45.59687" lon="4.57833">
        <ele>558</ele>
        <time>2014-01-12T09:51:52Z</time>
      </trkpt>
      <trkpt lat="45.59682" lon="4.57835">
        <ele>558</ele>
        <time>2014-01-12T09:51:56Z</time>
      </trkpt>
      <trkpt lat="45.59676" lon="4.57836">
        <ele>558</ele>
        <time>2014-01-12T09:51:59Z</time>
      </trkpt>
      <trkpt lat="45.59673" lon="4.57836">
        <ele>558</ele>
        <time>2014-01-12T09:52:02Z</time>
      </trkpt>
      <trkpt lat="45.59669" lon="4.57834">
        <ele>558</ele>
        <time>2014-01-12T09:52:06Z</time>
      </trkpt>
      <trkpt lat="45.59664" lon="4.57837">
        <ele>558</ele>
        <time>2014-01-12T09:52:10Z</time>
      </trkpt>
      <trkpt lat="45.5966" lon="4.57839">
        <ele>558</ele>
        <time>2014-01-12T09:52:13Z</time>
      </trkpt>
      <trkpt lat="45.59656" lon="4.57841">
        <ele>558</ele>
        <time>2014-01-12T09:52:16Z</time>
      </trkpt>
      <trkpt lat="45.59653" lon="4.57843">
        <ele>558</ele>
        <time>2014-01-12T09:52:19Z</time>
      </trkpt>
      <trkpt lat="45.59649" lon="4.57846">
        <ele>559</ele>
        <time>2014-01-12T09:52:22Z</time>
      </trkpt>
      <trkpt lat="45.59644" lon="4.57848">
        <ele>560</ele>
        <time>2014-01-12T09:52:26Z</time>
      </trkpt>
      <trkpt lat="45.5964" lon="4.57852">
        <ele>561</ele>
        <time>2014-01-12T09:52:29Z</time>
      </trkpt>
      <trkpt lat="45.59637" lon="4.57855">
        <ele>564</ele>
        <time>2014-01-12T09:52:32Z</time>
      </trkpt>
      <trkpt lat="45.59633" lon="4.57859">
        <ele>566</ele>
        <time>2014-01-12T09:52:35Z</time>
      </trkpt>
      <trkpt lat="45.59629" lon="4.57859">
        <ele>567</ele>
        <time>2014-01-12T09:52:38Z</time>
      </trkpt>
      <trkpt lat="45.59626" lon="4.57858">
        <ele>568</ele>
        <time>2014-01-12T09:52:41Z</time>
      </trkpt>
      <trkpt lat="45.59622" lon="4.57859">
        <ele>570</ele>
        <time>2014-01-12T09:52:44Z</time>
      </trkpt>
      <trkpt lat="45.59617" lon="4.57856">
        <ele>572</ele>
        <time>2014-01-12T09:52:48Z</time>
      </trkpt>
      <trkpt lat="45.59614" lon="4.57853">
        <ele>572</ele>
        <time>2014-01-12T09:52:51Z</time>
      </trkpt>
      <trkpt lat="45.5961" lon="4.57852">
        <ele>574</ele>
        <time>2014-01-12T09:52:55Z</time>
      </trkpt>
      <trkpt lat="45.59606" lon="4.5785">
        <ele>575</ele>
        <time>2014-01-12T09:52:59Z</time>
      </trkpt>
      <trkpt lat="45.59602" lon="4.57848">
        <ele>577</ele>
        <time>2014-01-12T09:53:02Z</time>
      </trkpt>
      <trkpt lat="45.59599" lon="4.57844">
        <ele>579</ele>
        <time>2014-01-12T09:53:05Z</time>
      </trkpt>
      <trkpt lat="45.59598" lon="4.5784">
        <ele>581</ele>
        <time>2014-01-12T09:53:08Z</time>
      </trkpt>
      <trkpt lat="45.59597" lon="4.57836">
        <ele>583</ele>
        <time>2014-01-12T09:53:11Z</time>
      </trkpt>
      <trkpt lat="45.59599" lon="4.57832">
        <ele>585</ele>
        <time>2014-01-12T09:53:15Z</time>
      </trkpt>
      <trkpt lat="45.59602" lon="4.57828">
        <ele>585</ele>
        <time>2014-01-12T09:53:19Z</time>
      </trkpt>
      <trkpt lat="45.59604" lon="4.57824">
        <ele>586</ele>
        <time>2014-01-12T09:53:23Z</time>
      </trkpt>
      <trkpt lat="45.59604" lon="4.57819">
        <ele>587</ele>
        <time>2014-01-12T09:53:26Z</time>
      </trkpt>
      <trkpt lat="45.59606" lon="4.57813">
        <ele>588</ele>
        <time>2014-01-12T09:53:30Z</time>
      </trkpt>
      <trkpt lat="45.59607" lon="4.57808">
        <ele>590</ele>
        <time>2014-01-12T09:53:34Z</time>
      </trkpt>
      <trkpt lat="45.59608" lon="4.57804">
        <ele>592</ele>
        <time>2014-01-12T09:53:38Z</time>
      </trkpt>
      <trkpt lat="45.5961" lon="4.57798">
        <ele>594</ele>
        <time>2014-01-12T09:53:42Z</time>
      </trkpt>
      <trkpt lat="45.59611" lon="4.57795">
        <ele>596</ele>
        <time>2014-01-12T09:53:45Z</time>
      </trkpt>
      <trkpt lat="45.59615" lon="4.57791">
        <ele>596</ele>
        <time>2014-01-12T09:53:50Z</time>
      </trkpt>
      <trkpt lat="45.59617" lon="4.57786">
        <ele>596</ele>
        <time>2014-01-12T09:53:53Z</time>
      </trkpt>
      <trkpt lat="45.59617" lon="4.57783">
        <ele>596</ele>
        <time>2014-01-12T09:53:56Z</time>
      </trkpt>
      <trkpt lat="45.5962" lon="4.57777">
        <ele>596</ele>
        <time>2014-01-12T09:53:59Z</time>
      </trkpt>
      <trkpt lat="45.59622" lon="4.57772">
        <ele>596</ele>
        <time>2014-01-12T09:54:02Z</time>
      </trkpt>
      <trkpt lat="45.59625" lon="4.57766">
        <ele>596</ele>
        <time>2014-01-12T09:54:06Z</time>
      </trkpt>
      <trkpt lat="45.59627" lon="4.57762">
        <ele>596</ele>
        <time>2014-01-12T09:54:09Z</time>
      </trkpt>
      <trkpt lat="45.59629" lon="4.57759">
        <ele>597</ele>
        <time>2014-01-12T09:54:12Z</time>
      </trkpt>
      <trkpt lat="45.59634" lon="4.57757">
        <ele>599</ele>
        <time>2014-01-12T09:54:17Z</time>
      </trkpt>
      <trkpt lat="45.59637" lon="4.57758">
        <ele>599</ele>
        <time>2014-01-12T09:54:22Z</time>
      </trkpt>
      <trkpt lat="45.59641" lon="4.57756">
        <ele>599</ele>
        <time>2014-01-12T09:54:26Z</time>
      </trkpt>
      <trkpt lat="45.59644" lon="4.57753">
        <ele>599</ele>
        <time>2014-01-12T09:54:30Z</time>
      </trkpt>
      <trkpt lat="45.59647" lon="4.57751">
        <ele>599</ele>
        <time>2014-01-12T09:54:34Z</time>
      </trkpt>
      <trkpt lat="45.59649" lon="4.5775">
        <ele>599</ele>
        <time>2014-01-12T09:54:38Z</time>
      </trkpt>
      <trkpt lat="45.59652" lon="4.57747">
        <ele>600</ele>
        <time>2014-01-12T09:54:42Z</time>
      </trkpt>
      <trkpt lat="45.59655" lon="4.57743">
        <ele>601</ele>
        <time>2014-01-12T09:54:47Z</time>
      </trkpt>
      <trkpt lat="45.59655" lon="4.57736">
        <ele>603</ele>
        <time>2014-01-12T09:54:51Z</time>
      </trkpt>
      <trkpt lat="45.59655" lon="4.57731">
        <ele>603</ele>
        <time>2014-01-12T09:54:55Z</time>
      </trkpt>
      <trkpt lat="45.59655" lon="4.57726">
        <ele>603</ele>
        <time>2014-01-12T09:54:59Z</time>
      </trkpt>
      <trkpt lat="45.59655" lon="4.57722">
        <ele>603</ele>
        <time>2014-01-12T09:55:03Z</time>
      </trkpt>
      <trkpt lat="45.59655" lon="4.57716">
        <ele>603</ele>
        <time>2014-01-12T09:55:08Z</time>
      </trkpt>
      <trkpt lat="45.59655" lon="4.57711">
        <ele>603</ele>
        <time>2014-01-12T09:55:12Z</time>
      </trkpt>
      <trkpt lat="45.59655" lon="4.57708">
        <ele>604</ele>
        <time>2014-01-12T09:55:15Z</time>
      </trkpt>
      <trkpt lat="45.59655" lon="4.57703">
        <ele>606</ele>
        <time>2014-01-12T09:55:18Z</time>
      </trkpt>
      <trkpt lat="45.59655" lon="4.577">
        <ele>607</ele>
        <time>2014-01-12T09:55:22Z</time>
      </trkpt>
      <trkpt lat="45.59654" lon="4.57694">
        <ele>609</ele>
        <time>2014-01-12T09:55:27Z</time>
      </trkpt>
      <trkpt lat="45.59654" lon="4.57691">
        <ele>611</ele>
        <time>2014-01-12T09:55:31Z</time>
      </trkpt>
      <trkpt lat="45.59655" lon="4.57687">
        <ele>612</ele>
        <time>2014-01-12T09:55:35Z</time>
      </trkpt>
      <trkpt lat="45.59655" lon="4.57683">
        <ele>613</ele>
        <time>2014-01-12T09:55:39Z</time>
      </trkpt>
      <trkpt lat="45.59656" lon="4.57678">
        <ele>613</ele>
        <time>2014-01-12T09:55:43Z</time>
      </trkpt>
      <trkpt lat="45.59658" lon="4.57673">
        <ele>613</ele>
        <time>2014-01-12T09:55:47Z</time>
      </trkpt>
      <trkpt lat="45.59658" lon="4.57668">
        <ele>613</ele>
        <time>2014-01-12T09:55:51Z</time>
      </trkpt>
      <trkpt lat="45.5966" lon="4.57664">
        <ele>613</ele>
        <time>2014-01-12T09:55:54Z</time>
      </trkpt>
      <trkpt lat="45.59661" lon="4.5766">
        <ele>613</ele>
        <time>2014-01-12T09:55:57Z</time>
      </trkpt>
      <trkpt lat="45.59662" lon="4.57656">
        <ele>614</ele>
        <time>2014-01-12T09:56:00Z</time>
      </trkpt>
      <trkpt lat="45.59664" lon="4.57649">
        <ele>616</ele>
        <time>2014-01-12T09:56:04Z</time>
      </trkpt>
      <trkpt lat="45.59665" lon="4.57646">
        <ele>617</ele>
        <time>2014-01-12T09:56:07Z</time>
      </trkpt>
      <trkpt lat="45.59666" lon="4.57642">
        <ele>617</ele>
        <time>2014-01-12T09:56:10Z</time>
      </trkpt>
      <trkpt lat="45.59667" lon="4.57638">
        <ele>618</ele>
        <time>2014-01-12T09:56:14Z</time>
      </trkpt>
      <trkpt lat="45.59668" lon="4.57633">
        <ele>619</ele>
        <time>2014-01-12T09:56:18Z</time>
      </trkpt>
      <trkpt lat="45.59669" lon="4.57629">
        <ele>619</ele>
        <time>2014-01-12T09:56:21Z</time>
      </trkpt>
      <trkpt lat="45.5967" lon="4.57622">
        <ele>620</ele>
        <time>2014-01-12T09:56:26Z</time>
      </trkpt>
      <trkpt lat="45.59671" lon="4.57617">
        <ele>621</ele>
        <time>2014-01-12T09:56:30Z</time>
      </trkpt>
      <trkpt lat="45.59672" lon="4.57611">
        <ele>622</ele>
        <time>2014-01-12T09:56:34Z</time>
      </trkpt>
      <trkpt lat="45.59673" lon="4.57605">
        <ele>623</ele>
        <time>2014-01-12T09:56:38Z</time>
      </trkpt>
      <trkpt lat="45.59675" lon="4.57602">
        <ele>624</ele>
        <time>2014-01-12T09:56:42Z</time>
      </trkpt>
      <trkpt lat="45.59677" lon="4.57596">
        <ele>625</ele>
        <time>2014-01-12T09:56:46Z</time>
      </trkpt>
      <trkpt lat="45.59679" lon="4.57591">
        <ele>626</ele>
        <time>2014-01-12T09:56:50Z</time>
      </trkpt>
      <trkpt lat="45.59682" lon="4.57587">
        <ele>628</ele>
        <time>2014-01-12T09:56:54Z</time>
      </trkpt>
      <trkpt lat="45.59686" lon="4.57585">
        <ele>629</ele>
        <time>2014-01-12T09:56:58Z</time>
      </trkpt>
      <trkpt lat="45.5969" lon="4.5758">
        <ele>629</ele>
        <time>2014-01-12T09:57:01Z</time>
      </trkpt>
      <trkpt lat="45.59694" lon="4.57573">
        <ele>629</ele>
        <time>2014-01-12T09:57:04Z</time>
      </trkpt>
      <trkpt lat="45.59697" lon="4.57567">
        <ele>630</ele>
        <time>2014-01-12T09:57:07Z</time>
      </trkpt>
      <trkpt lat="45.597" lon="4.57555">
        <ele>630</ele>
        <time>2014-01-12T09:57:11Z</time>
      </trkpt>
      <trkpt lat="45.59703" lon="4.57547">
        <ele>630</ele>
        <time>2014-01-12T09:57:14Z</time>
      </trkpt>
      <trkpt lat="45.59706" lon="4.57538">
        <ele>630</ele>
        <time>2014-01-12T09:57:17Z</time>
      </trkpt>
      <trkpt lat="45.59711" lon="4.57523">
        <ele>630</ele>
        <time>2014-01-12T09:57:21Z</time>
      </trkpt>
      <trkpt lat="45.59712" lon="4.57512">
        <ele>632</ele>
        <time>2014-01-12T09:57:24Z</time>
      </trkpt>
      <trkpt lat="45.59713" lon="4.57503">
        <ele>633</ele>
        <time>2014-01-12T09:57:27Z</time>
      </trkpt>
      <trkpt lat="45.59714" lon="4.57495">
        <ele>633</ele>
        <time>2014-01-12T09:57:31Z</time>
      </trkpt>
      <trkpt lat="45.59715" lon="4.57488">
        <ele>635</ele>
        <time>2014-01-12T09:57:35Z</time>
      </trkpt>
      <trkpt lat="45.59714" lon="4.57483">
        <ele>638</ele>
        <time>2014-01-12T09:57:38Z</time>
      </trkpt>
      <trkpt lat="45.59715" lon="4.57479">
        <ele>639</ele>
        <time>2014-01-12T09:57:41Z</time>
      </trkpt>
      <trkpt lat="45.59715" lon="4.57474">
        <ele>640</ele>
        <time>2014-01-12T09:57:45Z</time>
      </trkpt>
      <trkpt lat="45.59717" lon="4.57469">
        <ele>640</ele>
        <time>2014-01-12T09:57:48Z</time>
      </trkpt>
      <trkpt lat="45.59717" lon="4.57462">
        <ele>642</ele>
        <time>2014-01-12T09:57:51Z</time>
      </trkpt>
      <trkpt lat="45.59719" lon="4.57457">
        <ele>644</ele>
        <time>2014-01-12T09:57:56Z</time>
      </trkpt>
      <trkpt lat="45.59722" lon="4.57456">
        <ele>645</ele>
        <time>2014-01-12T09:57:59Z</time>
      </trkpt>
      <trkpt lat="45.59726" lon="4.57453">
        <ele>645</ele>
        <time>2014-01-12T09:58:02Z</time>
      </trkpt>
      <trkpt lat="45.59729" lon="4.5745">
        <ele>645</ele>
        <time>2014-01-12T09:58:06Z</time>
      </trkpt>
      <trkpt lat="45.59732" lon="4.57446">
        <ele>645</ele>
        <time>2014-01-12T09:58:10Z</time>
      </trkpt>
      <trkpt lat="45.59735" lon="4.57442">
        <ele>645</ele>
        <time>2014-01-12T09:58:14Z</time>
      </trkpt>
      <trkpt lat="45.59737" lon="4.5744">
        <ele>645</ele>
        <time>2014-01-12T09:58:17Z</time>
      </trkpt>
      <trkpt lat="45.5974" lon="4.57436">
        <ele>645</ele>
        <time>2014-01-12T09:58:22Z</time>
      </trkpt>
      <trkpt lat="45.59742" lon="4.57433">
        <ele>645</ele>
        <time>2014-01-12T09:58:26Z</time>
      </trkpt>
      <trkpt lat="45.59745" lon="4.5743">
        <ele>646</ele>
        <time>2014-01-12T09:58:31Z</time>
      </trkpt>
      <trkpt lat="45.59747" lon="4.57426">
        <ele>648</ele>
        <time>2014-01-12T09:58:36Z</time>
      </trkpt>
      <trkpt lat="45.5975" lon="4.57423">
        <ele>648</ele>
        <time>2014-01-12T09:58:39Z</time>
      </trkpt>
      <trkpt lat="45.59754" lon="4.57418">
        <ele>648</ele>
        <time>2014-01-12T09:58:43Z</time>
      </trkpt>
      <trkpt lat="45.59758" lon="4.57409">
        <ele>648</ele>
        <time>2014-01-12T09:58:46Z</time>
      </trkpt>
      <trkpt lat="45.59762" lon="4.57402">
        <ele>648</ele>
        <time>2014-01-12T09:58:49Z</time>
      </trkpt>
      <trkpt lat="45.5977" lon="4.57395">
        <ele>648</ele>
        <time>2014-01-12T09:58:53Z</time>
      </trkpt>
      <trkpt lat="45.59775" lon="4.57388">
        <ele>648</ele>
        <time>2014-01-12T09:58:56Z</time>
      </trkpt>
      <trkpt lat="45.59782" lon="4.57377">
        <ele>648</ele>
        <time>2014-01-12T09:59:00Z</time>
      </trkpt>
      <trkpt lat="45.59788" lon="4.57365">
        <ele>648</ele>
        <time>2014-01-12T09:59:04Z</time>
      </trkpt>
      <trkpt lat="45.59791" lon="4.57359">
        <ele>648</ele>
        <time>2014-01-12T09:59:07Z</time>
      </trkpt>
      <trkpt lat="45.59795" lon="4.57352">
        <ele>648</ele>
        <time>2014-01-12T09:59:11Z</time>
      </trkpt>
      <trkpt lat="45.59798" lon="4.57343">
        <ele>648</ele>
        <time>2014-01-12T09:59:14Z</time>
      </trkpt>
      <trkpt lat="45.59801" lon="4.57336">
        <ele>648</ele>
        <time>2014-01-12T09:59:18Z</time>
      </trkpt>
      <trkpt lat="45.59803" lon="4.5733">
        <ele>648</ele>
        <time>2014-01-12T09:59:21Z</time>
      </trkpt>
      <trkpt lat="45.59806" lon="4.57324">
        <ele>648</ele>
        <time>2014-01-12T09:59:24Z</time>
      </trkpt>
      <trkpt lat="45.59808" lon="4.57315">
        <ele>648</ele>
        <time>2014-01-12T09:59:27Z</time>
      </trkpt>
      <trkpt lat="45.59812" lon="4.57306">
        <ele>649</ele>
        <time>2014-01-12T09:59:30Z</time>
      </trkpt>
      <trkpt lat="45.59814" lon="4.57297">
        <ele>650</ele>
        <time>2014-01-12T09:59:34Z</time>
      </trkpt>
      <trkpt lat="45.59818" lon="4.5729">
        <ele>651</ele>
        <time>2014-01-12T09:59:37Z</time>
      </trkpt>
      <trkpt lat="45.59822" lon="4.57282">
        <ele>651</ele>
        <time>2014-01-12T09:59:41Z</time>
      </trkpt>
      <trkpt lat="45.59825" lon="4.57278">
        <ele>651</ele>
        <time>2014-01-12T09:59:45Z</time>
      </trkpt>
      <trkpt lat="45.59828" lon="4.57277">
        <ele>651</ele>
        <time>2014-01-12T09:59:48Z</time>
      </trkpt>
      <trkpt lat="45.5983" lon="4.57273">
        <ele>651</ele>
        <time>2014-01-12T09:59:51Z</time>
      </trkpt>
      <trkpt lat="45.59831" lon="4.57267">
        <ele>652</ele>
        <time>2014-01-12T09:59:54Z</time>
      </trkpt>
      <trkpt lat="45.59832" lon="4.57264">
        <ele>652</ele>
        <time>2014-01-12T09:59:57Z</time>
      </trkpt>
      <trkpt lat="45.59834" lon="4.57259">
        <ele>652</ele>
        <time>2014-01-12T10:00:01Z</time>
      </trkpt>
      <trkpt lat="45.59838" lon="4.57256">
        <ele>652</ele>
        <time>2014-01-12T10:00:05Z</time>
      </trkpt>
      <trkpt lat="45.59842" lon="4.57252">
        <ele>653</ele>
        <time>2014-01-12T10:00:08Z</time>
      </trkpt>
      <trkpt lat="45.59846" lon="4.57247">
        <ele>654</ele>
        <time>2014-01-12T10:00:12Z</time>
      </trkpt>
      <trkpt lat="45.59848" lon="4.57244">
        <ele>656</ele>
        <time>2014-01-12T10:00:16Z</time>
      </trkpt>
      <trkpt lat="45.5985" lon="4.57242">
        <ele>657</ele>
        <time>2014-01-12T10:00:19Z</time>
      </trkpt>
      <trkpt lat="45.59851" lon="4.57239">
        <ele>657</ele>
        <time>2014-01-12T10:00:22Z</time>
      </trkpt>
      <trkpt lat="45.59853" lon="4.57234">
        <ele>658</ele>
        <time>2014-01-12T10:00:26Z</time>
      </trkpt>
      <trkpt lat="45.59853" lon="4.5723">
        <ele>659</ele>
        <time>2014-01-12T10:00:30Z</time>
      </trkpt>
      <trkpt lat="45.59854" lon="4.57226">
        <ele>659</ele>
        <time>2014-01-12T10:00:35Z</time>
      </trkpt>
      <trkpt lat="45.59854" lon="4.57222">
        <ele>659</ele>
        <time>2014-01-12T10:00:39Z</time>
      </trkpt>
      <trkpt lat="45.59855" lon="4.57218">
        <ele>660</ele>
        <time>2014-01-12T10:00:44Z</time>
      </trkpt>
      <trkpt lat="45.59856" lon="4.57214">
        <ele>660</ele>
        <time>2014-01-12T10:00:48Z</time>
      </trkpt>
      <trkpt lat="45.59859" lon="4.57209">
        <ele>662</ele>
        <time>2014-01-12T10:00:53Z</time>
      </trkpt>
      <trkpt lat="45.59861" lon="4.57206">
        <ele>665</ele>
        <time>2014-01-12T10:00:56Z</time>
      </trkpt>
      <trkpt lat="45.59864" lon="4.57201">
        <ele>666</ele>
        <time>2014-01-12T10:01:00Z</time>
      </trkpt>
      <trkpt lat="45.59866" lon="4.57197">
        <ele>667</ele>
        <time>2014-01-12T10:01:04Z</time>
      </trkpt>
      <trkpt lat="45.59868" lon="4.57191">
        <ele>668</ele>
        <time>2014-01-12T10:01:08Z</time>
      </trkpt>
      <trkpt lat="45.59869" lon="4.57186">
        <ele>669</ele>
        <time>2014-01-12T10:01:11Z</time>
      </trkpt>
      <trkpt lat="45.59871" lon="4.5718">
        <ele>672</ele>
        <time>2014-01-12T10:01:16Z</time>
      </trkpt>
      <trkpt lat="45.59872" lon="4.57175">
        <ele>672</ele>
        <time>2014-01-12T10:01:19Z</time>
      </trkpt>
      <trkpt lat="45.59873" lon="4.57168">
        <ele>673</ele>
        <time>2014-01-12T10:01:24Z</time>
      </trkpt>
      <trkpt lat="45.59874" lon="4.57162">
        <ele>673</ele>
        <time>2014-01-12T10:01:29Z</time>
      </trkpt>
      <trkpt lat="45.59874" lon="4.57157">
        <ele>673</ele>
        <time>2014-01-12T10:01:32Z</time>
      </trkpt>
      <trkpt lat="45.59876" lon="4.57152">
        <ele>674</ele>
        <time>2014-01-12T10:01:36Z</time>
      </trkpt>
      <trkpt lat="45.59877" lon="4.57147">
        <ele>675</ele>
        <time>2014-01-12T10:01:40Z</time>
      </trkpt>
      <trkpt lat="45.59879" lon="4.57142">
        <ele>675</ele>
        <time>2014-01-12T10:01:43Z</time>
      </trkpt>
      <trkpt lat="45.5988" lon="4.57138">
        <ele>676</ele>
        <time>2014-01-12T10:01:46Z</time>
      </trkpt>
      <trkpt lat="45.59882" lon="4.57133">
        <ele>677</ele>
        <time>2014-01-12T10:01:50Z</time>
      </trkpt>
      <trkpt lat="45.59883" lon="4.57128">
        <ele>678</ele>
        <time>2014-01-12T10:01:53Z</time>
      </trkpt>
      <trkpt lat="45.59885" lon="4.57125">
        <ele>679</ele>
        <time>2014-01-12T10:01:56Z</time>
      </trkpt>
      <trkpt lat="45.59886" lon="4.57118">
        <ele>679</ele>
        <time>2014-01-12T10:02:00Z</time>
      </trkpt>
      <trkpt lat="45.59887" lon="4.57113">
        <ele>680</ele>
        <time>2014-01-12T10:02:03Z</time>
      </trkpt>
      <trkpt lat="45.59888" lon="4.57108">
        <ele>681</ele>
        <time>2014-01-12T10:02:06Z</time>
      </trkpt>
      <trkpt lat="45.59888" lon="4.57104">
        <ele>681</ele>
        <time>2014-01-12T10:02:09Z</time>
      </trkpt>
      <trkpt lat="45.59888" lon="4.57098">
        <ele>681</ele>
        <time>2014-01-12T10:02:12Z</time>
      </trkpt>
      <trkpt lat="45.59891" lon="4.57094">
        <ele>682</ele>
        <time>2014-01-12T10:02:16Z</time>
      </trkpt>
      <trkpt lat="45.59898" lon="4.57094">
        <ele>683</ele>
        <time>2014-01-12T10:02:19Z</time>
      </trkpt>
      <trkpt lat="45.59906" lon="4.57096">
        <ele>684</ele>
        <time>2014-01-12T10:02:22Z</time>
      </trkpt>
      <trkpt lat="45.59914" lon="4.57097">
        <ele>685</ele>
        <time>2014-01-12T10:02:25Z</time>
      </trkpt>
      <trkpt lat="45.59924" lon="4.57098">
        <ele>685</ele>
        <time>2014-01-12T10:02:29Z</time>
      </trkpt>
      <trkpt lat="45.5993" lon="4.57097">
        <ele>685</ele>
        <time>2014-01-12T10:02:32Z</time>
      </trkpt>
      <trkpt lat="45.59934" lon="4.57088">
        <ele>685</ele>
        <time>2014-01-12T10:02:35Z</time>
      </trkpt>
      <trkpt lat="45.59934" lon="4.5708">
        <ele>685</ele>
        <time>2014-01-12T10:02:38Z</time>
      </trkpt>
      <trkpt lat="45.59935" lon="4.57072">
        <ele>685</ele>
        <time>2014-01-12T10:02:41Z</time>
      </trkpt>
      <trkpt lat="45.59935" lon="4.57064">
        <ele>685</ele>
        <time>2014-01-12T10:02:44Z</time>
      </trkpt>
      <trkpt lat="45.59938" lon="4.57056">
        <ele>685</ele>
        <time>2014-01-12T10:02:47Z</time>
      </trkpt>
      <trkpt lat="45.59943" lon="4.57052">
        <ele>689</ele>
        <time>2014-01-12T10:02:51Z</time>
      </trkpt>
      <trkpt lat="45.59944" lon="4.57054">
        <ele>690</ele>
        <time>2014-01-12T10:02:56Z</time>
      </trkpt>
      <trkpt lat="45.59946" lon="4.5705">
        <ele>690</ele>
        <time>2014-01-12T10:03:01Z</time>
      </trkpt>
      <trkpt lat="45.59949" lon="4.57046">
        <ele>690</ele>
        <time>2014-01-12T10:03:05Z</time>
      </trkpt>
      <trkpt lat="45.59953" lon="4.57043">
        <ele>690</ele>
        <time>2014-01-12T10:03:09Z</time>
      </trkpt>
      <trkpt lat="45.59958" lon="4.57042">
        <ele>690</ele>
        <time>2014-01-12T10:03:12Z</time>
      </trkpt>
      <trkpt lat="45.59964" lon="4.57043">
        <ele>690</ele>
        <time>2014-01-12T10:03:15Z</time>
      </trkpt>
      <trkpt lat="45.59967" lon="4.57044">
        <ele>690</ele>
        <time>2014-01-12T10:03:18Z</time>
      </trkpt>
      <trkpt lat="45.59971" lon="4.57045">
        <ele>690</ele>
        <time>2014-01-12T10:03:21Z</time>
      </trkpt>
      <trkpt lat="45.59974" lon="4.57046">
        <ele>690</ele>
        <time>2014-01-12T10:03:24Z</time>
      </trkpt>
      <trkpt lat="45.59979" lon="4.5705">
        <ele>690</ele>
        <time>2014-01-12T10:03:28Z</time>
      </trkpt>
      <trkpt lat="45.59982" lon="4.57052">
        <ele>690</ele>
        <time>2014-01-12T10:03:31Z</time>
      </trkpt>
      <trkpt lat="45.59985" lon="4.57056">
        <ele>690</ele>
        <time>2014-01-12T10:03:35Z</time>
      </trkpt>
      <trkpt lat="45.59988" lon="4.5706">
        <ele>690</ele>
        <time>2014-01-12T10:03:39Z</time>
      </trkpt>
      <trkpt lat="45.59992" lon="4.57069">
        <ele>691</ele>
        <time>2014-01-12T10:03:43Z</time>
      </trkpt>
      <trkpt lat="45.59996" lon="4.57077">
        <ele>691</ele>
        <time>2014-01-12T10:03:46Z</time>
      </trkpt>
      <trkpt lat="45.59999" lon="4.57085">
        <ele>691</ele>
        <time>2014-01-12T10:03:49Z</time>
      </trkpt>
      <trkpt lat="45.60002" lon="4.57093">
        <ele>692</ele>
        <time>2014-01-12T10:03:52Z</time>
      </trkpt>
      <trkpt lat="45.60005" lon="4.57101">
        <ele>692</ele>
        <time>2014-01-12T10:03:55Z</time>
      </trkpt>
      <trkpt lat="45.60009" lon="4.57108">
        <ele>694</ele>
        <time>2014-01-12T10:03:58Z</time>
      </trkpt>
      <trkpt lat="45.60012" lon="4.57117">
        <ele>695</ele>
        <time>2014-01-12T10:04:01Z</time>
      </trkpt>
      <trkpt lat="45.60016" lon="4.57125">
        <ele>696</ele>
        <time>2014-01-12T10:04:04Z</time>
      </trkpt>
      <trkpt lat="45.60019" lon="4.57133">
        <ele>696</ele>
        <time>2014-01-12T10:04:07Z</time>
      </trkpt>
      <trkpt lat="45.60023" lon="4.57141">
        <ele>697</ele>
        <time>2014-01-12T10:04:10Z</time>
      </trkpt>
      <trkpt lat="45.60026" lon="4.57148">
        <ele>698</ele>
        <time>2014-01-12T10:04:14Z</time>
      </trkpt>
      <trkpt lat="45.60028" lon="4.57153">
        <ele>698</ele>
        <time>2014-01-12T10:04:17Z</time>
      </trkpt>
      <trkpt lat="45.6003" lon="4.57159">
        <ele>698</ele>
        <time>2014-01-12T10:04:21Z</time>
      </trkpt>
      <trkpt lat="45.60032" lon="4.57165">
        <ele>698</ele>
        <time>2014-01-12T10:04:25Z</time>
      </trkpt>
      <trkpt lat="45.60034" lon="4.57171">
        <ele>698</ele>
        <time>2014-01-12T10:04:29Z</time>
      </trkpt>
      <trkpt lat="45.60038" lon="4.57178">
        <ele>698</ele>
        <time>2014-01-12T10:04:34Z</time>
      </trkpt>
      <trkpt lat="45.60041" lon="4.57185">
        <ele>699</ele>
        <time>2014-01-12T10:04:39Z</time>
      </trkpt>
      <trkpt lat="45.60043" lon="4.57189">
        <ele>699</ele>
        <time>2014-01-12T10:04:42Z</time>
      </trkpt>
      <trkpt lat="45.60045" lon="4.57194">
        <ele>700</ele>
        <time>2014-01-12T10:04:45Z</time>
      </trkpt>
      <trkpt lat="45.60048" lon="4.57202">
        <ele>701</ele>
        <time>2014-01-12T10:04:48Z</time>
      </trkpt>
      <trkpt lat="45.60052" lon="4.57213">
        <ele>703</ele>
        <time>2014-01-12T10:04:52Z</time>
      </trkpt>
      <trkpt lat="45.60054" lon="4.57222">
        <ele>704</ele>
        <time>2014-01-12T10:04:55Z</time>
      </trkpt>
      <trkpt lat="45.60057" lon="4.57231">
        <ele>704</ele>
        <time>2014-01-12T10:04:58Z</time>
      </trkpt>
      <trkpt lat="45.60059" lon="4.5724">
        <ele>704</ele>
        <time>2014-01-12T10:05:01Z</time>
      </trkpt>
      <trkpt lat="45.60061" lon="4.57253">
        <ele>705</ele>
        <time>2014-01-12T10:05:05Z</time>
      </trkpt>
      <trkpt lat="45.60062" lon="4.57265">
        <ele>706</ele>
        <time>2014-01-12T10:05:09Z</time>
      </trkpt>
      <trkpt lat="45.60062" lon="4.57274">
        <ele>707</ele>
        <time>2014-01-12T10:05:12Z</time>
      </trkpt>
      <trkpt lat="45.60063" lon="4.57283">
        <ele>708</ele>
        <time>2014-01-12T10:05:15Z</time>
      </trkpt>
      <trkpt lat="45.60064" lon="4.57288">
        <ele>708</ele>
        <time>2014-01-12T10:05:18Z</time>
      </trkpt>
      <trkpt lat="45.60065" lon="4.57294">
        <ele>708</ele>
        <time>2014-01-12T10:05:21Z</time>
      </trkpt>
      <trkpt lat="45.60066" lon="4.573">
        <ele>708</ele>
        <time>2014-01-12T10:05:25Z</time>
      </trkpt>
      <trkpt lat="45.60068" lon="4.57306">
        <ele>709</ele>
        <time>2014-01-12T10:05:29Z</time>
      </trkpt>
      <trkpt lat="45.6007" lon="4.5731">
        <ele>709</ele>
        <time>2014-01-12T10:05:32Z</time>
      </trkpt>
      <trkpt lat="45.60073" lon="4.57314">
        <ele>709</ele>
        <time>2014-01-12T10:05:35Z</time>
      </trkpt>
      <trkpt lat="45.60075" lon="4.57319">
        <ele>710</ele>
        <time>2014-01-12T10:05:38Z</time>
      </trkpt>
      <trkpt lat="45.60077" lon="4.57324">
        <ele>710</ele>
        <time>2014-01-12T10:05:41Z</time>
      </trkpt>
      <trkpt lat="45.60078" lon="4.57329">
        <ele>711</ele>
        <time>2014-01-12T10:05:44Z</time>
      </trkpt>
      <trkpt lat="45.60079" lon="4.57336">
        <ele>711</ele>
        <time>2014-01-12T10:05:48Z</time>
      </trkpt>
      <trkpt lat="45.6008" lon="4.57341">
        <ele>711</ele>
        <time>2014-01-12T10:05:51Z</time>
      </trkpt>
      <trkpt lat="45.60082" lon="4.57345">
        <ele>711</ele>
        <time>2014-01-12T10:05:54Z</time>
      </trkpt>
      <trkpt lat="45.60084" lon="4.57349">
        <ele>711</ele>
        <time>2014-01-12T10:05:57Z</time>
      </trkpt>
      <trkpt lat="45.60086" lon="4.57353">
        <ele>712</ele>
        <time>2014-01-12T10:06:00Z</time>
      </trkpt>
      <trkpt lat="45.60087" lon="4.57359">
        <ele>713</ele>
        <time>2014-01-12T10:06:04Z</time>
      </trkpt>
      <trkpt lat="45.6009" lon="4.57365">
        <ele>714</ele>
        <time>2014-01-12T10:06:08Z</time>
      </trkpt>
      <trkpt lat="45.60092" lon="4.5737">
        <ele>715</ele>
        <time>2014-01-12T10:06:12Z</time>
      </trkpt>
      <trkpt lat="45.60094" lon="4.57375">
        <ele>716</ele>
        <time>2014-01-12T10:06:16Z</time>
      </trkpt>
      <trkpt lat="45.60097" lon="4.57381">
        <ele>716</ele>
        <time>2014-01-12T10:06:20Z</time>
      </trkpt>
      <trkpt lat="45.60099" lon="4.57384">
        <ele>717</ele>
        <time>2014-01-12T10:06:23Z</time>
      </trkpt>
      <trkpt lat="45.60101" lon="4.57388">
        <ele>717</ele>
        <time>2014-01-12T10:06:26Z</time>
      </trkpt>
      <trkpt lat="45.60103" lon="4.57394">
        <ele>718</ele>
        <time>2014-01-12T10:06:30Z</time>
      </trkpt>
      <trkpt lat="45.60106" lon="4.57399">
        <ele>719</ele>
        <time>2014-01-12T10:06:34Z</time>
      </trkpt>
      <trkpt lat="45.60107" lon="4.57403">
        <ele>719</ele>
        <time>2014-01-12T10:06:37Z</time>
      </trkpt>
      <trkpt lat="45.60108" lon="4.5741">
        <ele>720</ele>
        <time>2014-01-12T10:06:41Z</time>
      </trkpt>
      <trkpt lat="45.60109" lon="4.57415">
        <ele>720</ele>
        <time>2014-01-12T10:06:45Z</time>
      </trkpt>
      <trkpt lat="45.6011" lon="4.57419">
        <ele>720</ele>
        <time>2014-01-12T10:06:48Z</time>
      </trkpt>
      <trkpt lat="45.60111" lon="4.57425">
        <ele>720</ele>
        <time>2014-01-12T10:06:52Z</time>
      </trkpt>
      <trkpt lat="45.60113" lon="4.5743">
        <ele>720</ele>
        <time>2014-01-12T10:06:55Z</time>
      </trkpt>
      <trkpt lat="45.60114" lon="4.57436">
        <ele>720</ele>
        <time>2014-01-12T10:06:58Z</time>
      </trkpt>
      <trkpt lat="45.60118" lon="4.57444">
        <ele>721</ele>
        <time>2014-01-12T10:07:01Z</time>
      </trkpt>
      <trkpt lat="45.60122" lon="4.57455">
        <ele>723</ele>
        <time>2014-01-12T10:07:05Z</time>
      </trkpt>
      <trkpt lat="45.60125" lon="4.57464">
        <ele>724</ele>
        <time>2014-01-12T10:07:08Z</time>
      </trkpt>
      <trkpt lat="45.60128" lon="4.57474">
        <ele>724</ele>
        <time>2014-01-12T10:07:11Z</time>
      </trkpt>
      <trkpt lat="45.60133" lon="4.57482">
        <ele>724</ele>
        <time>2014-01-12T10:07:14Z</time>
      </trkpt>
      <trkpt lat="45.60137" lon="4.5749">
        <ele>724</ele>
        <time>2014-01-12T10:07:17Z</time>
      </trkpt>
      <trkpt lat="45.60141" lon="4.57503">
        <ele>726</ele>
        <time>2014-01-12T10:07:21Z</time>
      </trkpt>
      <trkpt lat="45.60146" lon="4.57514">
        <ele>727</ele>
        <time>2014-01-12T10:07:25Z</time>
      </trkpt>
      <trkpt lat="45.60151" lon="4.57521">
        <ele>728</ele>
        <time>2014-01-12T10:07:28Z</time>
      </trkpt>
      <trkpt lat="45.60155" lon="4.57528">
        <ele>728</ele>
        <time>2014-01-12T10:07:31Z</time>
      </trkpt>
      <trkpt lat="45.60161" lon="4.57539">
        <ele>729</ele>
        <time>2014-01-12T10:07:35Z</time>
      </trkpt>
      <trkpt lat="45.60165" lon="4.57546">
        <ele>730</ele>
        <time>2014-01-12T10:07:38Z</time>
      </trkpt>
      <trkpt lat="45.60168" lon="4.57552">
        <ele>731</ele>
        <time>2014-01-12T10:07:42Z</time>
      </trkpt>
      <trkpt lat="45.60172" lon="4.57557">
        <ele>732</ele>
        <time>2014-01-12T10:07:46Z</time>
      </trkpt>
      <trkpt lat="45.60173" lon="4.57561">
        <ele>732</ele>
        <time>2014-01-12T10:07:49Z</time>
      </trkpt>
      <trkpt lat="45.60176" lon="4.57566">
        <ele>732</ele>
        <time>2014-01-12T10:07:52Z</time>
      </trkpt>
      <trkpt lat="45.60179" lon="4.57571">
        <ele>732</ele>
        <time>2014-01-12T10:07:56Z</time>
      </trkpt>
      <trkpt lat="45.60182" lon="4.57575">
        <ele>733</ele>
        <time>2014-01-12T10:07:59Z</time>
      </trkpt>
      <trkpt lat="45.60186" lon="4.57582">
        <ele>733</ele>
        <time>2014-01-12T10:08:02Z</time>
      </trkpt>
      <trkpt lat="45.60192" lon="4.57589">
        <ele>733</ele>
        <time>2014-01-12T10:08:05Z</time>
      </trkpt>
      <trkpt lat="45.60199" lon="4.57597">
        <ele>733</ele>
        <time>2014-01-12T10:08:09Z</time>
      </trkpt>
      <trkpt lat="45.60203" lon="4.57604">
        <ele>733</ele>
        <time>2014-01-12T10:08:12Z</time>
      </trkpt>
      <trkpt lat="45.60208" lon="4.57611">
        <ele>733</ele>
        <time>2014-01-12T10:08:15Z</time>
      </trkpt>
      <trkpt lat="45.60212" lon="4.57616">
        <ele>734</ele>
        <time>2014-01-12T10:08:18Z</time>
      </trkpt>
      <trkpt lat="45.60216" lon="4.57617">
        <ele>734</ele>
        <time>2014-01-12T10:08:21Z</time>
      </trkpt>
      <trkpt lat="45.6022" lon="4.57619">
        <ele>735</ele>
        <time>2014-01-12T10:08:24Z</time>
      </trkpt>
      <trkpt lat="45.60225" lon="4.57622">
        <ele>736</ele>
        <time>2014-01-12T10:08:28Z</time>
      </trkpt>
      <trkpt lat="45.60228" lon="4.57625">
        <ele>737</ele>
        <time>2014-01-12T10:08:32Z</time>
      </trkpt>
      <trkpt lat="45.60231" lon="4.57629">
        <ele>737</ele>
        <time>2014-01-12T10:08:36Z</time>
      </trkpt>
      <trkpt lat="45.60234" lon="4.57632">
        <ele>737</ele>
        <time>2014-01-12T10:08:40Z</time>
      </trkpt>
      <trkpt lat="45.60238" lon="4.57633">
        <ele>737</ele>
        <time>2014-01-12T10:08:43Z</time>
      </trkpt>
      <trkpt lat="45.60242" lon="4.57632">
        <ele>739</ele>
        <time>2014-01-12T10:08:47Z</time>
      </trkpt>
      <trkpt lat="45.60243" lon="4.57628">
        <ele>740</ele>
        <time>2014-01-12T10:08:50Z</time>
      </trkpt>
      <trkpt lat="45.60243" lon="4.57623">
        <ele>742</ele>
        <time>2014-01-12T10:08:53Z</time>
      </trkpt>
      <trkpt lat="45.60242" lon="4.57616">
        <ele>743</ele>
        <time>2014-01-12T10:08:57Z</time>
      </trkpt>
      <trkpt lat="45.60241" lon="4.57611">
        <ele>744</ele>
        <time>2014-01-12T10:09:00Z</time>
      </trkpt>
      <trkpt lat="45.6024" lon="4.57604">
        <ele>745</ele>
        <time>2014-01-12T10:09:03Z</time>
      </trkpt>
      <trkpt lat="45.60238" lon="4.57595">
        <ele>745</ele>
        <time>2014-01-12T10:09:06Z</time>
      </trkpt>
      <trkpt lat="45.60236" lon="4.57587">
        <ele>746</ele>
        <time>2014-01-12T10:09:09Z</time>
      </trkpt>
      <trkpt lat="45.60234" lon="4.57578">
        <ele>746</ele>
        <time>2014-01-12T10:09:12Z</time>
      </trkpt>
      <trkpt lat="45.60233" lon="4.5757">
        <ele>746</ele>
        <time>2014-01-12T10:09:15Z</time>
      </trkpt>
      <trkpt lat="45.60231" lon="4.57561">
        <ele>746</ele>
        <time>2014-01-12T10:09:18Z</time>
      </trkpt>
      <trkpt lat="45.60229" lon="4.57552">
        <ele>746</ele>
        <time>2014-01-12T10:09:21Z</time>
      </trkpt>
      <trkpt lat="45.60227" lon="4.57543">
        <ele>746</ele>
        <time>2014-01-12T10:09:24Z</time>
      </trkpt>
      <trkpt lat="45.60225" lon="4.57534">
        <ele>746</ele>
        <time>2014-01-12T10:09:27Z</time>
      </trkpt>
      <trkpt lat="45.60222" lon="4.57525">
        <ele>746</ele>
        <time>2014-01-12T10:09:30Z</time>
      </trkpt>
      <trkpt lat="45.60218" lon="4.57515">
        <ele>746</ele>
        <time>2014-01-12T10:09:33Z</time>
      </trkpt>
      <trkpt lat="45.60215" lon="4.57506">
        <ele>746</ele>
        <time>2014-01-12T10:09:36Z</time>
      </trkpt>
      <trkpt lat="45.60213" lon="4.57497">
        <ele>746</ele>
        <time>2014-01-12T10:09:39Z</time>
      </trkpt>
      <trkpt lat="45.60211" lon="4.57487">
        <ele>746</ele>
        <time>2014-01-12T10:09:42Z</time>
      </trkpt>
      <trkpt lat="45.60208" lon="4.57477">
        <ele>746</ele>
        <time>2014-01-12T10:09:45Z</time>
      </trkpt>
      <trkpt lat="45.60206" lon="4.57467">
        <ele>746</ele>
        <time>2014-01-12T10:09:48Z</time>
      </trkpt>
      <trkpt lat="45.60204" lon="4.57456">
        <ele>746</ele>
        <time>2014-01-12T10:09:51Z</time>
      </trkpt>
      <trkpt lat="45.60204" lon="4.57445">
        <ele>747</ele>
        <time>2014-01-12T10:09:54Z</time>
      </trkpt>
      <trkpt lat="45.60202" lon="4.57435">
        <ele>748</ele>
        <time>2014-01-12T10:09:57Z</time>
      </trkpt>
      <trkpt lat="45.60201" lon="4.57424">
        <ele>749</ele>
        <time>2014-01-12T10:10:00Z</time>
      </trkpt>
      <trkpt lat="45.602" lon="4.57411">
        <ele>751</ele>
        <time>2014-01-12T10:10:04Z</time>
      </trkpt>
      <trkpt lat="45.602" lon="4.574">
        <ele>752</ele>
        <time>2014-01-12T10:10:07Z</time>
      </trkpt>
      <trkpt lat="45.602" lon="4.57389">
        <ele>753</ele>
        <time>2014-01-12T10:10:10Z</time>
      </trkpt>
      <trkpt lat="45.602" lon="4.5738">
        <ele>753</ele>
        <time>2014-01-12T10:10:13Z</time>
      </trkpt>
      <trkpt lat="45.602" lon="4.57369">
        <ele>754</ele>
        <time>2014-01-12T10:10:16Z</time>
      </trkpt>
      <trkpt lat="45.602" lon="4.57355">
        <ele>754</ele>
        <time>2014-01-12T10:10:20Z</time>
      </trkpt>
      <trkpt lat="45.60201" lon="4.57342">
        <ele>755</ele>
        <time>2014-01-12T10:10:24Z</time>
      </trkpt>
      <trkpt lat="45.60201" lon="4.57329">
        <ele>756</ele>
        <time>2014-01-12T10:10:28Z</time>
      </trkpt>
      <trkpt lat="45.60202" lon="4.57319">
        <ele>757</ele>
        <time>2014-01-12T10:10:31Z</time>
      </trkpt>
      <trkpt lat="45.60202" lon="4.5731">
        <ele>758</ele>
        <time>2014-01-12T10:10:34Z</time>
      </trkpt>
      <trkpt lat="45.60203" lon="4.573">
        <ele>758</ele>
        <time>2014-01-12T10:10:37Z</time>
      </trkpt>
      <trkpt lat="45.60204" lon="4.57287">
        <ele>759</ele>
        <time>2014-01-12T10:10:41Z</time>
      </trkpt>
      <trkpt lat="45.60204" lon="4.57277">
        <ele>759</ele>
        <time>2014-01-12T10:10:44Z</time>
      </trkpt>
      <trkpt lat="45.60206" lon="4.57264">
        <ele>760</ele>
        <time>2014-01-12T10:10:48Z</time>
      </trkpt>
      <trkpt lat="45.60208" lon="4.57254">
        <ele>761</ele>
        <time>2014-01-12T10:10:51Z</time>
      </trkpt>
      <trkpt lat="45.60212" lon="4.57244">
        <ele>761</ele>
        <time>2014-01-12T10:10:54Z</time>
      </trkpt>
      <trkpt lat="45.60215" lon="4.57234">
        <ele>761</ele>
        <time>2014-01-12T10:10:57Z</time>
      </trkpt>
      <trkpt lat="45.60218" lon="4.57225">
        <ele>761</ele>
        <time>2014-01-12T10:11:00Z</time>
      </trkpt>
      <trkpt lat="45.60223" lon="4.57212">
        <ele>762</ele>
        <time>2014-01-12T10:11:04Z</time>
      </trkpt>
      <trkpt lat="45.60227" lon="4.57203">
        <ele>762</ele>
        <time>2014-01-12T10:11:07Z</time>
      </trkpt>
      <trkpt lat="45.60232" lon="4.5719">
        <ele>763</ele>
        <time>2014-01-12T10:11:11Z</time>
      </trkpt>
      <trkpt lat="45.60236" lon="4.57182">
        <ele>763</ele>
        <time>2014-01-12T10:11:14Z</time>
      </trkpt>
      <trkpt lat="45.6024" lon="4.57173">
        <ele>763</ele>
        <time>2014-01-12T10:11:17Z</time>
      </trkpt>
      <trkpt lat="45.60246" lon="4.57162">
        <ele>763</ele>
        <time>2014-01-12T10:11:21Z</time>
      </trkpt>
      <trkpt lat="45.6025" lon="4.57153">
        <ele>763</ele>
        <time>2014-01-12T10:11:24Z</time>
      </trkpt>
      <trkpt lat="45.60255" lon="4.57144">
        <ele>763</ele>
        <time>2014-01-12T10:11:27Z</time>
      </trkpt>
      <trkpt lat="45.6026" lon="4.57136">
        <ele>763</ele>
        <time>2014-01-12T10:11:30Z</time>
      </trkpt>
      <trkpt lat="45.60265" lon="4.57128">
        <ele>763</ele>
        <time>2014-01-12T10:11:33Z</time>
      </trkpt>
      <trkpt lat="45.6027" lon="4.5712">
        <ele>763</ele>
        <time>2014-01-12T10:11:36Z</time>
      </trkpt>
      <trkpt lat="45.60278" lon="4.57109">
        <ele>763</ele>
        <time>2014-01-12T10:11:40Z</time>
      </trkpt>
      <trkpt lat="45.60285" lon="4.57099">
        <ele>763</ele>
        <time>2014-01-12T10:11:44Z</time>
      </trkpt>
      <trkpt lat="45.6029" lon="4.57092">
        <ele>763</ele>
        <time>2014-01-12T10:11:47Z</time>
      </trkpt>
      <trkpt lat="45.60295" lon="4.57085">
        <ele>763</ele>
        <time>2014-01-12T10:11:50Z</time>
      </trkpt>
      <trkpt lat="45.60299" lon="4.57078">
        <ele>763</ele>
        <time>2014-01-12T10:11:53Z</time>
      </trkpt>
      <trkpt lat="45.60304" lon="4.57068">
        <ele>763</ele>
        <time>2014-01-12T10:11:57Z</time>
      </trkpt>
      <trkpt lat="45.60306" lon="4.57062">
        <ele>763</ele>
        <time>2014-01-12T10:12:01Z</time>
      </trkpt>
      <trkpt lat="45.60308" lon="4.57057">
        <ele>763</ele>
        <time>2014-01-12T10:12:04Z</time>
      </trkpt>
      <trkpt lat="45.60309" lon="4.57052">
        <ele>763</ele>
        <time>2014-01-12T10:12:07Z</time>
      </trkpt>
      <trkpt lat="45.60311" lon="4.57045">
        <ele>763</ele>
        <time>2014-01-12T10:12:11Z</time>
      </trkpt>
      <trkpt lat="45.60312" lon="4.5704">
        <ele>763</ele>
        <time>2014-01-12T10:12:14Z</time>
      </trkpt>
      <trkpt lat="45.60313" lon="4.57035">
        <ele>763</ele>
        <time>2014-01-12T10:12:17Z</time>
      </trkpt>
      <trkpt lat="45.60314" lon="4.5703">
        <ele>763</ele>
        <time>2014-01-12T10:12:20Z</time>
      </trkpt>
      <trkpt lat="45.60316" lon="4.57024">
        <ele>763</ele>
        <time>2014-01-12T10:12:24Z</time>
      </trkpt>
      <trkpt lat="45.60318" lon="4.57019">
        <ele>763</ele>
        <time>2014-01-12T10:12:28Z</time>
      </trkpt>
      <trkpt lat="45.60322" lon="4.57013">
        <ele>763</ele>
        <time>2014-01-12T10:12:32Z</time>
      </trkpt>
      <trkpt lat="45.60326" lon="4.57007">
        <ele>763</ele>
        <time>2014-01-12T10:12:35Z</time>
      </trkpt>
      <trkpt lat="45.60333" lon="4.57002">
        <ele>763</ele>
        <time>2014-01-12T10:12:38Z</time>
      </trkpt>
      <trkpt lat="45.60338" lon="4.56997">
        <ele>763</ele>
        <time>2014-01-12T10:12:41Z</time>
      </trkpt>
      <trkpt lat="45.60345" lon="4.56991">
        <ele>763</ele>
        <time>2014-01-12T10:12:45Z</time>
      </trkpt>
      <trkpt lat="45.6035" lon="4.56988">
        <ele>763</ele>
        <time>2014-01-12T10:12:48Z</time>
      </trkpt>
      <trkpt lat="45.6035" lon="4.56992">
        <ele>763</ele>
        <time>2014-01-12T10:12:52Z</time>
      </trkpt>
      <trkpt lat="45.60349" lon="4.56997">
        <ele>763</ele>
        <time>2014-01-12T10:12:56Z</time>
      </trkpt>
      <trkpt lat="45.60351" lon="4.57002">
        <ele>763</ele>
        <time>2014-01-12T10:13:00Z</time>
      </trkpt>
      <trkpt lat="45.60353" lon="4.57004">
        <ele>763</ele>
        <time>2014-01-12T10:13:04Z</time>
      </trkpt>
      <trkpt lat="45.60357" lon="4.57003">
        <ele>764</ele>
        <time>2014-01-12T10:13:08Z</time>
      </trkpt>
      <trkpt lat="45.60361" lon="4.57">
        <ele>765</ele>
        <time>2014-01-12T10:13:12Z</time>
      </trkpt>
      <trkpt lat="45.60365" lon="4.56995">
        <ele>767</ele>
        <time>2014-01-12T10:13:16Z</time>
      </trkpt>
      <trkpt lat="45.60368" lon="4.56992">
        <ele>768</ele>
        <time>2014-01-12T10:13:19Z</time>
      </trkpt>
      <trkpt lat="45.60372" lon="4.56988">
        <ele>769</ele>
        <time>2014-01-12T10:13:22Z</time>
      </trkpt>
      <trkpt lat="45.60375" lon="4.56985">
        <ele>769</ele>
        <time>2014-01-12T10:13:25Z</time>
      </trkpt>
      <trkpt lat="45.60379" lon="4.56981">
        <ele>770</ele>
        <time>2014-01-12T10:13:29Z</time>
      </trkpt>
      <trkpt lat="45.60384" lon="4.56977">
        <ele>771</ele>
        <time>2014-01-12T10:13:33Z</time>
      </trkpt>
      <trkpt lat="45.60387" lon="4.56974">
        <ele>772</ele>
        <time>2014-01-12T10:13:37Z</time>
      </trkpt>
      <trkpt lat="45.60391" lon="4.5697">
        <ele>773</ele>
        <time>2014-01-12T10:13:41Z</time>
      </trkpt>
      <trkpt lat="45.60394" lon="4.56967">
        <ele>773</ele>
        <time>2014-01-12T10:13:44Z</time>
      </trkpt>
      <trkpt lat="45.604" lon="4.56961">
        <ele>773</ele>
        <time>2014-01-12T10:13:48Z</time>
      </trkpt>
      <trkpt lat="45.60408" lon="4.56954">
        <ele>773</ele>
        <time>2014-01-12T10:13:52Z</time>
      </trkpt>
      <trkpt lat="45.60414" lon="4.56948">
        <ele>773</ele>
        <time>2014-01-12T10:13:55Z</time>
      </trkpt>
      <trkpt lat="45.60419" lon="4.56942">
        <ele>774</ele>
        <time>2014-01-12T10:13:58Z</time>
      </trkpt>
      <trkpt lat="45.60425" lon="4.56938">
        <ele>775</ele>
        <time>2014-01-12T10:14:01Z</time>
      </trkpt>
      <trkpt lat="45.60429" lon="4.56937">
        <ele>776</ele>
        <time>2014-01-12T10:14:04Z</time>
      </trkpt>
      <trkpt lat="45.60435" lon="4.56934">
        <ele>778</ele>
        <time>2014-01-12T10:14:09Z</time>
      </trkpt>
      <trkpt lat="45.60438" lon="4.56933">
        <ele>778</ele>
        <time>2014-01-12T10:14:12Z</time>
      </trkpt>
      <trkpt lat="45.60441" lon="4.56932">
        <ele>779</ele>
        <time>2014-01-12T10:14:15Z</time>
      </trkpt>
      <trkpt lat="45.60445" lon="4.56931">
        <ele>780</ele>
        <time>2014-01-12T10:14:18Z</time>
      </trkpt>
      <trkpt lat="45.60451" lon="4.56929">
        <ele>781</ele>
        <time>2014-01-12T10:14:23Z</time>
      </trkpt>
      <trkpt lat="45.60455" lon="4.56929">
        <ele>781</ele>
        <time>2014-01-12T10:14:26Z</time>
      </trkpt>
      <trkpt lat="45.60459" lon="4.5693">
        <ele>782</ele>
        <time>2014-01-12T10:14:29Z</time>
      </trkpt>
      <trkpt lat="45.60462" lon="4.56931">
        <ele>783</ele>
        <time>2014-01-12T10:14:32Z</time>
      </trkpt>
      <trkpt lat="45.60466" lon="4.56933">
        <ele>784</ele>
        <time>2014-01-12T10:14:35Z</time>
      </trkpt>
      <trkpt lat="45.6047" lon="4.56936">
        <ele>785</ele>
        <time>2014-01-12T10:14:38Z</time>
      </trkpt>
      <trkpt lat="45.60475" lon="4.56939">
        <ele>785</ele>
        <time>2014-01-12T10:14:41Z</time>
      </trkpt>
      <trkpt lat="45.60484" lon="4.56945">
        <ele>786</ele>
        <time>2014-01-12T10:14:45Z</time>
      </trkpt>
      <trkpt lat="45.60491" lon="4.56951">
        <ele>786</ele>
        <time>2014-01-12T10:14:48Z</time>
      </trkpt>
      <trkpt lat="45.60501" lon="4.56957">
        <ele>786</ele>
        <time>2014-01-12T10:14:52Z</time>
      </trkpt>
      <trkpt lat="45.60511" lon="4.56962">
        <ele>786</ele>
        <time>2014-01-12T10:14:56Z</time>
      </trkpt>
      <trkpt lat="45.60518" lon="4.56968">
        <ele>786</ele>
        <time>2014-01-12T10:15:00Z</time>
      </trkpt>
      <trkpt lat="45.60525" lon="4.56975">
        <ele>786</ele>
        <time>2014-01-12T10:15:03Z</time>
      </trkpt>
      <trkpt lat="45.60531" lon="4.56982">
        <ele>786</ele>
        <time>2014-01-12T10:15:06Z</time>
      </trkpt>
      <trkpt lat="45.60537" lon="4.56988">
        <ele>786</ele>
        <time>2014-01-12T10:15:09Z</time>
      </trkpt>
      <trkpt lat="45.60543" lon="4.56996">
        <ele>786</ele>
        <time>2014-01-12T10:15:12Z</time>
      </trkpt>
      <trkpt lat="45.60548" lon="4.57004">
        <ele>787</ele>
        <time>2014-01-12T10:15:15Z</time>
      </trkpt>
      <trkpt lat="45.60553" lon="4.57011">
        <ele>789</ele>
        <time>2014-01-12T10:15:18Z</time>
      </trkpt>
      <trkpt lat="45.60557" lon="4.57019">
        <ele>790</ele>
        <time>2014-01-12T10:15:21Z</time>
      </trkpt>
      <trkpt lat="45.60561" lon="4.57032">
        <ele>790</ele>
        <time>2014-01-12T10:15:25Z</time>
      </trkpt>
      <trkpt lat="45.60564" lon="4.57046">
        <ele>790</ele>
        <time>2014-01-12T10:15:29Z</time>
      </trkpt>
      <trkpt lat="45.60567" lon="4.57058">
        <ele>790</ele>
        <time>2014-01-12T10:15:33Z</time>
      </trkpt>
      <trkpt lat="45.6057" lon="4.57068">
        <ele>790</ele>
        <time>2014-01-12T10:15:36Z</time>
      </trkpt>
      <trkpt lat="45.60571" lon="4.57077">
        <ele>790</ele>
        <time>2014-01-12T10:15:39Z</time>
      </trkpt>
      <trkpt lat="45.60573" lon="4.57087">
        <ele>790</ele>
        <time>2014-01-12T10:15:42Z</time>
      </trkpt>
      <trkpt lat="45.60573" lon="4.57096">
        <ele>790</ele>
        <time>2014-01-12T10:15:45Z</time>
      </trkpt>
      <trkpt lat="45.60573" lon="4.57104">
        <ele>791</ele>
        <time>2014-01-12T10:15:48Z</time>
      </trkpt>
      <trkpt lat="45.60574" lon="4.57112">
        <ele>792</ele>
        <time>2014-01-12T10:15:51Z</time>
      </trkpt>
      <trkpt lat="45.60575" lon="4.57124">
        <ele>792</ele>
        <time>2014-01-12T10:15:55Z</time>
      </trkpt>
      <trkpt lat="45.60574" lon="4.57133">
        <ele>793</ele>
        <time>2014-01-12T10:15:59Z</time>
      </trkpt>
      <trkpt lat="45.60574" lon="4.57139">
        <ele>793</ele>
        <time>2014-01-12T10:16:02Z</time>
      </trkpt>
      <trkpt lat="45.60572" lon="4.57147">
        <ele>793</ele>
        <time>2014-01-12T10:16:06Z</time>
      </trkpt>
      <trkpt lat="45.60572" lon="4.57153">
        <ele>793</ele>
        <time>2014-01-12T10:16:10Z</time>
      </trkpt>
      <trkpt lat="45.60571" lon="4.57158">
        <ele>793</ele>
        <time>2014-01-12T10:16:13Z</time>
      </trkpt>
      <trkpt lat="45.60569" lon="4.57163">
        <ele>794</ele>
        <time>2014-01-12T10:16:16Z</time>
      </trkpt>
      <trkpt lat="45.60567" lon="4.57168">
        <ele>794</ele>
        <time>2014-01-12T10:16:19Z</time>
      </trkpt>
      <trkpt lat="45.60567" lon="4.57177">
        <ele>794</ele>
        <time>2014-01-12T10:16:22Z</time>
      </trkpt>
      <trkpt lat="45.60565" lon="4.57186">
        <ele>794</ele>
        <time>2014-01-12T10:16:25Z</time>
      </trkpt>
      <trkpt lat="45.60564" lon="4.57197">
        <ele>794</ele>
        <time>2014-01-12T10:16:28Z</time>
      </trkpt>
      <trkpt lat="45.60562" lon="4.57207">
        <ele>795</ele>
        <time>2014-01-12T10:16:31Z</time>
      </trkpt>
      <trkpt lat="45.6056" lon="4.57219">
        <ele>797</ele>
        <time>2014-01-12T10:16:34Z</time>
      </trkpt>
      <trkpt lat="45.60558" lon="4.5723">
        <ele>798</ele>
        <time>2014-01-12T10:16:37Z</time>
      </trkpt>
      <trkpt lat="45.60557" lon="4.57242">
        <ele>798</ele>
        <time>2014-01-12T10:16:40Z</time>
      </trkpt>
      <trkpt lat="45.60556" lon="4.57254">
        <ele>799</ele>
        <time>2014-01-12T10:16:43Z</time>
      </trkpt>
      <trkpt lat="45.60554" lon="4.57264">
        <ele>800</ele>
        <time>2014-01-12T10:16:46Z</time>
      </trkpt>
      <trkpt lat="45.60553" lon="4.57275">
        <ele>801</ele>
        <time>2014-01-12T10:16:49Z</time>
      </trkpt>
      <trkpt lat="45.60553" lon="4.57286">
        <ele>801</ele>
        <time>2014-01-12T10:16:52Z</time>
      </trkpt>
      <trkpt lat="45.60553" lon="4.57297">
        <ele>801</ele>
        <time>2014-01-12T10:16:55Z</time>
      </trkpt>
      <trkpt lat="45.60553" lon="4.57308">
        <ele>801</ele>
        <time>2014-01-12T10:16:58Z</time>
      </trkpt>
      <trkpt lat="45.60552" lon="4.57321">
        <ele>801</ele>
        <time>2014-01-12T10:17:01Z</time>
      </trkpt>
      <trkpt lat="45.60551" lon="4.57332">
        <ele>801</ele>
        <time>2014-01-12T10:17:04Z</time>
      </trkpt>
      <trkpt lat="45.6055" lon="4.57342">
        <ele>801</ele>
        <time>2014-01-12T10:17:07Z</time>
      </trkpt>
      <trkpt lat="45.6055" lon="4.57351">
        <ele>801</ele>
        <time>2014-01-12T10:17:10Z</time>
      </trkpt>
      <trkpt lat="45.6055" lon="4.57362">
        <ele>801</ele>
        <time>2014-01-12T10:17:13Z</time>
      </trkpt>
      <trkpt lat="45.6055" lon="4.57372">
        <ele>801</ele>
        <time>2014-01-12T10:17:16Z</time>
      </trkpt>
      <trkpt lat="45.60552" lon="4.57382">
        <ele>801</ele>
        <time>2014-01-12T10:17:19Z</time>
      </trkpt>
      <trkpt lat="45.60553" lon="4.57392">
        <ele>801</ele>
        <time>2014-01-12T10:17:22Z</time>
      </trkpt>
      <trkpt lat="45.60553" lon="4.57402">
        <ele>801</ele>
        <time>2014-01-12T10:17:25Z</time>
      </trkpt>
      <trkpt lat="45.60555" lon="4.57413">
        <ele>801</ele>
        <time>2014-01-12T10:17:28Z</time>
      </trkpt>
      <trkpt lat="45.60555" lon="4.57422">
        <ele>801</ele>
        <time>2014-01-12T10:17:31Z</time>
      </trkpt>
      <trkpt lat="45.60555" lon="4.57435">
        <ele>801</ele>
        <time>2014-01-12T10:17:35Z</time>
      </trkpt>
      <trkpt lat="45.60557" lon="4.57444">
        <ele>801</ele>
        <time>2014-01-12T10:17:38Z</time>
      </trkpt>
      <trkpt lat="45.60557" lon="4.57454">
        <ele>801</ele>
        <time>2014-01-12T10:17:41Z</time>
      </trkpt>
      <trkpt lat="45.60557" lon="4.57464">
        <ele>801</ele>
        <time>2014-01-12T10:17:44Z</time>
      </trkpt>
      <trkpt lat="45.60557" lon="4.57473">
        <ele>801</ele>
        <time>2014-01-12T10:17:47Z</time>
      </trkpt>
      <trkpt lat="45.60557" lon="4.57481">
        <ele>801</ele>
        <time>2014-01-12T10:17:50Z</time>
      </trkpt>
      <trkpt lat="45.60558" lon="4.5749">
        <ele>801</ele>
        <time>2014-01-12T10:17:53Z</time>
      </trkpt>
      <trkpt lat="45.60559" lon="4.57494">
        <ele>801</ele>
        <time>2014-01-12T10:17:56Z</time>
      </trkpt>
      <trkpt lat="45.6056" lon="4.57499">
        <ele>801</ele>
        <time>2014-01-12T10:17:59Z</time>
      </trkpt>
      <trkpt lat="45.60561" lon="4.57504">
        <ele>801</ele>
        <time>2014-01-12T10:18:02Z</time>
      </trkpt>
      <trkpt lat="45.60562" lon="4.57509">
        <ele>801</ele>
        <time>2014-01-12T10:18:05Z</time>
      </trkpt>
      <trkpt lat="45.60562" lon="4.57513">
        <ele>803</ele>
        <time>2014-01-12T10:18:08Z</time>
      </trkpt>
      <trkpt lat="45.60563" lon="4.57519">
        <ele>804</ele>
        <time>2014-01-12T10:18:12Z</time>
      </trkpt>
      <trkpt lat="45.60564" lon="4.57523">
        <ele>805</ele>
        <time>2014-01-12T10:18:15Z</time>
      </trkpt>
      <trkpt lat="45.60565" lon="4.57528">
        <ele>805</ele>
        <time>2014-01-12T10:18:18Z</time>
      </trkpt>
      <trkpt lat="45.60567" lon="4.57532">
        <ele>806</ele>
        <time>2014-01-12T10:18:21Z</time>
      </trkpt>
      <trkpt lat="45.60568" lon="4.57538">
        <ele>806</ele>
        <time>2014-01-12T10:18:24Z</time>
      </trkpt>
      <trkpt lat="45.60572" lon="4.57542">
        <ele>807</ele>
        <time>2014-01-12T10:18:28Z</time>
      </trkpt>
      <trkpt lat="45.60576" lon="4.57547">
        <ele>808</ele>
        <time>2014-01-12T10:18:32Z</time>
      </trkpt>
      <trkpt lat="45.60579" lon="4.57553">
        <ele>808</ele>
        <time>2014-01-12T10:18:36Z</time>
      </trkpt>
      <trkpt lat="45.6058" lon="4.57559">
        <ele>808</ele>
        <time>2014-01-12T10:18:39Z</time>
      </trkpt>
      <trkpt lat="45.60583" lon="4.57566">
        <ele>808</ele>
        <time>2014-01-12T10:18:42Z</time>
      </trkpt>
      <trkpt lat="45.60587" lon="4.57574">
        <ele>808</ele>
        <time>2014-01-12T10:18:45Z</time>
      </trkpt>
      <trkpt lat="45.6059" lon="4.57583">
        <ele>808</ele>
        <time>2014-01-12T10:18:48Z</time>
      </trkpt>
      <trkpt lat="45.60594" lon="4.57592">
        <ele>808</ele>
        <time>2014-01-12T10:18:51Z</time>
      </trkpt>
      <trkpt lat="45.60598" lon="4.57603">
        <ele>808</ele>
        <time>2014-01-12T10:18:54Z</time>
      </trkpt>
      <trkpt lat="45.60602" lon="4.57612">
        <ele>808</ele>
        <time>2014-01-12T10:18:57Z</time>
      </trkpt>
      <trkpt lat="45.60606" lon="4.57622">
        <ele>808</ele>
        <time>2014-01-12T10:19:00Z</time>
      </trkpt>
      <trkpt lat="45.60611" lon="4.57632">
        <ele>808</ele>
        <time>2014-01-12T10:19:03Z</time>
      </trkpt>
      <trkpt lat="45.60614" lon="4.57642">
        <ele>808</ele>
        <time>2014-01-12T10:19:06Z</time>
      </trkpt>
      <trkpt lat="45.60618" lon="4.57651">
        <ele>808</ele>
        <time>2014-01-12T10:19:09Z</time>
      </trkpt>
      <trkpt lat="45.60622" lon="4.5766">
        <ele>808</ele>
        <time>2014-01-12T10:19:12Z</time>
      </trkpt>
      <trkpt lat="45.60624" lon="4.57669">
        <ele>808</ele>
        <time>2014-01-12T10:19:15Z</time>
      </trkpt>
      <trkpt lat="45.60627" lon="4.57679">
        <ele>808</ele>
        <time>2014-01-12T10:19:18Z</time>
      </trkpt>
      <trkpt lat="45.6063" lon="4.57687">
        <ele>808</ele>
        <time>2014-01-12T10:19:21Z</time>
      </trkpt>
      <trkpt lat="45.60633" lon="4.57695">
        <ele>808</ele>
        <time>2014-01-12T10:19:24Z</time>
      </trkpt>
      <trkpt lat="45.60635" lon="4.57704">
        <ele>808</ele>
        <time>2014-01-12T10:19:27Z</time>
      </trkpt>
      <trkpt lat="45.60638" lon="4.57712">
        <ele>808</ele>
        <time>2014-01-12T10:19:30Z</time>
      </trkpt>
      <trkpt lat="45.60641" lon="4.57719">
        <ele>808</ele>
        <time>2014-01-12T10:19:33Z</time>
      </trkpt>
      <trkpt lat="45.60646" lon="4.57726">
        <ele>808</ele>
        <time>2014-01-12T10:19:36Z</time>
      </trkpt>
      <trkpt lat="45.60651" lon="4.57732">
        <ele>809</ele>
        <time>2014-01-12T10:19:39Z</time>
      </trkpt>
      <trkpt lat="45.60656" lon="4.57737">
        <ele>809</ele>
        <time>2014-01-12T10:19:42Z</time>
      </trkpt>
      <trkpt lat="45.60661" lon="4.57743">
        <ele>809</ele>
        <time>2014-01-12T10:19:45Z</time>
      </trkpt>
      <trkpt lat="45.60667" lon="4.57749">
        <ele>810</ele>
        <time>2014-01-12T10:19:48Z</time>
      </trkpt>
      <trkpt lat="45.60672" lon="4.57755">
        <ele>810</ele>
        <time>2014-01-12T10:19:51Z</time>
      </trkpt>
      <trkpt lat="45.60677" lon="4.57761">
        <ele>810</ele>
        <time>2014-01-12T10:19:54Z</time>
      </trkpt>
      <trkpt lat="45.60682" lon="4.57767">
        <ele>810</ele>
        <time>2014-01-12T10:19:57Z</time>
      </trkpt>
      <trkpt lat="45.60688" lon="4.57773">
        <ele>810</ele>
        <time>2014-01-12T10:20:00Z</time>
      </trkpt>
      <trkpt lat="45.60693" lon="4.5778">
        <ele>810</ele>
        <time>2014-01-12T10:20:03Z</time>
      </trkpt>
      <trkpt lat="45.60699" lon="4.57786">
        <ele>810</ele>
        <time>2014-01-12T10:20:06Z</time>
      </trkpt>
      <trkpt lat="45.60704" lon="4.57792">
        <ele>810</ele>
        <time>2014-01-12T10:20:09Z</time>
      </trkpt>
      <trkpt lat="45.60709" lon="4.57798">
        <ele>810</ele>
        <time>2014-01-12T10:20:12Z</time>
      </trkpt>
      <trkpt lat="45.60715" lon="4.57794">
        <ele>810</ele>
        <time>2014-01-12T10:20:15Z</time>
      </trkpt>
      <trkpt lat="45.60718" lon="4.57784">
        <ele>810</ele>
        <time>2014-01-12T10:20:18Z</time>
      </trkpt>
      <trkpt lat="45.60721" lon="4.57774">
        <ele>810</ele>
        <time>2014-01-12T10:20:21Z</time>
      </trkpt>
      <trkpt lat="45.60725" lon="4.57764">
        <ele>810</ele>
        <time>2014-01-12T10:20:24Z</time>
      </trkpt>
      <trkpt lat="45.60728" lon="4.57754">
        <ele>810</ele>
        <time>2014-01-12T10:20:27Z</time>
      </trkpt>
      <trkpt lat="45.60733" lon="4.57744">
        <ele>810</ele>
        <time>2014-01-12T10:20:30Z</time>
      </trkpt>
      <trkpt lat="45.60737" lon="4.57733">
        <ele>810</ele>
        <time>2014-01-12T10:20:33Z</time>
      </trkpt>
      <trkpt lat="45.60741" lon="4.57724">
        <ele>809</ele>
        <time>2014-01-12T10:20:36Z</time>
      </trkpt>
      <trkpt lat="45.60745" lon="4.57714">
        <ele>808</ele>
        <time>2014-01-12T10:20:39Z</time>
      </trkpt>
      <trkpt lat="45.6075" lon="4.57705">
        <ele>807</ele>
        <time>2014-01-12T10:20:42Z</time>
      </trkpt>
      <trkpt lat="45.60755" lon="4.57696">
        <ele>806</ele>
        <time>2014-01-12T10:20:45Z</time>
      </trkpt>
      <trkpt lat="45.60759" lon="4.57688">
        <ele>805</ele>
        <time>2014-01-12T10:20:48Z</time>
      </trkpt>
      <trkpt lat="45.60763" lon="4.57679">
        <ele>804</ele>
        <time>2014-01-12T10:20:51Z</time>
      </trkpt>
      <trkpt lat="45.60767" lon="4.57671">
        <ele>803</ele>
        <time>2014-01-12T10:20:54Z</time>
      </trkpt>
      <trkpt lat="45.60772" lon="4.57664">
        <ele>801</ele>
        <time>2014-01-12T10:20:57Z</time>
      </trkpt>
      <trkpt lat="45.60775" lon="4.57656">
        <ele>800</ele>
        <time>2014-01-12T10:21:00Z</time>
      </trkpt>
      <trkpt lat="45.6078" lon="4.57649">
        <ele>798</ele>
        <time>2014-01-12T10:21:03Z</time>
      </trkpt>
      <trkpt lat="45.60786" lon="4.57644">
        <ele>797</ele>
        <time>2014-01-12T10:21:06Z</time>
      </trkpt>
      <trkpt lat="45.60792" lon="4.57639">
        <ele>795</ele>
        <time>2014-01-12T10:21:09Z</time>
      </trkpt>
      <trkpt lat="45.60798" lon="4.57634">
        <ele>794</ele>
        <time>2014-01-12T10:21:12Z</time>
      </trkpt>
      <trkpt lat="45.60804" lon="4.5763">
        <ele>793</ele>
        <time>2014-01-12T10:21:15Z</time>
      </trkpt>
      <trkpt lat="45.6081" lon="4.57627">
        <ele>792</ele>
        <time>2014-01-12T10:21:18Z</time>
      </trkpt>
      <trkpt lat="45.60813" lon="4.57628">
        <ele>790</ele>
        <time>2014-01-12T10:21:26Z</time>
      </trkpt>
      <trkpt lat="45.60814" lon="4.57626">
        <ele>790</ele>
        <time>2014-01-12T10:21:48Z</time>
      </trkpt>
      <trkpt lat="45.60819" lon="4.57623">
        <ele>790</ele>
        <time>2014-01-12T10:21:51Z</time>
      </trkpt>
      <trkpt lat="45.60827" lon="4.5762">
        <ele>790</ele>
        <time>2014-01-12T10:21:54Z</time>
      </trkpt>
      <trkpt lat="45.60835" lon="4.57616">
        <ele>790</ele>
        <time>2014-01-12T10:21:57Z</time>
      </trkpt>
      <trkpt lat="45.60842" lon="4.57613">
        <ele>789</ele>
        <time>2014-01-12T10:22:00Z</time>
      </trkpt>
      <trkpt lat="45.60849" lon="4.5761">
        <ele>788</ele>
        <time>2014-01-12T10:22:03Z</time>
      </trkpt>
      <trkpt lat="45.60856" lon="4.57609">
        <ele>787</ele>
        <time>2014-01-12T10:22:06Z</time>
      </trkpt>
      <trkpt lat="45.60863" lon="4.57609">
        <ele>786</ele>
        <time>2014-01-12T10:22:09Z</time>
      </trkpt>
      <trkpt lat="45.6087" lon="4.5761">
        <ele>784</ele>
        <time>2014-01-12T10:22:12Z</time>
      </trkpt>
      <trkpt lat="45.60876" lon="4.5761">
        <ele>783</ele>
        <time>2014-01-12T10:22:15Z</time>
      </trkpt>
      <trkpt lat="45.60883" lon="4.57611">
        <ele>782</ele>
        <time>2014-01-12T10:22:18Z</time>
      </trkpt>
      <trkpt lat="45.60891" lon="4.57611">
        <ele>782</ele>
        <time>2014-01-12T10:22:21Z</time>
      </trkpt>
      <trkpt lat="45.60898" lon="4.5761">
        <ele>782</ele>
        <time>2014-01-12T10:22:24Z</time>
      </trkpt>
      <trkpt lat="45.60907" lon="4.5761">
        <ele>781</ele>
        <time>2014-01-12T10:22:27Z</time>
      </trkpt>
      <trkpt lat="45.60915" lon="4.5761">
        <ele>780</ele>
        <time>2014-01-12T10:22:30Z</time>
      </trkpt>
      <trkpt lat="45.60923" lon="4.5761">
        <ele>779</ele>
        <time>2014-01-12T10:22:33Z</time>
      </trkpt>
      <trkpt lat="45.6093" lon="4.57611">
        <ele>778</ele>
        <time>2014-01-12T10:22:36Z</time>
      </trkpt>
      <trkpt lat="45.60937" lon="4.57612">
        <ele>776</ele>
        <time>2014-01-12T10:22:39Z</time>
      </trkpt>
      <trkpt lat="45.60943" lon="4.57613">
        <ele>774</ele>
        <time>2014-01-12T10:22:42Z</time>
      </trkpt>
      <trkpt lat="45.60952" lon="4.57616">
        <ele>773</ele>
        <time>2014-01-12T10:22:46Z</time>
      </trkpt>
      <trkpt lat="45.60959" lon="4.57616">
        <ele>771</ele>
        <time>2014-01-12T10:22:49Z</time>
      </trkpt>
      <trkpt lat="45.60966" lon="4.57617">
        <ele>770</ele>
        <time>2014-01-12T10:22:52Z</time>
      </trkpt>
      <trkpt lat="45.60974" lon="4.57618">
        <ele>769</ele>
        <time>2014-01-12T10:22:55Z</time>
      </trkpt>
      <trkpt lat="45.60981" lon="4.57618">
        <ele>767</ele>
        <time>2014-01-12T10:22:58Z</time>
      </trkpt>
      <trkpt lat="45.6099" lon="4.57617">
        <ele>766</ele>
        <time>2014-01-12T10:23:01Z</time>
      </trkpt>
      <trkpt lat="45.60997" lon="4.57614">
        <ele>766</ele>
        <time>2014-01-12T10:23:04Z</time>
      </trkpt>
      <trkpt lat="45.61005" lon="4.57612">
        <ele>765</ele>
        <time>2014-01-12T10:23:07Z</time>
      </trkpt>
      <trkpt lat="45.61013" lon="4.5761">
        <ele>763</ele>
        <time>2014-01-12T10:23:10Z</time>
      </trkpt>
      <trkpt lat="45.61021" lon="4.57607">
        <ele>762</ele>
        <time>2014-01-12T10:23:13Z</time>
      </trkpt>
      <trkpt lat="45.61028" lon="4.57605">
        <ele>761</ele>
        <time>2014-01-12T10:23:16Z</time>
      </trkpt>
      <trkpt lat="45.61035" lon="4.57604">
        <ele>759</ele>
        <time>2014-01-12T10:23:19Z</time>
      </trkpt>
      <trkpt lat="45.61042" lon="4.57601">
        <ele>757</ele>
        <time>2014-01-12T10:23:22Z</time>
      </trkpt>
      <trkpt lat="45.61048" lon="4.57598">
        <ele>755</ele>
        <time>2014-01-12T10:23:25Z</time>
      </trkpt>
      <trkpt lat="45.61054" lon="4.57597">
        <ele>752</ele>
        <time>2014-01-12T10:23:28Z</time>
      </trkpt>
      <trkpt lat="45.61061" lon="4.57592">
        <ele>749</ele>
        <time>2014-01-12T10:23:31Z</time>
      </trkpt>
      <trkpt lat="45.61069" lon="4.57587">
        <ele>747</ele>
        <time>2014-01-12T10:23:34Z</time>
      </trkpt>
      <trkpt lat="45.61076" lon="4.57582">
        <ele>745</ele>
        <time>2014-01-12T10:23:37Z</time>
      </trkpt>
      <trkpt lat="45.61084" lon="4.57576">
        <ele>743</ele>
        <time>2014-01-12T10:23:40Z</time>
      </trkpt>
      <trkpt lat="45.61091" lon="4.57571">
        <ele>743</ele>
        <time>2014-01-12T10:23:43Z</time>
      </trkpt>
      <trkpt lat="45.61099" lon="4.57566">
        <ele>742</ele>
        <time>2014-01-12T10:23:46Z</time>
      </trkpt>
      <trkpt lat="45.61106" lon="4.57562">
        <ele>741</ele>
        <time>2014-01-12T10:23:49Z</time>
      </trkpt>
      <trkpt lat="45.61115" lon="4.57557">
        <ele>741</ele>
        <time>2014-01-12T10:23:52Z</time>
      </trkpt>
      <trkpt lat="45.61123" lon="4.57554">
        <ele>740</ele>
        <time>2014-01-12T10:23:55Z</time>
      </trkpt>
      <trkpt lat="45.61131" lon="4.57549">
        <ele>740</ele>
        <time>2014-01-12T10:23:58Z</time>
      </trkpt>
      <trkpt lat="45.61139" lon="4.57546">
        <ele>740</ele>
        <time>2014-01-12T10:24:01Z</time>
      </trkpt>
      <trkpt lat="45.61146" lon="4.57541">
        <ele>740</ele>
        <time>2014-01-12T10:24:04Z</time>
      </trkpt>
      <trkpt lat="45.61153" lon="4.57536">
        <ele>739</ele>
        <time>2014-01-12T10:24:07Z</time>
      </trkpt>
      <trkpt lat="45.6116" lon="4.57531">
        <ele>739</ele>
        <time>2014-01-12T10:24:10Z</time>
      </trkpt>
      <trkpt lat="45.61167" lon="4.57525">
        <ele>739</ele>
        <time>2014-01-12T10:24:13Z</time>
      </trkpt>
      <trkpt lat="45.61172" lon="4.57517">
        <ele>739</ele>
        <time>2014-01-12T10:24:16Z</time>
      </trkpt>
      <trkpt lat="45.61178" lon="4.5751">
        <ele>739</ele>
        <time>2014-01-12T10:24:19Z</time>
      </trkpt>
      <trkpt lat="45.61184" lon="4.57506">
        <ele>739</ele>
        <time>2014-01-12T10:24:22Z</time>
      </trkpt>
      <trkpt lat="45.61189" lon="4.57503">
        <ele>739</ele>
        <time>2014-01-12T10:24:25Z</time>
      </trkpt>
      <trkpt lat="45.61194" lon="4.575">
        <ele>739</ele>
        <time>2014-01-12T10:24:28Z</time>
      </trkpt>
      <trkpt lat="45.612" lon="4.57499">
        <ele>739</ele>
        <time>2014-01-12T10:24:31Z</time>
      </trkpt>
      <trkpt lat="45.61205" lon="4.57496">
        <ele>739</ele>
        <time>2014-01-12T10:24:35Z</time>
      </trkpt>
      <trkpt lat="45.61209" lon="4.57493">
        <ele>739</ele>
        <time>2014-01-12T10:24:39Z</time>
      </trkpt>
      <trkpt lat="45.61212" lon="4.57493">
        <ele>739</ele>
        <time>2014-01-12T10:24:42Z</time>
      </trkpt>
      <trkpt lat="45.61216" lon="4.57491">
        <ele>739</ele>
        <time>2014-01-12T10:24:46Z</time>
      </trkpt>
      <trkpt lat="45.61219" lon="4.57488">
        <ele>739</ele>
        <time>2014-01-12T10:24:50Z</time>
      </trkpt>
      <trkpt lat="45.61222" lon="4.57485">
        <ele>739</ele>
        <time>2014-01-12T10:24:53Z</time>
      </trkpt>
      <trkpt lat="45.61225" lon="4.57481">
        <ele>739</ele>
        <time>2014-01-12T10:24:57Z</time>
      </trkpt>
      <trkpt lat="45.61228" lon="4.57478">
        <ele>739</ele>
        <time>2014-01-12T10:25:00Z</time>
      </trkpt>
      <trkpt lat="45.61231" lon="4.57474">
        <ele>739</ele>
        <time>2014-01-12T10:25:04Z</time>
      </trkpt>
      <trkpt lat="45.61235" lon="4.57469">
        <ele>739</ele>
        <time>2014-01-12T10:25:08Z</time>
      </trkpt>
      <trkpt lat="45.61238" lon="4.57463">
        <ele>739</ele>
        <time>2014-01-12T10:25:12Z</time>
      </trkpt>
      <trkpt lat="45.61242" lon="4.57459">
        <ele>739</ele>
        <time>2014-01-12T10:25:15Z</time>
      </trkpt>
      <trkpt lat="45.61246" lon="4.57455">
        <ele>739</ele>
        <time>2014-01-12T10:25:19Z</time>
      </trkpt>
      <trkpt lat="45.61249" lon="4.57452">
        <ele>740</ele>
        <time>2014-01-12T10:25:22Z</time>
      </trkpt>
      <trkpt lat="45.61253" lon="4.57449">
        <ele>741</ele>
        <time>2014-01-12T10:25:25Z</time>
      </trkpt>
      <trkpt lat="45.61256" lon="4.57446">
        <ele>741</ele>
        <time>2014-01-12T10:25:29Z</time>
      </trkpt>
      <trkpt lat="45.6126" lon="4.57441">
        <ele>742</ele>
        <time>2014-01-12T10:25:33Z</time>
      </trkpt>
      <trkpt lat="45.61263" lon="4.57439">
        <ele>743</ele>
        <time>2014-01-12T10:25:36Z</time>
      </trkpt>
      <trkpt lat="45.61266" lon="4.57437">
        <ele>745</ele>
        <time>2014-01-12T10:25:39Z</time>
      </trkpt>
      <trkpt lat="45.61271" lon="4.57435">
        <ele>746</ele>
        <time>2014-01-12T10:25:43Z</time>
      </trkpt>
      <trkpt lat="45.61274" lon="4.57433">
        <ele>746</ele>
        <time>2014-01-12T10:25:46Z</time>
      </trkpt>
      <trkpt lat="45.61278" lon="4.57431">
        <ele>746</ele>
        <time>2014-01-12T10:25:50Z</time>
      </trkpt>
      <trkpt lat="45.61282" lon="4.5743">
        <ele>746</ele>
        <time>2014-01-12T10:25:54Z</time>
      </trkpt>
      <trkpt lat="45.61285" lon="4.57429">
        <ele>746</ele>
        <time>2014-01-12T10:25:58Z</time>
      </trkpt>
      <trkpt lat="45.61289" lon="4.57429">
        <ele>746</ele>
        <time>2014-01-12T10:26:02Z</time>
      </trkpt>
      <trkpt lat="45.61292" lon="4.57428">
        <ele>746</ele>
        <time>2014-01-12T10:26:05Z</time>
      </trkpt>
      <trkpt lat="45.61295" lon="4.57426">
        <ele>746</ele>
        <time>2014-01-12T10:26:08Z</time>
      </trkpt>
      <trkpt lat="45.61298" lon="4.57425">
        <ele>746</ele>
        <time>2014-01-12T10:26:11Z</time>
      </trkpt>
      <trkpt lat="45.61301" lon="4.57425">
        <ele>746</ele>
        <time>2014-01-12T10:26:14Z</time>
      </trkpt>
      <trkpt lat="45.61306" lon="4.57425">
        <ele>746</ele>
        <time>2014-01-12T10:26:18Z</time>
      </trkpt>
      <trkpt lat="45.6131" lon="4.57425">
        <ele>746</ele>
        <time>2014-01-12T10:26:21Z</time>
      </trkpt>
      <trkpt lat="45.61314" lon="4.57423">
        <ele>748</ele>
        <time>2014-01-12T10:26:24Z</time>
      </trkpt>
      <trkpt lat="45.61318" lon="4.57422">
        <ele>750</ele>
        <time>2014-01-12T10:26:27Z</time>
      </trkpt>
      <trkpt lat="45.61321" lon="4.57421">
        <ele>750</ele>
        <time>2014-01-12T10:26:30Z</time>
      </trkpt>
      <trkpt lat="45.61325" lon="4.57421">
        <ele>751</ele>
        <time>2014-01-12T10:26:33Z</time>
      </trkpt>
      <trkpt lat="45.6133" lon="4.5742">
        <ele>751</ele>
        <time>2014-01-12T10:26:37Z</time>
      </trkpt>
      <trkpt lat="45.61335" lon="4.57419">
        <ele>751</ele>
        <time>2014-01-12T10:26:41Z</time>
      </trkpt>
      <trkpt lat="45.61339" lon="4.57419">
        <ele>751</ele>
        <time>2014-01-12T10:26:44Z</time>
      </trkpt>
      <trkpt lat="45.61343" lon="4.57419">
        <ele>751</ele>
        <time>2014-01-12T10:26:47Z</time>
      </trkpt>
      <trkpt lat="45.61346" lon="4.57419">
        <ele>751</ele>
        <time>2014-01-12T10:26:50Z</time>
      </trkpt>
      <trkpt lat="45.61349" lon="4.57419">
        <ele>751</ele>
        <time>2014-01-12T10:26:53Z</time>
      </trkpt>
      <trkpt lat="45.61353" lon="4.57419">
        <ele>751</ele>
        <time>2014-01-12T10:26:56Z</time>
      </trkpt>
      <trkpt lat="45.61357" lon="4.57418">
        <ele>751</ele>
        <time>2014-01-12T10:26:59Z</time>
      </trkpt>
      <trkpt lat="45.61361" lon="4.57417">
        <ele>752</ele>
        <time>2014-01-12T10:27:02Z</time>
      </trkpt>
      <trkpt lat="45.61364" lon="4.57416">
        <ele>752</ele>
        <time>2014-01-12T10:27:05Z</time>
      </trkpt>
      <trkpt lat="45.61369" lon="4.57415">
        <ele>753</ele>
        <time>2014-01-12T10:27:09Z</time>
      </trkpt>
      <trkpt lat="45.61373" lon="4.57413">
        <ele>753</ele>
        <time>2014-01-12T10:27:12Z</time>
      </trkpt>
      <trkpt lat="45.61376" lon="4.57412">
        <ele>753</ele>
        <time>2014-01-12T10:27:15Z</time>
      </trkpt>
      <trkpt lat="45.6138" lon="4.57413">
        <ele>754</ele>
        <time>2014-01-12T10:27:18Z</time>
      </trkpt>
      <trkpt lat="45.61383" lon="4.57417">
        <ele>755</ele>
        <time>2014-01-12T10:27:21Z</time>
      </trkpt>
      <trkpt lat="45.61387" lon="4.57421">
        <ele>756</ele>
        <time>2014-01-12T10:27:24Z</time>
      </trkpt>
      <trkpt lat="45.61391" lon="4.57425">
        <ele>757</ele>
        <time>2014-01-12T10:27:27Z</time>
      </trkpt>
      <trkpt lat="45.61393" lon="4.5743">
        <ele>758</ele>
        <time>2014-01-12T10:27:30Z</time>
      </trkpt>
      <trkpt lat="45.61396" lon="4.57434">
        <ele>758</ele>
        <time>2014-01-12T10:27:33Z</time>
      </trkpt>
      <trkpt lat="45.61399" lon="4.5744">
        <ele>759</ele>
        <time>2014-01-12T10:27:37Z</time>
      </trkpt>
      <trkpt lat="45.61401" lon="4.57444">
        <ele>759</ele>
        <time>2014-01-12T10:27:40Z</time>
      </trkpt>
      <trkpt lat="45.61404" lon="4.5745">
        <ele>759</ele>
        <time>2014-01-12T10:27:44Z</time>
      </trkpt>
      <trkpt lat="45.61408" lon="4.57457">
        <ele>760</ele>
        <time>2014-01-12T10:27:47Z</time>
      </trkpt>
      <trkpt lat="45.61412" lon="4.57466">
        <ele>761</ele>
        <time>2014-01-12T10:27:50Z</time>
      </trkpt>
      <trkpt lat="45.61416" lon="4.57474">
        <ele>762</ele>
        <time>2014-01-12T10:27:53Z</time>
      </trkpt>
      <trkpt lat="45.6142" lon="4.57482">
        <ele>764</ele>
        <time>2014-01-12T10:27:56Z</time>
      </trkpt>
      <trkpt lat="45.61424" lon="4.57491">
        <ele>765</ele>
        <time>2014-01-12T10:27:59Z</time>
      </trkpt>
      <trkpt lat="45.61428" lon="4.57501">
        <ele>766</ele>
        <time>2014-01-12T10:28:02Z</time>
      </trkpt>
      <trkpt lat="45.61432" lon="4.5751">
        <ele>767</ele>
        <time>2014-01-12T10:28:05Z</time>
      </trkpt>
      <trkpt lat="45.61435" lon="4.57519">
        <ele>767</ele>
        <time>2014-01-12T10:28:08Z</time>
      </trkpt>
      <trkpt lat="45.61439" lon="4.57528">
        <ele>768</ele>
        <time>2014-01-12T10:28:11Z</time>
      </trkpt>
      <trkpt lat="45.61442" lon="4.57538">
        <ele>769</ele>
        <time>2014-01-12T10:28:14Z</time>
      </trkpt>
      <trkpt lat="45.61445" lon="4.57548">
        <ele>769</ele>
        <time>2014-01-12T10:28:17Z</time>
      </trkpt>
      <trkpt lat="45.61448" lon="4.57557">
        <ele>770</ele>
        <time>2014-01-12T10:28:20Z</time>
      </trkpt>
      <trkpt lat="45.61451" lon="4.57566">
        <ele>771</ele>
        <time>2014-01-12T10:28:23Z</time>
      </trkpt>
      <trkpt lat="45.61455" lon="4.57576">
        <ele>772</ele>
        <time>2014-01-12T10:28:26Z</time>
      </trkpt>
      <trkpt lat="45.61457" lon="4.57585">
        <ele>773</ele>
        <time>2014-01-12T10:28:29Z</time>
      </trkpt>
      <trkpt lat="45.61461" lon="4.57594">
        <ele>773</ele>
        <time>2014-01-12T10:28:32Z</time>
      </trkpt>
      <trkpt lat="45.61464" lon="4.57603">
        <ele>774</ele>
        <time>2014-01-12T10:28:35Z</time>
      </trkpt>
      <trkpt lat="45.61468" lon="4.57612">
        <ele>774</ele>
        <time>2014-01-12T10:28:38Z</time>
      </trkpt>
      <trkpt lat="45.6147" lon="4.5762">
        <ele>774</ele>
        <time>2014-01-12T10:28:41Z</time>
      </trkpt>
      <trkpt lat="45.61473" lon="4.57629">
        <ele>774</ele>
        <time>2014-01-12T10:28:44Z</time>
      </trkpt>
      <trkpt lat="45.61475" lon="4.57637">
        <ele>774</ele>
        <time>2014-01-12T10:28:47Z</time>
      </trkpt>
      <trkpt lat="45.61478" lon="4.57644">
        <ele>774</ele>
        <time>2014-01-12T10:28:50Z</time>
      </trkpt>
      <trkpt lat="45.6148" lon="4.5765">
        <ele>774</ele>
        <time>2014-01-12T10:28:53Z</time>
      </trkpt>
      <trkpt lat="45.61482" lon="4.57655">
        <ele>774</ele>
        <time>2014-01-12T10:28:56Z</time>
      </trkpt>
      <trkpt lat="45.61485" lon="4.57663">
        <ele>774</ele>
        <time>2014-01-12T10:28:59Z</time>
      </trkpt>
      <trkpt lat="45.61487" lon="4.57672">
        <ele>774</ele>
        <time>2014-01-12T10:29:02Z</time>
      </trkpt>
      <trkpt lat="45.6149" lon="4.57681">
        <ele>774</ele>
        <time>2014-01-12T10:29:05Z</time>
      </trkpt>
      <trkpt lat="45.61492" lon="4.5769">
        <ele>775</ele>
        <time>2014-01-12T10:29:08Z</time>
      </trkpt>
      <trkpt lat="45.61493" lon="4.57697">
        <ele>775</ele>
        <time>2014-01-12T10:29:11Z</time>
      </trkpt>
      <trkpt lat="45.61494" lon="4.57705">
        <ele>775</ele>
        <time>2014-01-12T10:29:14Z</time>
      </trkpt>
      <trkpt lat="45.61496" lon="4.57712">
        <ele>776</ele>
        <time>2014-01-12T10:29:17Z</time>
      </trkpt>
      <trkpt lat="45.61499" lon="4.57721">
        <ele>776</ele>
        <time>2014-01-12T10:29:20Z</time>
      </trkpt>
      <trkpt lat="45.61501" lon="4.5773">
        <ele>777</ele>
        <time>2014-01-12T10:29:23Z</time>
      </trkpt>
      <trkpt lat="45.61503" lon="4.5774">
        <ele>778</ele>
        <time>2014-01-12T10:29:26Z</time>
      </trkpt>
      <trkpt lat="45.61506" lon="4.57748">
        <ele>779</ele>
        <time>2014-01-12T10:29:29Z</time>
      </trkpt>
      <trkpt lat="45.61509" lon="4.57756">
        <ele>779</ele>
        <time>2014-01-12T10:29:32Z</time>
      </trkpt>
      <trkpt lat="45.61512" lon="4.57763">
        <ele>779</ele>
        <time>2014-01-12T10:29:35Z</time>
      </trkpt>
      <trkpt lat="45.61515" lon="4.5777">
        <ele>780</ele>
        <time>2014-01-12T10:29:38Z</time>
      </trkpt>
      <trkpt lat="45.6152" lon="4.57777">
        <ele>780</ele>
        <time>2014-01-12T10:29:41Z</time>
      </trkpt>
      <trkpt lat="45.61523" lon="4.57783">
        <ele>781</ele>
        <time>2014-01-12T10:29:44Z</time>
      </trkpt>
      <trkpt lat="45.61527" lon="4.5779">
        <ele>781</ele>
        <time>2014-01-12T10:29:47Z</time>
      </trkpt>
      <trkpt lat="45.61532" lon="4.57795">
        <ele>781</ele>
        <time>2014-01-12T10:29:50Z</time>
      </trkpt>
      <trkpt lat="45.61536" lon="4.57801">
        <ele>782</ele>
        <time>2014-01-12T10:29:53Z</time>
      </trkpt>
      <trkpt lat="45.61541" lon="4.57805">
        <ele>782</ele>
        <time>2014-01-12T10:29:56Z</time>
      </trkpt>
      <trkpt lat="45.61546" lon="4.57808">
        <ele>782</ele>
        <time>2014-01-12T10:29:59Z</time>
      </trkpt>
      <trkpt lat="45.61552" lon="4.57813">
        <ele>783</ele>
        <time>2014-01-12T10:30:02Z</time>
      </trkpt>
      <trkpt lat="45.61558" lon="4.57815">
        <ele>783</ele>
        <time>2014-01-12T10:30:05Z</time>
      </trkpt>
      <trkpt lat="45.61564" lon="4.57818">
        <ele>784</ele>
        <time>2014-01-12T10:30:08Z</time>
      </trkpt>
      <trkpt lat="45.61572" lon="4.57822">
        <ele>785</ele>
        <time>2014-01-12T10:30:11Z</time>
      </trkpt>
      <trkpt lat="45.61579" lon="4.57825">
        <ele>786</ele>
        <time>2014-01-12T10:30:14Z</time>
      </trkpt>
      <trkpt lat="45.61582" lon="4.57828">
        <ele>787</ele>
        <time>2014-01-12T10:30:18Z</time>
      </trkpt>
      <trkpt lat="45.61586" lon="4.57828">
        <ele>787</ele>
        <time>2014-01-12T10:30:22Z</time>
      </trkpt>
      <trkpt lat="45.6159" lon="4.57828">
        <ele>787</ele>
        <time>2014-01-12T10:30:25Z</time>
      </trkpt>
      <trkpt lat="45.61594" lon="4.57829">
        <ele>787</ele>
        <time>2014-01-12T10:30:29Z</time>
      </trkpt>
      <trkpt lat="45.61597" lon="4.5783">
        <ele>787</ele>
        <time>2014-01-12T10:30:32Z</time>
      </trkpt>
      <trkpt lat="45.61601" lon="4.5783">
        <ele>787</ele>
        <time>2014-01-12T10:30:35Z</time>
      </trkpt>
      <trkpt lat="45.61605" lon="4.57831">
        <ele>788</ele>
        <time>2014-01-12T10:30:38Z</time>
      </trkpt>
      <trkpt lat="45.61609" lon="4.57834">
        <ele>788</ele>
        <time>2014-01-12T10:30:42Z</time>
      </trkpt>
      <trkpt lat="45.61612" lon="4.57834">
        <ele>788</ele>
        <time>2014-01-12T10:30:46Z</time>
      </trkpt>
      <trkpt lat="45.61616" lon="4.57832">
        <ele>788</ele>
        <time>2014-01-12T10:30:50Z</time>
      </trkpt>
      <trkpt lat="45.61619" lon="4.57831">
        <ele>788</ele>
        <time>2014-01-12T10:30:54Z</time>
      </trkpt>
      <trkpt lat="45.61622" lon="4.57831">
        <ele>788</ele>
        <time>2014-01-12T10:30:58Z</time>
      </trkpt>
      <trkpt lat="45.61626" lon="4.57831">
        <ele>788</ele>
        <time>2014-01-12T10:31:01Z</time>
      </trkpt>
      <trkpt lat="45.6163" lon="4.5783">
        <ele>788</ele>
        <time>2014-01-12T10:31:05Z</time>
      </trkpt>
      <trkpt lat="45.61634" lon="4.5783">
        <ele>788</ele>
        <time>2014-01-12T10:31:08Z</time>
      </trkpt>
      <trkpt lat="45.61637" lon="4.57831">
        <ele>788</ele>
        <time>2014-01-12T10:31:11Z</time>
      </trkpt>
      <trkpt lat="45.61641" lon="4.57833">
        <ele>788</ele>
        <time>2014-01-12T10:31:14Z</time>
      </trkpt>
      <trkpt lat="45.61645" lon="4.57835">
        <ele>788</ele>
        <time>2014-01-12T10:31:17Z</time>
      </trkpt>
      <trkpt lat="45.61648" lon="4.57836">
        <ele>789</ele>
        <time>2014-01-12T10:31:20Z</time>
      </trkpt>
      <trkpt lat="45.61652" lon="4.57839">
        <ele>790</ele>
        <time>2014-01-12T10:31:24Z</time>
      </trkpt>
      <trkpt lat="45.61657" lon="4.5784">
        <ele>790</ele>
        <time>2014-01-12T10:31:28Z</time>
      </trkpt>
      <trkpt lat="45.61661" lon="4.57841">
        <ele>792</ele>
        <time>2014-01-12T10:31:31Z</time>
      </trkpt>
      <trkpt lat="45.61664" lon="4.57842">
        <ele>793</ele>
        <time>2014-01-12T10:31:34Z</time>
      </trkpt>
      <trkpt lat="45.61668" lon="4.57846">
        <ele>794</ele>
        <time>2014-01-12T10:31:37Z</time>
      </trkpt>
      <trkpt lat="45.61672" lon="4.57849">
        <ele>794</ele>
        <time>2014-01-12T10:31:41Z</time>
      </trkpt>
      <trkpt lat="45.61675" lon="4.57851">
        <ele>794</ele>
        <time>2014-01-12T10:31:44Z</time>
      </trkpt>
      <trkpt lat="45.61679" lon="4.57854">
        <ele>794</ele>
        <time>2014-01-12T10:31:48Z</time>
      </trkpt>
      <trkpt lat="45.61682" lon="4.57857">
        <ele>794</ele>
        <time>2014-01-12T10:31:51Z</time>
      </trkpt>
      <trkpt lat="45.61684" lon="4.5786">
        <ele>794</ele>
        <time>2014-01-12T10:31:55Z</time>
      </trkpt>
      <trkpt lat="45.6169" lon="4.57864">
        <ele>795</ele>
        <time>2014-01-12T10:31:59Z</time>
      </trkpt>
      <trkpt lat="45.61694" lon="4.57868">
        <ele>797</ele>
        <time>2014-01-12T10:32:02Z</time>
      </trkpt>
      <trkpt lat="45.61697" lon="4.57871">
        <ele>800</ele>
        <time>2014-01-12T10:32:05Z</time>
      </trkpt>
      <trkpt lat="45.61699" lon="4.57876">
        <ele>802</ele>
        <time>2014-01-12T10:32:08Z</time>
      </trkpt>
      <trkpt lat="45.61702" lon="4.57882">
        <ele>802</ele>
        <time>2014-01-12T10:32:11Z</time>
      </trkpt>
      <trkpt lat="45.61706" lon="4.57886">
        <ele>802</ele>
        <time>2014-01-12T10:32:14Z</time>
      </trkpt>
      <trkpt lat="45.61708" lon="4.57893">
        <ele>802</ele>
        <time>2014-01-12T10:32:17Z</time>
      </trkpt>
      <trkpt lat="45.61712" lon="4.579">
        <ele>802</ele>
        <time>2014-01-12T10:32:20Z</time>
      </trkpt>
      <trkpt lat="45.61715" lon="4.57907">
        <ele>802</ele>
        <time>2014-01-12T10:32:23Z</time>
      </trkpt>
      <trkpt lat="45.61718" lon="4.57913">
        <ele>802</ele>
        <time>2014-01-12T10:32:26Z</time>
      </trkpt>
      <trkpt lat="45.61723" lon="4.5792">
        <ele>802</ele>
        <time>2014-01-12T10:32:29Z</time>
      </trkpt>
      <trkpt lat="45.61727" lon="4.57925">
        <ele>802</ele>
        <time>2014-01-12T10:32:32Z</time>
      </trkpt>
      <trkpt lat="45.61731" lon="4.57929">
        <ele>804</ele>
        <time>2014-01-12T10:32:35Z</time>
      </trkpt>
      <trkpt lat="45.61733" lon="4.57933">
        <ele>805</ele>
        <time>2014-01-12T10:32:38Z</time>
      </trkpt>
      <trkpt lat="45.61735" lon="4.57937">
        <ele>806</ele>
        <time>2014-01-12T10:32:41Z</time>
      </trkpt>
      <trkpt lat="45.61738" lon="4.57942">
        <ele>806</ele>
        <time>2014-01-12T10:32:44Z</time>
      </trkpt>
      <trkpt lat="45.6174" lon="4.57947">
        <ele>807</ele>
        <time>2014-01-12T10:32:47Z</time>
      </trkpt>
      <trkpt lat="45.61743" lon="4.57951">
        <ele>808</ele>
        <time>2014-01-12T10:32:51Z</time>
      </trkpt>
      <trkpt lat="45.61746" lon="4.57956">
        <ele>808</ele>
        <time>2014-01-12T10:32:55Z</time>
      </trkpt>
      <trkpt lat="45.61747" lon="4.5796">
        <ele>808</ele>
        <time>2014-01-12T10:32:58Z</time>
      </trkpt>
      <trkpt lat="45.61749" lon="4.57963">
        <ele>808</ele>
        <time>2014-01-12T10:33:01Z</time>
      </trkpt>
      <trkpt lat="45.61751" lon="4.57968">
        <ele>808</ele>
        <time>2014-01-12T10:33:04Z</time>
      </trkpt>
      <trkpt lat="45.61754" lon="4.57974">
        <ele>808</ele>
        <time>2014-01-12T10:33:07Z</time>
      </trkpt>
      <trkpt lat="45.61759" lon="4.57982">
        <ele>808</ele>
        <time>2014-01-12T10:33:10Z</time>
      </trkpt>
      <trkpt lat="45.61763" lon="4.57989">
        <ele>808</ele>
        <time>2014-01-12T10:33:13Z</time>
      </trkpt>
      <trkpt lat="45.61768" lon="4.57995">
        <ele>808</ele>
        <time>2014-01-12T10:33:17Z</time>
      </trkpt>
      <trkpt lat="45.61771" lon="4.57999">
        <ele>808</ele>
        <time>2014-01-12T10:33:20Z</time>
      </trkpt>
      <trkpt lat="45.61773" lon="4.58003">
        <ele>808</ele>
        <time>2014-01-12T10:33:23Z</time>
      </trkpt>
      <trkpt lat="45.61776" lon="4.58008">
        <ele>808</ele>
        <time>2014-01-12T10:33:26Z</time>
      </trkpt>
      <trkpt lat="45.61778" lon="4.58012">
        <ele>808</ele>
        <time>2014-01-12T10:33:29Z</time>
      </trkpt>
      <trkpt lat="45.61781" lon="4.58017">
        <ele>808</ele>
        <time>2014-01-12T10:33:33Z</time>
      </trkpt>
      <trkpt lat="45.61786" lon="4.58022">
        <ele>809</ele>
        <time>2014-01-12T10:33:36Z</time>
      </trkpt>
      <trkpt lat="45.61789" lon="4.58026">
        <ele>811</ele>
        <time>2014-01-12T10:33:40Z</time>
      </trkpt>
      <trkpt lat="45.61792" lon="4.58028">
        <ele>811</ele>
        <time>2014-01-12T10:33:43Z</time>
      </trkpt>
      <trkpt lat="45.61797" lon="4.58029">
        <ele>811</ele>
        <time>2014-01-12T10:33:47Z</time>
      </trkpt>
      <trkpt lat="45.61802" lon="4.58031">
        <ele>811</ele>
        <time>2014-01-12T10:33:50Z</time>
      </trkpt>
      <trkpt lat="45.61805" lon="4.58031">
        <ele>811</ele>
        <time>2014-01-12T10:33:53Z</time>
      </trkpt>
      <trkpt lat="45.6181" lon="4.58036">
        <ele>811</ele>
        <time>2014-01-12T10:33:57Z</time>
      </trkpt>
      <trkpt lat="45.61813" lon="4.58039">
        <ele>811</ele>
        <time>2014-01-12T10:34:00Z</time>
      </trkpt>
      <trkpt lat="45.61816" lon="4.58043">
        <ele>811</ele>
        <time>2014-01-12T10:34:03Z</time>
      </trkpt>
      <trkpt lat="45.61819" lon="4.58049">
        <ele>811</ele>
        <time>2014-01-12T10:34:06Z</time>
      </trkpt>
      <trkpt lat="45.61823" lon="4.58056">
        <ele>811</ele>
        <time>2014-01-12T10:34:09Z</time>
      </trkpt>
      <trkpt lat="45.61828" lon="4.58061">
        <ele>811</ele>
        <time>2014-01-12T10:34:12Z</time>
      </trkpt>
      <trkpt lat="45.61835" lon="4.58064">
        <ele>811</ele>
        <time>2014-01-12T10:34:15Z</time>
      </trkpt>
      <trkpt lat="45.61842" lon="4.58067">
        <ele>811</ele>
        <time>2014-01-12T10:34:18Z</time>
      </trkpt>
      <trkpt lat="45.61848" lon="4.58071">
        <ele>813</ele>
        <time>2014-01-12T10:34:21Z</time>
      </trkpt>
      <trkpt lat="45.61853" lon="4.58075">
        <ele>814</ele>
        <time>2014-01-12T10:34:24Z</time>
      </trkpt>
      <trkpt lat="45.61861" lon="4.58079">
        <ele>815</ele>
        <time>2014-01-12T10:34:27Z</time>
      </trkpt>
      <trkpt lat="45.61868" lon="4.58082">
        <ele>816</ele>
        <time>2014-01-12T10:34:30Z</time>
      </trkpt>
      <trkpt lat="45.61874" lon="4.58085">
        <ele>817</ele>
        <time>2014-01-12T10:34:33Z</time>
      </trkpt>
      <trkpt lat="45.61882" lon="4.58086">
        <ele>818</ele>
        <time>2014-01-12T10:34:36Z</time>
      </trkpt>
      <trkpt lat="45.6189" lon="4.58086">
        <ele>820</ele>
        <time>2014-01-12T10:34:39Z</time>
      </trkpt>
      <trkpt lat="45.61895" lon="4.58083">
        <ele>821</ele>
        <time>2014-01-12T10:34:42Z</time>
      </trkpt>
      <trkpt lat="45.61898" lon="4.5808">
        <ele>823</ele>
        <time>2014-01-12T10:34:45Z</time>
      </trkpt>
      <trkpt lat="45.61902" lon="4.58078">
        <ele>824</ele>
        <time>2014-01-12T10:34:49Z</time>
      </trkpt>
      <trkpt lat="45.61905" lon="4.58073">
        <ele>825</ele>
        <time>2014-01-12T10:34:53Z</time>
      </trkpt>
      <trkpt lat="45.61908" lon="4.58069">
        <ele>826</ele>
        <time>2014-01-12T10:34:56Z</time>
      </trkpt>
      <trkpt lat="45.6191" lon="4.58065">
        <ele>827</ele>
        <time>2014-01-12T10:34:59Z</time>
      </trkpt>
      <trkpt lat="45.61913" lon="4.58061">
        <ele>828</ele>
        <time>2014-01-12T10:35:02Z</time>
      </trkpt>
      <trkpt lat="45.61916" lon="4.58057">
        <ele>828</ele>
        <time>2014-01-12T10:35:05Z</time>
      </trkpt>
      <trkpt lat="45.61919" lon="4.58052">
        <ele>828</ele>
        <time>2014-01-12T10:35:08Z</time>
      </trkpt>
      <trkpt lat="45.61922" lon="4.58048">
        <ele>829</ele>
        <time>2014-01-12T10:35:11Z</time>
      </trkpt>
      <trkpt lat="45.61925" lon="4.58043">
        <ele>829</ele>
        <time>2014-01-12T10:35:15Z</time>
      </trkpt>
      <trkpt lat="45.61929" lon="4.58038">
        <ele>829</ele>
        <time>2014-01-12T10:35:19Z</time>
      </trkpt>
      <trkpt lat="45.61932" lon="4.58034">
        <ele>830</ele>
        <time>2014-01-12T10:35:22Z</time>
      </trkpt>
      <trkpt lat="45.61934" lon="4.5803">
        <ele>831</ele>
        <time>2014-01-12T10:35:25Z</time>
      </trkpt>
      <trkpt lat="45.61937" lon="4.58027">
        <ele>831</ele>
        <time>2014-01-12T10:35:28Z</time>
      </trkpt>
      <trkpt lat="45.6194" lon="4.58023">
        <ele>831</ele>
        <time>2014-01-12T10:35:31Z</time>
      </trkpt>
      <trkpt lat="45.61943" lon="4.5802">
        <ele>831</ele>
        <time>2014-01-12T10:35:34Z</time>
      </trkpt>
      <trkpt lat="45.61946" lon="4.58015">
        <ele>831</ele>
        <time>2014-01-12T10:35:38Z</time>
      </trkpt>
      <trkpt lat="45.6195" lon="4.58013">
        <ele>831</ele>
        <time>2014-01-12T10:35:42Z</time>
      </trkpt>
      <trkpt lat="45.61954" lon="4.58009">
        <ele>831</ele>
        <time>2014-01-12T10:35:46Z</time>
      </trkpt>
      <trkpt lat="45.61957" lon="4.58006">
        <ele>831</ele>
        <time>2014-01-12T10:35:50Z</time>
      </trkpt>
      <trkpt lat="45.61961" lon="4.58003">
        <ele>831</ele>
        <time>2014-01-12T10:35:53Z</time>
      </trkpt>
      <trkpt lat="45.61968" lon="4.57999">
        <ele>831</ele>
        <time>2014-01-12T10:35:56Z</time>
      </trkpt>
      <trkpt lat="45.61975" lon="4.57996">
        <ele>831</ele>
        <time>2014-01-12T10:35:59Z</time>
      </trkpt>
      <trkpt lat="45.61982" lon="4.57994">
        <ele>831</ele>
        <time>2014-01-12T10:36:02Z</time>
      </trkpt>
      <trkpt lat="45.6199" lon="4.57991">
        <ele>831</ele>
        <time>2014-01-12T10:36:05Z</time>
      </trkpt>
      <trkpt lat="45.61997" lon="4.57986">
        <ele>831</ele>
        <time>2014-01-12T10:36:08Z</time>
      </trkpt>
      <trkpt lat="45.62003" lon="4.5798">
        <ele>831</ele>
        <time>2014-01-12T10:36:11Z</time>
      </trkpt>
      <trkpt lat="45.62009" lon="4.57973">
        <ele>831</ele>
        <time>2014-01-12T10:36:14Z</time>
      </trkpt>
      <trkpt lat="45.62016" lon="4.57967">
        <ele>831</ele>
        <time>2014-01-12T10:36:17Z</time>
      </trkpt>
      <trkpt lat="45.62022" lon="4.57962">
        <ele>831</ele>
        <time>2014-01-12T10:36:20Z</time>
      </trkpt>
      <trkpt lat="45.62028" lon="4.57958">
        <ele>831</ele>
        <time>2014-01-12T10:36:23Z</time>
      </trkpt>
      <trkpt lat="45.62035" lon="4.57952">
        <ele>831</ele>
        <time>2014-01-12T10:36:26Z</time>
      </trkpt>
      <trkpt lat="45.62041" lon="4.57946">
        <ele>831</ele>
        <time>2014-01-12T10:36:29Z</time>
      </trkpt>
      <trkpt lat="45.62045" lon="4.57938">
        <ele>831</ele>
        <time>2014-01-12T10:36:32Z</time>
      </trkpt>
      <trkpt lat="45.62049" lon="4.57931">
        <ele>831</ele>
        <time>2014-01-12T10:36:35Z</time>
      </trkpt>
      <trkpt lat="45.62054" lon="4.57924">
        <ele>831</ele>
        <time>2014-01-12T10:36:38Z</time>
      </trkpt>
      <trkpt lat="45.62058" lon="4.57915">
        <ele>830</ele>
        <time>2014-01-12T10:36:41Z</time>
      </trkpt>
      <trkpt lat="45.62061" lon="4.57908">
        <ele>829</ele>
        <time>2014-01-12T10:36:44Z</time>
      </trkpt>
      <trkpt lat="45.62065" lon="4.579">
        <ele>828</ele>
        <time>2014-01-12T10:36:47Z</time>
      </trkpt>
      <trkpt lat="45.62068" lon="4.57893">
        <ele>827</ele>
        <time>2014-01-12T10:36:50Z</time>
      </trkpt>
      <trkpt lat="45.62073" lon="4.57886">
        <ele>826</ele>
        <time>2014-01-12T10:36:53Z</time>
      </trkpt>
      <trkpt lat="45.62077" lon="4.57879">
        <ele>824</ele>
        <time>2014-01-12T10:36:56Z</time>
      </trkpt>
      <trkpt lat="45.62082" lon="4.57872">
        <ele>823</ele>
        <time>2014-01-12T10:36:59Z</time>
      </trkpt>
      <trkpt lat="45.62087" lon="4.57868">
        <ele>823</ele>
        <time>2014-01-12T10:37:02Z</time>
      </trkpt>
      <trkpt lat="45.62093" lon="4.57869">
        <ele>822</ele>
        <time>2014-01-12T10:37:05Z</time>
      </trkpt>
      <trkpt lat="45.62096" lon="4.57869">
        <ele>821</ele>
        <time>2014-01-12T10:37:08Z</time>
      </trkpt>
      <trkpt lat="45.621" lon="4.57872">
        <ele>820</ele>
        <time>2014-01-12T10:37:11Z</time>
      </trkpt>
      <trkpt lat="45.62106" lon="4.57874">
        <ele>819</ele>
        <time>2014-01-12T10:37:14Z</time>
      </trkpt>
      <trkpt lat="45.62114" lon="4.57878">
        <ele>819</ele>
        <time>2014-01-12T10:37:17Z</time>
      </trkpt>
      <trkpt lat="45.6212" lon="4.57879">
        <ele>819</ele>
        <time>2014-01-12T10:37:20Z</time>
      </trkpt>
      <trkpt lat="45.62129" lon="4.57878">
        <ele>819</ele>
        <time>2014-01-12T10:37:23Z</time>
      </trkpt>
      <trkpt lat="45.62134" lon="4.57874">
        <ele>819</ele>
        <time>2014-01-12T10:37:26Z</time>
      </trkpt>
      <trkpt lat="45.6214" lon="4.57867">
        <ele>819</ele>
        <time>2014-01-12T10:37:29Z</time>
      </trkpt>
      <trkpt lat="45.62145" lon="4.57861">
        <ele>819</ele>
        <time>2014-01-12T10:37:32Z</time>
      </trkpt>
      <trkpt lat="45.62149" lon="4.57857">
        <ele>819</ele>
        <time>2014-01-12T10:37:35Z</time>
      </trkpt>
      <trkpt lat="45.62154" lon="4.57851">
        <ele>819</ele>
        <time>2014-01-12T10:37:38Z</time>
      </trkpt>
      <trkpt lat="45.62159" lon="4.57846">
        <ele>819</ele>
        <time>2014-01-12T10:37:41Z</time>
      </trkpt>
      <trkpt lat="45.62162" lon="4.57843">
        <ele>819</ele>
        <time>2014-01-12T10:37:44Z</time>
      </trkpt>
      <trkpt lat="45.62166" lon="4.5784">
        <ele>819</ele>
        <time>2014-01-12T10:37:47Z</time>
      </trkpt>
      <trkpt lat="45.62171" lon="4.57834">
        <ele>819</ele>
        <time>2014-01-12T10:37:50Z</time>
      </trkpt>
      <trkpt lat="45.62175" lon="4.57829">
        <ele>817</ele>
        <time>2014-01-12T10:37:53Z</time>
      </trkpt>
      <trkpt lat="45.62179" lon="4.57824">
        <ele>817</ele>
        <time>2014-01-12T10:37:56Z</time>
      </trkpt>
      <trkpt lat="45.62183" lon="4.57819">
        <ele>816</ele>
        <time>2014-01-12T10:37:59Z</time>
      </trkpt>
      <trkpt lat="45.62188" lon="4.57814">
        <ele>814</ele>
        <time>2014-01-12T10:38:02Z</time>
      </trkpt>
      <trkpt lat="45.62191" lon="4.57807">
        <ele>813</ele>
        <time>2014-01-12T10:38:05Z</time>
      </trkpt>
      <trkpt lat="45.62193" lon="4.57802">
        <ele>811</ele>
        <time>2014-01-12T10:38:08Z</time>
      </trkpt>
      <trkpt lat="45.62199" lon="4.57797">
        <ele>810</ele>
        <time>2014-01-12T10:38:11Z</time>
      </trkpt>
      <trkpt lat="45.62205" lon="4.57793">
        <ele>809</ele>
        <time>2014-01-12T10:38:14Z</time>
      </trkpt>
      <trkpt lat="45.62211" lon="4.57787">
        <ele>808</ele>
        <time>2014-01-12T10:38:18Z</time>
      </trkpt>
      <trkpt lat="45.62218" lon="4.57779">
        <ele>807</ele>
        <time>2014-01-12T10:38:22Z</time>
      </trkpt>
      <trkpt lat="45.62225" lon="4.57773">
        <ele>806</ele>
        <time>2014-01-12T10:38:26Z</time>
      </trkpt>
      <trkpt lat="45.6223" lon="4.57768">
        <ele>805</ele>
        <time>2014-01-12T10:38:29Z</time>
      </trkpt>
      <trkpt lat="45.62235" lon="4.57764">
        <ele>804</ele>
        <time>2014-01-12T10:38:32Z</time>
      </trkpt>
      <trkpt lat="45.62239" lon="4.57762">
        <ele>803</ele>
        <time>2014-01-12T10:38:35Z</time>
      </trkpt>
      <trkpt lat="45.62244" lon="4.57758">
        <ele>802</ele>
        <time>2014-01-12T10:38:38Z</time>
      </trkpt>
      <trkpt lat="45.62251" lon="4.5775">
        <ele>801</ele>
        <time>2014-01-12T10:38:42Z</time>
      </trkpt>
      <trkpt lat="45.62257" lon="4.57745">
        <ele>800</ele>
        <time>2014-01-12T10:38:45Z</time>
      </trkpt>
      <trkpt lat="45.62263" lon="4.5774">
        <ele>799</ele>
        <time>2014-01-12T10:38:48Z</time>
      </trkpt>
      <trkpt lat="45.6227" lon="4.57736">
        <ele>797</ele>
        <time>2014-01-12T10:38:51Z</time>
      </trkpt>
      <trkpt lat="45.62279" lon="4.57732">
        <ele>795</ele>
        <time>2014-01-12T10:38:55Z</time>
      </trkpt>
      <trkpt lat="45.62284" lon="4.57728">
        <ele>793</ele>
        <time>2014-01-12T10:38:58Z</time>
      </trkpt>
      <trkpt lat="45.6229" lon="4.57725">
        <ele>791</ele>
        <time>2014-01-12T10:39:01Z</time>
      </trkpt>
      <trkpt lat="45.62297" lon="4.57719">
        <ele>789</ele>
        <time>2014-01-12T10:39:05Z</time>
      </trkpt>
      <trkpt lat="45.62306" lon="4.57713">
        <ele>787</ele>
        <time>2014-01-12T10:39:09Z</time>
      </trkpt>
      <trkpt lat="45.62313" lon="4.5771">
        <ele>786</ele>
        <time>2014-01-12T10:39:12Z</time>
      </trkpt>
      <trkpt lat="45.62319" lon="4.57707">
        <ele>784</ele>
        <time>2014-01-12T10:39:15Z</time>
      </trkpt>
      <trkpt lat="45.62323" lon="4.57704">
        <ele>783</ele>
        <time>2014-01-12T10:39:18Z</time>
      </trkpt>
      <trkpt lat="45.62329" lon="4.57699">
        <ele>782</ele>
        <time>2014-01-12T10:39:22Z</time>
      </trkpt>
      <trkpt lat="45.62338" lon="4.57693">
        <ele>780</ele>
        <time>2014-01-12T10:39:26Z</time>
      </trkpt>
      <trkpt lat="45.62344" lon="4.57687">
        <ele>779</ele>
        <time>2014-01-12T10:39:29Z</time>
      </trkpt>
      <trkpt lat="45.6235" lon="4.57683">
        <ele>778</ele>
        <time>2014-01-12T10:39:32Z</time>
      </trkpt>
      <trkpt lat="45.62359" lon="4.57676">
        <ele>776</ele>
        <time>2014-01-12T10:39:36Z</time>
      </trkpt>
      <trkpt lat="45.62365" lon="4.5767">
        <ele>775</ele>
        <time>2014-01-12T10:39:39Z</time>
      </trkpt>
      <trkpt lat="45.62374" lon="4.57665">
        <ele>774</ele>
        <time>2014-01-12T10:39:43Z</time>
      </trkpt>
      <trkpt lat="45.62381" lon="4.57661">
        <ele>772</ele>
        <time>2014-01-12T10:39:46Z</time>
      </trkpt>
      <trkpt lat="45.62389" lon="4.57653">
        <ele>770</ele>
        <time>2014-01-12T10:39:50Z</time>
      </trkpt>
      <trkpt lat="45.62397" lon="4.57646">
        <ele>769</ele>
        <time>2014-01-12T10:39:54Z</time>
      </trkpt>
      <trkpt lat="45.62406" lon="4.57637">
        <ele>768</ele>
        <time>2014-01-12T10:39:58Z</time>
      </trkpt>
      <trkpt lat="45.62415" lon="4.57629">
        <ele>767</ele>
        <time>2014-01-12T10:40:02Z</time>
      </trkpt>
      <trkpt lat="45.62422" lon="4.57624">
        <ele>765</ele>
        <time>2014-01-12T10:40:05Z</time>
      </trkpt>
      <trkpt lat="45.62431" lon="4.57617">
        <ele>764</ele>
        <time>2014-01-12T10:40:09Z</time>
      </trkpt>
      <trkpt lat="45.62438" lon="4.57612">
        <ele>763</ele>
        <time>2014-01-12T10:40:12Z</time>
      </trkpt>
      <trkpt lat="45.62445" lon="4.57611">
        <ele>762</ele>
        <time>2014-01-12T10:40:15Z</time>
      </trkpt>
      <trkpt lat="45.62451" lon="4.57613">
        <ele>761</ele>
        <time>2014-01-12T10:40:18Z</time>
      </trkpt>
      <trkpt lat="45.62456" lon="4.57618">
        <ele>760</ele>
        <time>2014-01-12T10:40:21Z</time>
      </trkpt>
      <trkpt lat="45.62462" lon="4.57621">
        <ele>759</ele>
        <time>2014-01-12T10:40:25Z</time>
      </trkpt>
      <trkpt lat="45.62467" lon="4.5762">
        <ele>758</ele>
        <time>2014-01-12T10:40:28Z</time>
      </trkpt>
      <trkpt lat="45.62473" lon="4.57616">
        <ele>757</ele>
        <time>2014-01-12T10:40:31Z</time>
      </trkpt>
      <trkpt lat="45.62481" lon="4.57611">
        <ele>756</ele>
        <time>2014-01-12T10:40:34Z</time>
      </trkpt>
      <trkpt lat="45.62487" lon="4.57607">
        <ele>756</ele>
        <time>2014-01-12T10:40:37Z</time>
      </trkpt>
      <trkpt lat="45.62496" lon="4.57602">
        <ele>756</ele>
        <time>2014-01-12T10:40:41Z</time>
      </trkpt>
      <trkpt lat="45.62502" lon="4.57598">
        <ele>756</ele>
        <time>2014-01-12T10:40:44Z</time>
      </trkpt>
      <trkpt lat="45.62507" lon="4.57595">
        <ele>756</ele>
        <time>2014-01-12T10:40:47Z</time>
      </trkpt>
      <trkpt lat="45.62514" lon="4.57591">
        <ele>756</ele>
        <time>2014-01-12T10:40:50Z</time>
      </trkpt>
      <trkpt lat="45.62521" lon="4.57589">
        <ele>756</ele>
        <time>2014-01-12T10:40:53Z</time>
      </trkpt>
      <trkpt lat="45.62529" lon="4.57585">
        <ele>756</ele>
        <time>2014-01-12T10:40:57Z</time>
      </trkpt>
      <trkpt lat="45.62535" lon="4.57583">
        <ele>756</ele>
        <time>2014-01-12T10:41:00Z</time>
      </trkpt>
      <trkpt lat="45.62542" lon="4.57582">
        <ele>756</ele>
        <time>2014-01-12T10:41:03Z</time>
      </trkpt>
      <trkpt lat="45.62552" lon="4.57581">
        <ele>756</ele>
        <time>2014-01-12T10:41:07Z</time>
      </trkpt>
      <trkpt lat="45.62559" lon="4.57579">
        <ele>756</ele>
        <time>2014-01-12T10:41:10Z</time>
      </trkpt>
      <trkpt lat="45.62566" lon="4.57576">
        <ele>756</ele>
        <time>2014-01-12T10:41:13Z</time>
      </trkpt>
      <trkpt lat="45.62574" lon="4.5757">
        <ele>756</ele>
        <time>2014-01-12T10:41:17Z</time>
      </trkpt>
      <trkpt lat="45.62579" lon="4.57564">
        <ele>756</ele>
        <time>2014-01-12T10:41:20Z</time>
      </trkpt>
      <trkpt lat="45.62583" lon="4.57557">
        <ele>756</ele>
        <time>2014-01-12T10:41:23Z</time>
      </trkpt>
      <trkpt lat="45.62586" lon="4.57548">
        <ele>755</ele>
        <time>2014-01-12T10:41:27Z</time>
      </trkpt>
      <trkpt lat="45.6259" lon="4.57537">
        <ele>754</ele>
        <time>2014-01-12T10:41:31Z</time>
      </trkpt>
      <trkpt lat="45.62592" lon="4.57529">
        <ele>753</ele>
        <time>2014-01-12T10:41:34Z</time>
      </trkpt>
      <trkpt lat="45.62595" lon="4.5752">
        <ele>753</ele>
        <time>2014-01-12T10:41:37Z</time>
      </trkpt>
      <trkpt lat="45.62597" lon="4.57508">
        <ele>752</ele>
        <time>2014-01-12T10:41:41Z</time>
      </trkpt>
      <trkpt lat="45.62598" lon="4.57499">
        <ele>752</ele>
        <time>2014-01-12T10:41:44Z</time>
      </trkpt>
      <trkpt lat="45.62601" lon="4.5749">
        <ele>752</ele>
        <time>2014-01-12T10:41:47Z</time>
      </trkpt>
      <trkpt lat="45.62604" lon="4.57481">
        <ele>752</ele>
        <time>2014-01-12T10:41:50Z</time>
      </trkpt>
      <trkpt lat="45.62606" lon="4.57473">
        <ele>752</ele>
        <time>2014-01-12T10:41:53Z</time>
      </trkpt>
      <trkpt lat="45.62608" lon="4.57464">
        <ele>752</ele>
        <time>2014-01-12T10:41:56Z</time>
      </trkpt>
      <trkpt lat="45.62609" lon="4.57454">
        <ele>752</ele>
        <time>2014-01-12T10:41:59Z</time>
      </trkpt>
      <trkpt lat="45.6261" lon="4.57444">
        <ele>752</ele>
        <time>2014-01-12T10:42:02Z</time>
      </trkpt>
      <trkpt lat="45.62611" lon="4.57435">
        <ele>752</ele>
        <time>2014-01-12T10:42:05Z</time>
      </trkpt>
      <trkpt lat="45.62614" lon="4.57422">
        <ele>752</ele>
        <time>2014-01-12T10:42:09Z</time>
      </trkpt>
      <trkpt lat="45.62616" lon="4.57412">
        <ele>752</ele>
        <time>2014-01-12T10:42:12Z</time>
      </trkpt>
      <trkpt lat="45.62617" lon="4.57403">
        <ele>752</ele>
        <time>2014-01-12T10:42:15Z</time>
      </trkpt>
      <trkpt lat="45.62618" lon="4.57392">
        <ele>752</ele>
        <time>2014-01-12T10:42:18Z</time>
      </trkpt>
      <trkpt lat="45.62618" lon="4.57382">
        <ele>752</ele>
        <time>2014-01-12T10:42:21Z</time>
      </trkpt>
      <trkpt lat="45.62617" lon="4.57371">
        <ele>752</ele>
        <time>2014-01-12T10:42:24Z</time>
      </trkpt>
      <trkpt lat="45.62618" lon="4.57361">
        <ele>752</ele>
        <time>2014-01-12T10:42:27Z</time>
      </trkpt>
      <trkpt lat="45.62618" lon="4.57351">
        <ele>752</ele>
        <time>2014-01-12T10:42:30Z</time>
      </trkpt>
      <trkpt lat="45.62618" lon="4.5734">
        <ele>752</ele>
        <time>2014-01-12T10:42:33Z</time>
      </trkpt>
      <trkpt lat="45.62619" lon="4.57329">
        <ele>752</ele>
        <time>2014-01-12T10:42:36Z</time>
      </trkpt>
      <trkpt lat="45.62619" lon="4.57319">
        <ele>752</ele>
        <time>2014-01-12T10:42:39Z</time>
      </trkpt>
      <trkpt lat="45.6262" lon="4.57308">
        <ele>752</ele>
        <time>2014-01-12T10:42:42Z</time>
      </trkpt>
      <trkpt lat="45.62621" lon="4.57298">
        <ele>752</ele>
        <time>2014-01-12T10:42:45Z</time>
      </trkpt>
      <trkpt lat="45.62622" lon="4.57288">
        <ele>752</ele>
        <time>2014-01-12T10:42:48Z</time>
      </trkpt>
      <trkpt lat="45.62623" lon="4.57277">
        <ele>752</ele>
        <time>2014-01-12T10:42:51Z</time>
      </trkpt>
      <trkpt lat="45.62624" lon="4.57267">
        <ele>752</ele>
        <time>2014-01-12T10:42:54Z</time>
      </trkpt>
      <trkpt lat="45.62624" lon="4.57257">
        <ele>752</ele>
        <time>2014-01-12T10:42:57Z</time>
      </trkpt>
      <trkpt lat="45.62624" lon="4.57246">
        <ele>752</ele>
        <time>2014-01-12T10:43:00Z</time>
      </trkpt>
      <trkpt lat="45.62623" lon="4.57236">
        <ele>752</ele>
        <time>2014-01-12T10:43:03Z</time>
      </trkpt>
      <trkpt lat="45.62622" lon="4.57226">
        <ele>752</ele>
        <time>2014-01-12T10:43:06Z</time>
      </trkpt>
      <trkpt lat="45.62622" lon="4.57211">
        <ele>752</ele>
        <time>2014-01-12T10:43:10Z</time>
      </trkpt>
      <trkpt lat="45.62623" lon="4.57198">
        <ele>752</ele>
        <time>2014-01-12T10:43:14Z</time>
      </trkpt>
      <trkpt lat="45.62624" lon="4.57188">
        <ele>752</ele>
        <time>2014-01-12T10:43:17Z</time>
      </trkpt>
      <trkpt lat="45.62625" lon="4.57178">
        <ele>752</ele>
        <time>2014-01-12T10:43:20Z</time>
      </trkpt>
      <trkpt lat="45.62626" lon="4.57167">
        <ele>752</ele>
        <time>2014-01-12T10:43:23Z</time>
      </trkpt>
      <trkpt lat="45.62627" lon="4.57157">
        <ele>752</ele>
        <time>2014-01-12T10:43:26Z</time>
      </trkpt>
      <trkpt lat="45.6263" lon="4.57148">
        <ele>752</ele>
        <time>2014-01-12T10:43:29Z</time>
      </trkpt>
      <trkpt lat="45.62634" lon="4.57138">
        <ele>751</ele>
        <time>2014-01-12T10:43:32Z</time>
      </trkpt>
      <trkpt lat="45.62637" lon="4.57128">
        <ele>750</ele>
        <time>2014-01-12T10:43:35Z</time>
      </trkpt>
      <trkpt lat="45.6264" lon="4.57117">
        <ele>749</ele>
        <time>2014-01-12T10:43:38Z</time>
      </trkpt>
      <trkpt lat="45.62643" lon="4.57102">
        <ele>748</ele>
        <time>2014-01-12T10:43:42Z</time>
      </trkpt>
      <trkpt lat="45.62646" lon="4.57087">
        <ele>747</ele>
        <time>2014-01-12T10:43:46Z</time>
      </trkpt>
      <trkpt lat="45.62649" lon="4.57077">
        <ele>747</ele>
        <time>2014-01-12T10:43:49Z</time>
      </trkpt>
      <trkpt lat="45.62651" lon="4.57062">
        <ele>746</ele>
        <time>2014-01-12T10:43:53Z</time>
      </trkpt>
      <trkpt lat="45.62654" lon="4.57046">
        <ele>745</ele>
        <time>2014-01-12T10:43:57Z</time>
      </trkpt>
      <trkpt lat="45.62657" lon="4.57035">
        <ele>745</ele>
        <time>2014-01-12T10:44:00Z</time>
      </trkpt>
      <trkpt lat="45.62659" lon="4.57024">
        <ele>745</ele>
        <time>2014-01-12T10:44:03Z</time>
      </trkpt>
      <trkpt lat="45.62661" lon="4.5701">
        <ele>745</ele>
        <time>2014-01-12T10:44:07Z</time>
      </trkpt>
      <trkpt lat="45.62664" lon="4.57">
        <ele>745</ele>
        <time>2014-01-12T10:44:10Z</time>
      </trkpt>
      <trkpt lat="45.62666" lon="4.5699">
        <ele>745</ele>
        <time>2014-01-12T10:44:13Z</time>
      </trkpt>
      <trkpt lat="45.62669" lon="4.56975">
        <ele>744</ele>
        <time>2014-01-12T10:44:17Z</time>
      </trkpt>
      <trkpt lat="45.62671" lon="4.56965">
        <ele>742</ele>
        <time>2014-01-12T10:44:20Z</time>
      </trkpt>
      <trkpt lat="45.62673" lon="4.56956">
        <ele>740</ele>
        <time>2014-01-12T10:44:23Z</time>
      </trkpt>
      <trkpt lat="45.62676" lon="4.56946">
        <ele>739</ele>
        <time>2014-01-12T10:44:26Z</time>
      </trkpt>
      <trkpt lat="45.62679" lon="4.56935">
        <ele>737</ele>
        <time>2014-01-12T10:44:29Z</time>
      </trkpt>
      <trkpt lat="45.62682" lon="4.56921">
        <ele>736</ele>
        <time>2014-01-12T10:44:33Z</time>
      </trkpt>
      <trkpt lat="45.62685" lon="4.56912">
        <ele>734</ele>
        <time>2014-01-12T10:44:36Z</time>
      </trkpt>
      <trkpt lat="45.62687" lon="4.56903">
        <ele>733</ele>
        <time>2014-01-12T10:44:39Z</time>
      </trkpt>
      <trkpt lat="45.62691" lon="4.56891">
        <ele>730</ele>
        <time>2014-01-12T10:44:43Z</time>
      </trkpt>
      <trkpt lat="45.62694" lon="4.56882">
        <ele>728</ele>
        <time>2014-01-12T10:44:46Z</time>
      </trkpt>
      <trkpt lat="45.62696" lon="4.56872">
        <ele>726</ele>
        <time>2014-01-12T10:44:49Z</time>
      </trkpt>
      <trkpt lat="45.62697" lon="4.56859">
        <ele>725</ele>
        <time>2014-01-12T10:44:52Z</time>
      </trkpt>
      <trkpt lat="45.627" lon="4.5685">
        <ele>725</ele>
        <time>2014-01-12T10:44:55Z</time>
      </trkpt>
      <trkpt lat="45.62702" lon="4.56841">
        <ele>724</ele>
        <time>2014-01-12T10:44:58Z</time>
      </trkpt>
      <trkpt lat="45.62706" lon="4.56827">
        <ele>723</ele>
        <time>2014-01-12T10:45:02Z</time>
      </trkpt>
      <trkpt lat="45.62708" lon="4.56818">
        <ele>722</ele>
        <time>2014-01-12T10:45:05Z</time>
      </trkpt>
      <trkpt lat="45.62711" lon="4.56805">
        <ele>721</ele>
        <time>2014-01-12T10:45:09Z</time>
      </trkpt>
      <trkpt lat="45.62714" lon="4.56798">
        <ele>721</ele>
        <time>2014-01-12T10:45:12Z</time>
      </trkpt>
      <trkpt lat="45.62717" lon="4.5679">
        <ele>721</ele>
        <time>2014-01-12T10:45:15Z</time>
      </trkpt>
      <trkpt lat="45.62721" lon="4.56776">
        <ele>721</ele>
        <time>2014-01-12T10:45:19Z</time>
      </trkpt>
      <trkpt lat="45.62724" lon="4.56766">
        <ele>723</ele>
        <time>2014-01-12T10:45:22Z</time>
      </trkpt>
      <trkpt lat="45.62728" lon="4.56755">
        <ele>726</ele>
        <time>2014-01-12T10:45:25Z</time>
      </trkpt>
      <trkpt lat="45.62731" lon="4.56745">
        <ele>727</ele>
        <time>2014-01-12T10:45:28Z</time>
      </trkpt>
      <trkpt lat="45.62735" lon="4.56734">
        <ele>728</ele>
        <time>2014-01-12T10:45:31Z</time>
      </trkpt>
      <trkpt lat="45.62738" lon="4.56723">
        <ele>728</ele>
        <time>2014-01-12T10:45:34Z</time>
      </trkpt>
      <trkpt lat="45.6274" lon="4.56713">
        <ele>728</ele>
        <time>2014-01-12T10:45:37Z</time>
      </trkpt>
      <trkpt lat="45.62742" lon="4.56703">
        <ele>728</ele>
        <time>2014-01-12T10:45:40Z</time>
      </trkpt>
      <trkpt lat="45.62743" lon="4.56691">
        <ele>728</ele>
        <time>2014-01-12T10:45:43Z</time>
      </trkpt>
      <trkpt lat="45.62742" lon="4.5668">
        <ele>728</ele>
        <time>2014-01-12T10:45:46Z</time>
      </trkpt>
      <trkpt lat="45.62742" lon="4.56665">
        <ele>728</ele>
        <time>2014-01-12T10:45:50Z</time>
      </trkpt>
      <trkpt lat="45.62741" lon="4.56653">
        <ele>728</ele>
        <time>2014-01-12T10:45:53Z</time>
      </trkpt>
      <trkpt lat="45.6274" lon="4.56641">
        <ele>728</ele>
        <time>2014-01-12T10:45:56Z</time>
      </trkpt>
      <trkpt lat="45.62739" lon="4.56629">
        <ele>728</ele>
        <time>2014-01-12T10:45:59Z</time>
      </trkpt>
      <trkpt lat="45.62738" lon="4.56618">
        <ele>728</ele>
        <time>2014-01-12T10:46:02Z</time>
      </trkpt>
      <trkpt lat="45.62736" lon="4.56607">
        <ele>728</ele>
        <time>2014-01-12T10:46:05Z</time>
      </trkpt>
      <trkpt lat="45.62734" lon="4.56595">
        <ele>728</ele>
        <time>2014-01-12T10:46:08Z</time>
      </trkpt>
      <trkpt lat="45.62731" lon="4.56583">
        <ele>728</ele>
        <time>2014-01-12T10:46:11Z</time>
      </trkpt>
      <trkpt lat="45.62727" lon="4.56567">
        <ele>728</ele>
        <time>2014-01-12T10:46:15Z</time>
      </trkpt>
      <trkpt lat="45.62724" lon="4.56555">
        <ele>728</ele>
        <time>2014-01-12T10:46:18Z</time>
      </trkpt>
      <trkpt lat="45.62722" lon="4.56544">
        <ele>728</ele>
        <time>2014-01-12T10:46:21Z</time>
      </trkpt>
      <trkpt lat="45.62721" lon="4.56528">
        <ele>728</ele>
        <time>2014-01-12T10:46:25Z</time>
      </trkpt>
      <trkpt lat="45.62722" lon="4.56517">
        <ele>728</ele>
        <time>2014-01-12T10:46:28Z</time>
      </trkpt>
      <trkpt lat="45.62723" lon="4.56506">
        <ele>728</ele>
        <time>2014-01-12T10:46:31Z</time>
      </trkpt>
      <trkpt lat="45.62726" lon="4.56492">
        <ele>727</ele>
        <time>2014-01-12T10:46:35Z</time>
      </trkpt>
      <trkpt lat="45.62729" lon="4.56482">
        <ele>727</ele>
        <time>2014-01-12T10:46:38Z</time>
      </trkpt>
      <trkpt lat="45.62732" lon="4.56471">
        <ele>727</ele>
        <time>2014-01-12T10:46:41Z</time>
      </trkpt>
      <trkpt lat="45.62735" lon="4.56458">
        <ele>727</ele>
        <time>2014-01-12T10:46:45Z</time>
      </trkpt>
      <trkpt lat="45.62737" lon="4.56448">
        <ele>727</ele>
        <time>2014-01-12T10:46:48Z</time>
      </trkpt>
      <trkpt lat="45.6274" lon="4.56439">
        <ele>727</ele>
        <time>2014-01-12T10:46:51Z</time>
      </trkpt>
      <trkpt lat="45.62746" lon="4.56428">
        <ele>727</ele>
        <time>2014-01-12T10:46:55Z</time>
      </trkpt>
      <trkpt lat="45.62753" lon="4.56424">
        <ele>727</ele>
        <time>2014-01-12T10:46:58Z</time>
      </trkpt>
      <trkpt lat="45.6276" lon="4.56419">
        <ele>727</ele>
        <time>2014-01-12T10:47:01Z</time>
      </trkpt>
      <trkpt lat="45.62766" lon="4.56414">
        <ele>727</ele>
        <time>2014-01-12T10:47:04Z</time>
      </trkpt>
      <trkpt lat="45.62773" lon="4.56408">
        <ele>727</ele>
        <time>2014-01-12T10:47:07Z</time>
      </trkpt>
      <trkpt lat="45.62783" lon="4.56403">
        <ele>727</ele>
        <time>2014-01-12T10:47:11Z</time>
      </trkpt>
      <trkpt lat="45.62789" lon="4.56397">
        <ele>727</ele>
        <time>2014-01-12T10:47:14Z</time>
      </trkpt>
      <trkpt lat="45.62794" lon="4.5639">
        <ele>727</ele>
        <time>2014-01-12T10:47:17Z</time>
      </trkpt>
      <trkpt lat="45.62799" lon="4.56377">
        <ele>726</ele>
        <time>2014-01-12T10:47:21Z</time>
      </trkpt>
      <trkpt lat="45.62803" lon="4.56366">
        <ele>725</ele>
        <time>2014-01-12T10:47:24Z</time>
      </trkpt>
      <trkpt lat="45.62807" lon="4.56356">
        <ele>725</ele>
        <time>2014-01-12T10:47:27Z</time>
      </trkpt>
      <trkpt lat="45.62813" lon="4.56343">
        <ele>724</ele>
        <time>2014-01-12T10:47:31Z</time>
      </trkpt>
      <trkpt lat="45.62818" lon="4.56334">
        <ele>724</ele>
        <time>2014-01-12T10:47:34Z</time>
      </trkpt>
      <trkpt lat="45.62824" lon="4.56325">
        <ele>724</ele>
        <time>2014-01-12T10:47:37Z</time>
      </trkpt>
      <trkpt lat="45.62831" lon="4.56319">
        <ele>724</ele>
        <time>2014-01-12T10:47:40Z</time>
      </trkpt>
      <trkpt lat="45.62836" lon="4.56311">
        <ele>724</ele>
        <time>2014-01-12T10:47:43Z</time>
      </trkpt>
      <trkpt lat="45.62843" lon="4.56304">
        <ele>724</ele>
        <time>2014-01-12T10:47:46Z</time>
      </trkpt>
      <trkpt lat="45.62849" lon="4.56298">
        <ele>724</ele>
        <time>2014-01-12T10:47:49Z</time>
      </trkpt>
      <trkpt lat="45.62856" lon="4.5629">
        <ele>724</ele>
        <time>2014-01-12T10:47:52Z</time>
      </trkpt>
      <trkpt lat="45.62864" lon="4.56281">
        <ele>724</ele>
        <time>2014-01-12T10:47:56Z</time>
      </trkpt>
      <trkpt lat="45.6287" lon="4.56274">
        <ele>724</ele>
        <time>2014-01-12T10:47:59Z</time>
      </trkpt>
      <trkpt lat="45.62875" lon="4.56267">
        <ele>724</ele>
        <time>2014-01-12T10:48:02Z</time>
      </trkpt>
      <trkpt lat="45.62885" lon="4.56261">
        <ele>724</ele>
        <time>2014-01-12T10:48:06Z</time>
      </trkpt>
      <trkpt lat="45.62892" lon="4.56258">
        <ele>724</ele>
        <time>2014-01-12T10:48:09Z</time>
      </trkpt>
      <trkpt lat="45.629" lon="4.56257">
        <ele>724</ele>
        <time>2014-01-12T10:48:12Z</time>
      </trkpt>
      <trkpt lat="45.62909" lon="4.56253">
        <ele>724</ele>
        <time>2014-01-12T10:48:16Z</time>
      </trkpt>
      <trkpt lat="45.62915" lon="4.56247">
        <ele>724</ele>
        <time>2014-01-12T10:48:19Z</time>
      </trkpt>
      <trkpt lat="45.62923" lon="4.56244">
        <ele>724</ele>
        <time>2014-01-12T10:48:22Z</time>
      </trkpt>
      <trkpt lat="45.62932" lon="4.56239">
        <ele>723</ele>
        <time>2014-01-12T10:48:26Z</time>
      </trkpt>
      <trkpt lat="45.62941" lon="4.5623">
        <ele>722</ele>
        <time>2014-01-12T10:48:30Z</time>
      </trkpt>
      <trkpt lat="45.62948" lon="4.56224">
        <ele>722</ele>
        <time>2014-01-12T10:48:33Z</time>
      </trkpt>
      <trkpt lat="45.62955" lon="4.56218">
        <ele>721</ele>
        <time>2014-01-12T10:48:36Z</time>
      </trkpt>
      <trkpt lat="45.62961" lon="4.56212">
        <ele>721</ele>
        <time>2014-01-12T10:48:39Z</time>
      </trkpt>
      <trkpt lat="45.62967" lon="4.56206">
        <ele>720</ele>
        <time>2014-01-12T10:48:42Z</time>
      </trkpt>
      <trkpt lat="45.62974" lon="4.56201">
        <ele>719</ele>
        <time>2014-01-12T10:48:45Z</time>
      </trkpt>
      <trkpt lat="45.6298" lon="4.56194">
        <ele>717</ele>
        <time>2014-01-12T10:48:48Z</time>
      </trkpt>
      <trkpt lat="45.62989" lon="4.56188">
        <ele>717</ele>
        <time>2014-01-12T10:48:52Z</time>
      </trkpt>
      <trkpt lat="45.62995" lon="4.56185">
        <ele>716</ele>
        <time>2014-01-12T10:48:55Z</time>
      </trkpt>
      <trkpt lat="45.63002" lon="4.56184">
        <ele>714</ele>
        <time>2014-01-12T10:48:58Z</time>
      </trkpt>
      <trkpt lat="45.63011" lon="4.56181">
        <ele>713</ele>
        <time>2014-01-12T10:49:01Z</time>
      </trkpt>
      <trkpt lat="45.63018" lon="4.56179">
        <ele>713</ele>
        <time>2014-01-12T10:49:04Z</time>
      </trkpt>
      <trkpt lat="45.63026" lon="4.56175">
        <ele>712</ele>
        <time>2014-01-12T10:49:07Z</time>
      </trkpt>
      <trkpt lat="45.63032" lon="4.56173">
        <ele>712</ele>
        <time>2014-01-12T10:49:10Z</time>
      </trkpt>
      <trkpt lat="45.63034" lon="4.56178">
        <ele>712</ele>
        <time>2014-01-12T10:49:13Z</time>
      </trkpt>
      <trkpt lat="45.63028" lon="4.56182">
        <ele>712</ele>
        <time>2014-01-12T10:49:16Z</time>
      </trkpt>
      <trkpt lat="45.63023" lon="4.56186">
        <ele>710</ele>
        <time>2014-01-12T10:49:19Z</time>
      </trkpt>
      <trkpt lat="45.63017" lon="4.56192">
        <ele>709</ele>
        <time>2014-01-12T10:49:22Z</time>
      </trkpt>
      <trkpt lat="45.63012" lon="4.56199">
        <ele>708</ele>
        <time>2014-01-12T10:49:25Z</time>
      </trkpt>
      <trkpt lat="45.63008" lon="4.56209">
        <ele>708</ele>
        <time>2014-01-12T10:49:28Z</time>
      </trkpt>
      <trkpt lat="45.63008" lon="4.56222">
        <ele>707</ele>
        <time>2014-01-12T10:49:32Z</time>
      </trkpt>
      <trkpt lat="45.63009" lon="4.56231">
        <ele>707</ele>
        <time>2014-01-12T10:49:35Z</time>
      </trkpt>
      <trkpt lat="45.63011" lon="4.5624">
        <ele>705</ele>
        <time>2014-01-12T10:49:38Z</time>
      </trkpt>
      <trkpt lat="45.63012" lon="4.5625">
        <ele>704</ele>
        <time>2014-01-12T10:49:41Z</time>
      </trkpt>
      <trkpt lat="45.63013" lon="4.5626">
        <ele>704</ele>
        <time>2014-01-12T10:49:44Z</time>
      </trkpt>
      <trkpt lat="45.63013" lon="4.5627">
        <ele>704</ele>
        <time>2014-01-12T10:49:47Z</time>
      </trkpt>
      <trkpt lat="45.6301" lon="4.56281">
        <ele>704</ele>
        <time>2014-01-12T10:49:51Z</time>
      </trkpt>
      <trkpt lat="45.63011" lon="4.56292">
        <ele>703</ele>
        <time>2014-01-12T10:49:54Z</time>
      </trkpt>
      <trkpt lat="45.6301" lon="4.56303">
        <ele>702</ele>
        <time>2014-01-12T10:49:57Z</time>
      </trkpt>
      <trkpt lat="45.63011" lon="4.56313">
        <ele>702</ele>
        <time>2014-01-12T10:50:00Z</time>
      </trkpt>
      <trkpt lat="45.63011" lon="4.56324">
        <ele>702</ele>
        <time>2014-01-12T10:50:03Z</time>
      </trkpt>
      <trkpt lat="45.63011" lon="4.56334">
        <ele>702</ele>
        <time>2014-01-12T10:50:06Z</time>
      </trkpt>
      <trkpt lat="45.63011" lon="4.56343">
        <ele>702</ele>
        <time>2014-01-12T10:50:09Z</time>
      </trkpt>
      <trkpt lat="45.6301" lon="4.56351">
        <ele>702</ele>
        <time>2014-01-12T10:50:12Z</time>
      </trkpt>
      <trkpt lat="45.63009" lon="4.56361">
        <ele>702</ele>
        <time>2014-01-12T10:50:15Z</time>
      </trkpt>
      <trkpt lat="45.63009" lon="4.5637">
        <ele>702</ele>
        <time>2014-01-12T10:50:18Z</time>
      </trkpt>
      <trkpt lat="45.6301" lon="4.56381">
        <ele>702</ele>
        <time>2014-01-12T10:50:21Z</time>
      </trkpt>
      <trkpt lat="45.63011" lon="4.56395">
        <ele>702</ele>
        <time>2014-01-12T10:50:24Z</time>
      </trkpt>
      <trkpt lat="45.6301" lon="4.56406">
        <ele>702</ele>
        <time>2014-01-12T10:50:27Z</time>
      </trkpt>
      <trkpt lat="45.63009" lon="4.56416">
        <ele>699</ele>
        <time>2014-01-12T10:50:30Z</time>
      </trkpt>
      <trkpt lat="45.63007" lon="4.56428">
        <ele>697</ele>
        <time>2014-01-12T10:50:33Z</time>
      </trkpt>
      <trkpt lat="45.63012" lon="4.56434">
        <ele>696</ele>
        <time>2014-01-12T10:50:36Z</time>
      </trkpt>
      <trkpt lat="45.63018" lon="4.56435">
        <ele>696</ele>
        <time>2014-01-12T10:50:39Z</time>
      </trkpt>
      <trkpt lat="45.63026" lon="4.56433">
        <ele>696</ele>
        <time>2014-01-12T10:50:42Z</time>
      </trkpt>
      <trkpt lat="45.63034" lon="4.56431">
        <ele>696</ele>
        <time>2014-01-12T10:50:45Z</time>
      </trkpt>
      <trkpt lat="45.63041" lon="4.5643">
        <ele>696</ele>
        <time>2014-01-12T10:50:48Z</time>
      </trkpt>
      <trkpt lat="45.63046" lon="4.5643">
        <ele>696</ele>
        <time>2014-01-12T10:50:52Z</time>
      </trkpt>
      <trkpt lat="45.63048" lon="4.56433">
        <ele>696</ele>
        <time>2014-01-12T10:50:55Z</time>
      </trkpt>
      <trkpt lat="45.63054" lon="4.56437">
        <ele>696</ele>
        <time>2014-01-12T10:50:58Z</time>
      </trkpt>
      <trkpt lat="45.63055" lon="4.56441">
        <ele>697</ele>
        <time>2014-01-12T10:51:01Z</time>
      </trkpt>
      <trkpt lat="45.63054" lon="4.56446">
        <ele>697</ele>
        <time>2014-01-12T10:51:04Z</time>
      </trkpt>
      <trkpt lat="45.63052" lon="4.56452">
        <ele>697</ele>
        <time>2014-01-12T10:51:08Z</time>
      </trkpt>
      <trkpt lat="45.63051" lon="4.56457">
        <ele>697</ele>
        <time>2014-01-12T10:51:11Z</time>
      </trkpt>
      <trkpt lat="45.63049" lon="4.56462">
        <ele>697</ele>
        <time>2014-01-12T10:51:14Z</time>
      </trkpt>
      <trkpt lat="45.63047" lon="4.56466">
        <ele>697</ele>
        <time>2014-01-12T10:51:17Z</time>
      </trkpt>
      <trkpt lat="45.63046" lon="4.56471">
        <ele>697</ele>
        <time>2014-01-12T10:51:20Z</time>
      </trkpt>
      <trkpt lat="45.63044" lon="4.56475">
        <ele>697</ele>
        <time>2014-01-12T10:51:23Z</time>
      </trkpt>
      <trkpt lat="45.63042" lon="4.56479">
        <ele>698</ele>
        <time>2014-01-12T10:51:26Z</time>
      </trkpt>
      <trkpt lat="45.6304" lon="4.56483">
        <ele>699</ele>
        <time>2014-01-12T10:51:29Z</time>
      </trkpt>
      <trkpt lat="45.63038" lon="4.5649">
        <ele>700</ele>
        <time>2014-01-12T10:51:32Z</time>
      </trkpt>
      <trkpt lat="45.63036" lon="4.56493">
        <ele>703</ele>
        <time>2014-01-12T10:51:36Z</time>
      </trkpt>
      <trkpt lat="45.63033" lon="4.56499">
        <ele>706</ele>
        <time>2014-01-12T10:51:39Z</time>
      </trkpt>
      <trkpt lat="45.63029" lon="4.56505">
        <ele>708</ele>
        <time>2014-01-12T10:51:43Z</time>
      </trkpt>
      <trkpt lat="45.63027" lon="4.56509">
        <ele>710</ele>
        <time>2014-01-12T10:51:46Z</time>
      </trkpt>
      <trkpt lat="45.63024" lon="4.56515">
        <ele>712</ele>
        <time>2014-01-12T10:51:49Z</time>
      </trkpt>
      <trkpt lat="45.63021" lon="4.56518">
        <ele>714</ele>
        <time>2014-01-12T10:51:52Z</time>
      </trkpt>
      <trkpt lat="45.63018" lon="4.56523">
        <ele>716</ele>
        <time>2014-01-12T10:51:56Z</time>
      </trkpt>
      <trkpt lat="45.63016" lon="4.56528">
        <ele>716</ele>
        <time>2014-01-12T10:51:59Z</time>
      </trkpt>
      <trkpt lat="45.63014" lon="4.56533">
        <ele>717</ele>
        <time>2014-01-12T10:52:02Z</time>
      </trkpt>
      <trkpt lat="45.63013" lon="4.56537">
        <ele>717</ele>
        <time>2014-01-12T10:52:05Z</time>
      </trkpt>
      <trkpt lat="45.63012" lon="4.56542">
        <ele>717</ele>
        <time>2014-01-12T10:52:08Z</time>
      </trkpt>
      <trkpt lat="45.63011" lon="4.56546">
        <ele>717</ele>
        <time>2014-01-12T10:52:11Z</time>
      </trkpt>
      <trkpt lat="45.6301" lon="4.56551">
        <ele>717</ele>
        <time>2014-01-12T10:52:14Z</time>
      </trkpt>
      <trkpt lat="45.63009" lon="4.56556">
        <ele>717</ele>
        <time>2014-01-12T10:52:17Z</time>
      </trkpt>
      <trkpt lat="45.63008" lon="4.56562">
        <ele>717</ele>
        <time>2014-01-12T10:52:20Z</time>
      </trkpt>
      <trkpt lat="45.63007" lon="4.56567">
        <ele>717</ele>
        <time>2014-01-12T10:52:23Z</time>
      </trkpt>
      <trkpt lat="45.63007" lon="4.56572">
        <ele>717</ele>
        <time>2014-01-12T10:52:26Z</time>
      </trkpt>
      <trkpt lat="45.63005" lon="4.56579">
        <ele>717</ele>
        <time>2014-01-12T10:52:30Z</time>
      </trkpt>
      <trkpt lat="45.63004" lon="4.56585">
        <ele>717</ele>
        <time>2014-01-12T10:52:33Z</time>
      </trkpt>
      <trkpt lat="45.63002" lon="4.5659">
        <ele>717</ele>
        <time>2014-01-12T10:52:36Z</time>
      </trkpt>
      <trkpt lat="45.63" lon="4.56595">
        <ele>717</ele>
        <time>2014-01-12T10:52:39Z</time>
      </trkpt>
      <trkpt lat="45.62998" lon="4.56599">
        <ele>717</ele>
        <time>2014-01-12T10:52:42Z</time>
      </trkpt>
      <trkpt lat="45.62997" lon="4.56604">
        <ele>717</ele>
        <time>2014-01-12T10:52:45Z</time>
      </trkpt>
      <trkpt lat="45.62995" lon="4.56609">
        <ele>717</ele>
        <time>2014-01-12T10:52:48Z</time>
      </trkpt>
      <trkpt lat="45.62994" lon="4.56614">
        <ele>718</ele>
        <time>2014-01-12T10:52:51Z</time>
      </trkpt>
      <trkpt lat="45.62992" lon="4.56621">
        <ele>718</ele>
        <time>2014-01-12T10:52:55Z</time>
      </trkpt>
      <trkpt lat="45.62991" lon="4.56627">
        <ele>718</ele>
        <time>2014-01-12T10:52:58Z</time>
      </trkpt>
      <trkpt lat="45.62989" lon="4.56632">
        <ele>718</ele>
        <time>2014-01-12T10:53:01Z</time>
      </trkpt>
      <trkpt lat="45.62988" lon="4.56637">
        <ele>718</ele>
        <time>2014-01-12T10:53:04Z</time>
      </trkpt>
      <trkpt lat="45.62987" lon="4.56643">
        <ele>718</ele>
        <time>2014-01-12T10:53:07Z</time>
      </trkpt>
      <trkpt lat="45.62986" lon="4.56647">
        <ele>718</ele>
        <time>2014-01-12T10:53:10Z</time>
      </trkpt>
      <trkpt lat="45.62986" lon="4.56653">
        <ele>718</ele>
        <time>2014-01-12T10:53:13Z</time>
      </trkpt>
      <trkpt lat="45.62985" lon="4.56659">
        <ele>718</ele>
        <time>2014-01-12T10:53:16Z</time>
      </trkpt>
      <trkpt lat="45.62984" lon="4.56664">
        <ele>718</ele>
        <time>2014-01-12T10:53:19Z</time>
      </trkpt>
      <trkpt lat="45.62981" lon="4.56669">
        <ele>718</ele>
        <time>2014-01-12T10:53:23Z</time>
      </trkpt>
      <trkpt lat="45.6298" lon="4.56677">
        <ele>718</ele>
        <time>2014-01-12T10:53:26Z</time>
      </trkpt>
      <trkpt lat="45.62978" lon="4.56687">
        <ele>718</ele>
        <time>2014-01-12T10:53:29Z</time>
      </trkpt>
      <trkpt lat="45.62975" lon="4.56695">
        <ele>718</ele>
        <time>2014-01-12T10:53:32Z</time>
      </trkpt>
      <trkpt lat="45.62973" lon="4.56705">
        <ele>718</ele>
        <time>2014-01-12T10:53:35Z</time>
      </trkpt>
      <trkpt lat="45.6297" lon="4.56713">
        <ele>718</ele>
        <time>2014-01-12T10:53:38Z</time>
      </trkpt>
      <trkpt lat="45.62967" lon="4.56723">
        <ele>718</ele>
        <time>2014-01-12T10:53:41Z</time>
      </trkpt>
      <trkpt lat="45.62965" lon="4.56732">
        <ele>718</ele>
        <time>2014-01-12T10:53:44Z</time>
      </trkpt>
      <trkpt lat="45.62963" lon="4.56741">
        <ele>718</ele>
        <time>2014-01-12T10:53:47Z</time>
      </trkpt>
      <trkpt lat="45.62961" lon="4.5675">
        <ele>719</ele>
        <time>2014-01-12T10:53:51Z</time>
      </trkpt>
      <trkpt lat="45.62961" lon="4.56756">
        <ele>719</ele>
        <time>2014-01-12T10:53:54Z</time>
      </trkpt>
      <trkpt lat="45.62962" lon="4.56761">
        <ele>720</ele>
        <time>2014-01-12T10:53:57Z</time>
      </trkpt>
      <trkpt lat="45.62963" lon="4.56765">
        <ele>720</ele>
        <time>2014-01-12T10:54:00Z</time>
      </trkpt>
      <trkpt lat="45.62964" lon="4.5677">
        <ele>721</ele>
        <time>2014-01-12T10:54:03Z</time>
      </trkpt>
      <trkpt lat="45.62965" lon="4.56775">
        <ele>721</ele>
        <time>2014-01-12T10:54:06Z</time>
      </trkpt>
      <trkpt lat="45.62966" lon="4.5678">
        <ele>722</ele>
        <time>2014-01-12T10:54:09Z</time>
      </trkpt>
      <trkpt lat="45.62967" lon="4.56785">
        <ele>722</ele>
        <time>2014-01-12T10:54:12Z</time>
      </trkpt>
      <trkpt lat="45.62968" lon="4.5679">
        <ele>723</ele>
        <time>2014-01-12T10:54:15Z</time>
      </trkpt>
      <trkpt lat="45.62969" lon="4.56795">
        <ele>723</ele>
        <time>2014-01-12T10:54:18Z</time>
      </trkpt>
      <trkpt lat="45.6297" lon="4.568">
        <ele>723</ele>
        <time>2014-01-12T10:54:21Z</time>
      </trkpt>
      <trkpt lat="45.6297" lon="4.56805">
        <ele>724</ele>
        <time>2014-01-12T10:54:24Z</time>
      </trkpt>
      <trkpt lat="45.62971" lon="4.56809">
        <ele>725</ele>
        <time>2014-01-12T10:54:27Z</time>
      </trkpt>
      <trkpt lat="45.62972" lon="4.56814">
        <ele>725</ele>
        <time>2014-01-12T10:54:30Z</time>
      </trkpt>
      <trkpt lat="45.62973" lon="4.56819">
        <ele>726</ele>
        <time>2014-01-12T10:54:33Z</time>
      </trkpt>
      <trkpt lat="45.62973" lon="4.56824">
        <ele>727</ele>
        <time>2014-01-12T10:54:36Z</time>
      </trkpt>
      <trkpt lat="45.62974" lon="4.5683">
        <ele>727</ele>
        <time>2014-01-12T10:54:39Z</time>
      </trkpt>
      <trkpt lat="45.62975" lon="4.56835">
        <ele>727</ele>
        <time>2014-01-12T10:54:42Z</time>
      </trkpt>
      <trkpt lat="45.62975" lon="4.5684">
        <ele>728</ele>
        <time>2014-01-12T10:54:45Z</time>
      </trkpt>
      <trkpt lat="45.62976" lon="4.56845">
        <ele>729</ele>
        <time>2014-01-12T10:54:48Z</time>
      </trkpt>
      <trkpt lat="45.62976" lon="4.56849">
        <ele>730</ele>
        <time>2014-01-12T10:54:51Z</time>
      </trkpt>
      <trkpt lat="45.62977" lon="4.56855">
        <ele>731</ele>
        <time>2014-01-12T10:54:54Z</time>
      </trkpt>
      <trkpt lat="45.62977" lon="4.5686">
        <ele>732</ele>
        <time>2014-01-12T10:54:57Z</time>
      </trkpt>
      <trkpt lat="45.62978" lon="4.56866">
        <ele>733</ele>
        <time>2014-01-12T10:55:00Z</time>
      </trkpt>
      <trkpt lat="45.62978" lon="4.56872">
        <ele>733</ele>
        <time>2014-01-12T10:55:03Z</time>
      </trkpt>
      <trkpt lat="45.62978" lon="4.56877">
        <ele>733</ele>
        <time>2014-01-12T10:55:06Z</time>
      </trkpt>
      <trkpt lat="45.62979" lon="4.56884">
        <ele>734</ele>
        <time>2014-01-12T10:55:10Z</time>
      </trkpt>
      <trkpt lat="45.6298" lon="4.56889">
        <ele>734</ele>
        <time>2014-01-12T10:55:13Z</time>
      </trkpt>
      <trkpt lat="45.62981" lon="4.56894">
        <ele>734</ele>
        <time>2014-01-12T10:55:16Z</time>
      </trkpt>
      <trkpt lat="45.62982" lon="4.569">
        <ele>735</ele>
        <time>2014-01-12T10:55:19Z</time>
      </trkpt>
      <trkpt lat="45.62983" lon="4.56905">
        <ele>735</ele>
        <time>2014-01-12T10:55:22Z</time>
      </trkpt>
      <trkpt lat="45.62985" lon="4.5691">
        <ele>735</ele>
        <time>2014-01-12T10:55:25Z</time>
      </trkpt>
      <trkpt lat="45.62987" lon="4.56913">
        <ele>735</ele>
        <time>2014-01-12T10:55:28Z</time>
      </trkpt>
      <trkpt lat="45.62989" lon="4.56917">
        <ele>735</ele>
        <time>2014-01-12T10:55:31Z</time>
      </trkpt>
      <trkpt lat="45.62991" lon="4.56922">
        <ele>735</ele>
        <time>2014-01-12T10:55:34Z</time>
      </trkpt>
      <trkpt lat="45.62992" lon="4.56927">
        <ele>735</ele>
        <time>2014-01-12T10:55:37Z</time>
      </trkpt>
      <trkpt lat="45.62994" lon="4.56932">
        <ele>735</ele>
        <time>2014-01-12T10:55:40Z</time>
      </trkpt>
      <trkpt lat="45.62994" lon="4.56937">
        <ele>736</ele>
        <time>2014-01-12T10:55:43Z</time>
      </trkpt>
      <trkpt lat="45.62996" lon="4.56942">
        <ele>736</ele>
        <time>2014-01-12T10:55:46Z</time>
      </trkpt>
      <trkpt lat="45.62997" lon="4.56948">
        <ele>736</ele>
        <time>2014-01-12T10:55:49Z</time>
      </trkpt>
      <trkpt lat="45.62999" lon="4.56953">
        <ele>737</ele>
        <time>2014-01-12T10:55:52Z</time>
      </trkpt>
      <trkpt lat="45.63001" lon="4.56959">
        <ele>737</ele>
        <time>2014-01-12T10:55:55Z</time>
      </trkpt>
      <trkpt lat="45.63003" lon="4.56964">
        <ele>738</ele>
        <time>2014-01-12T10:55:58Z</time>
      </trkpt>
      <trkpt lat="45.63004" lon="4.56969">
        <ele>738</ele>
        <time>2014-01-12T10:56:01Z</time>
      </trkpt>
      <trkpt lat="45.63005" lon="4.56975">
        <ele>739</ele>
        <time>2014-01-12T10:56:04Z</time>
      </trkpt>
      <trkpt lat="45.63006" lon="4.5698">
        <ele>739</ele>
        <time>2014-01-12T10:56:07Z</time>
      </trkpt>
      <trkpt lat="45.63007" lon="4.56985">
        <ele>739</ele>
        <time>2014-01-12T10:56:10Z</time>
      </trkpt>
      <trkpt lat="45.6301" lon="4.56992">
        <ele>740</ele>
        <time>2014-01-12T10:56:13Z</time>
      </trkpt>
      <trkpt lat="45.63012" lon="4.57">
        <ele>741</ele>
        <time>2014-01-12T10:56:16Z</time>
      </trkpt>
      <trkpt lat="45.63015" lon="4.57008">
        <ele>742</ele>
        <time>2014-01-12T10:56:19Z</time>
      </trkpt>
      <trkpt lat="45.63019" lon="4.57015">
        <ele>742</ele>
        <time>2014-01-12T10:56:22Z</time>
      </trkpt>
      <trkpt lat="45.63023" lon="4.57021">
        <ele>743</ele>
        <time>2014-01-12T10:56:25Z</time>
      </trkpt>
      <trkpt lat="45.63027" lon="4.57029">
        <ele>744</ele>
        <time>2014-01-12T10:56:28Z</time>
      </trkpt>
      <trkpt lat="45.63032" lon="4.57042">
        <ele>746</ele>
        <time>2014-01-12T10:56:32Z</time>
      </trkpt>
      <trkpt lat="45.63036" lon="4.57051">
        <ele>747</ele>
        <time>2014-01-12T10:56:35Z</time>
      </trkpt>
      <trkpt lat="45.63039" lon="4.57059">
        <ele>748</ele>
        <time>2014-01-12T10:56:38Z</time>
      </trkpt>
      <trkpt lat="45.63044" lon="4.57066">
        <ele>748</ele>
        <time>2014-01-12T10:56:41Z</time>
      </trkpt>
      <trkpt lat="45.63049" lon="4.57071">
        <ele>749</ele>
        <time>2014-01-12T10:56:45Z</time>
      </trkpt>
      <trkpt lat="45.63052" lon="4.57075">
        <ele>750</ele>
        <time>2014-01-12T10:56:49Z</time>
      </trkpt>
      <trkpt lat="45.63055" lon="4.5708">
        <ele>750</ele>
        <time>2014-01-12T10:56:53Z</time>
      </trkpt>
      <trkpt lat="45.63058" lon="4.57085">
        <ele>750</ele>
        <time>2014-01-12T10:56:57Z</time>
      </trkpt>
      <trkpt lat="45.63062" lon="4.57091">
        <ele>751</ele>
        <time>2014-01-12T10:57:01Z</time>
      </trkpt>
      <trkpt lat="45.63066" lon="4.57095">
        <ele>751</ele>
        <time>2014-01-12T10:57:04Z</time>
      </trkpt>
      <trkpt lat="45.63068" lon="4.57099">
        <ele>751</ele>
        <time>2014-01-12T10:57:07Z</time>
      </trkpt>
      <trkpt lat="45.63071" lon="4.57105">
        <ele>751</ele>
        <time>2014-01-12T10:57:11Z</time>
      </trkpt>
      <trkpt lat="45.63073" lon="4.57109">
        <ele>751</ele>
        <time>2014-01-12T10:57:14Z</time>
      </trkpt>
      <trkpt lat="45.63075" lon="4.57113">
        <ele>751</ele>
        <time>2014-01-12T10:57:17Z</time>
      </trkpt>
      <trkpt lat="45.63078" lon="4.57123">
        <ele>752</ele>
        <time>2014-01-12T10:57:20Z</time>
      </trkpt>
      <trkpt lat="45.6308" lon="4.57132">
        <ele>754</ele>
        <time>2014-01-12T10:57:23Z</time>
      </trkpt>
      <trkpt lat="45.63083" lon="4.57141">
        <ele>756</ele>
        <time>2014-01-12T10:57:26Z</time>
      </trkpt>
      <trkpt lat="45.63087" lon="4.57148">
        <ele>758</ele>
        <time>2014-01-12T10:57:29Z</time>
      </trkpt>
      <trkpt lat="45.6309" lon="4.57156">
        <ele>760</ele>
        <time>2014-01-12T10:57:32Z</time>
      </trkpt>
      <trkpt lat="45.63093" lon="4.57165">
        <ele>761</ele>
        <time>2014-01-12T10:57:35Z</time>
      </trkpt>
      <trkpt lat="45.63095" lon="4.57175">
        <ele>761</ele>
        <time>2014-01-12T10:57:38Z</time>
      </trkpt>
      <trkpt lat="45.63098" lon="4.57189">
        <ele>761</ele>
        <time>2014-01-12T10:57:42Z</time>
      </trkpt>
      <trkpt lat="45.631" lon="4.57199">
        <ele>761</ele>
        <time>2014-01-12T10:57:45Z</time>
      </trkpt>
      <trkpt lat="45.631" lon="4.5721">
        <ele>761</ele>
        <time>2014-01-12T10:57:48Z</time>
      </trkpt>
      <trkpt lat="45.631" lon="4.57219">
        <ele>761</ele>
        <time>2014-01-12T10:57:51Z</time>
      </trkpt>
      <trkpt lat="45.631" lon="4.57228">
        <ele>761</ele>
        <time>2014-01-12T10:57:54Z</time>
      </trkpt>
      <trkpt lat="45.63099" lon="4.57237">
        <ele>761</ele>
        <time>2014-01-12T10:57:57Z</time>
      </trkpt>
      <trkpt lat="45.63099" lon="4.57246">
        <ele>761</ele>
        <time>2014-01-12T10:58:00Z</time>
      </trkpt>
      <trkpt lat="45.63101" lon="4.57257">
        <ele>761</ele>
        <time>2014-01-12T10:58:03Z</time>
      </trkpt>
      <trkpt lat="45.63104" lon="4.57266">
        <ele>761</ele>
        <time>2014-01-12T10:58:06Z</time>
      </trkpt>
      <trkpt lat="45.63107" lon="4.57275">
        <ele>761</ele>
        <time>2014-01-12T10:58:09Z</time>
      </trkpt>
      <trkpt lat="45.6311" lon="4.57283">
        <ele>761</ele>
        <time>2014-01-12T10:58:12Z</time>
      </trkpt>
      <trkpt lat="45.63113" lon="4.57293">
        <ele>761</ele>
        <time>2014-01-12T10:58:15Z</time>
      </trkpt>
      <trkpt lat="45.63115" lon="4.57301">
        <ele>761</ele>
        <time>2014-01-12T10:58:18Z</time>
      </trkpt>
      <trkpt lat="45.63117" lon="4.57311">
        <ele>761</ele>
        <time>2014-01-12T10:58:21Z</time>
      </trkpt>
      <trkpt lat="45.63118" lon="4.57322">
        <ele>761</ele>
        <time>2014-01-12T10:58:24Z</time>
      </trkpt>
      <trkpt lat="45.63117" lon="4.57332">
        <ele>760</ele>
        <time>2014-01-12T10:58:27Z</time>
      </trkpt>
      <trkpt lat="45.63117" lon="4.57341">
        <ele>759</ele>
        <time>2014-01-12T10:58:30Z</time>
      </trkpt>
      <trkpt lat="45.63117" lon="4.57349">
        <ele>758</ele>
        <time>2014-01-12T10:58:33Z</time>
      </trkpt>
      <trkpt lat="45.63117" lon="4.57357">
        <ele>757</ele>
        <time>2014-01-12T10:58:36Z</time>
      </trkpt>
      <trkpt lat="45.63116" lon="4.57361">
        <ele>757</ele>
        <time>2014-01-12T10:58:39Z</time>
      </trkpt>
      <trkpt lat="45.63115" lon="4.57362">
        <ele>757</ele>
        <time>2014-01-12T10:58:44Z</time>
      </trkpt>
      <trkpt lat="45.63114" lon="4.57363">
        <ele>757</ele>
        <time>2014-01-12T10:58:51Z</time>
      </trkpt>
      <trkpt lat="45.63113" lon="4.57364">
        <ele>757</ele>
        <time>2014-01-12T10:59:28Z</time>
      </trkpt>
      <trkpt lat="45.63114" lon="4.57367">
        <ele>757</ele>
        <time>2014-01-12T11:00:03Z</time>
      </trkpt>
      <trkpt lat="45.63114" lon="4.57368">
        <ele>757</ele>
        <time>2014-01-12T11:00:06Z</time>
      </trkpt>
      <trkpt lat="45.63114" lon="4.5737">
        <ele>757</ele>
        <time>2014-01-12T11:00:10Z</time>
      </trkpt>
      <trkpt lat="45.63115" lon="4.57375">
        <ele>757</ele>
        <time>2014-01-12T11:00:14Z</time>
      </trkpt>
      <trkpt lat="45.63115" lon="4.5738">
        <ele>757</ele>
        <time>2014-01-12T11:00:18Z</time>
      </trkpt>
      <trkpt lat="45.63116" lon="4.57384">
        <ele>757</ele>
        <time>2014-01-12T11:00:22Z</time>
      </trkpt>
      <trkpt lat="45.63116" lon="4.57389">
        <ele>757</ele>
        <time>2014-01-12T11:00:25Z</time>
      </trkpt>
      <trkpt lat="45.63118" lon="4.57393">
        <ele>757</ele>
        <time>2014-01-12T11:00:28Z</time>
      </trkpt>
      <trkpt lat="45.63118" lon="4.57398">
        <ele>757</ele>
        <time>2014-01-12T11:00:31Z</time>
      </trkpt>
      <trkpt lat="45.63119" lon="4.57405">
        <ele>757</ele>
        <time>2014-01-12T11:00:34Z</time>
      </trkpt>
      <trkpt lat="45.63118" lon="4.57413">
        <ele>757</ele>
        <time>2014-01-12T11:00:37Z</time>
      </trkpt>
      <trkpt lat="45.6312" lon="4.57423">
        <ele>757</ele>
        <time>2014-01-12T11:00:40Z</time>
      </trkpt>
      <trkpt lat="45.63118" lon="4.57433">
        <ele>757</ele>
        <time>2014-01-12T11:00:43Z</time>
      </trkpt>
      <trkpt lat="45.63115" lon="4.57444">
        <ele>757</ele>
        <time>2014-01-12T11:00:46Z</time>
      </trkpt>
      <trkpt lat="45.63112" lon="4.57453">
        <ele>757</ele>
        <time>2014-01-12T11:00:49Z</time>
      </trkpt>
      <trkpt lat="45.6311" lon="4.57463">
        <ele>757</ele>
        <time>2014-01-12T11:00:52Z</time>
      </trkpt>
      <trkpt lat="45.63107" lon="4.57473">
        <ele>757</ele>
        <time>2014-01-12T11:00:55Z</time>
      </trkpt>
      <trkpt lat="45.63105" lon="4.57482">
        <ele>757</ele>
        <time>2014-01-12T11:00:58Z</time>
      </trkpt>
      <trkpt lat="45.63105" lon="4.57491">
        <ele>757</ele>
        <time>2014-01-12T11:01:01Z</time>
      </trkpt>
      <trkpt lat="45.63104" lon="4.57502">
        <ele>757</ele>
        <time>2014-01-12T11:01:04Z</time>
      </trkpt>
      <trkpt lat="45.63105" lon="4.57512">
        <ele>757</ele>
        <time>2014-01-12T11:01:07Z</time>
      </trkpt>
      <trkpt lat="45.63105" lon="4.57522">
        <ele>757</ele>
        <time>2014-01-12T11:01:10Z</time>
      </trkpt>
      <trkpt lat="45.63104" lon="4.57534">
        <ele>757</ele>
        <time>2014-01-12T11:01:13Z</time>
      </trkpt>
      <trkpt lat="45.63103" lon="4.57545">
        <ele>757</ele>
        <time>2014-01-12T11:01:16Z</time>
      </trkpt>
      <trkpt lat="45.63103" lon="4.57554">
        <ele>757</ele>
        <time>2014-01-12T11:01:19Z</time>
      </trkpt>
      <trkpt lat="45.63106" lon="4.5756">
        <ele>757</ele>
        <time>2014-01-12T11:01:22Z</time>
      </trkpt>
      <trkpt lat="45.6311" lon="4.57563">
        <ele>757</ele>
        <time>2014-01-12T11:01:25Z</time>
      </trkpt>
      <trkpt lat="45.63114" lon="4.57565">
        <ele>758</ele>
        <time>2014-01-12T11:01:29Z</time>
      </trkpt>
      <trkpt lat="45.63118" lon="4.57566">
        <ele>758</ele>
        <time>2014-01-12T11:01:32Z</time>
      </trkpt>
      <trkpt lat="45.63121" lon="4.57566">
        <ele>758</ele>
        <time>2014-01-12T11:01:35Z</time>
      </trkpt>
      <trkpt lat="45.63126" lon="4.57567">
        <ele>758</ele>
        <time>2014-01-12T11:01:38Z</time>
      </trkpt>
      <trkpt lat="45.63131" lon="4.57568">
        <ele>758</ele>
        <time>2014-01-12T11:01:41Z</time>
      </trkpt>
      <trkpt lat="45.63138" lon="4.5757">
        <ele>759</ele>
        <time>2014-01-12T11:01:44Z</time>
      </trkpt>
      <trkpt lat="45.63143" lon="4.57577">
        <ele>759</ele>
        <time>2014-01-12T11:01:47Z</time>
      </trkpt>
      <trkpt lat="45.63146" lon="4.57585">
        <ele>759</ele>
        <time>2014-01-12T11:01:50Z</time>
      </trkpt>
      <trkpt lat="45.63149" lon="4.57594">
        <ele>759</ele>
        <time>2014-01-12T11:01:53Z</time>
      </trkpt>
      <trkpt lat="45.63151" lon="4.57603">
        <ele>759</ele>
        <time>2014-01-12T11:01:56Z</time>
      </trkpt>
      <trkpt lat="45.63152" lon="4.57613">
        <ele>759</ele>
        <time>2014-01-12T11:01:59Z</time>
      </trkpt>
      <trkpt lat="45.63154" lon="4.57622">
        <ele>759</ele>
        <time>2014-01-12T11:02:02Z</time>
      </trkpt>
      <trkpt lat="45.63155" lon="4.57629">
        <ele>759</ele>
        <time>2014-01-12T11:02:05Z</time>
      </trkpt>
      <trkpt lat="45.63155" lon="4.57637">
        <ele>759</ele>
        <time>2014-01-12T11:02:08Z</time>
      </trkpt>
      <trkpt lat="45.63155" lon="4.57643">
        <ele>760</ele>
        <time>2014-01-12T11:02:11Z</time>
      </trkpt>
      <trkpt lat="45.63155" lon="4.57648">
        <ele>761</ele>
        <time>2014-01-12T11:02:14Z</time>
      </trkpt>
      <trkpt lat="45.63155" lon="4.57654">
        <ele>761</ele>
        <time>2014-01-12T11:02:17Z</time>
      </trkpt>
      <trkpt lat="45.63156" lon="4.5766">
        <ele>762</ele>
        <time>2014-01-12T11:02:20Z</time>
      </trkpt>
      <trkpt lat="45.63157" lon="4.57666">
        <ele>762</ele>
        <time>2014-01-12T11:02:23Z</time>
      </trkpt>
      <trkpt lat="45.63157" lon="4.57671">
        <ele>763</ele>
        <time>2014-01-12T11:02:26Z</time>
      </trkpt>
      <trkpt lat="45.63157" lon="4.57678">
        <ele>764</ele>
        <time>2014-01-12T11:02:29Z</time>
      </trkpt>
      <trkpt lat="45.63158" lon="4.57683">
        <ele>764</ele>
        <time>2014-01-12T11:02:32Z</time>
      </trkpt>
      <trkpt lat="45.63159" lon="4.57689">
        <ele>765</ele>
        <time>2014-01-12T11:02:35Z</time>
      </trkpt>
      <trkpt lat="45.6316" lon="4.57694">
        <ele>765</ele>
        <time>2014-01-12T11:02:38Z</time>
      </trkpt>
      <trkpt lat="45.63161" lon="4.577">
        <ele>765</ele>
        <time>2014-01-12T11:02:41Z</time>
      </trkpt>
      <trkpt lat="45.63162" lon="4.57705">
        <ele>766</ele>
        <time>2014-01-12T11:02:44Z</time>
      </trkpt>
      <trkpt lat="45.63164" lon="4.57711">
        <ele>767</ele>
        <time>2014-01-12T11:02:47Z</time>
      </trkpt>
      <trkpt lat="45.63165" lon="4.57716">
        <ele>767</ele>
        <time>2014-01-12T11:02:50Z</time>
      </trkpt>
      <trkpt lat="45.63166" lon="4.57721">
        <ele>767</ele>
        <time>2014-01-12T11:02:53Z</time>
      </trkpt>
      <trkpt lat="45.63168" lon="4.57726">
        <ele>767</ele>
        <time>2014-01-12T11:02:56Z</time>
      </trkpt>
      <trkpt lat="45.63169" lon="4.57732">
        <ele>768</ele>
        <time>2014-01-12T11:02:59Z</time>
      </trkpt>
      <trkpt lat="45.63171" lon="4.57739">
        <ele>768</ele>
        <time>2014-01-12T11:03:03Z</time>
      </trkpt>
      <trkpt lat="45.63172" lon="4.57744">
        <ele>769</ele>
        <time>2014-01-12T11:03:06Z</time>
      </trkpt>
      <trkpt lat="45.63174" lon="4.57749">
        <ele>769</ele>
        <time>2014-01-12T11:03:09Z</time>
      </trkpt>
      <trkpt lat="45.63175" lon="4.57754">
        <ele>770</ele>
        <time>2014-01-12T11:03:12Z</time>
      </trkpt>
      <trkpt lat="45.63176" lon="4.5776">
        <ele>771</ele>
        <time>2014-01-12T11:03:15Z</time>
      </trkpt>
      <trkpt lat="45.63178" lon="4.57765">
        <ele>771</ele>
        <time>2014-01-12T11:03:18Z</time>
      </trkpt>
      <trkpt lat="45.63179" lon="4.5777">
        <ele>772</ele>
        <time>2014-01-12T11:03:21Z</time>
      </trkpt>
      <trkpt lat="45.63181" lon="4.57774">
        <ele>772</ele>
        <time>2014-01-12T11:03:24Z</time>
      </trkpt>
      <trkpt lat="45.63182" lon="4.57781">
        <ele>773</ele>
        <time>2014-01-12T11:03:27Z</time>
      </trkpt>
      <trkpt lat="45.63183" lon="4.57787">
        <ele>773</ele>
        <time>2014-01-12T11:03:30Z</time>
      </trkpt>
      <trkpt lat="45.63184" lon="4.57791">
        <ele>773</ele>
        <time>2014-01-12T11:03:33Z</time>
      </trkpt>
      <trkpt lat="45.63185" lon="4.57796">
        <ele>773</ele>
        <time>2014-01-12T11:03:36Z</time>
      </trkpt>
      <trkpt lat="45.63186" lon="4.57802">
        <ele>774</ele>
        <time>2014-01-12T11:03:39Z</time>
      </trkpt>
      <trkpt lat="45.63189" lon="4.57807">
        <ele>775</ele>
        <time>2014-01-12T11:03:42Z</time>
      </trkpt>
      <trkpt lat="45.6319" lon="4.57813">
        <ele>776</ele>
        <time>2014-01-12T11:03:45Z</time>
      </trkpt>
      <trkpt lat="45.63192" lon="4.57819">
        <ele>777</ele>
        <time>2014-01-12T11:03:49Z</time>
      </trkpt>
      <trkpt lat="45.63193" lon="4.57825">
        <ele>778</ele>
        <time>2014-01-12T11:03:52Z</time>
      </trkpt>
      <trkpt lat="45.63194" lon="4.57831">
        <ele>778</ele>
        <time>2014-01-12T11:03:55Z</time>
      </trkpt>
      <trkpt lat="45.63195" lon="4.57837">
        <ele>778</ele>
        <time>2014-01-12T11:03:58Z</time>
      </trkpt>
      <trkpt lat="45.63196" lon="4.57842">
        <ele>778</ele>
        <time>2014-01-12T11:04:01Z</time>
      </trkpt>
      <trkpt lat="45.63197" lon="4.57847">
        <ele>778</ele>
        <time>2014-01-12T11:04:04Z</time>
      </trkpt>
      <trkpt lat="45.63198" lon="4.57852">
        <ele>778</ele>
        <time>2014-01-12T11:04:07Z</time>
      </trkpt>
      <trkpt lat="45.632" lon="4.57858">
        <ele>779</ele>
        <time>2014-01-12T11:04:10Z</time>
      </trkpt>
      <trkpt lat="45.63201" lon="4.57862">
        <ele>779</ele>
        <time>2014-01-12T11:04:13Z</time>
      </trkpt>
      <trkpt lat="45.63201" lon="4.57866">
        <ele>779</ele>
        <time>2014-01-12T11:04:16Z</time>
      </trkpt>
      <trkpt lat="45.63203" lon="4.57871">
        <ele>779</ele>
        <time>2014-01-12T11:04:19Z</time>
      </trkpt>
      <trkpt lat="45.63205" lon="4.57875">
        <ele>780</ele>
        <time>2014-01-12T11:04:23Z</time>
      </trkpt>
      <trkpt lat="45.63206" lon="4.5788">
        <ele>780</ele>
        <time>2014-01-12T11:04:26Z</time>
      </trkpt>
      <trkpt lat="45.63208" lon="4.57885">
        <ele>781</ele>
        <time>2014-01-12T11:04:29Z</time>
      </trkpt>
      <trkpt lat="45.6321" lon="4.57889">
        <ele>781</ele>
        <time>2014-01-12T11:04:32Z</time>
      </trkpt>
      <trkpt lat="45.63211" lon="4.57894">
        <ele>782</ele>
        <time>2014-01-12T11:04:35Z</time>
      </trkpt>
      <trkpt lat="45.63213" lon="4.57898">
        <ele>782</ele>
        <time>2014-01-12T11:04:38Z</time>
      </trkpt>
      <trkpt lat="45.63214" lon="4.57904">
        <ele>782</ele>
        <time>2014-01-12T11:04:42Z</time>
      </trkpt>
      <trkpt lat="45.63216" lon="4.57909">
        <ele>783</ele>
        <time>2014-01-12T11:04:45Z</time>
      </trkpt>
      <trkpt lat="45.63218" lon="4.57913">
        <ele>784</ele>
        <time>2014-01-12T11:04:48Z</time>
      </trkpt>
      <trkpt lat="45.6322" lon="4.57919">
        <ele>784</ele>
        <time>2014-01-12T11:04:51Z</time>
      </trkpt>
      <trkpt lat="45.63221" lon="4.57924">
        <ele>785</ele>
        <time>2014-01-12T11:04:54Z</time>
      </trkpt>
      <trkpt lat="45.63223" lon="4.57928">
        <ele>786</ele>
        <time>2014-01-12T11:04:57Z</time>
      </trkpt>
      <trkpt lat="45.63224" lon="4.57933">
        <ele>786</ele>
        <time>2014-01-12T11:05:00Z</time>
      </trkpt>
      <trkpt lat="45.63226" lon="4.57938">
        <ele>786</ele>
        <time>2014-01-12T11:05:03Z</time>
      </trkpt>
      <trkpt lat="45.63227" lon="4.57943">
        <ele>786</ele>
        <time>2014-01-12T11:05:06Z</time>
      </trkpt>
      <trkpt lat="45.63229" lon="4.57947">
        <ele>786</ele>
        <time>2014-01-12T11:05:09Z</time>
      </trkpt>
      <trkpt lat="45.63231" lon="4.57952">
        <ele>787</ele>
        <time>2014-01-12T11:05:12Z</time>
      </trkpt>
      <trkpt lat="45.63232" lon="4.57957">
        <ele>787</ele>
        <time>2014-01-12T11:05:15Z</time>
      </trkpt>
      <trkpt lat="45.63236" lon="4.57964">
        <ele>788</ele>
        <time>2014-01-12T11:05:19Z</time>
      </trkpt>
      <trkpt lat="45.63237" lon="4.57969">
        <ele>788</ele>
        <time>2014-01-12T11:05:22Z</time>
      </trkpt>
      <trkpt lat="45.63239" lon="4.57973">
        <ele>789</ele>
        <time>2014-01-12T11:05:25Z</time>
      </trkpt>
      <trkpt lat="45.6324" lon="4.57978">
        <ele>790</ele>
        <time>2014-01-12T11:05:28Z</time>
      </trkpt>
      <trkpt lat="45.63242" lon="4.57983">
        <ele>791</ele>
        <time>2014-01-12T11:05:31Z</time>
      </trkpt>
      <trkpt lat="45.63243" lon="4.57988">
        <ele>791</ele>
        <time>2014-01-12T11:05:34Z</time>
      </trkpt>
      <trkpt lat="45.63245" lon="4.57992">
        <ele>792</ele>
        <time>2014-01-12T11:05:37Z</time>
      </trkpt>
      <trkpt lat="45.63247" lon="4.57998">
        <ele>793</ele>
        <time>2014-01-12T11:05:41Z</time>
      </trkpt>
      <trkpt lat="45.63248" lon="4.58003">
        <ele>794</ele>
        <time>2014-01-12T11:05:44Z</time>
      </trkpt>
      <trkpt lat="45.6325" lon="4.58008">
        <ele>794</ele>
        <time>2014-01-12T11:05:47Z</time>
      </trkpt>
      <trkpt lat="45.63253" lon="4.58013">
        <ele>795</ele>
        <time>2014-01-12T11:05:51Z</time>
      </trkpt>
      <trkpt lat="45.63254" lon="4.58018">
        <ele>796</ele>
        <time>2014-01-12T11:05:54Z</time>
      </trkpt>
      <trkpt lat="45.63255" lon="4.58023">
        <ele>797</ele>
        <time>2014-01-12T11:05:57Z</time>
      </trkpt>
      <trkpt lat="45.63256" lon="4.58028">
        <ele>798</ele>
        <time>2014-01-12T11:06:00Z</time>
      </trkpt>
      <trkpt lat="45.63258" lon="4.58033">
        <ele>799</ele>
        <time>2014-01-12T11:06:04Z</time>
      </trkpt>
      <trkpt lat="45.6326" lon="4.58037">
        <ele>800</ele>
        <time>2014-01-12T11:06:07Z</time>
      </trkpt>
      <trkpt lat="45.63264" lon="4.58039">
        <ele>801</ele>
        <time>2014-01-12T11:06:11Z</time>
      </trkpt>
      <trkpt lat="45.63268" lon="4.58037">
        <ele>802</ele>
        <time>2014-01-12T11:06:14Z</time>
      </trkpt>
      <trkpt lat="45.63274" lon="4.58035">
        <ele>803</ele>
        <time>2014-01-12T11:06:17Z</time>
      </trkpt>
      <trkpt lat="45.63281" lon="4.5803">
        <ele>803</ele>
        <time>2014-01-12T11:06:20Z</time>
      </trkpt>
      <trkpt lat="45.63287" lon="4.58026">
        <ele>804</ele>
        <time>2014-01-12T11:06:23Z</time>
      </trkpt>
      <trkpt lat="45.63293" lon="4.58021">
        <ele>805</ele>
        <time>2014-01-12T11:06:26Z</time>
      </trkpt>
      <trkpt lat="45.633" lon="4.58016">
        <ele>805</ele>
        <time>2014-01-12T11:06:29Z</time>
      </trkpt>
      <trkpt lat="45.63306" lon="4.58012">
        <ele>807</ele>
        <time>2014-01-12T11:06:32Z</time>
      </trkpt>
      <trkpt lat="45.63313" lon="4.58007">
        <ele>807</ele>
        <time>2014-01-12T11:06:35Z</time>
      </trkpt>
      <trkpt lat="45.63319" lon="4.58002">
        <ele>808</ele>
        <time>2014-01-12T11:06:38Z</time>
      </trkpt>
      <trkpt lat="45.63326" lon="4.57996">
        <ele>809</ele>
        <time>2014-01-12T11:06:41Z</time>
      </trkpt>
      <trkpt lat="45.63332" lon="4.57991">
        <ele>809</ele>
        <time>2014-01-12T11:06:44Z</time>
      </trkpt>
      <trkpt lat="45.63338" lon="4.57985">
        <ele>810</ele>
        <time>2014-01-12T11:06:47Z</time>
      </trkpt>
      <trkpt lat="45.63344" lon="4.57979">
        <ele>810</ele>
        <time>2014-01-12T11:06:50Z</time>
      </trkpt>
      <trkpt lat="45.63351" lon="4.57973">
        <ele>810</ele>
        <time>2014-01-12T11:06:53Z</time>
      </trkpt>
      <trkpt lat="45.63356" lon="4.57966">
        <ele>810</ele>
        <time>2014-01-12T11:06:56Z</time>
      </trkpt>
      <trkpt lat="45.63363" lon="4.5796">
        <ele>810</ele>
        <time>2014-01-12T11:06:59Z</time>
      </trkpt>
      <trkpt lat="45.63369" lon="4.57953">
        <ele>810</ele>
        <time>2014-01-12T11:07:02Z</time>
      </trkpt>
      <trkpt lat="45.63375" lon="4.57947">
        <ele>810</ele>
        <time>2014-01-12T11:07:05Z</time>
      </trkpt>
      <trkpt lat="45.63381" lon="4.57942">
        <ele>810</ele>
        <time>2014-01-12T11:07:08Z</time>
      </trkpt>
      <trkpt lat="45.63388" lon="4.57938">
        <ele>810</ele>
        <time>2014-01-12T11:07:11Z</time>
      </trkpt>
      <trkpt lat="45.63395" lon="4.57935">
        <ele>810</ele>
        <time>2014-01-12T11:07:14Z</time>
      </trkpt>
      <trkpt lat="45.63401" lon="4.57932">
        <ele>810</ele>
        <time>2014-01-12T11:07:17Z</time>
      </trkpt>
      <trkpt lat="45.63408" lon="4.57929">
        <ele>810</ele>
        <time>2014-01-12T11:07:20Z</time>
      </trkpt>
      <trkpt lat="45.63414" lon="4.57926">
        <ele>810</ele>
        <time>2014-01-12T11:07:23Z</time>
      </trkpt>
      <trkpt lat="45.6342" lon="4.57923">
        <ele>810</ele>
        <time>2014-01-12T11:07:26Z</time>
      </trkpt>
      <trkpt lat="45.63427" lon="4.57921">
        <ele>810</ele>
        <time>2014-01-12T11:07:29Z</time>
      </trkpt>
      <trkpt lat="45.63433" lon="4.5792">
        <ele>810</ele>
        <time>2014-01-12T11:07:32Z</time>
      </trkpt>
      <trkpt lat="45.6344" lon="4.5792">
        <ele>810</ele>
        <time>2014-01-12T11:07:35Z</time>
      </trkpt>
      <trkpt lat="45.63446" lon="4.57919">
        <ele>810</ele>
        <time>2014-01-12T11:07:38Z</time>
      </trkpt>
      <trkpt lat="45.63453" lon="4.57917">
        <ele>810</ele>
        <time>2014-01-12T11:07:41Z</time>
      </trkpt>
      <trkpt lat="45.63459" lon="4.57917">
        <ele>810</ele>
        <time>2014-01-12T11:07:44Z</time>
      </trkpt>
      <trkpt lat="45.63466" lon="4.57916">
        <ele>810</ele>
        <time>2014-01-12T11:07:47Z</time>
      </trkpt>
      <trkpt lat="45.63472" lon="4.57916">
        <ele>810</ele>
        <time>2014-01-12T11:07:50Z</time>
      </trkpt>
      <trkpt lat="45.63478" lon="4.57917">
        <ele>810</ele>
        <time>2014-01-12T11:07:53Z</time>
      </trkpt>
      <trkpt lat="45.63485" lon="4.57919">
        <ele>810</ele>
        <time>2014-01-12T11:07:56Z</time>
      </trkpt>
      <trkpt lat="45.63493" lon="4.57921">
        <ele>810</ele>
        <time>2014-01-12T11:07:59Z</time>
      </trkpt>
      <trkpt lat="45.63501" lon="4.57925">
        <ele>810</ele>
        <time>2014-01-12T11:08:02Z</time>
      </trkpt>
      <trkpt lat="45.63507" lon="4.57931">
        <ele>810</ele>
        <time>2014-01-12T11:08:05Z</time>
      </trkpt>
      <trkpt lat="45.63513" lon="4.57938">
        <ele>809</ele>
        <time>2014-01-12T11:08:08Z</time>
      </trkpt>
      <trkpt lat="45.63519" lon="4.57946">
        <ele>809</ele>
        <time>2014-01-12T11:08:11Z</time>
      </trkpt>
      <trkpt lat="45.63524" lon="4.57955">
        <ele>808</ele>
        <time>2014-01-12T11:08:14Z</time>
      </trkpt>
      <trkpt lat="45.63527" lon="4.57966">
        <ele>808</ele>
        <time>2014-01-12T11:08:17Z</time>
      </trkpt>
      <trkpt lat="45.63532" lon="4.57976">
        <ele>808</ele>
        <time>2014-01-12T11:08:20Z</time>
      </trkpt>
      <trkpt lat="45.63535" lon="4.57986">
        <ele>808</ele>
        <time>2014-01-12T11:08:23Z</time>
      </trkpt>
      <trkpt lat="45.6354" lon="4.57991">
        <ele>808</ele>
        <time>2014-01-12T11:08:26Z</time>
      </trkpt>
      <trkpt lat="45.63547" lon="4.57989">
        <ele>808</ele>
        <time>2014-01-12T11:08:29Z</time>
      </trkpt>
      <trkpt lat="45.63554" lon="4.57986">
        <ele>808</ele>
        <time>2014-01-12T11:08:32Z</time>
      </trkpt>
      <trkpt lat="45.63561" lon="4.57983">
        <ele>808</ele>
        <time>2014-01-12T11:08:35Z</time>
      </trkpt>
      <trkpt lat="45.63568" lon="4.57978">
        <ele>808</ele>
        <time>2014-01-12T11:08:38Z</time>
      </trkpt>
      <trkpt lat="45.63573" lon="4.57973">
        <ele>808</ele>
        <time>2014-01-12T11:08:41Z</time>
      </trkpt>
      <trkpt lat="45.63578" lon="4.57968">
        <ele>808</ele>
        <time>2014-01-12T11:08:44Z</time>
      </trkpt>
      <trkpt lat="45.63583" lon="4.57961">
        <ele>808</ele>
        <time>2014-01-12T11:08:47Z</time>
      </trkpt>
      <trkpt lat="45.6359" lon="4.57953">
        <ele>808</ele>
        <time>2014-01-12T11:08:50Z</time>
      </trkpt>
      <trkpt lat="45.63595" lon="4.57946">
        <ele>808</ele>
        <time>2014-01-12T11:08:53Z</time>
      </trkpt>
      <trkpt lat="45.63601" lon="4.57938">
        <ele>808</ele>
        <time>2014-01-12T11:08:56Z</time>
      </trkpt>
      <trkpt lat="45.63605" lon="4.57929">
        <ele>808</ele>
        <time>2014-01-12T11:08:59Z</time>
      </trkpt>
      <trkpt lat="45.63609" lon="4.5792">
        <ele>808</ele>
        <time>2014-01-12T11:09:02Z</time>
      </trkpt>
      <trkpt lat="45.6361" lon="4.57908">
        <ele>808</ele>
        <time>2014-01-12T11:09:05Z</time>
      </trkpt>
      <trkpt lat="45.63612" lon="4.57898">
        <ele>808</ele>
        <time>2014-01-12T11:09:08Z</time>
      </trkpt>
      <trkpt lat="45.63613" lon="4.57888">
        <ele>808</ele>
        <time>2014-01-12T11:09:11Z</time>
      </trkpt>
      <trkpt lat="45.63615" lon="4.57877">
        <ele>808</ele>
        <time>2014-01-12T11:09:14Z</time>
      </trkpt>
      <trkpt lat="45.63616" lon="4.57864">
        <ele>808</ele>
        <time>2014-01-12T11:09:17Z</time>
      </trkpt>
      <trkpt lat="45.6362" lon="4.57854">
        <ele>809</ele>
        <time>2014-01-12T11:09:20Z</time>
      </trkpt>
      <trkpt lat="45.63625" lon="4.57846">
        <ele>809</ele>
        <time>2014-01-12T11:09:23Z</time>
      </trkpt>
      <trkpt lat="45.63631" lon="4.5784">
        <ele>809</ele>
        <time>2014-01-12T11:09:26Z</time>
      </trkpt>
      <trkpt lat="45.63635" lon="4.57832">
        <ele>809</ele>
        <time>2014-01-12T11:09:29Z</time>
      </trkpt>
      <trkpt lat="45.63639" lon="4.57826">
        <ele>809</ele>
        <time>2014-01-12T11:09:32Z</time>
      </trkpt>
      <trkpt lat="45.63643" lon="4.57817">
        <ele>809</ele>
        <time>2014-01-12T11:09:35Z</time>
      </trkpt>
      <trkpt lat="45.63647" lon="4.57808">
        <ele>810</ele>
        <time>2014-01-12T11:09:38Z</time>
      </trkpt>
      <trkpt lat="45.6365" lon="4.57801">
        <ele>811</ele>
        <time>2014-01-12T11:09:41Z</time>
      </trkpt>
      <trkpt lat="45.63652" lon="4.57796">
        <ele>811</ele>
        <time>2014-01-12T11:09:44Z</time>
      </trkpt>
      <trkpt lat="45.63654" lon="4.57791">
        <ele>812</ele>
        <time>2014-01-12T11:09:47Z</time>
      </trkpt>
      <trkpt lat="45.63659" lon="4.57787">
        <ele>813</ele>
        <time>2014-01-12T11:09:51Z</time>
      </trkpt>
      <trkpt lat="45.63662" lon="4.57785">
        <ele>813</ele>
        <time>2014-01-12T11:09:54Z</time>
      </trkpt>
      <trkpt lat="45.63667" lon="4.57783">
        <ele>813</ele>
        <time>2014-01-12T11:09:58Z</time>
      </trkpt>
      <trkpt lat="45.6367" lon="4.57781">
        <ele>813</ele>
        <time>2014-01-12T11:10:01Z</time>
      </trkpt>
      <trkpt lat="45.63673" lon="4.57777">
        <ele>813</ele>
        <time>2014-01-12T11:10:05Z</time>
      </trkpt>
      <trkpt lat="45.63677" lon="4.57774">
        <ele>813</ele>
        <time>2014-01-12T11:10:08Z</time>
      </trkpt>
      <trkpt lat="45.6368" lon="4.57771">
        <ele>813</ele>
        <time>2014-01-12T11:10:11Z</time>
      </trkpt>
      <trkpt lat="45.63683" lon="4.57768">
        <ele>813</ele>
        <time>2014-01-12T11:10:14Z</time>
      </trkpt>
      <trkpt lat="45.63686" lon="4.57765">
        <ele>813</ele>
        <time>2014-01-12T11:10:17Z</time>
      </trkpt>
      <trkpt lat="45.6369" lon="4.57764">
        <ele>813</ele>
        <time>2014-01-12T11:10:20Z</time>
      </trkpt>
      <trkpt lat="45.63694" lon="4.57763">
        <ele>813</ele>
        <time>2014-01-12T11:10:23Z</time>
      </trkpt>
      <trkpt lat="45.63697" lon="4.57761">
        <ele>813</ele>
        <time>2014-01-12T11:10:26Z</time>
      </trkpt>
      <trkpt lat="45.637" lon="4.57759">
        <ele>813</ele>
        <time>2014-01-12T11:10:29Z</time>
      </trkpt>
      <trkpt lat="45.63702" lon="4.57753">
        <ele>813</ele>
        <time>2014-01-12T11:10:32Z</time>
      </trkpt>
      <trkpt lat="45.63705" lon="4.57747">
        <ele>813</ele>
        <time>2014-01-12T11:10:36Z</time>
      </trkpt>
      <trkpt lat="45.63709" lon="4.57742">
        <ele>813</ele>
        <time>2014-01-12T11:10:39Z</time>
      </trkpt>
      <trkpt lat="45.63711" lon="4.57737">
        <ele>814</ele>
        <time>2014-01-12T11:10:42Z</time>
      </trkpt>
      <trkpt lat="45.63715" lon="4.57732">
        <ele>814</ele>
        <time>2014-01-12T11:10:46Z</time>
      </trkpt>
      <trkpt lat="45.63718" lon="4.57728">
        <ele>814</ele>
        <time>2014-01-12T11:10:49Z</time>
      </trkpt>
      <trkpt lat="45.6372" lon="4.57723">
        <ele>814</ele>
        <time>2014-01-12T11:10:52Z</time>
      </trkpt>
      <trkpt lat="45.63723" lon="4.57715">
        <ele>814</ele>
        <time>2014-01-12T11:10:55Z</time>
      </trkpt>
      <trkpt lat="45.63726" lon="4.57706">
        <ele>814</ele>
        <time>2014-01-12T11:10:58Z</time>
      </trkpt>
      <trkpt lat="45.63728" lon="4.57696">
        <ele>814</ele>
        <time>2014-01-12T11:11:01Z</time>
      </trkpt>
      <trkpt lat="45.6373" lon="4.57685">
        <ele>814</ele>
        <time>2014-01-12T11:11:04Z</time>
      </trkpt>
      <trkpt lat="45.6373" lon="4.57675">
        <ele>814</ele>
        <time>2014-01-12T11:11:07Z</time>
      </trkpt>
      <trkpt lat="45.6373" lon="4.57663">
        <ele>814</ele>
        <time>2014-01-12T11:11:10Z</time>
      </trkpt>
      <trkpt lat="45.63729" lon="4.57653">
        <ele>814</ele>
        <time>2014-01-12T11:11:13Z</time>
      </trkpt>
      <trkpt lat="45.63729" lon="4.57643">
        <ele>815</ele>
        <time>2014-01-12T11:11:16Z</time>
      </trkpt>
      <trkpt lat="45.63729" lon="4.57632">
        <ele>816</ele>
        <time>2014-01-12T11:11:19Z</time>
      </trkpt>
      <trkpt lat="45.63732" lon="4.57622">
        <ele>816</ele>
        <time>2014-01-12T11:11:22Z</time>
      </trkpt>
      <trkpt lat="45.63734" lon="4.57613">
        <ele>816</ele>
        <time>2014-01-12T11:11:25Z</time>
      </trkpt>
      <trkpt lat="45.63735" lon="4.57605">
        <ele>816</ele>
        <time>2014-01-12T11:11:28Z</time>
      </trkpt>
      <trkpt lat="45.63733" lon="4.57597">
        <ele>816</ele>
        <time>2014-01-12T11:11:31Z</time>
      </trkpt>
      <trkpt lat="45.6373" lon="4.57588">
        <ele>816</ele>
        <time>2014-01-12T11:11:34Z</time>
      </trkpt>
      <trkpt lat="45.63726" lon="4.57579">
        <ele>816</ele>
        <time>2014-01-12T11:11:37Z</time>
      </trkpt>
      <trkpt lat="45.63721" lon="4.5757">
        <ele>816</ele>
        <time>2014-01-12T11:11:40Z</time>
      </trkpt>
      <trkpt lat="45.63716" lon="4.57561">
        <ele>816</ele>
        <time>2014-01-12T11:11:43Z</time>
      </trkpt>
      <trkpt lat="45.63712" lon="4.57549">
        <ele>816</ele>
        <time>2014-01-12T11:11:46Z</time>
      </trkpt>
      <trkpt lat="45.63711" lon="4.57538">
        <ele>816</ele>
        <time>2014-01-12T11:11:49Z</time>
      </trkpt>
      <trkpt lat="45.63711" lon="4.57528">
        <ele>816</ele>
        <time>2014-01-12T11:11:52Z</time>
      </trkpt>
      <trkpt lat="45.6371" lon="4.57515">
        <ele>815</ele>
        <time>2014-01-12T11:11:55Z</time>
      </trkpt>
      <trkpt lat="45.63709" lon="4.57503">
        <ele>814</ele>
        <time>2014-01-12T11:11:58Z</time>
      </trkpt>
      <trkpt lat="45.63709" lon="4.57491">
        <ele>814</ele>
        <time>2014-01-12T11:12:01Z</time>
      </trkpt>
      <trkpt lat="45.63709" lon="4.57479">
        <ele>813</ele>
        <time>2014-01-12T11:12:04Z</time>
      </trkpt>
      <trkpt lat="45.6371" lon="4.57469">
        <ele>812</ele>
        <time>2014-01-12T11:12:07Z</time>
      </trkpt>
      <trkpt lat="45.63711" lon="4.57458">
        <ele>811</ele>
        <time>2014-01-12T11:12:10Z</time>
      </trkpt>
      <trkpt lat="45.63712" lon="4.57447">
        <ele>810</ele>
        <time>2014-01-12T11:12:13Z</time>
      </trkpt>
      <trkpt lat="45.63712" lon="4.57435">
        <ele>810</ele>
        <time>2014-01-12T11:12:16Z</time>
      </trkpt>
      <trkpt lat="45.63713" lon="4.57423">
        <ele>809</ele>
        <time>2014-01-12T11:12:19Z</time>
      </trkpt>
      <trkpt lat="45.63713" lon="4.57412">
        <ele>809</ele>
        <time>2014-01-12T11:12:22Z</time>
      </trkpt>
      <trkpt lat="45.63714" lon="4.57401">
        <ele>809</ele>
        <time>2014-01-12T11:12:25Z</time>
      </trkpt>
      <trkpt lat="45.63715" lon="4.5739">
        <ele>809</ele>
        <time>2014-01-12T11:12:28Z</time>
      </trkpt>
      <trkpt lat="45.6372" lon="4.57382">
        <ele>809</ele>
        <time>2014-01-12T11:12:31Z</time>
      </trkpt>
      <trkpt lat="45.63726" lon="4.57373">
        <ele>809</ele>
        <time>2014-01-12T11:12:35Z</time>
      </trkpt>
      <trkpt lat="45.63728" lon="4.57364">
        <ele>809</ele>
        <time>2014-01-12T11:12:38Z</time>
      </trkpt>
      <trkpt lat="45.63729" lon="4.57352">
        <ele>809</ele>
        <time>2014-01-12T11:12:41Z</time>
      </trkpt>
      <trkpt lat="45.63733" lon="4.57341">
        <ele>809</ele>
        <time>2014-01-12T11:12:44Z</time>
      </trkpt>
      <trkpt lat="45.63736" lon="4.57332">
        <ele>809</ele>
        <time>2014-01-12T11:12:47Z</time>
      </trkpt>
      <trkpt lat="45.6374" lon="4.5732">
        <ele>809</ele>
        <time>2014-01-12T11:12:50Z</time>
      </trkpt>
      <trkpt lat="45.63744" lon="4.57311">
        <ele>809</ele>
        <time>2014-01-12T11:12:53Z</time>
      </trkpt>
      <trkpt lat="45.63749" lon="4.57302">
        <ele>809</ele>
        <time>2014-01-12T11:12:56Z</time>
      </trkpt>
      <trkpt lat="45.63754" lon="4.57296">
        <ele>809</ele>
        <time>2014-01-12T11:12:59Z</time>
      </trkpt>
      <trkpt lat="45.63761" lon="4.57295">
        <ele>808</ele>
        <time>2014-01-12T11:13:02Z</time>
      </trkpt>
      <trkpt lat="45.63769" lon="4.57299">
        <ele>805</ele>
        <time>2014-01-12T11:13:05Z</time>
      </trkpt>
      <trkpt lat="45.63778" lon="4.57303">
        <ele>803</ele>
        <time>2014-01-12T11:13:08Z</time>
      </trkpt>
      <trkpt lat="45.63785" lon="4.57308">
        <ele>801</ele>
        <time>2014-01-12T11:13:11Z</time>
      </trkpt>
      <trkpt lat="45.63792" lon="4.5731">
        <ele>800</ele>
        <time>2014-01-12T11:13:14Z</time>
      </trkpt>
      <trkpt lat="45.63799" lon="4.57314">
        <ele>798</ele>
        <time>2014-01-12T11:13:17Z</time>
      </trkpt>
      <trkpt lat="45.63806" lon="4.57317">
        <ele>797</ele>
        <time>2014-01-12T11:13:20Z</time>
      </trkpt>
      <trkpt lat="45.63815" lon="4.57321">
        <ele>797</ele>
        <time>2014-01-12T11:13:23Z</time>
      </trkpt>
      <trkpt lat="45.63822" lon="4.57324">
        <ele>797</ele>
        <time>2014-01-12T11:13:26Z</time>
      </trkpt>
      <trkpt lat="45.63829" lon="4.57328">
        <ele>797</ele>
        <time>2014-01-12T11:13:29Z</time>
      </trkpt>
      <trkpt lat="45.63837" lon="4.57329">
        <ele>796</ele>
        <time>2014-01-12T11:13:32Z</time>
      </trkpt>
      <trkpt lat="45.63843" lon="4.57324">
        <ele>796</ele>
        <time>2014-01-12T11:13:35Z</time>
      </trkpt>
      <trkpt lat="45.6385" lon="4.57321">
        <ele>794</ele>
        <time>2014-01-12T11:13:38Z</time>
      </trkpt>
      <trkpt lat="45.63857" lon="4.5732">
        <ele>794</ele>
        <time>2014-01-12T11:13:41Z</time>
      </trkpt>
      <trkpt lat="45.63866" lon="4.57319">
        <ele>793</ele>
        <time>2014-01-12T11:13:44Z</time>
      </trkpt>
      <trkpt lat="45.63874" lon="4.5732">
        <ele>792</ele>
        <time>2014-01-12T11:13:47Z</time>
      </trkpt>
      <trkpt lat="45.63882" lon="4.57318">
        <ele>791</ele>
        <time>2014-01-12T11:13:50Z</time>
      </trkpt>
      <trkpt lat="45.63889" lon="4.57316">
        <ele>789</ele>
        <time>2014-01-12T11:13:53Z</time>
      </trkpt>
      <trkpt lat="45.63896" lon="4.57313">
        <ele>788</ele>
        <time>2014-01-12T11:13:56Z</time>
      </trkpt>
      <trkpt lat="45.63903" lon="4.57312">
        <ele>786</ele>
        <time>2014-01-12T11:13:59Z</time>
      </trkpt>
      <trkpt lat="45.63911" lon="4.57305">
        <ele>784</ele>
        <time>2014-01-12T11:14:03Z</time>
      </trkpt>
      <trkpt lat="45.63917" lon="4.573">
        <ele>782</ele>
        <time>2014-01-12T11:14:06Z</time>
      </trkpt>
      <trkpt lat="45.63922" lon="4.57294">
        <ele>780</ele>
        <time>2014-01-12T11:14:09Z</time>
      </trkpt>
      <trkpt lat="45.63927" lon="4.57287">
        <ele>778</ele>
        <time>2014-01-12T11:14:12Z</time>
      </trkpt>
      <trkpt lat="45.63932" lon="4.57279">
        <ele>776</ele>
        <time>2014-01-12T11:14:15Z</time>
      </trkpt>
      <trkpt lat="45.63937" lon="4.57271">
        <ele>774</ele>
        <time>2014-01-12T11:14:18Z</time>
      </trkpt>
      <trkpt lat="45.63941" lon="4.5726">
        <ele>773</ele>
        <time>2014-01-12T11:14:21Z</time>
      </trkpt>
      <trkpt lat="45.63942" lon="4.57249">
        <ele>771</ele>
        <time>2014-01-12T11:14:24Z</time>
      </trkpt>
      <trkpt lat="45.63941" lon="4.57238">
        <ele>769</ele>
        <time>2014-01-12T11:14:27Z</time>
      </trkpt>
      <trkpt lat="45.63937" lon="4.57227">
        <ele>767</ele>
        <time>2014-01-12T11:14:30Z</time>
      </trkpt>
      <trkpt lat="45.63935" lon="4.57214">
        <ele>765</ele>
        <time>2014-01-12T11:14:33Z</time>
      </trkpt>
      <trkpt lat="45.63938" lon="4.57204">
        <ele>762</ele>
        <time>2014-01-12T11:14:36Z</time>
      </trkpt>
      <trkpt lat="45.63944" lon="4.57198">
        <ele>761</ele>
        <time>2014-01-12T11:14:39Z</time>
      </trkpt>
      <trkpt lat="45.6395" lon="4.57194">
        <ele>759</ele>
        <time>2014-01-12T11:14:42Z</time>
      </trkpt>
      <trkpt lat="45.63958" lon="4.57197">
        <ele>757</ele>
        <time>2014-01-12T11:14:45Z</time>
      </trkpt>
      <trkpt lat="45.63967" lon="4.57199">
        <ele>755</ele>
        <time>2014-01-12T11:14:48Z</time>
      </trkpt>
      <trkpt lat="45.63975" lon="4.572">
        <ele>754</ele>
        <time>2014-01-12T11:14:51Z</time>
      </trkpt>
      <trkpt lat="45.63982" lon="4.57198">
        <ele>753</ele>
        <time>2014-01-12T11:14:54Z</time>
      </trkpt>
      <trkpt lat="45.63988" lon="4.57191">
        <ele>753</ele>
        <time>2014-01-12T11:14:57Z</time>
      </trkpt>
      <trkpt lat="45.63993" lon="4.57181">
        <ele>752</ele>
        <time>2014-01-12T11:15:00Z</time>
      </trkpt>
      <trkpt lat="45.63998" lon="4.57172">
        <ele>752</ele>
        <time>2014-01-12T11:15:03Z</time>
      </trkpt>
      <trkpt lat="45.64003" lon="4.57164">
        <ele>751</ele>
        <time>2014-01-12T11:15:06Z</time>
      </trkpt>
      <trkpt lat="45.64009" lon="4.57155">
        <ele>750</ele>
        <time>2014-01-12T11:15:09Z</time>
      </trkpt>
      <trkpt lat="45.64014" lon="4.57146">
        <ele>749</ele>
        <time>2014-01-12T11:15:12Z</time>
      </trkpt>
      <trkpt lat="45.64019" lon="4.57136">
        <ele>748</ele>
        <time>2014-01-12T11:15:15Z</time>
      </trkpt>
      <trkpt lat="45.64021" lon="4.57125">
        <ele>748</ele>
        <time>2014-01-12T11:15:18Z</time>
      </trkpt>
      <trkpt lat="45.6402" lon="4.57115">
        <ele>748</ele>
        <time>2014-01-12T11:15:21Z</time>
      </trkpt>
      <trkpt lat="45.6402" lon="4.57105">
        <ele>748</ele>
        <time>2014-01-12T11:15:24Z</time>
      </trkpt>
      <trkpt lat="45.64022" lon="4.57095">
        <ele>748</ele>
        <time>2014-01-12T11:15:27Z</time>
      </trkpt>
      <trkpt lat="45.64025" lon="4.57087">
        <ele>748</ele>
        <time>2014-01-12T11:15:30Z</time>
      </trkpt>
      <trkpt lat="45.6403" lon="4.57078">
        <ele>748</ele>
        <time>2014-01-12T11:15:33Z</time>
      </trkpt>
      <trkpt lat="45.64035" lon="4.57071">
        <ele>748</ele>
        <time>2014-01-12T11:15:36Z</time>
      </trkpt>
      <trkpt lat="45.6404" lon="4.57067">
        <ele>748</ele>
        <time>2014-01-12T11:15:39Z</time>
      </trkpt>
      <trkpt lat="45.64045" lon="4.57064">
        <ele>748</ele>
        <time>2014-01-12T11:15:42Z</time>
      </trkpt>
      <trkpt lat="45.6405" lon="4.57063">
        <ele>749</ele>
        <time>2014-01-12T11:15:45Z</time>
      </trkpt>
      <trkpt lat="45.64053" lon="4.57063">
        <ele>751</ele>
        <time>2014-01-12T11:15:49Z</time>
      </trkpt>
      <trkpt lat="45.64057" lon="4.57065">
        <ele>752</ele>
        <time>2014-01-12T11:15:53Z</time>
      </trkpt>
      <trkpt lat="45.6406" lon="4.5707">
        <ele>752</ele>
        <time>2014-01-12T11:15:57Z</time>
      </trkpt>
      <trkpt lat="45.64063" lon="4.57076">
        <ele>752</ele>
        <time>2014-01-12T11:16:01Z</time>
      </trkpt>
      <trkpt lat="45.64066" lon="4.5708">
        <ele>752</ele>
        <time>2014-01-12T11:16:05Z</time>
      </trkpt>
      <trkpt lat="45.64069" lon="4.57082">
        <ele>752</ele>
        <time>2014-01-12T11:16:08Z</time>
      </trkpt>
      <trkpt lat="45.64072" lon="4.57084">
        <ele>752</ele>
        <time>2014-01-12T11:16:11Z</time>
      </trkpt>
      <trkpt lat="45.64076" lon="4.57083">
        <ele>752</ele>
        <time>2014-01-12T11:16:14Z</time>
      </trkpt>
      <trkpt lat="45.6408" lon="4.57082">
        <ele>752</ele>
        <time>2014-01-12T11:16:17Z</time>
      </trkpt>
      <trkpt lat="45.64083" lon="4.57081">
        <ele>752</ele>
        <time>2014-01-12T11:16:20Z</time>
      </trkpt>
      <trkpt lat="45.64087" lon="4.5708">
        <ele>752</ele>
        <time>2014-01-12T11:16:23Z</time>
      </trkpt>
      <trkpt lat="45.6409" lon="4.57078">
        <ele>752</ele>
        <time>2014-01-12T11:16:26Z</time>
      </trkpt>
      <trkpt lat="45.64095" lon="4.57077">
        <ele>752</ele>
        <time>2014-01-12T11:16:30Z</time>
      </trkpt>
      <trkpt lat="45.64099" lon="4.57074">
        <ele>752</ele>
        <time>2014-01-12T11:16:34Z</time>
      </trkpt>
      <trkpt lat="45.64101" lon="4.5707">
        <ele>752</ele>
        <time>2014-01-12T11:16:37Z</time>
      </trkpt>
      <trkpt lat="45.64104" lon="4.57062">
        <ele>752</ele>
        <time>2014-01-12T11:16:40Z</time>
      </trkpt>
      <trkpt lat="45.64107" lon="4.57053">
        <ele>752</ele>
        <time>2014-01-12T11:16:43Z</time>
      </trkpt>
      <trkpt lat="45.64111" lon="4.5704">
        <ele>752</ele>
        <time>2014-01-12T11:16:47Z</time>
      </trkpt>
      <trkpt lat="45.64114" lon="4.5703">
        <ele>752</ele>
        <time>2014-01-12T11:16:50Z</time>
      </trkpt>
      <trkpt lat="45.64116" lon="4.5702">
        <ele>752</ele>
        <time>2014-01-12T11:16:53Z</time>
      </trkpt>
      <trkpt lat="45.64118" lon="4.57011">
        <ele>752</ele>
        <time>2014-01-12T11:16:56Z</time>
      </trkpt>
      <trkpt lat="45.64119" lon="4.57002">
        <ele>752</ele>
        <time>2014-01-12T11:16:59Z</time>
      </trkpt>
      <trkpt lat="45.64117" lon="4.56992">
        <ele>752</ele>
        <time>2014-01-12T11:17:02Z</time>
      </trkpt>
      <trkpt lat="45.64113" lon="4.56982">
        <ele>752</ele>
        <time>2014-01-12T11:17:05Z</time>
      </trkpt>
      <trkpt lat="45.6411" lon="4.56972">
        <ele>752</ele>
        <time>2014-01-12T11:17:08Z</time>
      </trkpt>
      <trkpt lat="45.64106" lon="4.56962">
        <ele>752</ele>
        <time>2014-01-12T11:17:11Z</time>
      </trkpt>
      <trkpt lat="45.64102" lon="4.56952">
        <ele>752</ele>
        <time>2014-01-12T11:17:14Z</time>
      </trkpt>
      <trkpt lat="45.64098" lon="4.56943">
        <ele>752</ele>
        <time>2014-01-12T11:17:17Z</time>
      </trkpt>
      <trkpt lat="45.64093" lon="4.56935">
        <ele>753</ele>
        <time>2014-01-12T11:17:20Z</time>
      </trkpt>
      <trkpt lat="45.64089" lon="4.56927">
        <ele>754</ele>
        <time>2014-01-12T11:17:23Z</time>
      </trkpt>
      <trkpt lat="45.64086" lon="4.56921">
        <ele>755</ele>
        <time>2014-01-12T11:17:26Z</time>
      </trkpt>
      <trkpt lat="45.64083" lon="4.56917">
        <ele>755</ele>
        <time>2014-01-12T11:17:29Z</time>
      </trkpt>
      <trkpt lat="45.6408" lon="4.56912">
        <ele>756</ele>
        <time>2014-01-12T11:17:33Z</time>
      </trkpt>
      <trkpt lat="45.64077" lon="4.56907">
        <ele>756</ele>
        <time>2014-01-12T11:17:37Z</time>
      </trkpt>
      <trkpt lat="45.64074" lon="4.56902">
        <ele>756</ele>
        <time>2014-01-12T11:17:41Z</time>
      </trkpt>
      <trkpt lat="45.64071" lon="4.56897">
        <ele>756</ele>
        <time>2014-01-12T11:17:45Z</time>
      </trkpt>
      <trkpt lat="45.64068" lon="4.56893">
        <ele>756</ele>
        <time>2014-01-12T11:17:49Z</time>
      </trkpt>
      <trkpt lat="45.64064" lon="4.56888">
        <ele>756</ele>
        <time>2014-01-12T11:17:53Z</time>
      </trkpt>
      <trkpt lat="45.64061" lon="4.56884">
        <ele>756</ele>
        <time>2014-01-12T11:17:56Z</time>
      </trkpt>
      <trkpt lat="45.64057" lon="4.5688">
        <ele>756</ele>
        <time>2014-01-12T11:17:59Z</time>
      </trkpt>
      <trkpt lat="45.64053" lon="4.56876">
        <ele>757</ele>
        <time>2014-01-12T11:18:03Z</time>
      </trkpt>
      <trkpt lat="45.6405" lon="4.56874">
        <ele>757</ele>
        <time>2014-01-12T11:18:06Z</time>
      </trkpt>
      <trkpt lat="45.64047" lon="4.56872">
        <ele>757</ele>
        <time>2014-01-12T11:18:09Z</time>
      </trkpt>
      <trkpt lat="45.64043" lon="4.56867">
        <ele>758</ele>
        <time>2014-01-12T11:18:13Z</time>
      </trkpt>
      <trkpt lat="45.64039" lon="4.56862">
        <ele>759</ele>
        <time>2014-01-12T11:18:17Z</time>
      </trkpt>
      <trkpt lat="45.64036" lon="4.56858">
        <ele>759</ele>
        <time>2014-01-12T11:18:20Z</time>
      </trkpt>
      <trkpt lat="45.64032" lon="4.56856">
        <ele>759</ele>
        <time>2014-01-12T11:18:23Z</time>
      </trkpt>
      <trkpt lat="45.64029" lon="4.56853">
        <ele>759</ele>
        <time>2014-01-12T11:18:26Z</time>
      </trkpt>
      <trkpt lat="45.64025" lon="4.56848">
        <ele>759</ele>
        <time>2014-01-12T11:18:29Z</time>
      </trkpt>
      <trkpt lat="45.64023" lon="4.56845">
        <ele>759</ele>
        <time>2014-01-12T11:18:32Z</time>
      </trkpt>
      <trkpt lat="45.64021" lon="4.56839">
        <ele>759</ele>
        <time>2014-01-12T11:18:36Z</time>
      </trkpt>
      <trkpt lat="45.64021" lon="4.56833">
        <ele>759</ele>
        <time>2014-01-12T11:18:39Z</time>
      </trkpt>
      <trkpt lat="45.6402" lon="4.56827">
        <ele>759</ele>
        <time>2014-01-12T11:18:42Z</time>
      </trkpt>
      <trkpt lat="45.6402" lon="4.56821">
        <ele>759</ele>
        <time>2014-01-12T11:18:46Z</time>
      </trkpt>
      <trkpt lat="45.6402" lon="4.56815">
        <ele>759</ele>
        <time>2014-01-12T11:18:50Z</time>
      </trkpt>
      <trkpt lat="45.6402" lon="4.5681">
        <ele>759</ele>
        <time>2014-01-12T11:18:53Z</time>
      </trkpt>
      <trkpt lat="45.6402" lon="4.56805">
        <ele>759</ele>
        <time>2014-01-12T11:18:56Z</time>
      </trkpt>
      <trkpt lat="45.64019" lon="4.568">
        <ele>759</ele>
        <time>2014-01-12T11:18:59Z</time>
      </trkpt>
      <trkpt lat="45.64018" lon="4.56794">
        <ele>759</ele>
        <time>2014-01-12T11:19:02Z</time>
      </trkpt>
      <trkpt lat="45.64017" lon="4.56789">
        <ele>759</ele>
        <time>2014-01-12T11:19:05Z</time>
      </trkpt>
      <trkpt lat="45.64017" lon="4.56784">
        <ele>759</ele>
        <time>2014-01-12T11:19:08Z</time>
      </trkpt>
      <trkpt lat="45.64014" lon="4.56778">
        <ele>760</ele>
        <time>2014-01-12T11:19:12Z</time>
      </trkpt>
      <trkpt lat="45.6401" lon="4.56774">
        <ele>760</ele>
        <time>2014-01-12T11:19:16Z</time>
      </trkpt>
      <trkpt lat="45.64006" lon="4.5677">
        <ele>760</ele>
        <time>2014-01-12T11:19:19Z</time>
      </trkpt>
      <trkpt lat="45.64003" lon="4.56766">
        <ele>760</ele>
        <time>2014-01-12T11:19:22Z</time>
      </trkpt>
      <trkpt lat="45.63996" lon="4.56761">
        <ele>760</ele>
        <time>2014-01-12T11:19:25Z</time>
      </trkpt>
      <trkpt lat="45.6399" lon="4.56754">
        <ele>761</ele>
        <time>2014-01-12T11:19:28Z</time>
      </trkpt>
      <trkpt lat="45.63984" lon="4.56749">
        <ele>761</ele>
        <time>2014-01-12T11:19:31Z</time>
      </trkpt>
      <trkpt lat="45.63978" lon="4.56743">
        <ele>762</ele>
        <time>2014-01-12T11:19:34Z</time>
      </trkpt>
      <trkpt lat="45.63972" lon="4.56737">
        <ele>762</ele>
        <time>2014-01-12T11:19:37Z</time>
      </trkpt>
      <trkpt lat="45.63965" lon="4.56731">
        <ele>762</ele>
        <time>2014-01-12T11:19:40Z</time>
      </trkpt>
      <trkpt lat="45.63959" lon="4.56726">
        <ele>762</ele>
        <time>2014-01-12T11:19:43Z</time>
      </trkpt>
      <trkpt lat="45.63953" lon="4.5672">
        <ele>762</ele>
        <time>2014-01-12T11:19:46Z</time>
      </trkpt>
      <trkpt lat="45.63947" lon="4.56716">
        <ele>762</ele>
        <time>2014-01-12T11:19:49Z</time>
      </trkpt>
      <trkpt lat="45.6394" lon="4.56713">
        <ele>762</ele>
        <time>2014-01-12T11:19:52Z</time>
      </trkpt>
      <trkpt lat="45.63933" lon="4.5671">
        <ele>762</ele>
        <time>2014-01-12T11:19:55Z</time>
      </trkpt>
      <trkpt lat="45.63926" lon="4.56707">
        <ele>762</ele>
        <time>2014-01-12T11:19:58Z</time>
      </trkpt>
      <trkpt lat="45.63919" lon="4.56705">
        <ele>762</ele>
        <time>2014-01-12T11:20:01Z</time>
      </trkpt>
      <trkpt lat="45.63913" lon="4.56702">
        <ele>762</ele>
        <time>2014-01-12T11:20:04Z</time>
      </trkpt>
      <trkpt lat="45.63907" lon="4.56699">
        <ele>762</ele>
        <time>2014-01-12T11:20:07Z</time>
      </trkpt>
      <trkpt lat="45.63901" lon="4.56695">
        <ele>762</ele>
        <time>2014-01-12T11:20:10Z</time>
      </trkpt>
      <trkpt lat="45.63894" lon="4.56689">
        <ele>762</ele>
        <time>2014-01-12T11:20:13Z</time>
      </trkpt>
      <trkpt lat="45.63888" lon="4.56682">
        <ele>761</ele>
        <time>2014-01-12T11:20:16Z</time>
      </trkpt>
      <trkpt lat="45.63882" lon="4.56676">
        <ele>761</ele>
        <time>2014-01-12T11:20:19Z</time>
      </trkpt>
      <trkpt lat="45.63876" lon="4.56671">
        <ele>761</ele>
        <time>2014-01-12T11:20:22Z</time>
      </trkpt>
      <trkpt lat="45.6387" lon="4.56667">
        <ele>761</ele>
        <time>2014-01-12T11:20:25Z</time>
      </trkpt>
      <trkpt lat="45.63865" lon="4.56667">
        <ele>760</ele>
        <time>2014-01-12T11:20:28Z</time>
      </trkpt>
      <trkpt lat="45.63857" lon="4.56669">
        <ele>760</ele>
        <time>2014-01-12T11:20:31Z</time>
      </trkpt>
      <trkpt lat="45.6385" lon="4.5667">
        <ele>759</ele>
        <time>2014-01-12T11:20:34Z</time>
      </trkpt>
      <trkpt lat="45.63843" lon="4.56672">
        <ele>758</ele>
        <time>2014-01-12T11:20:37Z</time>
      </trkpt>
      <trkpt lat="45.63836" lon="4.56674">
        <ele>757</ele>
        <time>2014-01-12T11:20:40Z</time>
      </trkpt>
      <trkpt lat="45.63829" lon="4.56675">
        <ele>755</ele>
        <time>2014-01-12T11:20:43Z</time>
      </trkpt>
      <trkpt lat="45.63821" lon="4.56677">
        <ele>754</ele>
        <time>2014-01-12T11:20:46Z</time>
      </trkpt>
      <trkpt lat="45.63815" lon="4.56674">
        <ele>753</ele>
        <time>2014-01-12T11:20:49Z</time>
      </trkpt>
      <trkpt lat="45.63809" lon="4.56668">
        <ele>753</ele>
        <time>2014-01-12T11:20:52Z</time>
      </trkpt>
      <trkpt lat="45.63806" lon="4.56659">
        <ele>752</ele>
        <time>2014-01-12T11:20:55Z</time>
      </trkpt>
      <trkpt lat="45.63801" lon="4.56653">
        <ele>752</ele>
        <time>2014-01-12T11:20:58Z</time>
      </trkpt>
      <trkpt lat="45.63795" lon="4.56647">
        <ele>752</ele>
        <time>2014-01-12T11:21:01Z</time>
      </trkpt>
      <trkpt lat="45.63788" lon="4.56642">
        <ele>752</ele>
        <time>2014-01-12T11:21:04Z</time>
      </trkpt>
      <trkpt lat="45.63782" lon="4.56637">
        <ele>752</ele>
        <time>2014-01-12T11:21:07Z</time>
      </trkpt>
      <trkpt lat="45.63777" lon="4.56632">
        <ele>752</ele>
        <time>2014-01-12T11:21:10Z</time>
      </trkpt>
      <trkpt lat="45.63771" lon="4.56627">
        <ele>752</ele>
        <time>2014-01-12T11:21:13Z</time>
      </trkpt>
      <trkpt lat="45.63765" lon="4.56624">
        <ele>752</ele>
        <time>2014-01-12T11:21:16Z</time>
      </trkpt>
      <trkpt lat="45.63758" lon="4.56623">
        <ele>751</ele>
        <time>2014-01-12T11:21:19Z</time>
      </trkpt>
      <trkpt lat="45.63749" lon="4.56624">
        <ele>751</ele>
        <time>2014-01-12T11:21:22Z</time>
      </trkpt>
      <trkpt lat="45.63743" lon="4.56626">
        <ele>751</ele>
        <time>2014-01-12T11:21:25Z</time>
      </trkpt>
      <trkpt lat="45.63737" lon="4.56632">
        <ele>751</ele>
        <time>2014-01-12T11:21:28Z</time>
      </trkpt>
      <trkpt lat="45.63731" lon="4.56636">
        <ele>750</ele>
        <time>2014-01-12T11:21:31Z</time>
      </trkpt>
      <trkpt lat="45.63725" lon="4.56633">
        <ele>749</ele>
        <time>2014-01-12T11:21:34Z</time>
      </trkpt>
      <trkpt lat="45.63721" lon="4.56624">
        <ele>747</ele>
        <time>2014-01-12T11:21:37Z</time>
      </trkpt>
      <trkpt lat="45.63718" lon="4.56615">
        <ele>745</ele>
        <time>2014-01-12T11:21:40Z</time>
      </trkpt>
      <trkpt lat="45.63712" lon="4.56609">
        <ele>744</ele>
        <time>2014-01-12T11:21:43Z</time>
      </trkpt>
      <trkpt lat="45.63706" lon="4.56603">
        <ele>742</ele>
        <time>2014-01-12T11:21:46Z</time>
      </trkpt>
      <trkpt lat="45.637" lon="4.56597">
        <ele>741</ele>
        <time>2014-01-12T11:21:49Z</time>
      </trkpt>
      <trkpt lat="45.63694" lon="4.56592">
        <ele>740</ele>
        <time>2014-01-12T11:21:52Z</time>
      </trkpt>
      <trkpt lat="45.63687" lon="4.56587">
        <ele>739</ele>
        <time>2014-01-12T11:21:55Z</time>
      </trkpt>
      <trkpt lat="45.6368" lon="4.56582">
        <ele>738</ele>
        <time>2014-01-12T11:21:58Z</time>
      </trkpt>
      <trkpt lat="45.63674" lon="4.56577">
        <ele>737</ele>
        <time>2014-01-12T11:22:01Z</time>
      </trkpt>
      <trkpt lat="45.63667" lon="4.56572">
        <ele>736</ele>
        <time>2014-01-12T11:22:04Z</time>
      </trkpt>
      <trkpt lat="45.6366" lon="4.56567">
        <ele>736</ele>
        <time>2014-01-12T11:22:07Z</time>
      </trkpt>
      <trkpt lat="45.63653" lon="4.56561">
        <ele>736</ele>
        <time>2014-01-12T11:22:10Z</time>
      </trkpt>
      <trkpt lat="45.63648" lon="4.56553">
        <ele>735</ele>
        <time>2014-01-12T11:22:13Z</time>
      </trkpt>
      <trkpt lat="45.63643" lon="4.5654">
        <ele>734</ele>
        <time>2014-01-12T11:22:17Z</time>
      </trkpt>
      <trkpt lat="45.63639" lon="4.56529">
        <ele>733</ele>
        <time>2014-01-12T11:22:20Z</time>
      </trkpt>
      <trkpt lat="45.63636" lon="4.56519">
        <ele>733</ele>
        <time>2014-01-12T11:22:23Z</time>
      </trkpt>
      <trkpt lat="45.63634" lon="4.56508">
        <ele>732</ele>
        <time>2014-01-12T11:22:26Z</time>
      </trkpt>
      <trkpt lat="45.63632" lon="4.56498">
        <ele>731</ele>
        <time>2014-01-12T11:22:29Z</time>
      </trkpt>
      <trkpt lat="45.63631" lon="4.56488">
        <ele>731</ele>
        <time>2014-01-12T11:22:32Z</time>
      </trkpt>
      <trkpt lat="45.63628" lon="4.56478">
        <ele>730</ele>
        <time>2014-01-12T11:22:35Z</time>
      </trkpt>
      <trkpt lat="45.63624" lon="4.56468">
        <ele>730</ele>
        <time>2014-01-12T11:22:38Z</time>
      </trkpt>
      <trkpt lat="45.6362" lon="4.56459">
        <ele>730</ele>
        <time>2014-01-12T11:22:41Z</time>
      </trkpt>
      <trkpt lat="45.63615" lon="4.56454">
        <ele>730</ele>
        <time>2014-01-12T11:22:44Z</time>
      </trkpt>
      <trkpt lat="45.63608" lon="4.56454">
        <ele>730</ele>
        <time>2014-01-12T11:22:47Z</time>
      </trkpt>
      <trkpt lat="45.63601" lon="4.56452">
        <ele>730</ele>
        <time>2014-01-12T11:22:50Z</time>
      </trkpt>
      <trkpt lat="45.63596" lon="4.56446">
        <ele>730</ele>
        <time>2014-01-12T11:22:53Z</time>
      </trkpt>
      <trkpt lat="45.63591" lon="4.56439">
        <ele>730</ele>
        <time>2014-01-12T11:22:56Z</time>
      </trkpt>
      <trkpt lat="45.63586" lon="4.56431">
        <ele>730</ele>
        <time>2014-01-12T11:22:59Z</time>
      </trkpt>
      <trkpt lat="45.63583" lon="4.56422">
        <ele>730</ele>
        <time>2014-01-12T11:23:02Z</time>
      </trkpt>
      <trkpt lat="45.63579" lon="4.56412">
        <ele>730</ele>
        <time>2014-01-12T11:23:05Z</time>
      </trkpt>
      <trkpt lat="45.63575" lon="4.56405">
        <ele>730</ele>
        <time>2014-01-12T11:23:08Z</time>
      </trkpt>
      <trkpt lat="45.63571" lon="4.56399">
        <ele>730</ele>
        <time>2014-01-12T11:23:11Z</time>
      </trkpt>
      <trkpt lat="45.63573" lon="4.5639">
        <ele>729</ele>
        <time>2014-01-12T11:23:14Z</time>
      </trkpt>
      <trkpt lat="45.63576" lon="4.56381">
        <ele>727</ele>
        <time>2014-01-12T11:23:17Z</time>
      </trkpt>
      <trkpt lat="45.63579" lon="4.56373">
        <ele>724</ele>
        <time>2014-01-12T11:23:20Z</time>
      </trkpt>
      <trkpt lat="45.63581" lon="4.56363">
        <ele>721</ele>
        <time>2014-01-12T11:23:23Z</time>
      </trkpt>
      <trkpt lat="45.63585" lon="4.56354">
        <ele>718</ele>
        <time>2014-01-12T11:23:26Z</time>
      </trkpt>
      <trkpt lat="45.63589" lon="4.56344">
        <ele>716</ele>
        <time>2014-01-12T11:23:29Z</time>
      </trkpt>
      <trkpt lat="45.63593" lon="4.56335">
        <ele>715</ele>
        <time>2014-01-12T11:23:32Z</time>
      </trkpt>
      <trkpt lat="45.63595" lon="4.56325">
        <ele>714</ele>
        <time>2014-01-12T11:23:35Z</time>
      </trkpt>
      <trkpt lat="45.63599" lon="4.56317">
        <ele>713</ele>
        <time>2014-01-12T11:23:38Z</time>
      </trkpt>
      <trkpt lat="45.63602" lon="4.56306">
        <ele>711</ele>
        <time>2014-01-12T11:23:41Z</time>
      </trkpt>
      <trkpt lat="45.63606" lon="4.56298">
        <ele>709</ele>
        <time>2014-01-12T11:23:44Z</time>
      </trkpt>
      <trkpt lat="45.6361" lon="4.5629">
        <ele>707</ele>
        <time>2014-01-12T11:23:47Z</time>
      </trkpt>
      <trkpt lat="45.63613" lon="4.56281">
        <ele>705</ele>
        <time>2014-01-12T11:23:50Z</time>
      </trkpt>
      <trkpt lat="45.63617" lon="4.56272">
        <ele>702</ele>
        <time>2014-01-12T11:23:53Z</time>
      </trkpt>
      <trkpt lat="45.6362" lon="4.56263">
        <ele>700</ele>
        <time>2014-01-12T11:23:56Z</time>
      </trkpt>
      <trkpt lat="45.63625" lon="4.56252">
        <ele>699</ele>
        <time>2014-01-12T11:23:59Z</time>
      </trkpt>
      <trkpt lat="45.63628" lon="4.56243">
        <ele>698</ele>
        <time>2014-01-12T11:24:02Z</time>
      </trkpt>
      <trkpt lat="45.63632" lon="4.56235">
        <ele>696</ele>
        <time>2014-01-12T11:24:05Z</time>
      </trkpt>
      <trkpt lat="45.63636" lon="4.56225">
        <ele>696</ele>
        <time>2014-01-12T11:24:08Z</time>
      </trkpt>
      <trkpt lat="45.63641" lon="4.56215">
        <ele>695</ele>
        <time>2014-01-12T11:24:11Z</time>
      </trkpt>
      <trkpt lat="45.63644" lon="4.56203">
        <ele>695</ele>
        <time>2014-01-12T11:24:14Z</time>
      </trkpt>
      <trkpt lat="45.63649" lon="4.56193">
        <ele>694</ele>
        <time>2014-01-12T11:24:17Z</time>
      </trkpt>
      <trkpt lat="45.63652" lon="4.56184">
        <ele>694</ele>
        <time>2014-01-12T11:24:20Z</time>
      </trkpt>
      <trkpt lat="45.63655" lon="4.56174">
        <ele>693</ele>
        <time>2014-01-12T11:24:23Z</time>
      </trkpt>
      <trkpt lat="45.63655" lon="4.56163">
        <ele>691</ele>
        <time>2014-01-12T11:24:26Z</time>
      </trkpt>
      <trkpt lat="45.63652" lon="4.56156">
        <ele>689</ele>
        <time>2014-01-12T11:24:29Z</time>
      </trkpt>
      <trkpt lat="45.63646" lon="4.5615">
        <ele>689</ele>
        <time>2014-01-12T11:24:32Z</time>
      </trkpt>
      <trkpt lat="45.6364" lon="4.56142">
        <ele>689</ele>
        <time>2014-01-12T11:24:35Z</time>
      </trkpt>
      <trkpt lat="45.63635" lon="4.56132">
        <ele>689</ele>
        <time>2014-01-12T11:24:38Z</time>
      </trkpt>
      <trkpt lat="45.63631" lon="4.56123">
        <ele>689</ele>
        <time>2014-01-12T11:24:41Z</time>
      </trkpt>
      <trkpt lat="45.6363" lon="4.56113">
        <ele>689</ele>
        <time>2014-01-12T11:24:44Z</time>
      </trkpt>
      <trkpt lat="45.63628" lon="4.56105">
        <ele>689</ele>
        <time>2014-01-12T11:24:47Z</time>
      </trkpt>
      <trkpt lat="45.63628" lon="4.56096">
        <ele>689</ele>
        <time>2014-01-12T11:24:50Z</time>
      </trkpt>
      <trkpt lat="45.63626" lon="4.56085">
        <ele>689</ele>
        <time>2014-01-12T11:24:53Z</time>
      </trkpt>
      <trkpt lat="45.63626" lon="4.56078">
        <ele>689</ele>
        <time>2014-01-12T11:24:56Z</time>
      </trkpt>
      <trkpt lat="45.63627" lon="4.56073">
        <ele>689</ele>
        <time>2014-01-12T11:24:59Z</time>
      </trkpt>
      <trkpt lat="45.63628" lon="4.56068">
        <ele>689</ele>
        <time>2014-01-12T11:25:02Z</time>
      </trkpt>
      <trkpt lat="45.63628" lon="4.56063">
        <ele>689</ele>
        <time>2014-01-12T11:25:05Z</time>
      </trkpt>
      <trkpt lat="45.63629" lon="4.56058">
        <ele>689</ele>
        <time>2014-01-12T11:25:08Z</time>
      </trkpt>
      <trkpt lat="45.63628" lon="4.56053">
        <ele>689</ele>
        <time>2014-01-12T11:25:11Z</time>
      </trkpt>
      <trkpt lat="45.63629" lon="4.56047">
        <ele>689</ele>
        <time>2014-01-12T11:25:14Z</time>
      </trkpt>
      <trkpt lat="45.6363" lon="4.56043">
        <ele>689</ele>
        <time>2014-01-12T11:25:17Z</time>
      </trkpt>
      <trkpt lat="45.63632" lon="4.56038">
        <ele>689</ele>
        <time>2014-01-12T11:25:20Z</time>
      </trkpt>
      <trkpt lat="45.63633" lon="4.56033">
        <ele>689</ele>
        <time>2014-01-12T11:25:23Z</time>
      </trkpt>
      <trkpt lat="45.63635" lon="4.56028">
        <ele>689</ele>
        <time>2014-01-12T11:25:26Z</time>
      </trkpt>
      <trkpt lat="45.63636" lon="4.56023">
        <ele>689</ele>
        <time>2014-01-12T11:25:29Z</time>
      </trkpt>
      <trkpt lat="45.63636" lon="4.56017">
        <ele>689</ele>
        <time>2014-01-12T11:25:32Z</time>
      </trkpt>
      <trkpt lat="45.63637" lon="4.56011">
        <ele>689</ele>
        <time>2014-01-12T11:25:35Z</time>
      </trkpt>
      <trkpt lat="45.63637" lon="4.56006">
        <ele>689</ele>
        <time>2014-01-12T11:25:38Z</time>
      </trkpt>
      <trkpt lat="45.63638" lon="4.56">
        <ele>689</ele>
        <time>2014-01-12T11:25:41Z</time>
      </trkpt>
      <trkpt lat="45.63638" lon="4.55994">
        <ele>689</ele>
        <time>2014-01-12T11:25:44Z</time>
      </trkpt>
      <trkpt lat="45.63639" lon="4.55988">
        <ele>690</ele>
        <time>2014-01-12T11:25:47Z</time>
      </trkpt>
      <trkpt lat="45.63639" lon="4.55982">
        <ele>690</ele>
        <time>2014-01-12T11:25:50Z</time>
      </trkpt>
      <trkpt lat="45.63639" lon="4.55976">
        <ele>690</ele>
        <time>2014-01-12T11:25:53Z</time>
      </trkpt>
      <trkpt lat="45.63639" lon="4.5597">
        <ele>690</ele>
        <time>2014-01-12T11:25:56Z</time>
      </trkpt>
      <trkpt lat="45.63639" lon="4.55965">
        <ele>690</ele>
        <time>2014-01-12T11:25:59Z</time>
      </trkpt>
      <trkpt lat="45.63639" lon="4.55959">
        <ele>690</ele>
        <time>2014-01-12T11:26:02Z</time>
      </trkpt>
      <trkpt lat="45.63639" lon="4.55954">
        <ele>690</ele>
        <time>2014-01-12T11:26:05Z</time>
      </trkpt>
      <trkpt lat="45.63639" lon="4.55948">
        <ele>690</ele>
        <time>2014-01-12T11:26:08Z</time>
      </trkpt>
      <trkpt lat="45.63642" lon="4.55944">
        <ele>690</ele>
        <time>2014-01-12T11:26:11Z</time>
      </trkpt>
      <trkpt lat="45.63646" lon="4.55942">
        <ele>690</ele>
        <time>2014-01-12T11:26:14Z</time>
      </trkpt>
      <trkpt lat="45.63651" lon="4.55939">
        <ele>690</ele>
        <time>2014-01-12T11:26:17Z</time>
      </trkpt>
      <trkpt lat="45.63655" lon="4.55937">
        <ele>690</ele>
        <time>2014-01-12T11:26:20Z</time>
      </trkpt>
      <trkpt lat="45.6366" lon="4.55936">
        <ele>690</ele>
        <time>2014-01-12T11:26:23Z</time>
      </trkpt>
      <trkpt lat="45.63664" lon="4.55936">
        <ele>690</ele>
        <time>2014-01-12T11:26:26Z</time>
      </trkpt>
      <trkpt lat="45.6367" lon="4.55934">
        <ele>690</ele>
        <time>2014-01-12T11:26:29Z</time>
      </trkpt>
      <trkpt lat="45.63675" lon="4.55931">
        <ele>691</ele>
        <time>2014-01-12T11:26:32Z</time>
      </trkpt>
      <trkpt lat="45.63681" lon="4.55928">
        <ele>692</ele>
        <time>2014-01-12T11:26:35Z</time>
      </trkpt>
      <trkpt lat="45.63687" lon="4.55925">
        <ele>693</ele>
        <time>2014-01-12T11:26:38Z</time>
      </trkpt>
      <trkpt lat="45.63692" lon="4.5592">
        <ele>695</ele>
        <time>2014-01-12T11:26:41Z</time>
      </trkpt>
      <trkpt lat="45.63698" lon="4.55914">
        <ele>696</ele>
        <time>2014-01-12T11:26:44Z</time>
      </trkpt>
      <trkpt lat="45.63704" lon="4.55908">
        <ele>697</ele>
        <time>2014-01-12T11:26:47Z</time>
      </trkpt>
      <trkpt lat="45.63711" lon="4.55904">
        <ele>698</ele>
        <time>2014-01-12T11:26:50Z</time>
      </trkpt>
      <trkpt lat="45.63717" lon="4.55899">
        <ele>699</ele>
        <time>2014-01-12T11:26:53Z</time>
      </trkpt>
      <trkpt lat="45.63721" lon="4.55897">
        <ele>700</ele>
        <time>2014-01-12T11:26:56Z</time>
      </trkpt>
      <trkpt lat="45.63724" lon="4.55894">
        <ele>700</ele>
        <time>2014-01-12T11:26:59Z</time>
      </trkpt>
      <trkpt lat="45.63728" lon="4.55892">
        <ele>701</ele>
        <time>2014-01-12T11:27:02Z</time>
      </trkpt>
      <trkpt lat="45.63731" lon="4.5589">
        <ele>701</ele>
        <time>2014-01-12T11:27:05Z</time>
      </trkpt>
      <trkpt lat="45.63736" lon="4.55887">
        <ele>701</ele>
        <time>2014-01-12T11:27:09Z</time>
      </trkpt>
      <trkpt lat="45.63739" lon="4.55884">
        <ele>701</ele>
        <time>2014-01-12T11:27:12Z</time>
      </trkpt>
      <trkpt lat="45.63742" lon="4.55882">
        <ele>701</ele>
        <time>2014-01-12T11:27:15Z</time>
      </trkpt>
      <trkpt lat="45.63745" lon="4.55879">
        <ele>701</ele>
        <time>2014-01-12T11:27:18Z</time>
      </trkpt>
      <trkpt lat="45.63749" lon="4.55877">
        <ele>701</ele>
        <time>2014-01-12T11:27:21Z</time>
      </trkpt>
      <trkpt lat="45.63752" lon="4.55875">
        <ele>701</ele>
        <time>2014-01-12T11:27:24Z</time>
      </trkpt>
      <trkpt lat="45.63755" lon="4.55873">
        <ele>701</ele>
        <time>2014-01-12T11:27:27Z</time>
      </trkpt>
      <trkpt lat="45.63758" lon="4.55871">
        <ele>701</ele>
        <time>2014-01-12T11:27:30Z</time>
      </trkpt>
      <trkpt lat="45.63762" lon="4.55868">
        <ele>701</ele>
        <time>2014-01-12T11:27:33Z</time>
      </trkpt>
      <trkpt lat="45.63765" lon="4.55866">
        <ele>701</ele>
        <time>2014-01-12T11:27:36Z</time>
      </trkpt>
      <trkpt lat="45.63768" lon="4.55863">
        <ele>701</ele>
        <time>2014-01-12T11:27:39Z</time>
      </trkpt>
      <trkpt lat="45.63771" lon="4.55861">
        <ele>701</ele>
        <time>2014-01-12T11:27:42Z</time>
      </trkpt>
      <trkpt lat="45.63775" lon="4.55858">
        <ele>701</ele>
        <time>2014-01-12T11:27:45Z</time>
      </trkpt>
      <trkpt lat="45.63778" lon="4.55855">
        <ele>701</ele>
        <time>2014-01-12T11:27:48Z</time>
      </trkpt>
      <trkpt lat="45.63781" lon="4.55853">
        <ele>702</ele>
        <time>2014-01-12T11:27:52Z</time>
      </trkpt>
      <trkpt lat="45.63784" lon="4.55851">
        <ele>702</ele>
        <time>2014-01-12T11:27:55Z</time>
      </trkpt>
      <trkpt lat="45.63788" lon="4.55848">
        <ele>702</ele>
        <time>2014-01-12T11:27:59Z</time>
      </trkpt>
      <trkpt lat="45.63792" lon="4.55843">
        <ele>703</ele>
        <time>2014-01-12T11:28:03Z</time>
      </trkpt>
      <trkpt lat="45.63794" lon="4.55841">
        <ele>703</ele>
        <time>2014-01-12T11:28:06Z</time>
      </trkpt>
      <trkpt lat="45.63799" lon="4.55839">
        <ele>703</ele>
        <time>2014-01-12T11:28:10Z</time>
      </trkpt>
      <trkpt lat="45.63802" lon="4.55838">
        <ele>704</ele>
        <time>2014-01-12T11:28:13Z</time>
      </trkpt>
      <trkpt lat="45.63806" lon="4.55836">
        <ele>704</ele>
        <time>2014-01-12T11:28:16Z</time>
      </trkpt>
      <trkpt lat="45.63809" lon="4.55834">
        <ele>704</ele>
        <time>2014-01-12T11:28:19Z</time>
      </trkpt>
      <trkpt lat="45.63813" lon="4.55831">
        <ele>704</ele>
        <time>2014-01-12T11:28:22Z</time>
      </trkpt>
      <trkpt lat="45.63816" lon="4.55828">
        <ele>704</ele>
        <time>2014-01-12T11:28:26Z</time>
      </trkpt>
      <trkpt lat="45.6382" lon="4.55825">
        <ele>704</ele>
        <time>2014-01-12T11:28:30Z</time>
      </trkpt>
      <trkpt lat="45.63823" lon="4.5582">
        <ele>705</ele>
        <time>2014-01-12T11:28:34Z</time>
      </trkpt>
      <trkpt lat="45.63827" lon="4.55815">
        <ele>706</ele>
        <time>2014-01-12T11:28:38Z</time>
      </trkpt>
      <trkpt lat="45.6383" lon="4.55809">
        <ele>708</ele>
        <time>2014-01-12T11:28:42Z</time>
      </trkpt>
      <trkpt lat="45.63833" lon="4.55804">
        <ele>709</ele>
        <time>2014-01-12T11:28:46Z</time>
      </trkpt>
      <trkpt lat="45.63835" lon="4.558">
        <ele>709</ele>
        <time>2014-01-12T11:28:49Z</time>
      </trkpt>
      <trkpt lat="45.63837" lon="4.55796">
        <ele>710</ele>
        <time>2014-01-12T11:28:52Z</time>
      </trkpt>
      <trkpt lat="45.6384" lon="4.5579">
        <ele>711</ele>
        <time>2014-01-12T11:28:56Z</time>
      </trkpt>
      <trkpt lat="45.63842" lon="4.55785">
        <ele>712</ele>
        <time>2014-01-12T11:28:59Z</time>
      </trkpt>
      <trkpt lat="45.63845" lon="4.5578">
        <ele>713</ele>
        <time>2014-01-12T11:29:03Z</time>
      </trkpt>
      <trkpt lat="45.63849" lon="4.55775">
        <ele>714</ele>
        <time>2014-01-12T11:29:07Z</time>
      </trkpt>
      <trkpt lat="45.63852" lon="4.55774">
        <ele>715</ele>
        <time>2014-01-12T11:29:11Z</time>
      </trkpt>
      <trkpt lat="45.63855" lon="4.55771">
        <ele>715</ele>
        <time>2014-01-12T11:29:14Z</time>
      </trkpt>
      <trkpt lat="45.63858" lon="4.55768">
        <ele>715</ele>
        <time>2014-01-12T11:29:17Z</time>
      </trkpt>
      <trkpt lat="45.6386" lon="4.55763">
        <ele>715</ele>
        <time>2014-01-12T11:29:20Z</time>
      </trkpt>
      <trkpt lat="45.63864" lon="4.55758">
        <ele>715</ele>
        <time>2014-01-12T11:29:24Z</time>
      </trkpt>
      <trkpt lat="45.63868" lon="4.55753">
        <ele>715</ele>
        <time>2014-01-12T11:29:28Z</time>
      </trkpt>
      <trkpt lat="45.63872" lon="4.55751">
        <ele>716</ele>
        <time>2014-01-12T11:29:31Z</time>
      </trkpt>
      <trkpt lat="45.63875" lon="4.55747">
        <ele>716</ele>
        <time>2014-01-12T11:29:34Z</time>
      </trkpt>
      <trkpt lat="45.63879" lon="4.55744">
        <ele>717</ele>
        <time>2014-01-12T11:29:37Z</time>
      </trkpt>
      <trkpt lat="45.63882" lon="4.55742">
        <ele>718</ele>
        <time>2014-01-12T11:29:40Z</time>
      </trkpt>
      <trkpt lat="45.63888" lon="4.55739">
        <ele>718</ele>
        <time>2014-01-12T11:29:43Z</time>
      </trkpt>
      <trkpt lat="45.63894" lon="4.55737">
        <ele>718</ele>
        <time>2014-01-12T11:29:46Z</time>
      </trkpt>
      <trkpt lat="45.63901" lon="4.55737">
        <ele>718</ele>
        <time>2014-01-12T11:29:49Z</time>
      </trkpt>
      <trkpt lat="45.63908" lon="4.55738">
        <ele>718</ele>
        <time>2014-01-12T11:29:52Z</time>
      </trkpt>
      <trkpt lat="45.63914" lon="4.5574">
        <ele>718</ele>
        <time>2014-01-12T11:29:55Z</time>
      </trkpt>
      <trkpt lat="45.63918" lon="4.55741">
        <ele>718</ele>
        <time>2014-01-12T11:29:58Z</time>
      </trkpt>
      <trkpt lat="45.63921" lon="4.55742">
        <ele>718</ele>
        <time>2014-01-12T11:30:01Z</time>
      </trkpt>
      <trkpt lat="45.63925" lon="4.55743">
        <ele>718</ele>
        <time>2014-01-12T11:30:04Z</time>
      </trkpt>
      <trkpt lat="45.63929" lon="4.55745">
        <ele>718</ele>
        <time>2014-01-12T11:30:07Z</time>
      </trkpt>
      <trkpt lat="45.63932" lon="4.55747">
        <ele>718</ele>
        <time>2014-01-12T11:30:10Z</time>
      </trkpt>
      <trkpt lat="45.63937" lon="4.55748">
        <ele>718</ele>
        <time>2014-01-12T11:30:13Z</time>
      </trkpt>
      <trkpt lat="45.6394" lon="4.5575">
        <ele>718</ele>
        <time>2014-01-12T11:30:16Z</time>
      </trkpt>
      <trkpt lat="45.63944" lon="4.55751">
        <ele>718</ele>
        <time>2014-01-12T11:30:19Z</time>
      </trkpt>
      <trkpt lat="45.63948" lon="4.55752">
        <ele>718</ele>
        <time>2014-01-12T11:30:22Z</time>
      </trkpt>
      <trkpt lat="45.63951" lon="4.55754">
        <ele>718</ele>
        <time>2014-01-12T11:30:25Z</time>
      </trkpt>
      <trkpt lat="45.63956" lon="4.55755">
        <ele>718</ele>
        <time>2014-01-12T11:30:28Z</time>
      </trkpt>
      <trkpt lat="45.63959" lon="4.55757">
        <ele>718</ele>
        <time>2014-01-12T11:30:31Z</time>
      </trkpt>
      <trkpt lat="45.63963" lon="4.55758">
        <ele>718</ele>
        <time>2014-01-12T11:30:34Z</time>
      </trkpt>
      <trkpt lat="45.63967" lon="4.55759">
        <ele>718</ele>
        <time>2014-01-12T11:30:37Z</time>
      </trkpt>
      <trkpt lat="45.63971" lon="4.55761">
        <ele>718</ele>
        <time>2014-01-12T11:30:40Z</time>
      </trkpt>
      <trkpt lat="45.63975" lon="4.55762">
        <ele>718</ele>
        <time>2014-01-12T11:30:43Z</time>
      </trkpt>
      <trkpt lat="45.63979" lon="4.55764">
        <ele>719</ele>
        <time>2014-01-12T11:30:46Z</time>
      </trkpt>
      <trkpt lat="45.63983" lon="4.55766">
        <ele>719</ele>
        <time>2014-01-12T11:30:49Z</time>
      </trkpt>
      <trkpt lat="45.63987" lon="4.55768">
        <ele>719</ele>
        <time>2014-01-12T11:30:52Z</time>
      </trkpt>
      <trkpt lat="45.63991" lon="4.5577">
        <ele>720</ele>
        <time>2014-01-12T11:30:55Z</time>
      </trkpt>
      <trkpt lat="45.63995" lon="4.55772">
        <ele>720</ele>
        <time>2014-01-12T11:30:58Z</time>
      </trkpt>
      <trkpt lat="45.64001" lon="4.55774">
        <ele>720</ele>
        <time>2014-01-12T11:31:01Z</time>
      </trkpt>
      <trkpt lat="45.64007" lon="4.55775">
        <ele>720</ele>
        <time>2014-01-12T11:31:04Z</time>
      </trkpt>
      <trkpt lat="45.64013" lon="4.55775">
        <ele>720</ele>
        <time>2014-01-12T11:31:07Z</time>
      </trkpt>
      <trkpt lat="45.64022" lon="4.55775">
        <ele>720</ele>
        <time>2014-01-12T11:31:10Z</time>
      </trkpt>
      <trkpt lat="45.6403" lon="4.55774">
        <ele>721</ele>
        <time>2014-01-12T11:31:13Z</time>
      </trkpt>
      <trkpt lat="45.64037" lon="4.55773">
        <ele>722</ele>
        <time>2014-01-12T11:31:16Z</time>
      </trkpt>
      <trkpt lat="45.64045" lon="4.55772">
        <ele>723</ele>
        <time>2014-01-12T11:31:19Z</time>
      </trkpt>
      <trkpt lat="45.64053" lon="4.5577">
        <ele>723</ele>
        <time>2014-01-12T11:31:22Z</time>
      </trkpt>
      <trkpt lat="45.64062" lon="4.55769">
        <ele>724</ele>
        <time>2014-01-12T11:31:25Z</time>
      </trkpt>
      <trkpt lat="45.6407" lon="4.55767">
        <ele>725</ele>
        <time>2014-01-12T11:31:28Z</time>
      </trkpt>
      <trkpt lat="45.64077" lon="4.55764">
        <ele>725</ele>
        <time>2014-01-12T11:31:31Z</time>
      </trkpt>
      <trkpt lat="45.64085" lon="4.55761">
        <ele>726</ele>
        <time>2014-01-12T11:31:34Z</time>
      </trkpt>
      <trkpt lat="45.64092" lon="4.55758">
        <ele>726</ele>
        <time>2014-01-12T11:31:37Z</time>
      </trkpt>
      <trkpt lat="45.64098" lon="4.55754">
        <ele>726</ele>
        <time>2014-01-12T11:31:40Z</time>
      </trkpt>
      <trkpt lat="45.64104" lon="4.5575">
        <ele>726</ele>
        <time>2014-01-12T11:31:43Z</time>
      </trkpt>
      <trkpt lat="45.64111" lon="4.55746">
        <ele>726</ele>
        <time>2014-01-12T11:31:46Z</time>
      </trkpt>
      <trkpt lat="45.64117" lon="4.55741">
        <ele>726</ele>
        <time>2014-01-12T11:31:49Z</time>
      </trkpt>
      <trkpt lat="45.64123" lon="4.55736">
        <ele>726</ele>
        <time>2014-01-12T11:31:52Z</time>
      </trkpt>
      <trkpt lat="45.64129" lon="4.55731">
        <ele>726</ele>
        <time>2014-01-12T11:31:55Z</time>
      </trkpt>
      <trkpt lat="45.64135" lon="4.55726">
        <ele>727</ele>
        <time>2014-01-12T11:31:58Z</time>
      </trkpt>
      <trkpt lat="45.64141" lon="4.55723">
        <ele>727</ele>
        <time>2014-01-12T11:32:01Z</time>
      </trkpt>
      <trkpt lat="45.64146" lon="4.55718">
        <ele>727</ele>
        <time>2014-01-12T11:32:04Z</time>
      </trkpt>
      <trkpt lat="45.64151" lon="4.55713">
        <ele>727</ele>
        <time>2014-01-12T11:32:07Z</time>
      </trkpt>
      <trkpt lat="45.64156" lon="4.55711">
        <ele>728</ele>
        <time>2014-01-12T11:32:10Z</time>
      </trkpt>
      <trkpt lat="45.6416" lon="4.5571">
        <ele>728</ele>
        <time>2014-01-12T11:32:13Z</time>
      </trkpt>
      <trkpt lat="45.64164" lon="4.55708">
        <ele>728</ele>
        <time>2014-01-12T11:32:17Z</time>
      </trkpt>
      <trkpt lat="45.64168" lon="4.55706">
        <ele>728</ele>
        <time>2014-01-12T11:32:20Z</time>
      </trkpt>
      <trkpt lat="45.64171" lon="4.55704">
        <ele>728</ele>
        <time>2014-01-12T11:32:23Z</time>
      </trkpt>
      <trkpt lat="45.64175" lon="4.55702">
        <ele>728</ele>
        <time>2014-01-12T11:32:26Z</time>
      </trkpt>
      <trkpt lat="45.64178" lon="4.557">
        <ele>728</ele>
        <time>2014-01-12T11:32:29Z</time>
      </trkpt>
      <trkpt lat="45.64181" lon="4.557">
        <ele>728</ele>
        <time>2014-01-12T11:32:32Z</time>
      </trkpt>
      <trkpt lat="45.64186" lon="4.55698">
        <ele>728</ele>
        <time>2014-01-12T11:32:35Z</time>
      </trkpt>
      <trkpt lat="45.6419" lon="4.55697">
        <ele>728</ele>
        <time>2014-01-12T11:32:38Z</time>
      </trkpt>
      <trkpt lat="45.64194" lon="4.55696">
        <ele>728</ele>
        <time>2014-01-12T11:32:41Z</time>
      </trkpt>
      <trkpt lat="45.64198" lon="4.55694">
        <ele>728</ele>
        <time>2014-01-12T11:32:44Z</time>
      </trkpt>
      <trkpt lat="45.64201" lon="4.55692">
        <ele>728</ele>
        <time>2014-01-12T11:32:47Z</time>
      </trkpt>
      <trkpt lat="45.64206" lon="4.55691">
        <ele>728</ele>
        <time>2014-01-12T11:32:51Z</time>
      </trkpt>
      <trkpt lat="45.6421" lon="4.5569">
        <ele>728</ele>
        <time>2014-01-12T11:32:54Z</time>
      </trkpt>
      <trkpt lat="45.64214" lon="4.55689">
        <ele>728</ele>
        <time>2014-01-12T11:32:57Z</time>
      </trkpt>
      <trkpt lat="45.64218" lon="4.55688">
        <ele>728</ele>
        <time>2014-01-12T11:33:00Z</time>
      </trkpt>
      <trkpt lat="45.64223" lon="4.55688">
        <ele>728</ele>
        <time>2014-01-12T11:33:03Z</time>
      </trkpt>
      <trkpt lat="45.64226" lon="4.55688">
        <ele>728</ele>
        <time>2014-01-12T11:33:06Z</time>
      </trkpt>
      <trkpt lat="45.6423" lon="4.55687">
        <ele>728</ele>
        <time>2014-01-12T11:33:09Z</time>
      </trkpt>
      <trkpt lat="45.64234" lon="4.55687">
        <ele>728</ele>
        <time>2014-01-12T11:33:12Z</time>
      </trkpt>
      <trkpt lat="45.6424" lon="4.55686">
        <ele>728</ele>
        <time>2014-01-12T11:33:16Z</time>
      </trkpt>
      <trkpt lat="45.64247" lon="4.55686">
        <ele>728</ele>
        <time>2014-01-12T11:33:20Z</time>
      </trkpt>
      <trkpt lat="45.64256" lon="4.55685">
        <ele>729</ele>
        <time>2014-01-12T11:33:24Z</time>
      </trkpt>
      <trkpt lat="45.64264" lon="4.55686">
        <ele>729</ele>
        <time>2014-01-12T11:33:28Z</time>
      </trkpt>
      <trkpt lat="45.64273" lon="4.55687">
        <ele>730</ele>
        <time>2014-01-12T11:33:32Z</time>
      </trkpt>
      <trkpt lat="45.64281" lon="4.55688">
        <ele>731</ele>
        <time>2014-01-12T11:33:36Z</time>
      </trkpt>
      <trkpt lat="45.64291" lon="4.55688">
        <ele>734</ele>
        <time>2014-01-12T11:33:40Z</time>
      </trkpt>
      <trkpt lat="45.64297" lon="4.55688">
        <ele>735</ele>
        <time>2014-01-12T11:33:43Z</time>
      </trkpt>
      <trkpt lat="45.64304" lon="4.55688">
        <ele>736</ele>
        <time>2014-01-12T11:33:46Z</time>
      </trkpt>
      <trkpt lat="45.64309" lon="4.55691">
        <ele>737</ele>
        <time>2014-01-12T11:33:49Z</time>
      </trkpt>
      <trkpt lat="45.64312" lon="4.55692">
        <ele>737</ele>
        <time>2014-01-12T11:33:52Z</time>
      </trkpt>
      <trkpt lat="45.64316" lon="4.55693">
        <ele>737</ele>
        <time>2014-01-12T11:33:55Z</time>
      </trkpt>
      <trkpt lat="45.6432" lon="4.55695">
        <ele>737</ele>
        <time>2014-01-12T11:33:58Z</time>
      </trkpt>
      <trkpt lat="45.64324" lon="4.55694">
        <ele>737</ele>
        <time>2014-01-12T11:34:01Z</time>
      </trkpt>
      <trkpt lat="45.64328" lon="4.55694">
        <ele>737</ele>
        <time>2014-01-12T11:34:04Z</time>
      </trkpt>
      <trkpt lat="45.64331" lon="4.55693">
        <ele>737</ele>
        <time>2014-01-12T11:34:07Z</time>
      </trkpt>
      <trkpt lat="45.64336" lon="4.55693">
        <ele>737</ele>
        <time>2014-01-12T11:34:10Z</time>
      </trkpt>
      <trkpt lat="45.64338" lon="4.5569">
        <ele>738</ele>
        <time>2014-01-12T11:34:13Z</time>
      </trkpt>
      <trkpt lat="45.64341" lon="4.55687">
        <ele>738</ele>
        <time>2014-01-12T11:34:16Z</time>
      </trkpt>
      <trkpt lat="45.64345" lon="4.55686">
        <ele>739</ele>
        <time>2014-01-12T11:34:19Z</time>
      </trkpt>
      <trkpt lat="45.64349" lon="4.55686">
        <ele>739</ele>
        <time>2014-01-12T11:34:22Z</time>
      </trkpt>
      <trkpt lat="45.64353" lon="4.55685">
        <ele>739</ele>
        <time>2014-01-12T11:34:25Z</time>
      </trkpt>
      <trkpt lat="45.64358" lon="4.55683">
        <ele>739</ele>
        <time>2014-01-12T11:34:29Z</time>
      </trkpt>
      <trkpt lat="45.64362" lon="4.55681">
        <ele>739</ele>
        <time>2014-01-12T11:34:32Z</time>
      </trkpt>
      <trkpt lat="45.64367" lon="4.55678">
        <ele>739</ele>
        <time>2014-01-12T11:34:35Z</time>
      </trkpt>
      <trkpt lat="45.6437" lon="4.55676">
        <ele>740</ele>
        <time>2014-01-12T11:34:38Z</time>
      </trkpt>
      <trkpt lat="45.64374" lon="4.55674">
        <ele>740</ele>
        <time>2014-01-12T11:34:41Z</time>
      </trkpt>
      <trkpt lat="45.64378" lon="4.55672">
        <ele>741</ele>
        <time>2014-01-12T11:34:44Z</time>
      </trkpt>
      <trkpt lat="45.64381" lon="4.55669">
        <ele>741</ele>
        <time>2014-01-12T11:34:47Z</time>
      </trkpt>
      <trkpt lat="45.64385" lon="4.55666">
        <ele>742</ele>
        <time>2014-01-12T11:34:50Z</time>
      </trkpt>
      <trkpt lat="45.64389" lon="4.55663">
        <ele>743</ele>
        <time>2014-01-12T11:34:53Z</time>
      </trkpt>
      <trkpt lat="45.64394" lon="4.55659">
        <ele>743</ele>
        <time>2014-01-12T11:34:56Z</time>
      </trkpt>
      <trkpt lat="45.644" lon="4.55655">
        <ele>743</ele>
        <time>2014-01-12T11:34:59Z</time>
      </trkpt>
      <trkpt lat="45.64405" lon="4.55651">
        <ele>744</ele>
        <time>2014-01-12T11:35:02Z</time>
      </trkpt>
      <trkpt lat="45.64411" lon="4.55648">
        <ele>744</ele>
        <time>2014-01-12T11:35:05Z</time>
      </trkpt>
      <trkpt lat="45.64416" lon="4.55645">
        <ele>745</ele>
        <time>2014-01-12T11:35:08Z</time>
      </trkpt>
      <trkpt lat="45.64422" lon="4.55642">
        <ele>745</ele>
        <time>2014-01-12T11:35:11Z</time>
      </trkpt>
      <trkpt lat="45.64427" lon="4.5564">
        <ele>745</ele>
        <time>2014-01-12T11:35:14Z</time>
      </trkpt>
      <trkpt lat="45.64433" lon="4.55636">
        <ele>746</ele>
        <time>2014-01-12T11:35:17Z</time>
      </trkpt>
      <trkpt lat="45.64441" lon="4.55632">
        <ele>746</ele>
        <time>2014-01-12T11:35:21Z</time>
      </trkpt>
      <trkpt lat="45.64447" lon="4.55629">
        <ele>746</ele>
        <time>2014-01-12T11:35:24Z</time>
      </trkpt>
      <trkpt lat="45.64453" lon="4.55625">
        <ele>746</ele>
        <time>2014-01-12T11:35:27Z</time>
      </trkpt>
      <trkpt lat="45.64459" lon="4.55623">
        <ele>746</ele>
        <time>2014-01-12T11:35:30Z</time>
      </trkpt>
      <trkpt lat="45.64465" lon="4.55619">
        <ele>746</ele>
        <time>2014-01-12T11:35:33Z</time>
      </trkpt>
      <trkpt lat="45.64472" lon="4.55617">
        <ele>746</ele>
        <time>2014-01-12T11:35:36Z</time>
      </trkpt>
      <trkpt lat="45.64479" lon="4.55614">
        <ele>746</ele>
        <time>2014-01-12T11:35:39Z</time>
      </trkpt>
      <trkpt lat="45.64484" lon="4.55611">
        <ele>746</ele>
        <time>2014-01-12T11:35:42Z</time>
      </trkpt>
      <trkpt lat="45.6449" lon="4.55609">
        <ele>746</ele>
        <time>2014-01-12T11:35:45Z</time>
      </trkpt>
      <trkpt lat="45.64496" lon="4.55606">
        <ele>746</ele>
        <time>2014-01-12T11:35:48Z</time>
      </trkpt>
      <trkpt lat="45.64504" lon="4.55603">
        <ele>746</ele>
        <time>2014-01-12T11:35:52Z</time>
      </trkpt>
      <trkpt lat="45.6451" lon="4.55602">
        <ele>746</ele>
        <time>2014-01-12T11:35:55Z</time>
      </trkpt>
      <trkpt lat="45.64516" lon="4.556">
        <ele>746</ele>
        <time>2014-01-12T11:35:58Z</time>
      </trkpt>
      <trkpt lat="45.64521" lon="4.55599">
        <ele>746</ele>
        <time>2014-01-12T11:36:01Z</time>
      </trkpt>
      <trkpt lat="45.64528" lon="4.55597">
        <ele>746</ele>
        <time>2014-01-12T11:36:04Z</time>
      </trkpt>
      <trkpt lat="45.64534" lon="4.55598">
        <ele>746</ele>
        <time>2014-01-12T11:36:07Z</time>
      </trkpt>
      <trkpt lat="45.64542" lon="4.55598">
        <ele>746</ele>
        <time>2014-01-12T11:36:11Z</time>
      </trkpt>
      <trkpt lat="45.64548" lon="4.55598">
        <ele>746</ele>
        <time>2014-01-12T11:36:14Z</time>
      </trkpt>
      <trkpt lat="45.64555" lon="4.55598">
        <ele>746</ele>
        <time>2014-01-12T11:36:17Z</time>
      </trkpt>
      <trkpt lat="45.64564" lon="4.55596">
        <ele>746</ele>
        <time>2014-01-12T11:36:21Z</time>
      </trkpt>
      <trkpt lat="45.64571" lon="4.55595">
        <ele>747</ele>
        <time>2014-01-12T11:36:24Z</time>
      </trkpt>
      <trkpt lat="45.64577" lon="4.55594">
        <ele>748</ele>
        <time>2014-01-12T11:36:27Z</time>
      </trkpt>
      <trkpt lat="45.64584" lon="4.55592">
        <ele>748</ele>
        <time>2014-01-12T11:36:30Z</time>
      </trkpt>
      <trkpt lat="45.64591" lon="4.55591">
        <ele>749</ele>
        <time>2014-01-12T11:36:34Z</time>
      </trkpt>
      <trkpt lat="45.64596" lon="4.55588">
        <ele>749</ele>
        <time>2014-01-12T11:36:37Z</time>
      </trkpt>
      <trkpt lat="45.646" lon="4.55582">
        <ele>749</ele>
        <time>2014-01-12T11:36:40Z</time>
      </trkpt>
      <trkpt lat="45.64604" lon="4.55576">
        <ele>749</ele>
        <time>2014-01-12T11:36:43Z</time>
      </trkpt>
      <trkpt lat="45.64607" lon="4.55569">
        <ele>750</ele>
        <time>2014-01-12T11:36:46Z</time>
      </trkpt>
      <trkpt lat="45.64611" lon="4.55562">
        <ele>750</ele>
        <time>2014-01-12T11:36:49Z</time>
      </trkpt>
      <trkpt lat="45.64614" lon="4.55552">
        <ele>750</ele>
        <time>2014-01-12T11:36:53Z</time>
      </trkpt>
      <trkpt lat="45.64616" lon="4.55545">
        <ele>750</ele>
        <time>2014-01-12T11:36:56Z</time>
      </trkpt>
      <trkpt lat="45.64618" lon="4.55535">
        <ele>750</ele>
        <time>2014-01-12T11:37:00Z</time>
      </trkpt>
      <trkpt lat="45.6462" lon="4.55527">
        <ele>750</ele>
        <time>2014-01-12T11:37:03Z</time>
      </trkpt>
      <trkpt lat="45.64621" lon="4.55521">
        <ele>750</ele>
        <time>2014-01-12T11:37:07Z</time>
      </trkpt>
      <trkpt lat="45.64622" lon="4.55516">
        <ele>750</ele>
        <time>2014-01-12T11:37:10Z</time>
      </trkpt>
      <trkpt lat="45.64624" lon="4.5551">
        <ele>750</ele>
        <time>2014-01-12T11:37:13Z</time>
      </trkpt>
      <trkpt lat="45.64626" lon="4.55498">
        <ele>750</ele>
        <time>2014-01-12T11:37:17Z</time>
      </trkpt>
      <trkpt lat="45.64627" lon="4.55485">
        <ele>750</ele>
        <time>2014-01-12T11:37:21Z</time>
      </trkpt>
      <trkpt lat="45.64628" lon="4.55476">
        <ele>750</ele>
        <time>2014-01-12T11:37:24Z</time>
      </trkpt>
      <trkpt lat="45.64631" lon="4.55468">
        <ele>750</ele>
        <time>2014-01-12T11:37:27Z</time>
      </trkpt>
      <trkpt lat="45.64632" lon="4.5546">
        <ele>750</ele>
        <time>2014-01-12T11:37:30Z</time>
      </trkpt>
      <trkpt lat="45.64635" lon="4.55452">
        <ele>750</ele>
        <time>2014-01-12T11:37:33Z</time>
      </trkpt>
      <trkpt lat="45.64637" lon="4.55446">
        <ele>750</ele>
        <time>2014-01-12T11:37:36Z</time>
      </trkpt>
      <trkpt lat="45.6464" lon="4.55437">
        <ele>750</ele>
        <time>2014-01-12T11:37:40Z</time>
      </trkpt>
      <trkpt lat="45.64643" lon="4.55428">
        <ele>750</ele>
        <time>2014-01-12T11:37:43Z</time>
      </trkpt>
      <trkpt lat="45.64647" lon="4.55418">
        <ele>750</ele>
        <time>2014-01-12T11:37:47Z</time>
      </trkpt>
      <trkpt lat="45.6465" lon="4.55411">
        <ele>750</ele>
        <time>2014-01-12T11:37:50Z</time>
      </trkpt>
      <trkpt lat="45.64654" lon="4.55403">
        <ele>750</ele>
        <time>2014-01-12T11:37:53Z</time>
      </trkpt>
      <trkpt lat="45.64659" lon="4.55395">
        <ele>750</ele>
        <time>2014-01-12T11:37:57Z</time>
      </trkpt>
      <trkpt lat="45.64663" lon="4.55389">
        <ele>751</ele>
        <time>2014-01-12T11:38:00Z</time>
      </trkpt>
      <trkpt lat="45.64668" lon="4.55383">
        <ele>751</ele>
        <time>2014-01-12T11:38:03Z</time>
      </trkpt>
      <trkpt lat="45.64674" lon="4.55376">
        <ele>751</ele>
        <time>2014-01-12T11:38:07Z</time>
      </trkpt>
      <trkpt lat="45.64678" lon="4.55371">
        <ele>751</ele>
        <time>2014-01-12T11:38:10Z</time>
      </trkpt>
      <trkpt lat="45.64683" lon="4.55365">
        <ele>751</ele>
        <time>2014-01-12T11:38:13Z</time>
      </trkpt>
      <trkpt lat="45.64689" lon="4.55356">
        <ele>752</ele>
        <time>2014-01-12T11:38:17Z</time>
      </trkpt>
      <trkpt lat="45.64694" lon="4.55349">
        <ele>752</ele>
        <time>2014-01-12T11:38:20Z</time>
      </trkpt>
      <trkpt lat="45.647" lon="4.55342">
        <ele>752</ele>
        <time>2014-01-12T11:38:23Z</time>
      </trkpt>
      <trkpt lat="45.64706" lon="4.55334">
        <ele>752</ele>
        <time>2014-01-12T11:38:27Z</time>
      </trkpt>
      <trkpt lat="45.64711" lon="4.55327">
        <ele>752</ele>
        <time>2014-01-12T11:38:30Z</time>
      </trkpt>
      <trkpt lat="45.64718" lon="4.55319">
        <ele>752</ele>
        <time>2014-01-12T11:38:34Z</time>
      </trkpt>
      <trkpt lat="45.64725" lon="4.55312">
        <ele>752</ele>
        <time>2014-01-12T11:38:38Z</time>
      </trkpt>
      <trkpt lat="45.64728" lon="4.55305">
        <ele>752</ele>
        <time>2014-01-12T11:38:41Z</time>
      </trkpt>
      <trkpt lat="45.64728" lon="4.55298">
        <ele>752</ele>
        <time>2014-01-12T11:38:44Z</time>
      </trkpt>
      <trkpt lat="45.64732" lon="4.55289">
        <ele>752</ele>
        <time>2014-01-12T11:38:48Z</time>
      </trkpt>
      <trkpt lat="45.64738" lon="4.55285">
        <ele>752</ele>
        <time>2014-01-12T11:38:51Z</time>
      </trkpt>
      <trkpt lat="45.64744" lon="4.55281">
        <ele>751</ele>
        <time>2014-01-12T11:38:54Z</time>
      </trkpt>
      <trkpt lat="45.6475" lon="4.55277">
        <ele>749</ele>
        <time>2014-01-12T11:38:58Z</time>
      </trkpt>
      <trkpt lat="45.64755" lon="4.55275">
        <ele>749</ele>
        <time>2014-01-12T11:39:01Z</time>
      </trkpt>
      <trkpt lat="45.64761" lon="4.55274">
        <ele>748</ele>
        <time>2014-01-12T11:39:04Z</time>
      </trkpt>
      <trkpt lat="45.64768" lon="4.5527">
        <ele>747</ele>
        <time>2014-01-12T11:39:08Z</time>
      </trkpt>
      <trkpt lat="45.64773" lon="4.55265">
        <ele>746</ele>
        <time>2014-01-12T11:39:11Z</time>
      </trkpt>
      <trkpt lat="45.64778" lon="4.55263">
        <ele>744</ele>
        <time>2014-01-12T11:39:14Z</time>
      </trkpt>
      <trkpt lat="45.64787" lon="4.55263">
        <ele>742</ele>
        <time>2014-01-12T11:39:18Z</time>
      </trkpt>
      <trkpt lat="45.64794" lon="4.5526">
        <ele>742</ele>
        <time>2014-01-12T11:39:21Z</time>
      </trkpt>
      <trkpt lat="45.64799" lon="4.55258">
        <ele>742</ele>
        <time>2014-01-12T11:39:24Z</time>
      </trkpt>
      <trkpt lat="45.64804" lon="4.55256">
        <ele>742</ele>
        <time>2014-01-12T11:39:28Z</time>
      </trkpt>
      <trkpt lat="45.64808" lon="4.55253">
        <ele>742</ele>
        <time>2014-01-12T11:39:32Z</time>
      </trkpt>
      <trkpt lat="45.6481" lon="4.55251">
        <ele>742</ele>
        <time>2014-01-12T11:39:35Z</time>
      </trkpt>
      <trkpt lat="45.64816" lon="4.55252">
        <ele>742</ele>
        <time>2014-01-12T11:39:40Z</time>
      </trkpt>
      <trkpt lat="45.64823" lon="4.5525">
        <ele>742</ele>
        <time>2014-01-12T11:39:44Z</time>
      </trkpt>
      <trkpt lat="45.64829" lon="4.55248">
        <ele>742</ele>
        <time>2014-01-12T11:39:47Z</time>
      </trkpt>
      <trkpt lat="45.64835" lon="4.55247">
        <ele>742</ele>
        <time>2014-01-12T11:39:50Z</time>
      </trkpt>
      <trkpt lat="45.64843" lon="4.55242">
        <ele>742</ele>
        <time>2014-01-12T11:39:54Z</time>
      </trkpt>
      <trkpt lat="45.64849" lon="4.55238">
        <ele>742</ele>
        <time>2014-01-12T11:39:57Z</time>
      </trkpt>
      <trkpt lat="45.64854" lon="4.55234">
        <ele>742</ele>
        <time>2014-01-12T11:40:00Z</time>
      </trkpt>
      <trkpt lat="45.64859" lon="4.55232">
        <ele>742</ele>
        <time>2014-01-12T11:40:03Z</time>
      </trkpt>
      <trkpt lat="45.64864" lon="4.55232">
        <ele>742</ele>
        <time>2014-01-12T11:40:06Z</time>
      </trkpt>
      <trkpt lat="45.64869" lon="4.55228">
        <ele>742</ele>
        <time>2014-01-12T11:40:10Z</time>
      </trkpt>
      <trkpt lat="45.64873" lon="4.55226">
        <ele>742</ele>
        <time>2014-01-12T11:40:14Z</time>
      </trkpt>
      <trkpt lat="45.64877" lon="4.55225">
        <ele>742</ele>
        <time>2014-01-12T11:40:18Z</time>
      </trkpt>
      <trkpt lat="45.64885" lon="4.55223">
        <ele>742</ele>
        <time>2014-01-12T11:40:22Z</time>
      </trkpt>
      <trkpt lat="45.64891" lon="4.5522">
        <ele>742</ele>
        <time>2014-01-12T11:40:25Z</time>
      </trkpt>
      <trkpt lat="45.64898" lon="4.55217">
        <ele>742</ele>
        <time>2014-01-12T11:40:28Z</time>
      </trkpt>
      <trkpt lat="45.64903" lon="4.55211">
        <ele>742</ele>
        <time>2014-01-12T11:40:32Z</time>
      </trkpt>
      <trkpt lat="45.64908" lon="4.55206">
        <ele>742</ele>
        <time>2014-01-12T11:40:35Z</time>
      </trkpt>
      <trkpt lat="45.64914" lon="4.55202">
        <ele>741</ele>
        <time>2014-01-12T11:40:38Z</time>
      </trkpt>
      <trkpt lat="45.6492" lon="4.55198">
        <ele>740</ele>
        <time>2014-01-12T11:40:41Z</time>
      </trkpt>
      <trkpt lat="45.64927" lon="4.55192">
        <ele>739</ele>
        <time>2014-01-12T11:40:45Z</time>
      </trkpt>
      <trkpt lat="45.64933" lon="4.55189">
        <ele>738</ele>
        <time>2014-01-12T11:40:48Z</time>
      </trkpt>
      <trkpt lat="45.64943" lon="4.55186">
        <ele>737</ele>
        <time>2014-01-12T11:40:52Z</time>
      </trkpt>
      <trkpt lat="45.64951" lon="4.55184">
        <ele>735</ele>
        <time>2014-01-12T11:40:56Z</time>
      </trkpt>
      <trkpt lat="45.64958" lon="4.55181">
        <ele>734</ele>
        <time>2014-01-12T11:40:59Z</time>
      </trkpt>
      <trkpt lat="45.64968" lon="4.55177">
        <ele>734</ele>
        <time>2014-01-12T11:41:03Z</time>
      </trkpt>
      <trkpt lat="45.64974" lon="4.55176">
        <ele>733</ele>
        <time>2014-01-12T11:41:06Z</time>
      </trkpt>
      <trkpt lat="45.64979" lon="4.55173">
        <ele>733</ele>
        <time>2014-01-12T11:41:09Z</time>
      </trkpt>
      <trkpt lat="45.64985" lon="4.55169">
        <ele>732</ele>
        <time>2014-01-12T11:41:12Z</time>
      </trkpt>
      <trkpt lat="45.6499" lon="4.55165">
        <ele>731</ele>
        <time>2014-01-12T11:41:15Z</time>
      </trkpt>
      <trkpt lat="45.64996" lon="4.5516">
        <ele>731</ele>
        <time>2014-01-12T11:41:18Z</time>
      </trkpt>
      <trkpt lat="45.65004" lon="4.55153">
        <ele>729</ele>
        <time>2014-01-12T11:41:22Z</time>
      </trkpt>
      <trkpt lat="45.6501" lon="4.55146">
        <ele>728</ele>
        <time>2014-01-12T11:41:25Z</time>
      </trkpt>
      <trkpt lat="45.65017" lon="4.55136">
        <ele>727</ele>
        <time>2014-01-12T11:41:29Z</time>
      </trkpt>
      <trkpt lat="45.65023" lon="4.5513">
        <ele>727</ele>
        <time>2014-01-12T11:41:32Z</time>
      </trkpt>
      <trkpt lat="45.65032" lon="4.55124">
        <ele>727</ele>
        <time>2014-01-12T11:41:36Z</time>
      </trkpt>
      <trkpt lat="45.6504" lon="4.55118">
        <ele>727</ele>
        <time>2014-01-12T11:41:40Z</time>
      </trkpt>
      <trkpt lat="45.65045" lon="4.55113">
        <ele>727</ele>
        <time>2014-01-12T11:41:43Z</time>
      </trkpt>
      <trkpt lat="45.65049" lon="4.55106">
        <ele>727</ele>
        <time>2014-01-12T11:41:46Z</time>
      </trkpt>
      <trkpt lat="45.65056" lon="4.55101">
        <ele>727</ele>
        <time>2014-01-12T11:41:49Z</time>
      </trkpt>
      <trkpt lat="45.65062" lon="4.55097">
        <ele>726</ele>
        <time>2014-01-12T11:41:52Z</time>
      </trkpt>
      <trkpt lat="45.65069" lon="4.55093">
        <ele>726</ele>
        <time>2014-01-12T11:41:55Z</time>
      </trkpt>
      <trkpt lat="45.65076" lon="4.55089">
        <ele>725</ele>
        <time>2014-01-12T11:41:58Z</time>
      </trkpt>
      <trkpt lat="45.65084" lon="4.55083">
        <ele>725</ele>
        <time>2014-01-12T11:42:02Z</time>
      </trkpt>
      <trkpt lat="45.65091" lon="4.55078">
        <ele>724</ele>
        <time>2014-01-12T11:42:05Z</time>
      </trkpt>
      <trkpt lat="45.65097" lon="4.55074">
        <ele>724</ele>
        <time>2014-01-12T11:42:08Z</time>
      </trkpt>
      <trkpt lat="45.65103" lon="4.5507">
        <ele>723</ele>
        <time>2014-01-12T11:42:11Z</time>
      </trkpt>
      <trkpt lat="45.65109" lon="4.55066">
        <ele>722</ele>
        <time>2014-01-12T11:42:14Z</time>
      </trkpt>
      <trkpt lat="45.65118" lon="4.5506">
        <ele>721</ele>
        <time>2014-01-12T11:42:18Z</time>
      </trkpt>
      <trkpt lat="45.65124" lon="4.55056">
        <ele>721</ele>
        <time>2014-01-12T11:42:21Z</time>
      </trkpt>
      <trkpt lat="45.65131" lon="4.55051">
        <ele>721</ele>
        <time>2014-01-12T11:42:24Z</time>
      </trkpt>
      <trkpt lat="45.6514" lon="4.55046">
        <ele>721</ele>
        <time>2014-01-12T11:42:28Z</time>
      </trkpt>
      <trkpt lat="45.65146" lon="4.55041">
        <ele>721</ele>
        <time>2014-01-12T11:42:31Z</time>
      </trkpt>
      <trkpt lat="45.65152" lon="4.55035">
        <ele>720</ele>
        <time>2014-01-12T11:42:34Z</time>
      </trkpt>
      <trkpt lat="45.6516" lon="4.55029">
        <ele>720</ele>
        <time>2014-01-12T11:42:38Z</time>
      </trkpt>
      <trkpt lat="45.65165" lon="4.55024">
        <ele>720</ele>
        <time>2014-01-12T11:42:41Z</time>
      </trkpt>
      <trkpt lat="45.65171" lon="4.55019">
        <ele>720</ele>
        <time>2014-01-12T11:42:44Z</time>
      </trkpt>
      <trkpt lat="45.65177" lon="4.55013">
        <ele>720</ele>
        <time>2014-01-12T11:42:47Z</time>
      </trkpt>
      <trkpt lat="45.65183" lon="4.55006">
        <ele>720</ele>
        <time>2014-01-12T11:42:50Z</time>
      </trkpt>
      <trkpt lat="45.6519" lon="4.54997">
        <ele>720</ele>
        <time>2014-01-12T11:42:54Z</time>
      </trkpt>
      <trkpt lat="45.65196" lon="4.54991">
        <ele>720</ele>
        <time>2014-01-12T11:42:57Z</time>
      </trkpt>
      <trkpt lat="45.65202" lon="4.54984">
        <ele>720</ele>
        <time>2014-01-12T11:43:00Z</time>
      </trkpt>
      <trkpt lat="45.65209" lon="4.54975">
        <ele>720</ele>
        <time>2014-01-12T11:43:04Z</time>
      </trkpt>
      <trkpt lat="45.65214" lon="4.54968">
        <ele>719</ele>
        <time>2014-01-12T11:43:07Z</time>
      </trkpt>
      <trkpt lat="45.6522" lon="4.54962">
        <ele>719</ele>
        <time>2014-01-12T11:43:10Z</time>
      </trkpt>
      <trkpt lat="45.65227" lon="4.54954">
        <ele>718</ele>
        <time>2014-01-12T11:43:14Z</time>
      </trkpt>
      <trkpt lat="45.65233" lon="4.54948">
        <ele>717</ele>
        <time>2014-01-12T11:43:17Z</time>
      </trkpt>
      <trkpt lat="45.65239" lon="4.54943">
        <ele>716</ele>
        <time>2014-01-12T11:43:20Z</time>
      </trkpt>
      <trkpt lat="45.65247" lon="4.54935">
        <ele>714</ele>
        <time>2014-01-12T11:43:24Z</time>
      </trkpt>
      <trkpt lat="45.65253" lon="4.54934">
        <ele>712</ele>
        <time>2014-01-12T11:43:27Z</time>
      </trkpt>
      <trkpt lat="45.65259" lon="4.54941">
        <ele>710</ele>
        <time>2014-01-12T11:43:30Z</time>
      </trkpt>
      <trkpt lat="45.65263" lon="4.54948">
        <ele>708</ele>
        <time>2014-01-12T11:43:33Z</time>
      </trkpt>
      <trkpt lat="45.65267" lon="4.54959">
        <ele>706</ele>
        <time>2014-01-12T11:43:37Z</time>
      </trkpt>
      <trkpt lat="45.65269" lon="4.54966">
        <ele>705</ele>
        <time>2014-01-12T11:43:40Z</time>
      </trkpt>
      <trkpt lat="45.65273" lon="4.54976">
        <ele>703</ele>
        <time>2014-01-12T11:43:44Z</time>
      </trkpt>
      <trkpt lat="45.65276" lon="4.54983">
        <ele>701</ele>
        <time>2014-01-12T11:43:47Z</time>
      </trkpt>
      <trkpt lat="45.65279" lon="4.5499">
        <ele>700</ele>
        <time>2014-01-12T11:43:50Z</time>
      </trkpt>
      <trkpt lat="45.65282" lon="4.54998">
        <ele>698</ele>
        <time>2014-01-12T11:43:53Z</time>
      </trkpt>
      <trkpt lat="45.65286" lon="4.55007">
        <ele>696</ele>
        <time>2014-01-12T11:43:57Z</time>
      </trkpt>
      <trkpt lat="45.6529" lon="4.55014">
        <ele>695</ele>
        <time>2014-01-12T11:44:00Z</time>
      </trkpt>
      <trkpt lat="45.65294" lon="4.5502">
        <ele>694</ele>
        <time>2014-01-12T11:44:03Z</time>
      </trkpt>
      <trkpt lat="45.653" lon="4.55027">
        <ele>693</ele>
        <time>2014-01-12T11:44:06Z</time>
      </trkpt>
      <trkpt lat="45.65305" lon="4.55036">
        <ele>692</ele>
        <time>2014-01-12T11:44:10Z</time>
      </trkpt>
      <trkpt lat="45.65307" lon="4.55043">
        <ele>690</ele>
        <time>2014-01-12T11:44:13Z</time>
      </trkpt>
      <trkpt lat="45.65311" lon="4.5505">
        <ele>689</ele>
        <time>2014-01-12T11:44:16Z</time>
      </trkpt>
      <trkpt lat="45.65316" lon="4.55056">
        <ele>688</ele>
        <time>2014-01-12T11:44:19Z</time>
      </trkpt>
      <trkpt lat="45.65321" lon="4.5506">
        <ele>688</ele>
        <time>2014-01-12T11:44:22Z</time>
      </trkpt>
      <trkpt lat="45.65325" lon="4.55066">
        <ele>688</ele>
        <time>2014-01-12T11:44:25Z</time>
      </trkpt>
      <trkpt lat="45.65329" lon="4.55074">
        <ele>688</ele>
        <time>2014-01-12T11:44:28Z</time>
      </trkpt>
      <trkpt lat="45.65334" lon="4.5508">
        <ele>687</ele>
        <time>2014-01-12T11:44:31Z</time>
      </trkpt>
      <trkpt lat="45.65339" lon="4.55087">
        <ele>686</ele>
        <time>2014-01-12T11:44:35Z</time>
      </trkpt>
      <trkpt lat="45.65344" lon="4.55091">
        <ele>684</ele>
        <time>2014-01-12T11:44:38Z</time>
      </trkpt>
      <trkpt lat="45.65349" lon="4.55096">
        <ele>683</ele>
        <time>2014-01-12T11:44:41Z</time>
      </trkpt>
      <trkpt lat="45.65354" lon="4.55105">
        <ele>681</ele>
        <time>2014-01-12T11:44:45Z</time>
      </trkpt>
      <trkpt lat="45.65356" lon="4.55111">
        <ele>679</ele>
        <time>2014-01-12T11:44:48Z</time>
      </trkpt>
      <trkpt lat="45.6536" lon="4.55119">
        <ele>679</ele>
        <time>2014-01-12T11:44:51Z</time>
      </trkpt>
      <trkpt lat="45.65365" lon="4.55125">
        <ele>679</ele>
        <time>2014-01-12T11:44:54Z</time>
      </trkpt>
      <trkpt lat="45.65369" lon="4.55132">
        <ele>679</ele>
        <time>2014-01-12T11:44:57Z</time>
      </trkpt>
      <trkpt lat="45.65374" lon="4.5514">
        <ele>679</ele>
        <time>2014-01-12T11:45:00Z</time>
      </trkpt>
      <trkpt lat="45.65379" lon="4.55148">
        <ele>678</ele>
        <time>2014-01-12T11:45:03Z</time>
      </trkpt>
      <trkpt lat="45.65383" lon="4.55156">
        <ele>677</ele>
        <time>2014-01-12T11:45:06Z</time>
      </trkpt>
      <trkpt lat="45.65389" lon="4.55166">
        <ele>677</ele>
        <time>2014-01-12T11:45:10Z</time>
      </trkpt>
      <trkpt lat="45.65393" lon="4.55174">
        <ele>677</ele>
        <time>2014-01-12T11:45:13Z</time>
      </trkpt>
      <trkpt lat="45.65398" lon="4.55185">
        <ele>676</ele>
        <time>2014-01-12T11:45:17Z</time>
      </trkpt>
      <trkpt lat="45.65403" lon="4.55192">
        <ele>675</ele>
        <time>2014-01-12T11:45:20Z</time>
      </trkpt>
      <trkpt lat="45.65407" lon="4.55199">
        <ele>675</ele>
        <time>2014-01-12T11:45:23Z</time>
      </trkpt>
      <trkpt lat="45.65412" lon="4.55205">
        <ele>674</ele>
        <time>2014-01-12T11:45:26Z</time>
      </trkpt>
      <trkpt lat="45.65418" lon="4.5521">
        <ele>673</ele>
        <time>2014-01-12T11:45:29Z</time>
      </trkpt>
      <trkpt lat="45.65424" lon="4.55213">
        <ele>673</ele>
        <time>2014-01-12T11:45:32Z</time>
      </trkpt>
      <trkpt lat="45.65431" lon="4.55215">
        <ele>672</ele>
        <time>2014-01-12T11:45:35Z</time>
      </trkpt>
      <trkpt lat="45.65438" lon="4.55216">
        <ele>672</ele>
        <time>2014-01-12T11:45:38Z</time>
      </trkpt>
      <trkpt lat="45.65444" lon="4.55217">
        <ele>672</ele>
        <time>2014-01-12T11:45:41Z</time>
      </trkpt>
      <trkpt lat="45.65451" lon="4.55218">
        <ele>672</ele>
        <time>2014-01-12T11:45:44Z</time>
      </trkpt>
      <trkpt lat="45.65457" lon="4.55218">
        <ele>672</ele>
        <time>2014-01-12T11:45:47Z</time>
      </trkpt>
      <trkpt lat="45.65464" lon="4.55219">
        <ele>672</ele>
        <time>2014-01-12T11:45:50Z</time>
      </trkpt>
      <trkpt lat="45.65471" lon="4.55219">
        <ele>672</ele>
        <time>2014-01-12T11:45:53Z</time>
      </trkpt>
      <trkpt lat="45.65477" lon="4.5522">
        <ele>672</ele>
        <time>2014-01-12T11:45:56Z</time>
      </trkpt>
      <trkpt lat="45.65484" lon="4.55221">
        <ele>672</ele>
        <time>2014-01-12T11:45:59Z</time>
      </trkpt>
      <trkpt lat="45.6549" lon="4.55223">
        <ele>672</ele>
        <time>2014-01-12T11:46:02Z</time>
      </trkpt>
      <trkpt lat="45.65496" lon="4.55225">
        <ele>672</ele>
        <time>2014-01-12T11:46:05Z</time>
      </trkpt>
      <trkpt lat="45.65502" lon="4.55227">
        <ele>672</ele>
        <time>2014-01-12T11:46:08Z</time>
      </trkpt>
      <trkpt lat="45.65509" lon="4.55229">
        <ele>673</ele>
        <time>2014-01-12T11:46:11Z</time>
      </trkpt>
      <trkpt lat="45.65515" lon="4.55231">
        <ele>673</ele>
        <time>2014-01-12T11:46:14Z</time>
      </trkpt>
      <trkpt lat="45.6552" lon="4.55235">
        <ele>674</ele>
        <time>2014-01-12T11:46:17Z</time>
      </trkpt>
      <trkpt lat="45.65526" lon="4.55237">
        <ele>674</ele>
        <time>2014-01-12T11:46:20Z</time>
      </trkpt>
      <trkpt lat="45.65533" lon="4.55239">
        <ele>675</ele>
        <time>2014-01-12T11:46:23Z</time>
      </trkpt>
      <trkpt lat="45.65538" lon="4.55241">
        <ele>675</ele>
        <time>2014-01-12T11:46:26Z</time>
      </trkpt>
      <trkpt lat="45.65544" lon="4.55244">
        <ele>675</ele>
        <time>2014-01-12T11:46:29Z</time>
      </trkpt>
      <trkpt lat="45.65551" lon="4.55247">
        <ele>675</ele>
        <time>2014-01-12T11:46:32Z</time>
      </trkpt>
      <trkpt lat="45.65561" lon="4.55249">
        <ele>675</ele>
        <time>2014-01-12T11:46:36Z</time>
      </trkpt>
      <trkpt lat="45.65566" lon="4.55252">
        <ele>675</ele>
        <time>2014-01-12T11:46:39Z</time>
      </trkpt>
      <trkpt lat="45.65571" lon="4.55255">
        <ele>675</ele>
        <time>2014-01-12T11:46:42Z</time>
      </trkpt>
      <trkpt lat="45.65576" lon="4.5526">
        <ele>675</ele>
        <time>2014-01-12T11:46:45Z</time>
      </trkpt>
      <trkpt lat="45.6558" lon="4.55266">
        <ele>675</ele>
        <time>2014-01-12T11:46:48Z</time>
      </trkpt>
      <trkpt lat="45.65585" lon="4.55272">
        <ele>675</ele>
        <time>2014-01-12T11:46:51Z</time>
      </trkpt>
      <trkpt lat="45.6559" lon="4.55279">
        <ele>675</ele>
        <time>2014-01-12T11:46:54Z</time>
      </trkpt>
      <trkpt lat="45.65594" lon="4.55285">
        <ele>675</ele>
        <time>2014-01-12T11:46:57Z</time>
      </trkpt>
      <trkpt lat="45.65599" lon="4.55292">
        <ele>675</ele>
        <time>2014-01-12T11:47:00Z</time>
      </trkpt>
      <trkpt lat="45.65603" lon="4.55298">
        <ele>675</ele>
        <time>2014-01-12T11:47:03Z</time>
      </trkpt>
      <trkpt lat="45.65607" lon="4.55305">
        <ele>675</ele>
        <time>2014-01-12T11:47:06Z</time>
      </trkpt>
      <trkpt lat="45.65611" lon="4.55311">
        <ele>675</ele>
        <time>2014-01-12T11:47:09Z</time>
      </trkpt>
      <trkpt lat="45.65616" lon="4.55317">
        <ele>675</ele>
        <time>2014-01-12T11:47:12Z</time>
      </trkpt>
      <trkpt lat="45.6562" lon="4.55324">
        <ele>675</ele>
        <time>2014-01-12T11:47:15Z</time>
      </trkpt>
      <trkpt lat="45.65625" lon="4.55331">
        <ele>675</ele>
        <time>2014-01-12T11:47:18Z</time>
      </trkpt>
      <trkpt lat="45.65629" lon="4.55337">
        <ele>675</ele>
        <time>2014-01-12T11:47:21Z</time>
      </trkpt>
      <trkpt lat="45.65633" lon="4.55345">
        <ele>675</ele>
        <time>2014-01-12T11:47:24Z</time>
      </trkpt>
      <trkpt lat="45.65637" lon="4.55351">
        <ele>675</ele>
        <time>2014-01-12T11:47:27Z</time>
      </trkpt>
      <trkpt lat="45.65641" lon="4.55358">
        <ele>675</ele>
        <time>2014-01-12T11:47:30Z</time>
      </trkpt>
      <trkpt lat="45.65646" lon="4.55366">
        <ele>675</ele>
        <time>2014-01-12T11:47:33Z</time>
      </trkpt>
      <trkpt lat="45.65651" lon="4.55372">
        <ele>675</ele>
        <time>2014-01-12T11:47:36Z</time>
      </trkpt>
      <trkpt lat="45.65654" lon="4.5538">
        <ele>675</ele>
        <time>2014-01-12T11:47:39Z</time>
      </trkpt>
      <trkpt lat="45.65657" lon="4.55388">
        <ele>675</ele>
        <time>2014-01-12T11:47:42Z</time>
      </trkpt>
      <trkpt lat="45.65659" lon="4.55397">
        <ele>675</ele>
        <time>2014-01-12T11:47:45Z</time>
      </trkpt>
      <trkpt lat="45.65663" lon="4.55406">
        <ele>675</ele>
        <time>2014-01-12T11:47:48Z</time>
      </trkpt>
      <trkpt lat="45.65665" lon="4.55416">
        <ele>675</ele>
        <time>2014-01-12T11:47:51Z</time>
      </trkpt>
      <trkpt lat="45.65669" lon="4.55426">
        <ele>675</ele>
        <time>2014-01-12T11:47:54Z</time>
      </trkpt>
      <trkpt lat="45.65676" lon="4.55437">
        <ele>675</ele>
        <time>2014-01-12T11:47:58Z</time>
      </trkpt>
      <trkpt lat="45.65684" lon="4.55443">
        <ele>675</ele>
        <time>2014-01-12T11:48:01Z</time>
      </trkpt>
      <trkpt lat="45.6569" lon="4.5545">
        <ele>675</ele>
        <time>2014-01-12T11:48:04Z</time>
      </trkpt>
      <trkpt lat="45.65693" lon="4.55458">
        <ele>675</ele>
        <time>2014-01-12T11:48:07Z</time>
      </trkpt>
      <trkpt lat="45.65696" lon="4.55465">
        <ele>675</ele>
        <time>2014-01-12T11:48:10Z</time>
      </trkpt>
      <trkpt lat="45.657" lon="4.55473">
        <ele>675</ele>
        <time>2014-01-12T11:48:13Z</time>
      </trkpt>
      <trkpt lat="45.65704" lon="4.55481">
        <ele>675</ele>
        <time>2014-01-12T11:48:16Z</time>
      </trkpt>
      <trkpt lat="45.65708" lon="4.55488">
        <ele>675</ele>
        <time>2014-01-12T11:48:19Z</time>
      </trkpt>
      <trkpt lat="45.65713" lon="4.55494">
        <ele>675</ele>
        <time>2014-01-12T11:48:22Z</time>
      </trkpt>
      <trkpt lat="45.65718" lon="4.55499">
        <ele>675</ele>
        <time>2014-01-12T11:48:25Z</time>
      </trkpt>
      <trkpt lat="45.65724" lon="4.55501">
        <ele>675</ele>
        <time>2014-01-12T11:48:28Z</time>
      </trkpt>
      <trkpt lat="45.65731" lon="4.55502">
        <ele>675</ele>
        <time>2014-01-12T11:48:31Z</time>
      </trkpt>
      <trkpt lat="45.65738" lon="4.55502">
        <ele>675</ele>
        <time>2014-01-12T11:48:34Z</time>
      </trkpt>
      <trkpt lat="45.65745" lon="4.555">
        <ele>675</ele>
        <time>2014-01-12T11:48:37Z</time>
      </trkpt>
      <trkpt lat="45.65752" lon="4.55497">
        <ele>675</ele>
        <time>2014-01-12T11:48:40Z</time>
      </trkpt>
      <trkpt lat="45.65758" lon="4.55495">
        <ele>675</ele>
        <time>2014-01-12T11:48:43Z</time>
      </trkpt>
      <trkpt lat="45.65765" lon="4.55493">
        <ele>675</ele>
        <time>2014-01-12T11:48:46Z</time>
      </trkpt>
      <trkpt lat="45.65771" lon="4.55494">
        <ele>675</ele>
        <time>2014-01-12T11:48:49Z</time>
      </trkpt>
      <trkpt lat="45.65774" lon="4.55501">
        <ele>675</ele>
        <time>2014-01-12T11:48:52Z</time>
      </trkpt>
      <trkpt lat="45.65776" lon="4.5551">
        <ele>675</ele>
        <time>2014-01-12T11:48:55Z</time>
      </trkpt>
      <trkpt lat="45.65778" lon="4.5552">
        <ele>675</ele>
        <time>2014-01-12T11:48:58Z</time>
      </trkpt>
      <trkpt lat="45.65777" lon="4.55527">
        <ele>675</ele>
        <time>2014-01-12T11:49:01Z</time>
      </trkpt>
      <trkpt lat="45.6577" lon="4.55527">
        <ele>675</ele>
        <time>2014-01-12T11:49:04Z</time>
      </trkpt>
      <trkpt lat="45.65762" lon="4.55525">
        <ele>675</ele>
        <time>2014-01-12T11:49:07Z</time>
      </trkpt>
      <trkpt lat="45.65755" lon="4.55523">
        <ele>675</ele>
        <time>2014-01-12T11:49:10Z</time>
      </trkpt>
      <trkpt lat="45.65755" lon="4.55523">
        <ele>675</ele>
        <time>2014-01-12T11:49:10Z</time>
      </trkpt>
    </trkseg>
  </trk>
</gpx>